<?xml version="1.0" encoding="UTF-8" standalone="no" ?>
<gpx xmlns="http://www.topografix.com/GPX/1/1" xmlns:xsi="http://www.w3.org/2001/XMLSchema-instance" xsi:schemaLocation="http://www.topografix.com/GPX/1/1 http://www.topografix.com/GPX/1/1/gpx.xsd" version="1.1" creator="VisuGPX - https://www.visugpx.com">
  <metadata>
    <name>Gaillon Ailly Ingremare chemin du Hamet Bois Ricard</name>
  </metadata>
  <trk>
    <name><![CDATA[Avec Thierry et Nadhir]]></name>
    <trkseg>
      <trkpt lat="49.14978" lon="1.34903">
        <ele>27.200000762939</ele>
        <time>2021-05-08T06:36:23.000Z</time>
      </trkpt>
      <trkpt lat="49.14988" lon="1.34898">
        <ele>27.200000762939</ele>
        <time>2021-05-08T06:36:26.000Z</time>
      </trkpt>
      <trkpt lat="49.14988" lon="1.3489">
        <ele>27.39999961853</ele>
        <time>2021-05-08T06:36:28.000Z</time>
      </trkpt>
      <trkpt lat="49.14985" lon="1.34874">
        <ele>27.200000762939</ele>
        <time>2021-05-08T06:36:31.000Z</time>
      </trkpt>
      <trkpt lat="49.14984" lon="1.34869">
        <ele>27.200000762939</ele>
        <time>2021-05-08T06:36:32.000Z</time>
      </trkpt>
      <trkpt lat="49.14978" lon="1.34837">
        <ele>27.200000762939</ele>
        <time>2021-05-08T06:36:38.000Z</time>
      </trkpt>
      <trkpt lat="49.14979" lon="1.34799">
        <ele>27.60000038147</ele>
        <time>2021-05-08T06:36:45.000Z</time>
      </trkpt>
      <trkpt lat="49.1498" lon="1.34794">
        <ele>28</ele>
        <time>2021-05-08T06:36:46.000Z</time>
      </trkpt>
      <trkpt lat="49.14986" lon="1.34781">
        <ele>28.39999961853</ele>
        <time>2021-05-08T06:36:49.000Z</time>
      </trkpt>
      <trkpt lat="49.15008" lon="1.34752">
        <ele>29</ele>
        <time>2021-05-08T06:36:56.000Z</time>
      </trkpt>
      <trkpt lat="49.15011" lon="1.34748">
        <ele>29</ele>
        <time>2021-05-08T06:36:57.000Z</time>
      </trkpt>
      <trkpt lat="49.15042" lon="1.34706">
        <ele>29</ele>
        <time>2021-05-08T06:37:06.000Z</time>
      </trkpt>
      <trkpt lat="49.15071" lon="1.34668">
        <ele>27.799999237061</ele>
        <time>2021-05-08T06:37:14.000Z</time>
      </trkpt>
      <trkpt lat="49.15078" lon="1.34658">
        <ele>27.60000038147</ele>
        <time>2021-05-08T06:37:16.000Z</time>
      </trkpt>
      <trkpt lat="49.15112" lon="1.34613">
        <ele>26.799999237061</ele>
        <time>2021-05-08T06:37:24.000Z</time>
      </trkpt>
      <trkpt lat="49.15117" lon="1.34607">
        <ele>26.799999237061</ele>
        <time>2021-05-08T06:37:25.000Z</time>
      </trkpt>
      <trkpt lat="49.15149" lon="1.34564">
        <ele>25.39999961853</ele>
        <time>2021-05-08T06:37:32.000Z</time>
      </trkpt>
      <trkpt lat="49.15161" lon="1.34547">
        <ele>24.39999961853</ele>
        <time>2021-05-08T06:37:35.000Z</time>
      </trkpt>
      <trkpt lat="49.15187" lon="1.34507">
        <ele>23.39999961853</ele>
        <time>2021-05-08T06:37:41.000Z</time>
      </trkpt>
      <trkpt lat="49.15192" lon="1.34501">
        <ele>23.200000762939</ele>
        <time>2021-05-08T06:37:42.000Z</time>
      </trkpt>
      <trkpt lat="49.15212" lon="1.34478">
        <ele>22.200000762939</ele>
        <time>2021-05-08T06:37:46.000Z</time>
      </trkpt>
      <trkpt lat="49.15218" lon="1.34471">
        <ele>21.60000038147</ele>
        <time>2021-05-08T06:37:47.000Z</time>
      </trkpt>
      <trkpt lat="49.15227" lon="1.34457">
        <ele>20.799999237061</ele>
        <time>2021-05-08T06:37:49.000Z</time>
      </trkpt>
      <trkpt lat="49.15234" lon="1.34445">
        <ele>19.60000038147</ele>
        <time>2021-05-08T06:37:51.000Z</time>
      </trkpt>
      <trkpt lat="49.15237" lon="1.34437">
        <ele>19.39999961853</ele>
        <time>2021-05-08T06:37:52.000Z</time>
      </trkpt>
      <trkpt lat="49.15238" lon="1.34429">
        <ele>19</ele>
        <time>2021-05-08T06:37:53.000Z</time>
      </trkpt>
      <trkpt lat="49.1525" lon="1.34404">
        <ele>19</ele>
        <time>2021-05-08T06:37:57.000Z</time>
      </trkpt>
      <trkpt lat="49.15256" lon="1.34383">
        <ele>19.200000762939</ele>
        <time>2021-05-08T06:38:01.000Z</time>
      </trkpt>
      <trkpt lat="49.15248" lon="1.34368">
        <ele>20.60000038147</ele>
        <time>2021-05-08T06:38:05.000Z</time>
      </trkpt>
      <trkpt lat="49.15236" lon="1.34356">
        <ele>21.799999237061</ele>
        <time>2021-05-08T06:38:09.000Z</time>
      </trkpt>
      <trkpt lat="49.15228" lon="1.34348">
        <ele>22</ele>
        <time>2021-05-08T06:38:12.000Z</time>
      </trkpt>
      <trkpt lat="49.15223" lon="1.34338">
        <ele>22.200000762939</ele>
        <time>2021-05-08T06:38:15.000Z</time>
      </trkpt>
      <trkpt lat="49.15222" lon="1.34334">
        <ele>22.200000762939</ele>
        <time>2021-05-08T06:38:16.000Z</time>
      </trkpt>
      <trkpt lat="49.15222" lon="1.34314">
        <ele>22.39999961853</ele>
        <time>2021-05-08T06:38:20.000Z</time>
      </trkpt>
      <trkpt lat="49.15222" lon="1.34309">
        <ele>22.799999237061</ele>
        <time>2021-05-08T06:38:21.000Z</time>
      </trkpt>
      <trkpt lat="49.15222" lon="1.34304">
        <ele>22.799999237061</ele>
        <time>2021-05-08T06:38:22.000Z</time>
      </trkpt>
      <trkpt lat="49.15223" lon="1.34266">
        <ele>23.799999237061</ele>
        <time>2021-05-08T06:38:30.000Z</time>
      </trkpt>
      <trkpt lat="49.15227" lon="1.3425">
        <ele>24.200000762939</ele>
        <time>2021-05-08T06:38:34.000Z</time>
      </trkpt>
      <trkpt lat="49.15237" lon="1.34227">
        <ele>25</ele>
        <time>2021-05-08T06:38:40.000Z</time>
      </trkpt>
      <trkpt lat="49.15239" lon="1.34223">
        <ele>25</ele>
        <time>2021-05-08T06:38:41.000Z</time>
      </trkpt>
      <trkpt lat="49.15247" lon="1.34209">
        <ele>25.200000762939</ele>
        <time>2021-05-08T06:38:45.000Z</time>
      </trkpt>
      <trkpt lat="49.15246" lon="1.34203">
        <ele>25.200000762939</ele>
        <time>2021-05-08T06:38:47.000Z</time>
      </trkpt>
      <trkpt lat="49.1524" lon="1.34198">
        <ele>25.39999961853</ele>
        <time>2021-05-08T06:38:50.000Z</time>
      </trkpt>
      <trkpt lat="49.15234" lon="1.34193">
        <ele>25.60000038147</ele>
        <time>2021-05-08T06:38:53.000Z</time>
      </trkpt>
      <trkpt lat="49.15233" lon="1.34191">
        <ele>25.60000038147</ele>
        <time>2021-05-08T06:38:54.000Z</time>
      </trkpt>
      <trkpt lat="49.15234" lon="1.34185">
        <ele>25.799999237061</ele>
        <time>2021-05-08T06:38:56.000Z</time>
      </trkpt>
      <trkpt lat="49.15235" lon="1.34182">
        <ele>25.799999237061</ele>
        <time>2021-05-08T06:38:57.000Z</time>
      </trkpt>
      <trkpt lat="49.1524" lon="1.34165">
        <ele>26.39999961853</ele>
        <time>2021-05-08T06:39:03.000Z</time>
      </trkpt>
      <trkpt lat="49.1524" lon="1.34163">
        <ele>26.60000038147</ele>
        <time>2021-05-08T06:39:04.000Z</time>
      </trkpt>
      <trkpt lat="49.15241" lon="1.3416">
        <ele>26.799999237061</ele>
        <time>2021-05-08T06:39:05.000Z</time>
      </trkpt>
      <trkpt lat="49.15244" lon="1.34145">
        <ele>27.39999961853</ele>
        <time>2021-05-08T06:39:09.000Z</time>
      </trkpt>
      <trkpt lat="49.1525" lon="1.34116">
        <ele>27.799999237061</ele>
        <time>2021-05-08T06:39:17.000Z</time>
      </trkpt>
      <trkpt lat="49.15251" lon="1.34113">
        <ele>27.799999237061</ele>
        <time>2021-05-08T06:39:18.000Z</time>
      </trkpt>
      <trkpt lat="49.15257" lon="1.34091">
        <ele>28.39999961853</ele>
        <time>2021-05-08T06:39:25.000Z</time>
      </trkpt>
      <trkpt lat="49.1526" lon="1.34079">
        <ele>29</ele>
        <time>2021-05-08T06:39:29.000Z</time>
      </trkpt>
      <trkpt lat="49.15262" lon="1.34073">
        <ele>29.39999961853</ele>
        <time>2021-05-08T06:39:31.000Z</time>
      </trkpt>
      <trkpt lat="49.15268" lon="1.34052">
        <ele>30.200000762939</ele>
        <time>2021-05-08T06:39:37.000Z</time>
      </trkpt>
      <trkpt lat="49.15269" lon="1.34049">
        <ele>30.200000762939</ele>
        <time>2021-05-08T06:39:38.000Z</time>
      </trkpt>
      <trkpt lat="49.15276" lon="1.34028">
        <ele>31</ele>
        <time>2021-05-08T06:39:45.000Z</time>
      </trkpt>
      <trkpt lat="49.15276" lon="1.34023">
        <ele>31.200000762939</ele>
        <time>2021-05-08T06:39:47.000Z</time>
      </trkpt>
      <trkpt lat="49.15278" lon="1.34014">
        <ele>31.39999961853</ele>
        <time>2021-05-08T06:39:50.000Z</time>
      </trkpt>
      <trkpt lat="49.15282" lon="1.33994">
        <ele>32.599998474121</ele>
        <time>2021-05-08T06:39:57.000Z</time>
      </trkpt>
      <trkpt lat="49.15286" lon="1.33973">
        <ele>33.599998474121</ele>
        <time>2021-05-08T06:40:03.000Z</time>
      </trkpt>
      <trkpt lat="49.15287" lon="1.3397">
        <ele>33.400001525879</ele>
        <time>2021-05-08T06:40:04.000Z</time>
      </trkpt>
      <trkpt lat="49.15291" lon="1.33953">
        <ele>34.400001525879</ele>
        <time>2021-05-08T06:40:09.000Z</time>
      </trkpt>
      <trkpt lat="49.15292" lon="1.33951">
        <ele>34.599998474121</ele>
        <time>2021-05-08T06:40:10.000Z</time>
      </trkpt>
      <trkpt lat="49.15296" lon="1.33952">
        <ele>35.200000762939</ele>
        <time>2021-05-08T06:40:13.000Z</time>
      </trkpt>
      <trkpt lat="49.15297" lon="1.33953">
        <ele>35.400001525879</ele>
        <time>2021-05-08T06:40:14.000Z</time>
      </trkpt>
      <trkpt lat="49.15297" lon="1.33954">
        <ele>35.599998474121</ele>
        <time>2021-05-08T06:40:15.000Z</time>
      </trkpt>
      <trkpt lat="49.15298" lon="1.33954">
        <ele>35.799999237061</ele>
        <time>2021-05-08T06:40:18.000Z</time>
      </trkpt>
      <trkpt lat="49.15301" lon="1.33954">
        <ele>36</ele>
        <time>2021-05-08T06:40:24.000Z</time>
      </trkpt>
      <trkpt lat="49.1531" lon="1.3396">
        <ele>35.799999237061</ele>
        <time>2021-05-08T06:40:29.000Z</time>
      </trkpt>
      <trkpt lat="49.15326" lon="1.33972">
        <ele>35.599998474121</ele>
        <time>2021-05-08T06:40:35.000Z</time>
      </trkpt>
      <trkpt lat="49.15335" lon="1.3398">
        <ele>35.200000762939</ele>
        <time>2021-05-08T06:40:37.000Z</time>
      </trkpt>
      <trkpt lat="49.15346" lon="1.33988">
        <ele>35</ele>
        <time>2021-05-08T06:40:39.000Z</time>
      </trkpt>
      <trkpt lat="49.1537" lon="1.34011">
        <ele>34.200000762939</ele>
        <time>2021-05-08T06:40:43.000Z</time>
      </trkpt>
      <trkpt lat="49.15377" lon="1.34017">
        <ele>33.799999237061</ele>
        <time>2021-05-08T06:40:44.000Z</time>
      </trkpt>
      <trkpt lat="49.1539" lon="1.3403">
        <ele>32.599998474121</ele>
        <time>2021-05-08T06:40:46.000Z</time>
      </trkpt>
      <trkpt lat="49.15403" lon="1.34043">
        <ele>31.39999961853</ele>
        <time>2021-05-08T06:40:48.000Z</time>
      </trkpt>
      <trkpt lat="49.15408" lon="1.3405">
        <ele>30.799999237061</ele>
        <time>2021-05-08T06:40:49.000Z</time>
      </trkpt>
      <trkpt lat="49.15413" lon="1.34054">
        <ele>30.200000762939</ele>
        <time>2021-05-08T06:40:50.000Z</time>
      </trkpt>
      <trkpt lat="49.15421" lon="1.34055">
        <ele>28.799999237061</ele>
        <time>2021-05-08T06:40:52.000Z</time>
      </trkpt>
      <trkpt lat="49.15427" lon="1.34046">
        <ele>27</ele>
        <time>2021-05-08T06:40:54.000Z</time>
      </trkpt>
      <trkpt lat="49.15429" lon="1.3404">
        <ele>26.39999961853</ele>
        <time>2021-05-08T06:40:55.000Z</time>
      </trkpt>
      <trkpt lat="49.15431" lon="1.34033">
        <ele>26.200000762939</ele>
        <time>2021-05-08T06:40:56.000Z</time>
      </trkpt>
      <trkpt lat="49.15438" lon="1.34014">
        <ele>25.799999237061</ele>
        <time>2021-05-08T06:40:59.000Z</time>
      </trkpt>
      <trkpt lat="49.15446" lon="1.33993">
        <ele>25.60000038147</ele>
        <time>2021-05-08T06:41:02.000Z</time>
      </trkpt>
      <trkpt lat="49.15463" lon="1.33944">
        <ele>25.39999961853</ele>
        <time>2021-05-08T06:41:09.000Z</time>
      </trkpt>
      <trkpt lat="49.15465" lon="1.33937">
        <ele>25.39999961853</ele>
        <time>2021-05-08T06:41:10.000Z</time>
      </trkpt>
      <trkpt lat="49.15475" lon="1.33891">
        <ele>25.200000762939</ele>
        <time>2021-05-08T06:41:16.000Z</time>
      </trkpt>
      <trkpt lat="49.15481" lon="1.33839">
        <ele>24.799999237061</ele>
        <time>2021-05-08T06:41:23.000Z</time>
      </trkpt>
      <trkpt lat="49.15481" lon="1.33833">
        <ele>24.799999237061</ele>
        <time>2021-05-08T06:41:24.000Z</time>
      </trkpt>
      <trkpt lat="49.15479" lon="1.33801">
        <ele>24.799999237061</ele>
        <time>2021-05-08T06:41:29.000Z</time>
      </trkpt>
      <trkpt lat="49.15473" lon="1.33743">
        <ele>25.799999237061</ele>
        <time>2021-05-08T06:41:38.000Z</time>
      </trkpt>
      <trkpt lat="49.15477" lon="1.33725">
        <ele>26.200000762939</ele>
        <time>2021-05-08T06:41:42.000Z</time>
      </trkpt>
      <trkpt lat="49.15489" lon="1.33722">
        <ele>26.799999237061</ele>
        <time>2021-05-08T06:41:46.000Z</time>
      </trkpt>
      <trkpt lat="49.15492" lon="1.33723">
        <ele>27</ele>
        <time>2021-05-08T06:41:47.000Z</time>
      </trkpt>
      <trkpt lat="49.15505" lon="1.3373">
        <ele>28.200000762939</ele>
        <time>2021-05-08T06:41:51.000Z</time>
      </trkpt>
      <trkpt lat="49.15509" lon="1.33731">
        <ele>28.60000038147</ele>
        <time>2021-05-08T06:41:52.000Z</time>
      </trkpt>
      <trkpt lat="49.15516" lon="1.33735">
        <ele>29.200000762939</ele>
        <time>2021-05-08T06:41:54.000Z</time>
      </trkpt>
      <trkpt lat="49.15538" lon="1.33748">
        <ele>30</ele>
        <time>2021-05-08T06:42:00.000Z</time>
      </trkpt>
      <trkpt lat="49.15542" lon="1.3375">
        <ele>30.200000762939</ele>
        <time>2021-05-08T06:42:01.000Z</time>
      </trkpt>
      <trkpt lat="49.15558" lon="1.33758">
        <ele>30.200000762939</ele>
        <time>2021-05-08T06:42:05.000Z</time>
      </trkpt>
      <trkpt lat="49.15566" lon="1.33759">
        <ele>30.200000762939</ele>
        <time>2021-05-08T06:42:07.000Z</time>
      </trkpt>
      <trkpt lat="49.15576" lon="1.33748">
        <ele>30.200000762939</ele>
        <time>2021-05-08T06:42:10.000Z</time>
      </trkpt>
      <trkpt lat="49.15585" lon="1.33733">
        <ele>30</ele>
        <time>2021-05-08T06:42:14.000Z</time>
      </trkpt>
      <trkpt lat="49.15588" lon="1.33732">
        <ele>30</ele>
        <time>2021-05-08T06:42:15.000Z</time>
      </trkpt>
      <trkpt lat="49.15612" lon="1.33735">
        <ele>30</ele>
        <time>2021-05-08T06:42:20.000Z</time>
      </trkpt>
      <trkpt lat="49.15649" lon="1.33736">
        <ele>29.799999237061</ele>
        <time>2021-05-08T06:42:26.000Z</time>
      </trkpt>
      <trkpt lat="49.15669" lon="1.33733">
        <ele>29</ele>
        <time>2021-05-08T06:42:29.000Z</time>
      </trkpt>
      <trkpt lat="49.15698" lon="1.33728">
        <ele>27.799999237061</ele>
        <time>2021-05-08T06:42:33.000Z</time>
      </trkpt>
      <trkpt lat="49.15729" lon="1.33718">
        <ele>26.60000038147</ele>
        <time>2021-05-08T06:42:37.000Z</time>
      </trkpt>
      <trkpt lat="49.15744" lon="1.33712">
        <ele>26</ele>
        <time>2021-05-08T06:42:39.000Z</time>
      </trkpt>
      <trkpt lat="49.15759" lon="1.33706">
        <ele>25.200000762939</ele>
        <time>2021-05-08T06:42:41.000Z</time>
      </trkpt>
      <trkpt lat="49.15777" lon="1.33699">
        <ele>24</ele>
        <time>2021-05-08T06:42:44.000Z</time>
      </trkpt>
      <trkpt lat="49.15783" lon="1.33697">
        <ele>23.799999237061</ele>
        <time>2021-05-08T06:42:45.000Z</time>
      </trkpt>
      <trkpt lat="49.15798" lon="1.33691">
        <ele>22.200000762939</ele>
        <time>2021-05-08T06:42:48.000Z</time>
      </trkpt>
      <trkpt lat="49.15801" lon="1.33689">
        <ele>21.799999237061</ele>
        <time>2021-05-08T06:42:49.000Z</time>
      </trkpt>
      <trkpt lat="49.15804" lon="1.33684">
        <ele>21.200000762939</ele>
        <time>2021-05-08T06:42:50.000Z</time>
      </trkpt>
      <trkpt lat="49.15804" lon="1.33679">
        <ele>21</ele>
        <time>2021-05-08T06:42:51.000Z</time>
      </trkpt>
      <trkpt lat="49.15804" lon="1.33673">
        <ele>21</ele>
        <time>2021-05-08T06:42:52.000Z</time>
      </trkpt>
      <trkpt lat="49.15807" lon="1.33663">
        <ele>20.799999237061</ele>
        <time>2021-05-08T06:42:54.000Z</time>
      </trkpt>
      <trkpt lat="49.1581" lon="1.33658">
        <ele>20.60000038147</ele>
        <time>2021-05-08T06:42:55.000Z</time>
      </trkpt>
      <trkpt lat="49.15827" lon="1.33632">
        <ele>20.200000762939</ele>
        <time>2021-05-08T06:43:00.000Z</time>
      </trkpt>
      <trkpt lat="49.15845" lon="1.336">
        <ele>19.799999237061</ele>
        <time>2021-05-08T06:43:05.000Z</time>
      </trkpt>
      <trkpt lat="49.15855" lon="1.33579">
        <ele>19.60000038147</ele>
        <time>2021-05-08T06:43:08.000Z</time>
      </trkpt>
      <trkpt lat="49.15861" lon="1.33565">
        <ele>19.60000038147</ele>
        <time>2021-05-08T06:43:10.000Z</time>
      </trkpt>
      <trkpt lat="49.15867" lon="1.33541">
        <ele>19.60000038147</ele>
        <time>2021-05-08T06:43:13.000Z</time>
      </trkpt>
      <trkpt lat="49.15876" lon="1.33505">
        <ele>19.200000762939</ele>
        <time>2021-05-08T06:43:18.000Z</time>
      </trkpt>
      <trkpt lat="49.15876" lon="1.33499">
        <ele>19.200000762939</ele>
        <time>2021-05-08T06:43:19.000Z</time>
      </trkpt>
      <trkpt lat="49.15867" lon="1.33485">
        <ele>19.200000762939</ele>
        <time>2021-05-08T06:43:22.000Z</time>
      </trkpt>
      <trkpt lat="49.15846" lon="1.33459">
        <ele>19.39999961853</ele>
        <time>2021-05-08T06:43:29.000Z</time>
      </trkpt>
      <trkpt lat="49.15821" lon="1.33428">
        <ele>21</ele>
        <time>2021-05-08T06:43:37.000Z</time>
      </trkpt>
      <trkpt lat="49.15818" lon="1.33424">
        <ele>21.200000762939</ele>
        <time>2021-05-08T06:43:38.000Z</time>
      </trkpt>
      <trkpt lat="49.15815" lon="1.33421">
        <ele>21.39999961853</ele>
        <time>2021-05-08T06:43:39.000Z</time>
      </trkpt>
      <trkpt lat="49.15803" lon="1.33407">
        <ele>22</ele>
        <time>2021-05-08T06:43:43.000Z</time>
      </trkpt>
      <trkpt lat="49.15801" lon="1.33403">
        <ele>22.200000762939</ele>
        <time>2021-05-08T06:43:44.000Z</time>
      </trkpt>
      <trkpt lat="49.15803" lon="1.3339">
        <ele>23</ele>
        <time>2021-05-08T06:43:47.000Z</time>
      </trkpt>
      <trkpt lat="49.15805" lon="1.33387">
        <ele>23.200000762939</ele>
        <time>2021-05-08T06:43:48.000Z</time>
      </trkpt>
      <trkpt lat="49.15819" lon="1.33364">
        <ele>24.39999961853</ele>
        <time>2021-05-08T06:43:54.000Z</time>
      </trkpt>
      <trkpt lat="49.15821" lon="1.3336">
        <ele>24.799999237061</ele>
        <time>2021-05-08T06:43:55.000Z</time>
      </trkpt>
      <trkpt lat="49.15827" lon="1.33348">
        <ele>25.39999961853</ele>
        <time>2021-05-08T06:43:58.000Z</time>
      </trkpt>
      <trkpt lat="49.15834" lon="1.33334">
        <ele>26</ele>
        <time>2021-05-08T06:44:02.000Z</time>
      </trkpt>
      <trkpt lat="49.15838" lon="1.33323">
        <ele>26.60000038147</ele>
        <time>2021-05-08T06:44:06.000Z</time>
      </trkpt>
      <trkpt lat="49.15838" lon="1.33322">
        <ele>26.799999237061</ele>
        <time>2021-05-08T06:44:07.000Z</time>
      </trkpt>
      <trkpt lat="49.15842" lon="1.33311">
        <ele>27.60000038147</ele>
        <time>2021-05-08T06:44:13.000Z</time>
      </trkpt>
      <trkpt lat="49.15843" lon="1.33308">
        <ele>28</ele>
        <time>2021-05-08T06:44:14.000Z</time>
      </trkpt>
      <trkpt lat="49.15847" lon="1.33295">
        <ele>29</ele>
        <time>2021-05-08T06:44:21.000Z</time>
      </trkpt>
      <trkpt lat="49.15847" lon="1.33293">
        <ele>29</ele>
        <time>2021-05-08T06:44:23.000Z</time>
      </trkpt>
      <trkpt lat="49.15848" lon="1.33286">
        <ele>29.200000762939</ele>
        <time>2021-05-08T06:44:26.000Z</time>
      </trkpt>
      <trkpt lat="49.1585" lon="1.3327">
        <ele>29.799999237061</ele>
        <time>2021-05-08T06:44:31.000Z</time>
      </trkpt>
      <trkpt lat="49.15854" lon="1.33248">
        <ele>29.799999237061</ele>
        <time>2021-05-08T06:44:37.000Z</time>
      </trkpt>
      <trkpt lat="49.15855" lon="1.33244">
        <ele>29.799999237061</ele>
        <time>2021-05-08T06:44:38.000Z</time>
      </trkpt>
      <trkpt lat="49.15861" lon="1.33223">
        <ele>30.200000762939</ele>
        <time>2021-05-08T06:44:44.000Z</time>
      </trkpt>
      <trkpt lat="49.15869" lon="1.33189">
        <ele>30.39999961853</ele>
        <time>2021-05-08T06:44:52.000Z</time>
      </trkpt>
      <trkpt lat="49.15876" lon="1.33164">
        <ele>30.39999961853</ele>
        <time>2021-05-08T06:44:57.000Z</time>
      </trkpt>
      <trkpt lat="49.15882" lon="1.33144">
        <ele>30.39999961853</ele>
        <time>2021-05-08T06:45:01.000Z</time>
      </trkpt>
      <trkpt lat="49.15889" lon="1.33134">
        <ele>30.39999961853</ele>
        <time>2021-05-08T06:45:03.000Z</time>
      </trkpt>
      <trkpt lat="49.15895" lon="1.33112">
        <ele>30.200000762939</ele>
        <time>2021-05-08T06:45:06.000Z</time>
      </trkpt>
      <trkpt lat="49.15899" lon="1.33092">
        <ele>30.200000762939</ele>
        <time>2021-05-08T06:45:09.000Z</time>
      </trkpt>
      <trkpt lat="49.15901" lon="1.3308">
        <ele>29.799999237061</ele>
        <time>2021-05-08T06:45:11.000Z</time>
      </trkpt>
      <trkpt lat="49.15905" lon="1.33062">
        <ele>28.60000038147</ele>
        <time>2021-05-08T06:45:14.000Z</time>
      </trkpt>
      <trkpt lat="49.15907" lon="1.33056">
        <ele>28.39999961853</ele>
        <time>2021-05-08T06:45:15.000Z</time>
      </trkpt>
      <trkpt lat="49.15908" lon="1.33049">
        <ele>28.39999961853</ele>
        <time>2021-05-08T06:45:16.000Z</time>
      </trkpt>
      <trkpt lat="49.15917" lon="1.32995">
        <ele>28.200000762939</ele>
        <time>2021-05-08T06:45:25.000Z</time>
      </trkpt>
      <trkpt lat="49.15921" lon="1.32956">
        <ele>28.60000038147</ele>
        <time>2021-05-08T06:45:32.000Z</time>
      </trkpt>
      <trkpt lat="49.15919" lon="1.32953">
        <ele>28.60000038147</ele>
        <time>2021-05-08T06:45:33.000Z</time>
      </trkpt>
      <trkpt lat="49.15915" lon="1.32947">
        <ele>28.799999237061</ele>
        <time>2021-05-08T06:45:35.000Z</time>
      </trkpt>
      <trkpt lat="49.15899" lon="1.32942">
        <ele>29.200000762939</ele>
        <time>2021-05-08T06:45:41.000Z</time>
      </trkpt>
      <trkpt lat="49.15894" lon="1.3294">
        <ele>29.799999237061</ele>
        <time>2021-05-08T06:45:43.000Z</time>
      </trkpt>
      <trkpt lat="49.15878" lon="1.32939">
        <ele>31</ele>
        <time>2021-05-08T06:45:49.000Z</time>
      </trkpt>
      <trkpt lat="49.15864" lon="1.3294">
        <ele>32.200000762939</ele>
        <time>2021-05-08T06:45:55.000Z</time>
      </trkpt>
      <trkpt lat="49.1586" lon="1.32942">
        <ele>32.599998474121</ele>
        <time>2021-05-08T06:45:57.000Z</time>
      </trkpt>
      <trkpt lat="49.15853" lon="1.32946">
        <ele>33.200000762939</ele>
        <time>2021-05-08T06:46:00.000Z</time>
      </trkpt>
      <trkpt lat="49.15846" lon="1.32953">
        <ele>34.400001525879</ele>
        <time>2021-05-08T06:46:04.000Z</time>
      </trkpt>
      <trkpt lat="49.15844" lon="1.32955">
        <ele>34.599998474121</ele>
        <time>2021-05-08T06:46:05.000Z</time>
      </trkpt>
      <trkpt lat="49.15839" lon="1.32961">
        <ele>35.400001525879</ele>
        <time>2021-05-08T06:46:08.000Z</time>
      </trkpt>
      <trkpt lat="49.15833" lon="1.32973">
        <ele>36.599998474121</ele>
        <time>2021-05-08T06:46:13.000Z</time>
      </trkpt>
      <trkpt lat="49.15823" lon="1.32989">
        <ele>37.400001525879</ele>
        <time>2021-05-08T06:46:20.000Z</time>
      </trkpt>
      <trkpt lat="49.15821" lon="1.32991">
        <ele>37.599998474121</ele>
        <time>2021-05-08T06:46:21.000Z</time>
      </trkpt>
      <trkpt lat="49.15815" lon="1.32999">
        <ele>38.400001525879</ele>
        <time>2021-05-08T06:46:25.000Z</time>
      </trkpt>
      <trkpt lat="49.15807" lon="1.33008">
        <ele>39.599998474121</ele>
        <time>2021-05-08T06:46:30.000Z</time>
      </trkpt>
      <trkpt lat="49.15795" lon="1.33008">
        <ele>41</ele>
        <time>2021-05-08T06:46:36.000Z</time>
      </trkpt>
      <trkpt lat="49.15793" lon="1.33007">
        <ele>41.200000762939</ele>
        <time>2021-05-08T06:46:37.000Z</time>
      </trkpt>
      <trkpt lat="49.15788" lon="1.33005">
        <ele>42</ele>
        <time>2021-05-08T06:46:40.000Z</time>
      </trkpt>
      <trkpt lat="49.15783" lon="1.33002">
        <ele>42.799999237061</ele>
        <time>2021-05-08T06:46:44.000Z</time>
      </trkpt>
      <trkpt lat="49.1578" lon="1.33">
        <ele>43</ele>
        <time>2021-05-08T06:46:46.000Z</time>
      </trkpt>
      <trkpt lat="49.15776" lon="1.3299">
        <ele>43.799999237061</ele>
        <time>2021-05-08T06:46:51.000Z</time>
      </trkpt>
      <trkpt lat="49.15775" lon="1.32985">
        <ele>44.200000762939</ele>
        <time>2021-05-08T06:46:53.000Z</time>
      </trkpt>
      <trkpt lat="49.15776" lon="1.32973">
        <ele>45.400001525879</ele>
        <time>2021-05-08T06:46:58.000Z</time>
      </trkpt>
      <trkpt lat="49.15776" lon="1.32964">
        <ele>46.400001525879</ele>
        <time>2021-05-08T06:47:02.000Z</time>
      </trkpt>
      <trkpt lat="49.15774" lon="1.32963">
        <ele>47.400001525879</ele>
        <time>2021-05-08T06:47:05.000Z</time>
      </trkpt>
      <trkpt lat="49.15773" lon="1.32962">
        <ele>47.799999237061</ele>
        <time>2021-05-08T06:47:06.000Z</time>
      </trkpt>
      <trkpt lat="49.15773" lon="1.32962">
        <ele>48.400001525879</ele>
        <time>2021-05-08T06:47:08.000Z</time>
      </trkpt>
      <trkpt lat="49.15771" lon="1.32967">
        <ele>49.599998474121</ele>
        <time>2021-05-08T06:47:38.000Z</time>
      </trkpt>
      <trkpt lat="49.15771" lon="1.32965">
        <ele>49.599998474121</ele>
        <time>2021-05-08T06:47:39.000Z</time>
      </trkpt>
      <trkpt lat="49.15771" lon="1.32964">
        <ele>49.599998474121</ele>
        <time>2021-05-08T06:47:40.000Z</time>
      </trkpt>
      <trkpt lat="49.15769" lon="1.32957">
        <ele>49.599998474121</ele>
        <time>2021-05-08T06:47:46.000Z</time>
      </trkpt>
      <trkpt lat="49.15768" lon="1.32953">
        <ele>49.599998474121</ele>
        <time>2021-05-08T06:47:48.000Z</time>
      </trkpt>
      <trkpt lat="49.15767" lon="1.32945">
        <ele>50.799999237061</ele>
        <time>2021-05-08T06:47:54.000Z</time>
      </trkpt>
      <trkpt lat="49.15767" lon="1.32941">
        <ele>51.799999237061</ele>
        <time>2021-05-08T06:47:57.000Z</time>
      </trkpt>
      <trkpt lat="49.15767" lon="1.32937">
        <ele>52.599998474121</ele>
        <time>2021-05-08T06:47:59.000Z</time>
      </trkpt>
      <trkpt lat="49.15767" lon="1.32936">
        <ele>53</ele>
        <time>2021-05-08T06:48:00.000Z</time>
      </trkpt>
      <trkpt lat="49.15766" lon="1.32933">
        <ele>54</ele>
        <time>2021-05-08T06:48:02.000Z</time>
      </trkpt>
      <trkpt lat="49.15764" lon="1.32927">
        <ele>55</ele>
        <time>2021-05-08T06:48:06.000Z</time>
      </trkpt>
      <trkpt lat="49.15763" lon="1.32927">
        <ele>55.200000762939</ele>
        <time>2021-05-08T06:48:07.000Z</time>
      </trkpt>
      <trkpt lat="49.1576" lon="1.32929">
        <ele>56</ele>
        <time>2021-05-08T06:48:10.000Z</time>
      </trkpt>
      <trkpt lat="49.1576" lon="1.3293">
        <ele>56.200000762939</ele>
        <time>2021-05-08T06:48:11.000Z</time>
      </trkpt>
      <trkpt lat="49.15759" lon="1.32931">
        <ele>56.799999237061</ele>
        <time>2021-05-08T06:48:13.000Z</time>
      </trkpt>
      <trkpt lat="49.15757" lon="1.32935">
        <ele>57.400001525879</ele>
        <time>2021-05-08T06:48:16.000Z</time>
      </trkpt>
      <trkpt lat="49.15754" lon="1.32942">
        <ele>58.200000762939</ele>
        <time>2021-05-08T06:48:20.000Z</time>
      </trkpt>
      <trkpt lat="49.15753" lon="1.32943">
        <ele>58.400001525879</ele>
        <time>2021-05-08T06:48:21.000Z</time>
      </trkpt>
      <trkpt lat="49.15751" lon="1.3295">
        <ele>59.200000762939</ele>
        <time>2021-05-08T06:48:26.000Z</time>
      </trkpt>
      <trkpt lat="49.1575" lon="1.32952">
        <ele>59.400001525879</ele>
        <time>2021-05-08T06:48:27.000Z</time>
      </trkpt>
      <trkpt lat="49.15749" lon="1.32959">
        <ele>60.200000762939</ele>
        <time>2021-05-08T06:48:31.000Z</time>
      </trkpt>
      <trkpt lat="49.15748" lon="1.32963">
        <ele>60.400001525879</ele>
        <time>2021-05-08T06:48:34.000Z</time>
      </trkpt>
      <trkpt lat="49.15747" lon="1.32965">
        <ele>60.599998474121</ele>
        <time>2021-05-08T06:48:37.000Z</time>
      </trkpt>
      <trkpt lat="49.15744" lon="1.32978">
        <ele>60.400001525879</ele>
        <time>2021-05-08T06:49:03.000Z</time>
      </trkpt>
      <trkpt lat="49.15744" lon="1.3298">
        <ele>60.400001525879</ele>
        <time>2021-05-08T06:49:04.000Z</time>
      </trkpt>
      <trkpt lat="49.15741" lon="1.32997">
        <ele>60.200000762939</ele>
        <time>2021-05-08T06:49:12.000Z</time>
      </trkpt>
      <trkpt lat="49.15735" lon="1.33022">
        <ele>60</ele>
        <time>2021-05-08T06:49:20.000Z</time>
      </trkpt>
      <trkpt lat="49.15731" lon="1.33038">
        <ele>60.799999237061</ele>
        <time>2021-05-08T06:49:27.000Z</time>
      </trkpt>
      <trkpt lat="49.15728" lon="1.33043">
        <ele>61.400001525879</ele>
        <time>2021-05-08T06:49:29.000Z</time>
      </trkpt>
      <trkpt lat="49.15724" lon="1.33053">
        <ele>62.599998474121</ele>
        <time>2021-05-08T06:49:33.000Z</time>
      </trkpt>
      <trkpt lat="49.15723" lon="1.33055">
        <ele>63.200000762939</ele>
        <time>2021-05-08T06:49:34.000Z</time>
      </trkpt>
      <trkpt lat="49.15721" lon="1.33059">
        <ele>64</ele>
        <time>2021-05-08T06:49:36.000Z</time>
      </trkpt>
      <trkpt lat="49.15717" lon="1.33068">
        <ele>65.400001525879</ele>
        <time>2021-05-08T06:49:39.000Z</time>
      </trkpt>
      <trkpt lat="49.15712" lon="1.33075">
        <ele>66.599998474121</ele>
        <time>2021-05-08T06:49:42.000Z</time>
      </trkpt>
      <trkpt lat="49.15708" lon="1.33081">
        <ele>67.599998474121</ele>
        <time>2021-05-08T06:49:45.000Z</time>
      </trkpt>
      <trkpt lat="49.15704" lon="1.33086">
        <ele>68.800003051758</ele>
        <time>2021-05-08T06:49:48.000Z</time>
      </trkpt>
      <trkpt lat="49.157" lon="1.33089">
        <ele>69.599998474121</ele>
        <time>2021-05-08T06:49:51.000Z</time>
      </trkpt>
      <trkpt lat="49.15697" lon="1.33091">
        <ele>70</ele>
        <time>2021-05-08T06:49:52.000Z</time>
      </trkpt>
      <trkpt lat="49.15697" lon="1.3309">
        <ele>70.400001525879</ele>
        <time>2021-05-08T06:49:53.000Z</time>
      </trkpt>
      <trkpt lat="49.15696" lon="1.33088">
        <ele>71.199996948242</ele>
        <time>2021-05-08T06:49:55.000Z</time>
      </trkpt>
      <trkpt lat="49.15695" lon="1.33088">
        <ele>71.599998474121</ele>
        <time>2021-05-08T06:49:56.000Z</time>
      </trkpt>
      <trkpt lat="49.1569" lon="1.33089">
        <ele>72.400001525879</ele>
        <time>2021-05-08T06:49:59.000Z</time>
      </trkpt>
      <trkpt lat="49.15687" lon="1.33088">
        <ele>73</ele>
        <time>2021-05-08T06:50:01.000Z</time>
      </trkpt>
      <trkpt lat="49.15682" lon="1.33088">
        <ele>73.599998474121</ele>
        <time>2021-05-08T06:50:04.000Z</time>
      </trkpt>
      <trkpt lat="49.15675" lon="1.33091">
        <ele>74.599998474121</ele>
        <time>2021-05-08T06:50:08.000Z</time>
      </trkpt>
      <trkpt lat="49.15674" lon="1.33093">
        <ele>74.800003051758</ele>
        <time>2021-05-08T06:50:09.000Z</time>
      </trkpt>
      <trkpt lat="49.15665" lon="1.33102">
        <ele>76</ele>
        <time>2021-05-08T06:50:14.000Z</time>
      </trkpt>
      <trkpt lat="49.15662" lon="1.33105">
        <ele>76.599998474121</ele>
        <time>2021-05-08T06:50:16.000Z</time>
      </trkpt>
      <trkpt lat="49.15657" lon="1.33109">
        <ele>77.199996948242</ele>
        <time>2021-05-08T06:50:18.000Z</time>
      </trkpt>
      <trkpt lat="49.15651" lon="1.33111">
        <ele>78</ele>
        <time>2021-05-08T06:50:22.000Z</time>
      </trkpt>
      <trkpt lat="49.15649" lon="1.33112">
        <ele>78.199996948242</ele>
        <time>2021-05-08T06:50:23.000Z</time>
      </trkpt>
      <trkpt lat="49.15635" lon="1.33119">
        <ele>78.599998474121</ele>
        <time>2021-05-08T06:50:29.000Z</time>
      </trkpt>
      <trkpt lat="49.15624" lon="1.33124">
        <ele>79.199996948242</ele>
        <time>2021-05-08T06:50:34.000Z</time>
      </trkpt>
      <trkpt lat="49.15617" lon="1.33126">
        <ele>79.599998474121</ele>
        <time>2021-05-08T06:50:37.000Z</time>
      </trkpt>
      <trkpt lat="49.15601" lon="1.33121">
        <ele>79.800003051758</ele>
        <time>2021-05-08T06:50:44.000Z</time>
      </trkpt>
      <trkpt lat="49.156" lon="1.33119">
        <ele>79.800003051758</ele>
        <time>2021-05-08T06:50:45.000Z</time>
      </trkpt>
      <trkpt lat="49.15593" lon="1.33099">
        <ele>80</ele>
        <time>2021-05-08T06:50:52.000Z</time>
      </trkpt>
      <trkpt lat="49.15587" lon="1.33095">
        <ele>80.199996948242</ele>
        <time>2021-05-08T06:50:56.000Z</time>
      </trkpt>
      <trkpt lat="49.15583" lon="1.33096">
        <ele>80.400001525879</ele>
        <time>2021-05-08T06:50:58.000Z</time>
      </trkpt>
      <trkpt lat="49.15572" lon="1.33092">
        <ele>81.199996948242</ele>
        <time>2021-05-08T06:51:03.000Z</time>
      </trkpt>
      <trkpt lat="49.15569" lon="1.33079">
        <ele>81.400001525879</ele>
        <time>2021-05-08T06:51:07.000Z</time>
      </trkpt>
      <trkpt lat="49.15568" lon="1.33076">
        <ele>81.400001525879</ele>
        <time>2021-05-08T06:51:08.000Z</time>
      </trkpt>
      <trkpt lat="49.15567" lon="1.33053">
        <ele>81.800003051758</ele>
        <time>2021-05-08T06:51:15.000Z</time>
      </trkpt>
      <trkpt lat="49.15571" lon="1.33032">
        <ele>82.400001525879</ele>
        <time>2021-05-08T06:51:21.000Z</time>
      </trkpt>
      <trkpt lat="49.15573" lon="1.33026">
        <ele>82.800003051758</ele>
        <time>2021-05-08T06:51:23.000Z</time>
      </trkpt>
      <trkpt lat="49.15579" lon="1.33015">
        <ele>83.400001525879</ele>
        <time>2021-05-08T06:51:27.000Z</time>
      </trkpt>
      <trkpt lat="49.15584" lon="1.33008">
        <ele>83.800003051758</ele>
        <time>2021-05-08T06:51:30.000Z</time>
      </trkpt>
      <trkpt lat="49.15601" lon="1.32994">
        <ele>84.400001525879</ele>
        <time>2021-05-08T06:51:37.000Z</time>
      </trkpt>
      <trkpt lat="49.15604" lon="1.32994">
        <ele>84.599998474121</ele>
        <time>2021-05-08T06:51:38.000Z</time>
      </trkpt>
      <trkpt lat="49.15617" lon="1.32992">
        <ele>85</ele>
        <time>2021-05-08T06:51:42.000Z</time>
      </trkpt>
      <trkpt lat="49.1562" lon="1.32978">
        <ele>85</ele>
        <time>2021-05-08T06:51:45.000Z</time>
      </trkpt>
      <trkpt lat="49.1562" lon="1.32955">
        <ele>85.199996948242</ele>
        <time>2021-05-08T06:51:49.000Z</time>
      </trkpt>
      <trkpt lat="49.1562" lon="1.32949">
        <ele>85.199996948242</ele>
        <time>2021-05-08T06:51:50.000Z</time>
      </trkpt>
      <trkpt lat="49.15624" lon="1.32913">
        <ele>85</ele>
        <time>2021-05-08T06:51:57.000Z</time>
      </trkpt>
      <trkpt lat="49.15626" lon="1.32891">
        <ele>84.800003051758</ele>
        <time>2021-05-08T06:52:02.000Z</time>
      </trkpt>
      <trkpt lat="49.15625" lon="1.32885">
        <ele>84.599998474121</ele>
        <time>2021-05-08T06:52:04.000Z</time>
      </trkpt>
      <trkpt lat="49.15624" lon="1.32884">
        <ele>84.599998474121</ele>
        <time>2021-05-08T06:52:06.000Z</time>
      </trkpt>
      <trkpt lat="49.15624" lon="1.32884">
        <ele>84.599998474121</ele>
        <time>2021-05-08T06:52:08.000Z</time>
      </trkpt>
      <trkpt lat="49.15624" lon="1.3288">
        <ele>85.199996948242</ele>
        <time>2021-05-08T06:53:24.000Z</time>
      </trkpt>
      <trkpt lat="49.15624" lon="1.32877">
        <ele>85.199996948242</ele>
        <time>2021-05-08T06:53:25.000Z</time>
      </trkpt>
      <trkpt lat="49.15628" lon="1.32853">
        <ele>85.199996948242</ele>
        <time>2021-05-08T06:53:31.000Z</time>
      </trkpt>
      <trkpt lat="49.15634" lon="1.32807">
        <ele>84.400001525879</ele>
        <time>2021-05-08T06:53:39.000Z</time>
      </trkpt>
      <trkpt lat="49.15637" lon="1.32796">
        <ele>84.199996948242</ele>
        <time>2021-05-08T06:53:41.000Z</time>
      </trkpt>
      <trkpt lat="49.15642" lon="1.32788">
        <ele>83.800003051758</ele>
        <time>2021-05-08T06:53:43.000Z</time>
      </trkpt>
      <trkpt lat="49.15649" lon="1.32764">
        <ele>83.599998474121</ele>
        <time>2021-05-08T06:53:47.000Z</time>
      </trkpt>
      <trkpt lat="49.15646" lon="1.32745">
        <ele>83.599998474121</ele>
        <time>2021-05-08T06:53:51.000Z</time>
      </trkpt>
      <trkpt lat="49.15635" lon="1.32717">
        <ele>83.800003051758</ele>
        <time>2021-05-08T06:53:59.000Z</time>
      </trkpt>
      <trkpt lat="49.15629" lon="1.32689">
        <ele>85.400001525879</ele>
        <time>2021-05-08T06:54:06.000Z</time>
      </trkpt>
      <trkpt lat="49.15626" lon="1.32677">
        <ele>86.199996948242</ele>
        <time>2021-05-08T06:54:09.000Z</time>
      </trkpt>
      <trkpt lat="49.15626" lon="1.32673">
        <ele>86.599998474121</ele>
        <time>2021-05-08T06:54:10.000Z</time>
      </trkpt>
      <trkpt lat="49.15623" lon="1.3266">
        <ele>87.599998474121</ele>
        <time>2021-05-08T06:54:13.000Z</time>
      </trkpt>
      <trkpt lat="49.15622" lon="1.32652">
        <ele>88</ele>
        <time>2021-05-08T06:54:15.000Z</time>
      </trkpt>
      <trkpt lat="49.15617" lon="1.32632">
        <ele>88.800003051758</ele>
        <time>2021-05-08T06:54:20.000Z</time>
      </trkpt>
      <trkpt lat="49.15613" lon="1.32616">
        <ele>89.800003051758</ele>
        <time>2021-05-08T06:54:24.000Z</time>
      </trkpt>
      <trkpt lat="49.15608" lon="1.32606">
        <ele>90.400001525879</ele>
        <time>2021-05-08T06:54:27.000Z</time>
      </trkpt>
      <trkpt lat="49.15603" lon="1.32601">
        <ele>90.800003051758</ele>
        <time>2021-05-08T06:54:29.000Z</time>
      </trkpt>
      <trkpt lat="49.15591" lon="1.32593">
        <ele>91.599998474121</ele>
        <time>2021-05-08T06:54:34.000Z</time>
      </trkpt>
      <trkpt lat="49.15588" lon="1.32591">
        <ele>91.800003051758</ele>
        <time>2021-05-08T06:54:35.000Z</time>
      </trkpt>
      <trkpt lat="49.15576" lon="1.32582">
        <ele>93.199996948242</ele>
        <time>2021-05-08T06:54:40.000Z</time>
      </trkpt>
      <trkpt lat="49.15574" lon="1.3258">
        <ele>93.199996948242</ele>
        <time>2021-05-08T06:54:41.000Z</time>
      </trkpt>
      <trkpt lat="49.15564" lon="1.32574">
        <ele>94.199996948242</ele>
        <time>2021-05-08T06:54:45.000Z</time>
      </trkpt>
      <trkpt lat="49.15557" lon="1.32564">
        <ele>94.800003051758</ele>
        <time>2021-05-08T06:54:49.000Z</time>
      </trkpt>
      <trkpt lat="49.15548" lon="1.32545">
        <ele>95.400001525879</ele>
        <time>2021-05-08T06:54:55.000Z</time>
      </trkpt>
      <trkpt lat="49.15548" lon="1.32542">
        <ele>95.599998474121</ele>
        <time>2021-05-08T06:54:56.000Z</time>
      </trkpt>
      <trkpt lat="49.15549" lon="1.32523">
        <ele>96.599998474121</ele>
        <time>2021-05-08T06:55:01.000Z</time>
      </trkpt>
      <trkpt lat="49.1555" lon="1.3252">
        <ele>96.800003051758</ele>
        <time>2021-05-08T06:55:02.000Z</time>
      </trkpt>
      <trkpt lat="49.15553" lon="1.32509">
        <ele>97.599998474121</ele>
        <time>2021-05-08T06:55:05.000Z</time>
      </trkpt>
      <trkpt lat="49.15558" lon="1.32495">
        <ele>98.800003051758</ele>
        <time>2021-05-08T06:55:09.000Z</time>
      </trkpt>
      <trkpt lat="49.15558" lon="1.32491">
        <ele>99</ele>
        <time>2021-05-08T06:55:10.000Z</time>
      </trkpt>
      <trkpt lat="49.15555" lon="1.32473">
        <ele>99.599998474121</ele>
        <time>2021-05-08T06:55:15.000Z</time>
      </trkpt>
      <trkpt lat="49.15554" lon="1.3247">
        <ele>99.800003051758</ele>
        <time>2021-05-08T06:55:16.000Z</time>
      </trkpt>
      <trkpt lat="49.15548" lon="1.32457">
        <ele>100.40000152588</ele>
        <time>2021-05-08T06:55:20.000Z</time>
      </trkpt>
      <trkpt lat="49.15544" lon="1.32451">
        <ele>101</ele>
        <time>2021-05-08T06:55:22.000Z</time>
      </trkpt>
      <trkpt lat="49.15535" lon="1.3243">
        <ele>101.80000305176</ele>
        <time>2021-05-08T06:55:28.000Z</time>
      </trkpt>
      <trkpt lat="49.15528" lon="1.32415">
        <ele>102</ele>
        <time>2021-05-08T06:55:32.000Z</time>
      </trkpt>
      <trkpt lat="49.1552" lon="1.32397">
        <ele>102.40000152588</ele>
        <time>2021-05-08T06:55:37.000Z</time>
      </trkpt>
      <trkpt lat="49.15506" lon="1.32371">
        <ele>102.59999847412</ele>
        <time>2021-05-08T06:55:44.000Z</time>
      </trkpt>
      <trkpt lat="49.15502" lon="1.32364">
        <ele>103</ele>
        <time>2021-05-08T06:55:46.000Z</time>
      </trkpt>
      <trkpt lat="49.15487" lon="1.32338">
        <ele>104.19999694824</ele>
        <time>2021-05-08T06:55:53.000Z</time>
      </trkpt>
      <trkpt lat="49.15471" lon="1.32315">
        <ele>105</ele>
        <time>2021-05-08T06:56:00.000Z</time>
      </trkpt>
      <trkpt lat="49.15458" lon="1.32296">
        <ele>105.19999694824</ele>
        <time>2021-05-08T06:56:06.000Z</time>
      </trkpt>
      <trkpt lat="49.15448" lon="1.32281">
        <ele>106.19999694824</ele>
        <time>2021-05-08T06:56:11.000Z</time>
      </trkpt>
      <trkpt lat="49.15441" lon="1.32271">
        <ele>107</ele>
        <time>2021-05-08T06:56:14.000Z</time>
      </trkpt>
      <trkpt lat="49.15435" lon="1.32262">
        <ele>107.40000152588</ele>
        <time>2021-05-08T06:56:17.000Z</time>
      </trkpt>
      <trkpt lat="49.15431" lon="1.32255">
        <ele>107.40000152588</ele>
        <time>2021-05-08T06:56:19.000Z</time>
      </trkpt>
      <trkpt lat="49.15418" lon="1.32234">
        <ele>107.59999847412</ele>
        <time>2021-05-08T06:56:25.000Z</time>
      </trkpt>
      <trkpt lat="49.15409" lon="1.32215">
        <ele>108</ele>
        <time>2021-05-08T06:56:30.000Z</time>
      </trkpt>
      <trkpt lat="49.15406" lon="1.32208">
        <ele>108.40000152588</ele>
        <time>2021-05-08T06:56:32.000Z</time>
      </trkpt>
      <trkpt lat="49.154" lon="1.32193">
        <ele>109.40000152588</ele>
        <time>2021-05-08T06:56:36.000Z</time>
      </trkpt>
      <trkpt lat="49.15397" lon="1.32187">
        <ele>109.59999847412</ele>
        <time>2021-05-08T06:56:38.000Z</time>
      </trkpt>
      <trkpt lat="49.15391" lon="1.32172">
        <ele>110.19999694824</ele>
        <time>2021-05-08T06:56:42.000Z</time>
      </trkpt>
      <trkpt lat="49.15382" lon="1.32155">
        <ele>111.19999694824</ele>
        <time>2021-05-08T06:56:46.000Z</time>
      </trkpt>
      <trkpt lat="49.1538" lon="1.32151">
        <ele>111.40000152588</ele>
        <time>2021-05-08T06:56:47.000Z</time>
      </trkpt>
      <trkpt lat="49.15367" lon="1.32128">
        <ele>112.40000152588</ele>
        <time>2021-05-08T06:56:53.000Z</time>
      </trkpt>
      <trkpt lat="49.15365" lon="1.32124">
        <ele>112.59999847412</ele>
        <time>2021-05-08T06:56:54.000Z</time>
      </trkpt>
      <trkpt lat="49.15354" lon="1.32101">
        <ele>113.40000152588</ele>
        <time>2021-05-08T06:57:00.000Z</time>
      </trkpt>
      <trkpt lat="49.15352" lon="1.32097">
        <ele>113.40000152588</ele>
        <time>2021-05-08T06:57:01.000Z</time>
      </trkpt>
      <trkpt lat="49.1534" lon="1.32074">
        <ele>114.40000152588</ele>
        <time>2021-05-08T06:57:07.000Z</time>
      </trkpt>
      <trkpt lat="49.15338" lon="1.32071">
        <ele>114.59999847412</ele>
        <time>2021-05-08T06:57:08.000Z</time>
      </trkpt>
      <trkpt lat="49.15325" lon="1.32044">
        <ele>115.40000152588</ele>
        <time>2021-05-08T06:57:15.000Z</time>
      </trkpt>
      <trkpt lat="49.15322" lon="1.32037">
        <ele>115.59999847412</ele>
        <time>2021-05-08T06:57:17.000Z</time>
      </trkpt>
      <trkpt lat="49.15316" lon="1.32027">
        <ele>116</ele>
        <time>2021-05-08T06:57:20.000Z</time>
      </trkpt>
      <trkpt lat="49.15306" lon="1.32009">
        <ele>116.80000305176</ele>
        <time>2021-05-08T06:57:25.000Z</time>
      </trkpt>
      <trkpt lat="49.15305" lon="1.32006">
        <ele>117</ele>
        <time>2021-05-08T06:57:26.000Z</time>
      </trkpt>
      <trkpt lat="49.15298" lon="1.31994">
        <ele>117.19999694824</ele>
        <time>2021-05-08T06:57:30.000Z</time>
      </trkpt>
      <trkpt lat="49.15289" lon="1.31973">
        <ele>117.80000305176</ele>
        <time>2021-05-08T06:57:36.000Z</time>
      </trkpt>
      <trkpt lat="49.15286" lon="1.31967">
        <ele>117.80000305176</ele>
        <time>2021-05-08T06:57:38.000Z</time>
      </trkpt>
      <trkpt lat="49.15283" lon="1.31958">
        <ele>118.19999694824</ele>
        <time>2021-05-08T06:57:41.000Z</time>
      </trkpt>
      <trkpt lat="49.15273" lon="1.31942">
        <ele>119</ele>
        <time>2021-05-08T06:57:46.000Z</time>
      </trkpt>
      <trkpt lat="49.1527" lon="1.31938">
        <ele>119</ele>
        <time>2021-05-08T06:57:47.000Z</time>
      </trkpt>
      <trkpt lat="49.1525" lon="1.31918">
        <ele>119.19999694824</ele>
        <time>2021-05-08T06:57:54.000Z</time>
      </trkpt>
      <trkpt lat="49.15235" lon="1.31898">
        <ele>119.59999847412</ele>
        <time>2021-05-08T06:58:00.000Z</time>
      </trkpt>
      <trkpt lat="49.15229" lon="1.31892">
        <ele>119.80000305176</ele>
        <time>2021-05-08T06:58:02.000Z</time>
      </trkpt>
      <trkpt lat="49.15221" lon="1.31882">
        <ele>119.80000305176</ele>
        <time>2021-05-08T06:58:05.000Z</time>
      </trkpt>
      <trkpt lat="49.15204" lon="1.31861">
        <ele>120.19999694824</ele>
        <time>2021-05-08T06:58:11.000Z</time>
      </trkpt>
      <trkpt lat="49.15193" lon="1.31849">
        <ele>120.80000305176</ele>
        <time>2021-05-08T06:58:15.000Z</time>
      </trkpt>
      <trkpt lat="49.15189" lon="1.31842">
        <ele>121</ele>
        <time>2021-05-08T06:58:17.000Z</time>
      </trkpt>
      <trkpt lat="49.15177" lon="1.31812">
        <ele>121.59999847412</ele>
        <time>2021-05-08T06:58:24.000Z</time>
      </trkpt>
      <trkpt lat="49.15173" lon="1.31803">
        <ele>121.80000305176</ele>
        <time>2021-05-08T06:58:26.000Z</time>
      </trkpt>
      <trkpt lat="49.15169" lon="1.31795">
        <ele>122.19999694824</ele>
        <time>2021-05-08T06:58:28.000Z</time>
      </trkpt>
      <trkpt lat="49.15159" lon="1.31779">
        <ele>123</ele>
        <time>2021-05-08T06:58:32.000Z</time>
      </trkpt>
      <trkpt lat="49.15157" lon="1.31775">
        <ele>123.19999694824</ele>
        <time>2021-05-08T06:58:33.000Z</time>
      </trkpt>
      <trkpt lat="49.15139" lon="1.3175">
        <ele>124</ele>
        <time>2021-05-08T06:58:40.000Z</time>
      </trkpt>
      <trkpt lat="49.15123" lon="1.31729">
        <ele>124.40000152588</ele>
        <time>2021-05-08T06:58:46.000Z</time>
      </trkpt>
      <trkpt lat="49.15113" lon="1.31716">
        <ele>125</ele>
        <time>2021-05-08T06:58:50.000Z</time>
      </trkpt>
      <trkpt lat="49.15106" lon="1.31708">
        <ele>125.40000152588</ele>
        <time>2021-05-08T06:58:53.000Z</time>
      </trkpt>
      <trkpt lat="49.151" lon="1.31698">
        <ele>126.19999694824</ele>
        <time>2021-05-08T06:58:56.000Z</time>
      </trkpt>
      <trkpt lat="49.15093" lon="1.31687">
        <ele>126.40000152588</ele>
        <time>2021-05-08T06:58:59.000Z</time>
      </trkpt>
      <trkpt lat="49.15089" lon="1.3168">
        <ele>126.80000305176</ele>
        <time>2021-05-08T06:59:01.000Z</time>
      </trkpt>
      <trkpt lat="49.15085" lon="1.31673">
        <ele>127.19999694824</ele>
        <time>2021-05-08T06:59:03.000Z</time>
      </trkpt>
      <trkpt lat="49.15082" lon="1.3167">
        <ele>127.40000152588</ele>
        <time>2021-05-08T06:59:04.000Z</time>
      </trkpt>
      <trkpt lat="49.15067" lon="1.31653">
        <ele>128.19999694824</ele>
        <time>2021-05-08T06:59:10.000Z</time>
      </trkpt>
      <trkpt lat="49.15063" lon="1.31648">
        <ele>128.60000610352</ele>
        <time>2021-05-08T06:59:12.000Z</time>
      </trkpt>
      <trkpt lat="49.15049" lon="1.31633">
        <ele>129.60000610352</ele>
        <time>2021-05-08T06:59:18.000Z</time>
      </trkpt>
      <trkpt lat="49.15034" lon="1.31617">
        <ele>130.80000305176</ele>
        <time>2021-05-08T06:59:24.000Z</time>
      </trkpt>
      <trkpt lat="49.15017" lon="1.31599">
        <ele>131.39999389648</ele>
        <time>2021-05-08T06:59:31.000Z</time>
      </trkpt>
      <trkpt lat="49.15011" lon="1.31593">
        <ele>131.80000305176</ele>
        <time>2021-05-08T06:59:33.000Z</time>
      </trkpt>
      <trkpt lat="49.15005" lon="1.31586">
        <ele>131.80000305176</ele>
        <time>2021-05-08T06:59:35.000Z</time>
      </trkpt>
      <trkpt lat="49.1499" lon="1.31573">
        <ele>132.19999694824</ele>
        <time>2021-05-08T06:59:40.000Z</time>
      </trkpt>
      <trkpt lat="49.1498" lon="1.31562">
        <ele>132.39999389648</ele>
        <time>2021-05-08T06:59:44.000Z</time>
      </trkpt>
      <trkpt lat="49.14971" lon="1.31552">
        <ele>132.80000305176</ele>
        <time>2021-05-08T06:59:47.000Z</time>
      </trkpt>
      <trkpt lat="49.14962" lon="1.31542">
        <ele>133.39999389648</ele>
        <time>2021-05-08T06:59:50.000Z</time>
      </trkpt>
      <trkpt lat="49.14954" lon="1.31532">
        <ele>134</ele>
        <time>2021-05-08T06:59:53.000Z</time>
      </trkpt>
      <trkpt lat="49.14945" lon="1.31522">
        <ele>134.60000610352</ele>
        <time>2021-05-08T06:59:56.000Z</time>
      </trkpt>
      <trkpt lat="49.14933" lon="1.31509">
        <ele>135</ele>
        <time>2021-05-08T07:00:00.000Z</time>
      </trkpt>
      <trkpt lat="49.14919" lon="1.31495">
        <ele>135</ele>
        <time>2021-05-08T07:00:05.000Z</time>
      </trkpt>
      <trkpt lat="49.14905" lon="1.31483">
        <ele>135</ele>
        <time>2021-05-08T07:00:10.000Z</time>
      </trkpt>
      <trkpt lat="49.14886" lon="1.31466">
        <ele>135.19999694824</ele>
        <time>2021-05-08T07:00:17.000Z</time>
      </trkpt>
      <trkpt lat="49.14867" lon="1.31448">
        <ele>135.39999389648</ele>
        <time>2021-05-08T07:00:23.000Z</time>
      </trkpt>
      <trkpt lat="49.14845" lon="1.31428">
        <ele>135.60000610352</ele>
        <time>2021-05-08T07:00:30.000Z</time>
      </trkpt>
      <trkpt lat="49.14827" lon="1.31412">
        <ele>135.60000610352</ele>
        <time>2021-05-08T07:00:35.000Z</time>
      </trkpt>
      <trkpt lat="49.14814" lon="1.31399">
        <ele>135.60000610352</ele>
        <time>2021-05-08T07:00:39.000Z</time>
      </trkpt>
      <trkpt lat="49.14795" lon="1.31377">
        <ele>135.39999389648</ele>
        <time>2021-05-08T07:00:45.000Z</time>
      </trkpt>
      <trkpt lat="49.14775" lon="1.31358">
        <ele>135.19999694824</ele>
        <time>2021-05-08T07:00:51.000Z</time>
      </trkpt>
      <trkpt lat="49.1477" lon="1.31354">
        <ele>135.39999389648</ele>
        <time>2021-05-08T07:00:52.000Z</time>
      </trkpt>
      <trkpt lat="49.14751" lon="1.31338">
        <ele>135.19999694824</ele>
        <time>2021-05-08T07:00:56.000Z</time>
      </trkpt>
      <trkpt lat="49.14746" lon="1.31334">
        <ele>135</ele>
        <time>2021-05-08T07:00:57.000Z</time>
      </trkpt>
      <trkpt lat="49.14724" lon="1.31317">
        <ele>134.60000610352</ele>
        <time>2021-05-08T07:01:02.000Z</time>
      </trkpt>
      <trkpt lat="49.14711" lon="1.31307">
        <ele>134.60000610352</ele>
        <time>2021-05-08T07:01:05.000Z</time>
      </trkpt>
      <trkpt lat="49.14703" lon="1.31299">
        <ele>134.39999389648</ele>
        <time>2021-05-08T07:01:07.000Z</time>
      </trkpt>
      <trkpt lat="49.14685" lon="1.31281">
        <ele>134</ele>
        <time>2021-05-08T07:01:12.000Z</time>
      </trkpt>
      <trkpt lat="49.1467" lon="1.31264">
        <ele>134</ele>
        <time>2021-05-08T07:01:17.000Z</time>
      </trkpt>
      <trkpt lat="49.14664" lon="1.31255">
        <ele>133.80000305176</ele>
        <time>2021-05-08T07:01:20.000Z</time>
      </trkpt>
      <trkpt lat="49.14663" lon="1.31253">
        <ele>133.80000305176</ele>
        <time>2021-05-08T07:01:21.000Z</time>
      </trkpt>
      <trkpt lat="49.14656" lon="1.31249">
        <ele>133.80000305176</ele>
        <time>2021-05-08T07:01:26.000Z</time>
      </trkpt>
      <trkpt lat="49.14648" lon="1.31245">
        <ele>133.19999694824</ele>
        <time>2021-05-08T07:01:51.000Z</time>
      </trkpt>
      <trkpt lat="49.1464" lon="1.31235">
        <ele>133.39999389648</ele>
        <time>2021-05-08T07:01:55.000Z</time>
      </trkpt>
      <trkpt lat="49.14621" lon="1.31211">
        <ele>133</ele>
        <time>2021-05-08T07:02:02.000Z</time>
      </trkpt>
      <trkpt lat="49.14613" lon="1.31202">
        <ele>132.39999389648</ele>
        <time>2021-05-08T07:02:05.000Z</time>
      </trkpt>
      <trkpt lat="49.14606" lon="1.31192">
        <ele>132</ele>
        <time>2021-05-08T07:02:08.000Z</time>
      </trkpt>
      <trkpt lat="49.14589" lon="1.3117">
        <ele>132</ele>
        <time>2021-05-08T07:02:14.000Z</time>
      </trkpt>
      <trkpt lat="49.14576" lon="1.31152">
        <ele>132.19999694824</ele>
        <time>2021-05-08T07:02:19.000Z</time>
      </trkpt>
      <trkpt lat="49.14566" lon="1.31139">
        <ele>132.39999389648</ele>
        <time>2021-05-08T07:02:23.000Z</time>
      </trkpt>
      <trkpt lat="49.14551" lon="1.31125">
        <ele>132.39999389648</ele>
        <time>2021-05-08T07:02:27.000Z</time>
      </trkpt>
      <trkpt lat="49.14546" lon="1.31122">
        <ele>132.39999389648</ele>
        <time>2021-05-08T07:02:28.000Z</time>
      </trkpt>
      <trkpt lat="49.14523" lon="1.31106">
        <ele>132.19999694824</ele>
        <time>2021-05-08T07:02:34.000Z</time>
      </trkpt>
      <trkpt lat="49.14506" lon="1.31099">
        <ele>131.39999389648</ele>
        <time>2021-05-08T07:02:38.000Z</time>
      </trkpt>
      <trkpt lat="49.14498" lon="1.31094">
        <ele>131</ele>
        <time>2021-05-08T07:02:40.000Z</time>
      </trkpt>
      <trkpt lat="49.14493" lon="1.31086">
        <ele>130.60000610352</ele>
        <time>2021-05-08T07:02:42.000Z</time>
      </trkpt>
      <trkpt lat="49.14481" lon="1.31061">
        <ele>130.60000610352</ele>
        <time>2021-05-08T07:02:48.000Z</time>
      </trkpt>
      <trkpt lat="49.14465" lon="1.31024">
        <ele>131.60000610352</ele>
        <time>2021-05-08T07:02:56.000Z</time>
      </trkpt>
      <trkpt lat="49.14462" lon="1.31021">
        <ele>131.80000305176</ele>
        <time>2021-05-08T07:02:57.000Z</time>
      </trkpt>
      <trkpt lat="49.14453" lon="1.31006">
        <ele>132</ele>
        <time>2021-05-08T07:03:01.000Z</time>
      </trkpt>
      <trkpt lat="49.14442" lon="1.30996">
        <ele>132</ele>
        <time>2021-05-08T07:03:05.000Z</time>
      </trkpt>
      <trkpt lat="49.14417" lon="1.3099">
        <ele>133.39999389648</ele>
        <time>2021-05-08T07:03:12.000Z</time>
      </trkpt>
      <trkpt lat="49.14396" lon="1.30985">
        <ele>134.19999694824</ele>
        <time>2021-05-08T07:03:19.000Z</time>
      </trkpt>
      <trkpt lat="49.14393" lon="1.30984">
        <ele>134.39999389648</ele>
        <time>2021-05-08T07:03:20.000Z</time>
      </trkpt>
      <trkpt lat="49.1438" lon="1.30978">
        <ele>134.80000305176</ele>
        <time>2021-05-08T07:03:24.000Z</time>
      </trkpt>
      <trkpt lat="49.1437" lon="1.30965">
        <ele>135</ele>
        <time>2021-05-08T07:03:28.000Z</time>
      </trkpt>
      <trkpt lat="49.1437" lon="1.30961">
        <ele>135.19999694824</ele>
        <time>2021-05-08T07:03:29.000Z</time>
      </trkpt>
      <trkpt lat="49.14375" lon="1.30951">
        <ele>135.39999389648</ele>
        <time>2021-05-08T07:03:32.000Z</time>
      </trkpt>
      <trkpt lat="49.14377" lon="1.30948">
        <ele>135.39999389648</ele>
        <time>2021-05-08T07:03:33.000Z</time>
      </trkpt>
      <trkpt lat="49.14392" lon="1.30928">
        <ele>135.60000610352</ele>
        <time>2021-05-08T07:03:39.000Z</time>
      </trkpt>
      <trkpt lat="49.14411" lon="1.30904">
        <ele>136</ele>
        <time>2021-05-08T07:03:46.000Z</time>
      </trkpt>
      <trkpt lat="49.1443" lon="1.30879">
        <ele>136.19999694824</ele>
        <time>2021-05-08T07:03:53.000Z</time>
      </trkpt>
      <trkpt lat="49.14439" lon="1.30868">
        <ele>136.39999389648</ele>
        <time>2021-05-08T07:03:56.000Z</time>
      </trkpt>
      <trkpt lat="49.14449" lon="1.30854">
        <ele>136.60000610352</ele>
        <time>2021-05-08T07:04:00.000Z</time>
      </trkpt>
      <trkpt lat="49.14465" lon="1.30836">
        <ele>136.80000305176</ele>
        <time>2021-05-08T07:04:06.000Z</time>
      </trkpt>
      <trkpt lat="49.14484" lon="1.30812">
        <ele>137</ele>
        <time>2021-05-08T07:04:13.000Z</time>
      </trkpt>
      <trkpt lat="49.14496" lon="1.30793">
        <ele>137.19999694824</ele>
        <time>2021-05-08T07:04:19.000Z</time>
      </trkpt>
      <trkpt lat="49.14496" lon="1.30777">
        <ele>137.39999389648</ele>
        <time>2021-05-08T07:04:23.000Z</time>
      </trkpt>
      <trkpt lat="49.14494" lon="1.30771">
        <ele>137.39999389648</ele>
        <time>2021-05-08T07:04:25.000Z</time>
      </trkpt>
      <trkpt lat="49.14491" lon="1.3076">
        <ele>137.39999389648</ele>
        <time>2021-05-08T07:04:28.000Z</time>
      </trkpt>
      <trkpt lat="49.14481" lon="1.30736">
        <ele>137.39999389648</ele>
        <time>2021-05-08T07:04:34.000Z</time>
      </trkpt>
      <trkpt lat="49.14471" lon="1.30713">
        <ele>137.19999694824</ele>
        <time>2021-05-08T07:04:39.000Z</time>
      </trkpt>
      <trkpt lat="49.14457" lon="1.30697">
        <ele>137.19999694824</ele>
        <time>2021-05-08T07:04:44.000Z</time>
      </trkpt>
      <trkpt lat="49.14449" lon="1.30682">
        <ele>136.80000305176</ele>
        <time>2021-05-08T07:04:48.000Z</time>
      </trkpt>
      <trkpt lat="49.14439" lon="1.30659">
        <ele>136.60000610352</ele>
        <time>2021-05-08T07:04:53.000Z</time>
      </trkpt>
      <trkpt lat="49.14426" lon="1.30629">
        <ele>136.60000610352</ele>
        <time>2021-05-08T07:05:00.000Z</time>
      </trkpt>
      <trkpt lat="49.14417" lon="1.30609">
        <ele>136.80000305176</ele>
        <time>2021-05-08T07:05:05.000Z</time>
      </trkpt>
      <trkpt lat="49.14414" lon="1.30606">
        <ele>136.80000305176</ele>
        <time>2021-05-08T07:05:06.000Z</time>
      </trkpt>
      <trkpt lat="49.1441" lon="1.30598">
        <ele>137</ele>
        <time>2021-05-08T07:05:08.000Z</time>
      </trkpt>
      <trkpt lat="49.14408" lon="1.3059">
        <ele>137.19999694824</ele>
        <time>2021-05-08T07:05:10.000Z</time>
      </trkpt>
      <trkpt lat="49.14403" lon="1.30578">
        <ele>137.39999389648</ele>
        <time>2021-05-08T07:05:13.000Z</time>
      </trkpt>
      <trkpt lat="49.14391" lon="1.30545">
        <ele>138</ele>
        <time>2021-05-08T07:05:20.000Z</time>
      </trkpt>
      <trkpt lat="49.14376" lon="1.30509">
        <ele>138.19999694824</ele>
        <time>2021-05-08T07:05:28.000Z</time>
      </trkpt>
      <trkpt lat="49.14373" lon="1.305">
        <ele>138.19999694824</ele>
        <time>2021-05-08T07:05:30.000Z</time>
      </trkpt>
      <trkpt lat="49.14363" lon="1.30479">
        <ele>138.80000305176</ele>
        <time>2021-05-08T07:05:35.000Z</time>
      </trkpt>
      <trkpt lat="49.14349" lon="1.30467">
        <ele>139</ele>
        <time>2021-05-08T07:05:40.000Z</time>
      </trkpt>
      <trkpt lat="49.1434" lon="1.30457">
        <ele>139.39999389648</ele>
        <time>2021-05-08T07:05:44.000Z</time>
      </trkpt>
      <trkpt lat="49.14339" lon="1.30454">
        <ele>139.39999389648</ele>
        <time>2021-05-08T07:05:45.000Z</time>
      </trkpt>
      <trkpt lat="49.14332" lon="1.30436">
        <ele>139.60000610352</ele>
        <time>2021-05-08T07:05:50.000Z</time>
      </trkpt>
      <trkpt lat="49.14328" lon="1.30428">
        <ele>139.60000610352</ele>
        <time>2021-05-08T07:05:52.000Z</time>
      </trkpt>
      <trkpt lat="49.14323" lon="1.3042">
        <ele>139.80000305176</ele>
        <time>2021-05-08T07:05:54.000Z</time>
      </trkpt>
      <trkpt lat="49.14313" lon="1.30404">
        <ele>140.39999389648</ele>
        <time>2021-05-08T07:05:58.000Z</time>
      </trkpt>
      <trkpt lat="49.14301" lon="1.30369">
        <ele>140.80000305176</ele>
        <time>2021-05-08T07:06:06.000Z</time>
      </trkpt>
      <trkpt lat="49.14289" lon="1.30341">
        <ele>140.80000305176</ele>
        <time>2021-05-08T07:06:13.000Z</time>
      </trkpt>
      <trkpt lat="49.14282" lon="1.30328">
        <ele>141</ele>
        <time>2021-05-08T07:06:17.000Z</time>
      </trkpt>
      <trkpt lat="49.14279" lon="1.30325">
        <ele>141</ele>
        <time>2021-05-08T07:06:19.000Z</time>
      </trkpt>
      <trkpt lat="49.14279" lon="1.30317">
        <ele>141.39999389648</ele>
        <time>2021-05-08T07:06:23.000Z</time>
      </trkpt>
      <trkpt lat="49.14281" lon="1.30315">
        <ele>141.39999389648</ele>
        <time>2021-05-08T07:06:24.000Z</time>
      </trkpt>
      <trkpt lat="49.14282" lon="1.30313">
        <ele>141.60000610352</ele>
        <time>2021-05-08T07:06:25.000Z</time>
      </trkpt>
      <trkpt lat="49.14282" lon="1.30309">
        <ele>141.60000610352</ele>
        <time>2021-05-08T07:06:26.000Z</time>
      </trkpt>
      <trkpt lat="49.14282" lon="1.30305">
        <ele>142.19999694824</ele>
        <time>2021-05-08T07:06:29.000Z</time>
      </trkpt>
      <trkpt lat="49.14283" lon="1.30304">
        <ele>142.60000610352</ele>
        <time>2021-05-08T07:06:58.000Z</time>
      </trkpt>
      <trkpt lat="49.1429" lon="1.30294">
        <ele>142.60000610352</ele>
        <time>2021-05-08T07:07:03.000Z</time>
      </trkpt>
      <trkpt lat="49.14305" lon="1.3027">
        <ele>142.39999389648</ele>
        <time>2021-05-08T07:07:10.000Z</time>
      </trkpt>
      <trkpt lat="49.14323" lon="1.30239">
        <ele>142.39999389648</ele>
        <time>2021-05-08T07:07:18.000Z</time>
      </trkpt>
      <trkpt lat="49.1434" lon="1.30211">
        <ele>142.80000305176</ele>
        <time>2021-05-08T07:07:25.000Z</time>
      </trkpt>
      <trkpt lat="49.14362" lon="1.30176">
        <ele>143.39999389648</ele>
        <time>2021-05-08T07:07:34.000Z</time>
      </trkpt>
      <trkpt lat="49.14369" lon="1.30165">
        <ele>143.80000305176</ele>
        <time>2021-05-08T07:07:37.000Z</time>
      </trkpt>
      <trkpt lat="49.14381" lon="1.30144">
        <ele>144.39999389648</ele>
        <time>2021-05-08T07:07:42.000Z</time>
      </trkpt>
      <trkpt lat="49.144" lon="1.30111">
        <ele>144.60000610352</ele>
        <time>2021-05-08T07:07:50.000Z</time>
      </trkpt>
      <trkpt lat="49.14412" lon="1.30092">
        <ele>144.80000305176</ele>
        <time>2021-05-08T07:07:55.000Z</time>
      </trkpt>
      <trkpt lat="49.14418" lon="1.30084">
        <ele>145</ele>
        <time>2021-05-08T07:07:57.000Z</time>
      </trkpt>
      <trkpt lat="49.14431" lon="1.30065">
        <ele>145.80000305176</ele>
        <time>2021-05-08T07:08:02.000Z</time>
      </trkpt>
      <trkpt lat="49.14445" lon="1.30047">
        <ele>146.39999389648</ele>
        <time>2021-05-08T07:08:07.000Z</time>
      </trkpt>
      <trkpt lat="49.14455" lon="1.30039">
        <ele>147</ele>
        <time>2021-05-08T07:08:10.000Z</time>
      </trkpt>
      <trkpt lat="49.14469" lon="1.30031">
        <ele>148.39999389648</ele>
        <time>2021-05-08T07:08:14.000Z</time>
      </trkpt>
      <trkpt lat="49.14491" lon="1.30018">
        <ele>149.39999389648</ele>
        <time>2021-05-08T07:08:20.000Z</time>
      </trkpt>
      <trkpt lat="49.14494" lon="1.30015">
        <ele>149.60000610352</ele>
        <time>2021-05-08T07:08:21.000Z</time>
      </trkpt>
      <trkpt lat="49.145" lon="1.30007">
        <ele>150</ele>
        <time>2021-05-08T07:08:23.000Z</time>
      </trkpt>
      <trkpt lat="49.14506" lon="1.29992">
        <ele>150.19999694824</ele>
        <time>2021-05-08T07:08:26.000Z</time>
      </trkpt>
      <trkpt lat="49.14517" lon="1.29971">
        <ele>150.39999389648</ele>
        <time>2021-05-08T07:08:31.000Z</time>
      </trkpt>
      <trkpt lat="49.1453" lon="1.29972">
        <ele>150.39999389648</ele>
        <time>2021-05-08T07:08:34.000Z</time>
      </trkpt>
      <trkpt lat="49.14534" lon="1.29974">
        <ele>150.39999389648</ele>
        <time>2021-05-08T07:08:35.000Z</time>
      </trkpt>
      <trkpt lat="49.14553" lon="1.29982">
        <ele>150.39999389648</ele>
        <time>2021-05-08T07:08:39.000Z</time>
      </trkpt>
      <trkpt lat="49.14558" lon="1.29985">
        <ele>150.39999389648</ele>
        <time>2021-05-08T07:08:40.000Z</time>
      </trkpt>
      <trkpt lat="49.14592" lon="1.30003">
        <ele>149.80000305176</ele>
        <time>2021-05-08T07:08:46.000Z</time>
      </trkpt>
      <trkpt lat="49.14616" lon="1.30021">
        <ele>149</ele>
        <time>2021-05-08T07:08:50.000Z</time>
      </trkpt>
      <trkpt lat="49.14628" lon="1.30031">
        <ele>148.39999389648</ele>
        <time>2021-05-08T07:08:52.000Z</time>
      </trkpt>
      <trkpt lat="49.14634" lon="1.30037">
        <ele>147.60000610352</ele>
        <time>2021-05-08T07:08:53.000Z</time>
      </trkpt>
      <trkpt lat="49.1464" lon="1.30042">
        <ele>147.19999694824</ele>
        <time>2021-05-08T07:08:54.000Z</time>
      </trkpt>
      <trkpt lat="49.14665" lon="1.30064">
        <ele>146.19999694824</ele>
        <time>2021-05-08T07:08:58.000Z</time>
      </trkpt>
      <trkpt lat="49.14671" lon="1.3007">
        <ele>146</ele>
        <time>2021-05-08T07:08:59.000Z</time>
      </trkpt>
      <trkpt lat="49.14694" lon="1.30092">
        <ele>145</ele>
        <time>2021-05-08T07:09:03.000Z</time>
      </trkpt>
      <trkpt lat="49.14712" lon="1.30109">
        <ele>144.60000610352</ele>
        <time>2021-05-08T07:09:06.000Z</time>
      </trkpt>
      <trkpt lat="49.14745" lon="1.30143">
        <ele>144</ele>
        <time>2021-05-08T07:09:12.000Z</time>
      </trkpt>
      <trkpt lat="49.14751" lon="1.30148">
        <ele>144</ele>
        <time>2021-05-08T07:09:13.000Z</time>
      </trkpt>
      <trkpt lat="49.14757" lon="1.30152">
        <ele>143.80000305176</ele>
        <time>2021-05-08T07:09:14.000Z</time>
      </trkpt>
      <trkpt lat="49.14769" lon="1.30161">
        <ele>143.80000305176</ele>
        <time>2021-05-08T07:09:16.000Z</time>
      </trkpt>
      <trkpt lat="49.14786" lon="1.30178">
        <ele>143.60000610352</ele>
        <time>2021-05-08T07:09:19.000Z</time>
      </trkpt>
      <trkpt lat="49.14826" lon="1.30216">
        <ele>143.60000610352</ele>
        <time>2021-05-08T07:09:26.000Z</time>
      </trkpt>
      <trkpt lat="49.14856" lon="1.30244">
        <ele>143.19999694824</ele>
        <time>2021-05-08T07:09:32.000Z</time>
      </trkpt>
      <trkpt lat="49.14861" lon="1.30248">
        <ele>143.19999694824</ele>
        <time>2021-05-08T07:09:33.000Z</time>
      </trkpt>
      <trkpt lat="49.14892" lon="1.30279">
        <ele>143</ele>
        <time>2021-05-08T07:09:39.000Z</time>
      </trkpt>
      <trkpt lat="49.14897" lon="1.30284">
        <ele>142.80000305176</ele>
        <time>2021-05-08T07:09:40.000Z</time>
      </trkpt>
      <trkpt lat="49.14932" lon="1.3032">
        <ele>142.60000610352</ele>
        <time>2021-05-08T07:09:47.000Z</time>
      </trkpt>
      <trkpt lat="49.14973" lon="1.30362">
        <ele>142</ele>
        <time>2021-05-08T07:09:55.000Z</time>
      </trkpt>
      <trkpt lat="49.14979" lon="1.30368">
        <ele>142</ele>
        <time>2021-05-08T07:09:56.000Z</time>
      </trkpt>
      <trkpt lat="49.14984" lon="1.30374">
        <ele>141.80000305176</ele>
        <time>2021-05-08T07:09:57.000Z</time>
      </trkpt>
      <trkpt lat="49.15006" lon="1.30401">
        <ele>141.19999694824</ele>
        <time>2021-05-08T07:10:01.000Z</time>
      </trkpt>
      <trkpt lat="49.15012" lon="1.30408">
        <ele>141</ele>
        <time>2021-05-08T07:10:02.000Z</time>
      </trkpt>
      <trkpt lat="49.1503" lon="1.30437">
        <ele>140.39999389648</ele>
        <time>2021-05-08T07:10:06.000Z</time>
      </trkpt>
      <trkpt lat="49.15038" lon="1.30451">
        <ele>139.80000305176</ele>
        <time>2021-05-08T07:10:08.000Z</time>
      </trkpt>
      <trkpt lat="49.15049" lon="1.30471">
        <ele>138.80000305176</ele>
        <time>2021-05-08T07:10:11.000Z</time>
      </trkpt>
      <trkpt lat="49.15053" lon="1.30478">
        <ele>138.80000305176</ele>
        <time>2021-05-08T07:10:12.000Z</time>
      </trkpt>
      <trkpt lat="49.15073" lon="1.30521">
        <ele>137.80000305176</ele>
        <time>2021-05-08T07:10:18.000Z</time>
      </trkpt>
      <trkpt lat="49.15079" lon="1.30535">
        <ele>137.80000305176</ele>
        <time>2021-05-08T07:10:20.000Z</time>
      </trkpt>
      <trkpt lat="49.15084" lon="1.30539">
        <ele>137.80000305176</ele>
        <time>2021-05-08T07:10:21.000Z</time>
      </trkpt>
      <trkpt lat="49.15097" lon="1.30545">
        <ele>137.80000305176</ele>
        <time>2021-05-08T07:10:24.000Z</time>
      </trkpt>
      <trkpt lat="49.15106" lon="1.30549">
        <ele>137.80000305176</ele>
        <time>2021-05-08T07:10:26.000Z</time>
      </trkpt>
      <trkpt lat="49.15111" lon="1.30556">
        <ele>137.80000305176</ele>
        <time>2021-05-08T07:10:28.000Z</time>
      </trkpt>
      <trkpt lat="49.15112" lon="1.30561">
        <ele>137.80000305176</ele>
        <time>2021-05-08T07:10:29.000Z</time>
      </trkpt>
      <trkpt lat="49.15119" lon="1.3057">
        <ele>137.80000305176</ele>
        <time>2021-05-08T07:10:32.000Z</time>
      </trkpt>
      <trkpt lat="49.15127" lon="1.30592">
        <ele>137.80000305176</ele>
        <time>2021-05-08T07:10:36.000Z</time>
      </trkpt>
      <trkpt lat="49.15137" lon="1.30618">
        <ele>137.80000305176</ele>
        <time>2021-05-08T07:10:41.000Z</time>
      </trkpt>
      <trkpt lat="49.15139" lon="1.30624">
        <ele>137.80000305176</ele>
        <time>2021-05-08T07:10:42.000Z</time>
      </trkpt>
      <trkpt lat="49.15141" lon="1.30631">
        <ele>137.80000305176</ele>
        <time>2021-05-08T07:10:43.000Z</time>
      </trkpt>
      <trkpt lat="49.15148" lon="1.30649">
        <ele>137.39999389648</ele>
        <time>2021-05-08T07:10:46.000Z</time>
      </trkpt>
      <trkpt lat="49.1516" lon="1.30681">
        <ele>137.39999389648</ele>
        <time>2021-05-08T07:10:51.000Z</time>
      </trkpt>
      <trkpt lat="49.15179" lon="1.30715">
        <ele>137.19999694824</ele>
        <time>2021-05-08T07:10:56.000Z</time>
      </trkpt>
      <trkpt lat="49.15195" lon="1.30731">
        <ele>136.80000305176</ele>
        <time>2021-05-08T07:11:00.000Z</time>
      </trkpt>
      <trkpt lat="49.15209" lon="1.30743">
        <ele>136.60000610352</ele>
        <time>2021-05-08T07:11:03.000Z</time>
      </trkpt>
      <trkpt lat="49.15219" lon="1.3075">
        <ele>136.60000610352</ele>
        <time>2021-05-08T07:11:05.000Z</time>
      </trkpt>
      <trkpt lat="49.15224" lon="1.30754">
        <ele>136.39999389648</ele>
        <time>2021-05-08T07:11:06.000Z</time>
      </trkpt>
      <trkpt lat="49.15229" lon="1.30757">
        <ele>136.19999694824</ele>
        <time>2021-05-08T07:11:07.000Z</time>
      </trkpt>
      <trkpt lat="49.1524" lon="1.30759">
        <ele>135.80000305176</ele>
        <time>2021-05-08T07:11:09.000Z</time>
      </trkpt>
      <trkpt lat="49.15255" lon="1.30762">
        <ele>135.19999694824</ele>
        <time>2021-05-08T07:11:11.000Z</time>
      </trkpt>
      <trkpt lat="49.15258" lon="1.30766">
        <ele>134.80000305176</ele>
        <time>2021-05-08T07:11:12.000Z</time>
      </trkpt>
      <trkpt lat="49.15262" lon="1.30773">
        <ele>133.80000305176</ele>
        <time>2021-05-08T07:11:14.000Z</time>
      </trkpt>
      <trkpt lat="49.15266" lon="1.30785">
        <ele>132.19999694824</ele>
        <time>2021-05-08T07:11:16.000Z</time>
      </trkpt>
      <trkpt lat="49.15272" lon="1.30799">
        <ele>131.19999694824</ele>
        <time>2021-05-08T07:11:18.000Z</time>
      </trkpt>
      <trkpt lat="49.15276" lon="1.30805">
        <ele>131</ele>
        <time>2021-05-08T07:11:19.000Z</time>
      </trkpt>
      <trkpt lat="49.1528" lon="1.30812">
        <ele>130.80000305176</ele>
        <time>2021-05-08T07:11:20.000Z</time>
      </trkpt>
      <trkpt lat="49.15283" lon="1.30818">
        <ele>130.60000610352</ele>
        <time>2021-05-08T07:11:21.000Z</time>
      </trkpt>
      <trkpt lat="49.15291" lon="1.30835">
        <ele>130.19999694824</ele>
        <time>2021-05-08T07:11:24.000Z</time>
      </trkpt>
      <trkpt lat="49.15292" lon="1.30841">
        <ele>129.80000305176</ele>
        <time>2021-05-08T07:11:25.000Z</time>
      </trkpt>
      <trkpt lat="49.15296" lon="1.30852">
        <ele>128.80000305176</ele>
        <time>2021-05-08T07:11:28.000Z</time>
      </trkpt>
      <trkpt lat="49.15298" lon="1.30865">
        <ele>128.19999694824</ele>
        <time>2021-05-08T07:11:32.000Z</time>
      </trkpt>
      <trkpt lat="49.15306" lon="1.30871">
        <ele>128</ele>
        <time>2021-05-08T07:11:34.000Z</time>
      </trkpt>
      <trkpt lat="49.15313" lon="1.30877">
        <ele>127.59999847412</ele>
        <time>2021-05-08T07:11:36.000Z</time>
      </trkpt>
      <trkpt lat="49.15325" lon="1.30883">
        <ele>127.59999847412</ele>
        <time>2021-05-08T07:11:39.000Z</time>
      </trkpt>
      <trkpt lat="49.15334" lon="1.30884">
        <ele>127.40000152588</ele>
        <time>2021-05-08T07:11:42.000Z</time>
      </trkpt>
      <trkpt lat="49.15338" lon="1.30884">
        <ele>127.19999694824</ele>
        <time>2021-05-08T07:11:43.000Z</time>
      </trkpt>
      <trkpt lat="49.15342" lon="1.30883">
        <ele>127.19999694824</ele>
        <time>2021-05-08T07:11:44.000Z</time>
      </trkpt>
      <trkpt lat="49.15352" lon="1.30882">
        <ele>127</ele>
        <time>2021-05-08T07:11:46.000Z</time>
      </trkpt>
      <trkpt lat="49.1536" lon="1.30875">
        <ele>126.59999847412</ele>
        <time>2021-05-08T07:11:48.000Z</time>
      </trkpt>
      <trkpt lat="49.15369" lon="1.30867">
        <ele>126</ele>
        <time>2021-05-08T07:11:50.000Z</time>
      </trkpt>
      <trkpt lat="49.15372" lon="1.30862">
        <ele>125.40000152588</ele>
        <time>2021-05-08T07:11:51.000Z</time>
      </trkpt>
      <trkpt lat="49.15376" lon="1.3085">
        <ele>124.40000152588</ele>
        <time>2021-05-08T07:11:53.000Z</time>
      </trkpt>
      <trkpt lat="49.15377" lon="1.30839">
        <ele>123.40000152588</ele>
        <time>2021-05-08T07:11:55.000Z</time>
      </trkpt>
      <trkpt lat="49.15376" lon="1.30831">
        <ele>122.40000152588</ele>
        <time>2021-05-08T07:11:57.000Z</time>
      </trkpt>
      <trkpt lat="49.15374" lon="1.30827">
        <ele>121.19999694824</ele>
        <time>2021-05-08T07:11:59.000Z</time>
      </trkpt>
      <trkpt lat="49.15369" lon="1.30824">
        <ele>121</ele>
        <time>2021-05-08T07:12:01.000Z</time>
      </trkpt>
      <trkpt lat="49.15365" lon="1.30814">
        <ele>120.59999847412</ele>
        <time>2021-05-08T07:12:04.000Z</time>
      </trkpt>
      <trkpt lat="49.15362" lon="1.30812">
        <ele>120.59999847412</ele>
        <time>2021-05-08T07:12:05.000Z</time>
      </trkpt>
      <trkpt lat="49.15358" lon="1.30805">
        <ele>120.59999847412</ele>
        <time>2021-05-08T07:12:07.000Z</time>
      </trkpt>
      <trkpt lat="49.15351" lon="1.30799">
        <ele>121.59999847412</ele>
        <time>2021-05-08T07:12:11.000Z</time>
      </trkpt>
      <trkpt lat="49.15348" lon="1.30794">
        <ele>122.19999694824</ele>
        <time>2021-05-08T07:12:13.000Z</time>
      </trkpt>
      <trkpt lat="49.15347" lon="1.3079">
        <ele>122.40000152588</ele>
        <time>2021-05-08T07:12:14.000Z</time>
      </trkpt>
      <trkpt lat="49.15344" lon="1.30771">
        <ele>123.40000152588</ele>
        <time>2021-05-08T07:12:18.000Z</time>
      </trkpt>
      <trkpt lat="49.15336" lon="1.30756">
        <ele>124.80000305176</ele>
        <time>2021-05-08T07:12:22.000Z</time>
      </trkpt>
      <trkpt lat="49.15332" lon="1.30746">
        <ele>125.19999694824</ele>
        <time>2021-05-08T07:12:24.000Z</time>
      </trkpt>
      <trkpt lat="49.15324" lon="1.30731">
        <ele>125.40000152588</ele>
        <time>2021-05-08T07:12:27.000Z</time>
      </trkpt>
      <trkpt lat="49.15318" lon="1.30714">
        <ele>125.59999847412</ele>
        <time>2021-05-08T07:12:30.000Z</time>
      </trkpt>
      <trkpt lat="49.15316" lon="1.30689">
        <ele>125.59999847412</ele>
        <time>2021-05-08T07:12:34.000Z</time>
      </trkpt>
      <trkpt lat="49.15315" lon="1.30681">
        <ele>125.59999847412</ele>
        <time>2021-05-08T07:12:35.000Z</time>
      </trkpt>
      <trkpt lat="49.1531" lon="1.30657">
        <ele>125.59999847412</ele>
        <time>2021-05-08T07:12:38.000Z</time>
      </trkpt>
      <trkpt lat="49.15303" lon="1.30641">
        <ele>125.59999847412</ele>
        <time>2021-05-08T07:12:40.000Z</time>
      </trkpt>
      <trkpt lat="49.15298" lon="1.30627">
        <ele>124.59999847412</ele>
        <time>2021-05-08T07:12:42.000Z</time>
      </trkpt>
      <trkpt lat="49.15295" lon="1.30619">
        <ele>123.59999847412</ele>
        <time>2021-05-08T07:12:44.000Z</time>
      </trkpt>
      <trkpt lat="49.15294" lon="1.30615">
        <ele>123.40000152588</ele>
        <time>2021-05-08T07:12:45.000Z</time>
      </trkpt>
      <trkpt lat="49.15294" lon="1.30614">
        <ele>123.19999694824</ele>
        <time>2021-05-08T07:12:46.000Z</time>
      </trkpt>
      <trkpt lat="49.1529" lon="1.30595">
        <ele>123</ele>
        <time>2021-05-08T07:15:07.000Z</time>
      </trkpt>
      <trkpt lat="49.15291" lon="1.30592">
        <ele>123.19999694824</ele>
        <time>2021-05-08T07:15:09.000Z</time>
      </trkpt>
      <trkpt lat="49.15294" lon="1.3059">
        <ele>123.40000152588</ele>
        <time>2021-05-08T07:15:11.000Z</time>
      </trkpt>
      <trkpt lat="49.15305" lon="1.30588">
        <ele>123.40000152588</ele>
        <time>2021-05-08T07:15:15.000Z</time>
      </trkpt>
      <trkpt lat="49.15309" lon="1.30587">
        <ele>123.40000152588</ele>
        <time>2021-05-08T07:15:16.000Z</time>
      </trkpt>
      <trkpt lat="49.15316" lon="1.30586">
        <ele>123.40000152588</ele>
        <time>2021-05-08T07:15:18.000Z</time>
      </trkpt>
      <trkpt lat="49.15328" lon="1.30597">
        <ele>122</ele>
        <time>2021-05-08T07:15:22.000Z</time>
      </trkpt>
      <trkpt lat="49.15331" lon="1.30598">
        <ele>121.59999847412</ele>
        <time>2021-05-08T07:15:23.000Z</time>
      </trkpt>
      <trkpt lat="49.15335" lon="1.30598">
        <ele>121</ele>
        <time>2021-05-08T07:15:24.000Z</time>
      </trkpt>
      <trkpt lat="49.15338" lon="1.30599">
        <ele>120.40000152588</ele>
        <time>2021-05-08T07:15:25.000Z</time>
      </trkpt>
      <trkpt lat="49.15344" lon="1.306">
        <ele>118.80000305176</ele>
        <time>2021-05-08T07:15:27.000Z</time>
      </trkpt>
      <trkpt lat="49.1535" lon="1.30601">
        <ele>117.40000152588</ele>
        <time>2021-05-08T07:15:29.000Z</time>
      </trkpt>
      <trkpt lat="49.15355" lon="1.306">
        <ele>115.59999847412</ele>
        <time>2021-05-08T07:15:31.000Z</time>
      </trkpt>
      <trkpt lat="49.15359" lon="1.30601">
        <ele>114.40000152588</ele>
        <time>2021-05-08T07:15:33.000Z</time>
      </trkpt>
      <trkpt lat="49.15363" lon="1.30602">
        <ele>113.40000152588</ele>
        <time>2021-05-08T07:15:35.000Z</time>
      </trkpt>
      <trkpt lat="49.15365" lon="1.30602">
        <ele>112.40000152588</ele>
        <time>2021-05-08T07:15:37.000Z</time>
      </trkpt>
      <trkpt lat="49.15373" lon="1.30596">
        <ele>109.40000152588</ele>
        <time>2021-05-08T07:15:47.000Z</time>
      </trkpt>
      <trkpt lat="49.15374" lon="1.30588">
        <ele>109.19999694824</ele>
        <time>2021-05-08T07:15:50.000Z</time>
      </trkpt>
      <trkpt lat="49.15374" lon="1.30583">
        <ele>109.19999694824</ele>
        <time>2021-05-08T07:15:52.000Z</time>
      </trkpt>
      <trkpt lat="49.15374" lon="1.30577">
        <ele>109.19999694824</ele>
        <time>2021-05-08T07:15:54.000Z</time>
      </trkpt>
      <trkpt lat="49.15374" lon="1.30569">
        <ele>109</ele>
        <time>2021-05-08T07:15:57.000Z</time>
      </trkpt>
      <trkpt lat="49.15376" lon="1.30565">
        <ele>108.59999847412</ele>
        <time>2021-05-08T07:15:59.000Z</time>
      </trkpt>
      <trkpt lat="49.15377" lon="1.30564">
        <ele>108.40000152588</ele>
        <time>2021-05-08T07:16:00.000Z</time>
      </trkpt>
      <trkpt lat="49.15385" lon="1.3056">
        <ele>107.19999694824</ele>
        <time>2021-05-08T07:16:03.000Z</time>
      </trkpt>
      <trkpt lat="49.15387" lon="1.3056">
        <ele>106.59999847412</ele>
        <time>2021-05-08T07:16:04.000Z</time>
      </trkpt>
      <trkpt lat="49.15395" lon="1.30558">
        <ele>106.19999694824</ele>
        <time>2021-05-08T07:16:07.000Z</time>
      </trkpt>
      <trkpt lat="49.15397" lon="1.30556">
        <ele>106.19999694824</ele>
        <time>2021-05-08T07:16:08.000Z</time>
      </trkpt>
      <trkpt lat="49.15402" lon="1.30554">
        <ele>106</ele>
        <time>2021-05-08T07:16:11.000Z</time>
      </trkpt>
      <trkpt lat="49.15403" lon="1.30555">
        <ele>106</ele>
        <time>2021-05-08T07:16:12.000Z</time>
      </trkpt>
      <trkpt lat="49.15405" lon="1.30557">
        <ele>105.59999847412</ele>
        <time>2021-05-08T07:16:13.000Z</time>
      </trkpt>
      <trkpt lat="49.1541" lon="1.30563">
        <ele>105.40000152588</ele>
        <time>2021-05-08T07:16:17.000Z</time>
      </trkpt>
      <trkpt lat="49.15412" lon="1.30566">
        <ele>105.40000152588</ele>
        <time>2021-05-08T07:16:19.000Z</time>
      </trkpt>
      <trkpt lat="49.15416" lon="1.30567">
        <ele>105.40000152588</ele>
        <time>2021-05-08T07:16:22.000Z</time>
      </trkpt>
      <trkpt lat="49.15426" lon="1.30569">
        <ele>106</ele>
        <time>2021-05-08T07:16:27.000Z</time>
      </trkpt>
      <trkpt lat="49.15431" lon="1.30572">
        <ele>106.19999694824</ele>
        <time>2021-05-08T07:16:29.000Z</time>
      </trkpt>
      <trkpt lat="49.15443" lon="1.30582">
        <ele>106.40000152588</ele>
        <time>2021-05-08T07:16:34.000Z</time>
      </trkpt>
      <trkpt lat="49.15455" lon="1.30591">
        <ele>106.40000152588</ele>
        <time>2021-05-08T07:16:39.000Z</time>
      </trkpt>
      <trkpt lat="49.15472" lon="1.30601">
        <ele>106.40000152588</ele>
        <time>2021-05-08T07:16:44.000Z</time>
      </trkpt>
      <trkpt lat="49.15491" lon="1.3061">
        <ele>106.59999847412</ele>
        <time>2021-05-08T07:16:49.000Z</time>
      </trkpt>
      <trkpt lat="49.15494" lon="1.30611">
        <ele>106.80000305176</ele>
        <time>2021-05-08T07:16:50.000Z</time>
      </trkpt>
      <trkpt lat="49.15507" lon="1.30618">
        <ele>107.19999694824</ele>
        <time>2021-05-08T07:16:54.000Z</time>
      </trkpt>
      <trkpt lat="49.15522" lon="1.30626">
        <ele>107.59999847412</ele>
        <time>2021-05-08T07:16:59.000Z</time>
      </trkpt>
      <trkpt lat="49.15527" lon="1.3063">
        <ele>107.80000305176</ele>
        <time>2021-05-08T07:17:01.000Z</time>
      </trkpt>
      <trkpt lat="49.15537" lon="1.30635">
        <ele>108</ele>
        <time>2021-05-08T07:17:05.000Z</time>
      </trkpt>
      <trkpt lat="49.15545" lon="1.30635">
        <ele>108.59999847412</ele>
        <time>2021-05-08T07:17:09.000Z</time>
      </trkpt>
      <trkpt lat="49.15547" lon="1.30635">
        <ele>108.80000305176</ele>
        <time>2021-05-08T07:17:10.000Z</time>
      </trkpt>
      <trkpt lat="49.15549" lon="1.30635">
        <ele>109</ele>
        <time>2021-05-08T07:17:11.000Z</time>
      </trkpt>
      <trkpt lat="49.15551" lon="1.30635">
        <ele>109</ele>
        <time>2021-05-08T07:17:12.000Z</time>
      </trkpt>
      <trkpt lat="49.15554" lon="1.30635">
        <ele>109.40000152588</ele>
        <time>2021-05-08T07:17:14.000Z</time>
      </trkpt>
      <trkpt lat="49.15557" lon="1.30633">
        <ele>109.80000305176</ele>
        <time>2021-05-08T07:17:17.000Z</time>
      </trkpt>
      <trkpt lat="49.15559" lon="1.30633">
        <ele>110</ele>
        <time>2021-05-08T07:17:18.000Z</time>
      </trkpt>
      <trkpt lat="49.15564" lon="1.30633">
        <ele>110.80000305176</ele>
        <time>2021-05-08T07:17:22.000Z</time>
      </trkpt>
      <trkpt lat="49.15565" lon="1.30633">
        <ele>111</ele>
        <time>2021-05-08T07:17:23.000Z</time>
      </trkpt>
      <trkpt lat="49.15568" lon="1.30633">
        <ele>111.59999847412</ele>
        <time>2021-05-08T07:17:25.000Z</time>
      </trkpt>
      <trkpt lat="49.1557" lon="1.30634">
        <ele>112.19999694824</ele>
        <time>2021-05-08T07:17:27.000Z</time>
      </trkpt>
      <trkpt lat="49.15572" lon="1.30635">
        <ele>112.19999694824</ele>
        <time>2021-05-08T07:17:28.000Z</time>
      </trkpt>
      <trkpt lat="49.15582" lon="1.30638">
        <ele>113</ele>
        <time>2021-05-08T07:17:33.000Z</time>
      </trkpt>
      <trkpt lat="49.15584" lon="1.30639">
        <ele>113.19999694824</ele>
        <time>2021-05-08T07:17:34.000Z</time>
      </trkpt>
      <trkpt lat="49.15596" lon="1.30642">
        <ele>114.40000152588</ele>
        <time>2021-05-08T07:17:38.000Z</time>
      </trkpt>
      <trkpt lat="49.15602" lon="1.30645">
        <ele>114.59999847412</ele>
        <time>2021-05-08T07:17:40.000Z</time>
      </trkpt>
      <trkpt lat="49.15609" lon="1.30648">
        <ele>115.19999694824</ele>
        <time>2021-05-08T07:17:42.000Z</time>
      </trkpt>
      <trkpt lat="49.15623" lon="1.30657">
        <ele>116.19999694824</ele>
        <time>2021-05-08T07:17:47.000Z</time>
      </trkpt>
      <trkpt lat="49.15627" lon="1.30658">
        <ele>116.59999847412</ele>
        <time>2021-05-08T07:17:48.000Z</time>
      </trkpt>
      <trkpt lat="49.15647" lon="1.3067">
        <ele>117.40000152588</ele>
        <time>2021-05-08T07:17:54.000Z</time>
      </trkpt>
      <trkpt lat="49.15651" lon="1.30672">
        <ele>117.59999847412</ele>
        <time>2021-05-08T07:17:55.000Z</time>
      </trkpt>
      <trkpt lat="49.15664" lon="1.30672">
        <ele>118</ele>
        <time>2021-05-08T07:17:59.000Z</time>
      </trkpt>
      <trkpt lat="49.15683" lon="1.30669">
        <ele>118.59999847412</ele>
        <time>2021-05-08T07:18:05.000Z</time>
      </trkpt>
      <trkpt lat="49.15686" lon="1.30669">
        <ele>118.80000305176</ele>
        <time>2021-05-08T07:18:06.000Z</time>
      </trkpt>
      <trkpt lat="49.15702" lon="1.30672">
        <ele>119.59999847412</ele>
        <time>2021-05-08T07:18:12.000Z</time>
      </trkpt>
      <trkpt lat="49.15705" lon="1.30674">
        <ele>119.59999847412</ele>
        <time>2021-05-08T07:18:13.000Z</time>
      </trkpt>
      <trkpt lat="49.15723" lon="1.30677">
        <ele>120.40000152588</ele>
        <time>2021-05-08T07:18:19.000Z</time>
      </trkpt>
      <trkpt lat="49.15732" lon="1.30678">
        <ele>120.80000305176</ele>
        <time>2021-05-08T07:18:22.000Z</time>
      </trkpt>
      <trkpt lat="49.15743" lon="1.30678">
        <ele>121.40000152588</ele>
        <time>2021-05-08T07:18:26.000Z</time>
      </trkpt>
      <trkpt lat="49.15752" lon="1.30678">
        <ele>121.80000305176</ele>
        <time>2021-05-08T07:18:29.000Z</time>
      </trkpt>
      <trkpt lat="49.15763" lon="1.3068">
        <ele>122.40000152588</ele>
        <time>2021-05-08T07:18:33.000Z</time>
      </trkpt>
      <trkpt lat="49.15774" lon="1.30685">
        <ele>122.80000305176</ele>
        <time>2021-05-08T07:18:37.000Z</time>
      </trkpt>
      <trkpt lat="49.15783" lon="1.30692">
        <ele>123</ele>
        <time>2021-05-08T07:18:40.000Z</time>
      </trkpt>
      <trkpt lat="49.15806" lon="1.30707">
        <ele>123.80000305176</ele>
        <time>2021-05-08T07:18:48.000Z</time>
      </trkpt>
      <trkpt lat="49.15809" lon="1.30709">
        <ele>124</ele>
        <time>2021-05-08T07:18:49.000Z</time>
      </trkpt>
      <trkpt lat="49.15828" lon="1.30715">
        <ele>124.80000305176</ele>
        <time>2021-05-08T07:18:55.000Z</time>
      </trkpt>
      <trkpt lat="49.15831" lon="1.30714">
        <ele>124.80000305176</ele>
        <time>2021-05-08T07:18:56.000Z</time>
      </trkpt>
      <trkpt lat="49.15833" lon="1.30708">
        <ele>125</ele>
        <time>2021-05-08T07:18:58.000Z</time>
      </trkpt>
      <trkpt lat="49.15832" lon="1.30705">
        <ele>125</ele>
        <time>2021-05-08T07:18:59.000Z</time>
      </trkpt>
      <trkpt lat="49.15831" lon="1.30701">
        <ele>125</ele>
        <time>2021-05-08T07:19:00.000Z</time>
      </trkpt>
      <trkpt lat="49.15828" lon="1.30692">
        <ele>125.19999694824</ele>
        <time>2021-05-08T07:19:02.000Z</time>
      </trkpt>
      <trkpt lat="49.15815" lon="1.30656">
        <ele>125.80000305176</ele>
        <time>2021-05-08T07:19:10.000Z</time>
      </trkpt>
      <trkpt lat="49.15802" lon="1.30617">
        <ele>125.80000305176</ele>
        <time>2021-05-08T07:19:18.000Z</time>
      </trkpt>
      <trkpt lat="49.15791" lon="1.30581">
        <ele>126</ele>
        <time>2021-05-08T07:19:25.000Z</time>
      </trkpt>
      <trkpt lat="49.15789" lon="1.30576">
        <ele>126</ele>
        <time>2021-05-08T07:19:26.000Z</time>
      </trkpt>
      <trkpt lat="49.15772" lon="1.30525">
        <ele>126.40000152588</ele>
        <time>2021-05-08T07:19:36.000Z</time>
      </trkpt>
      <trkpt lat="49.15754" lon="1.30481">
        <ele>126.59999847412</ele>
        <time>2021-05-08T07:19:45.000Z</time>
      </trkpt>
      <trkpt lat="49.15739" lon="1.30444">
        <ele>126.80000305176</ele>
        <time>2021-05-08T07:19:53.000Z</time>
      </trkpt>
      <trkpt lat="49.15734" lon="1.30429">
        <ele>127.19999694824</ele>
        <time>2021-05-08T07:19:56.000Z</time>
      </trkpt>
      <trkpt lat="49.15724" lon="1.30405">
        <ele>127.40000152588</ele>
        <time>2021-05-08T07:20:01.000Z</time>
      </trkpt>
      <trkpt lat="49.15708" lon="1.3036">
        <ele>127.80000305176</ele>
        <time>2021-05-08T07:20:10.000Z</time>
      </trkpt>
      <trkpt lat="49.15696" lon="1.30316">
        <ele>128.39999389648</ele>
        <time>2021-05-08T07:20:18.000Z</time>
      </trkpt>
      <trkpt lat="49.15693" lon="1.30305">
        <ele>128.80000305176</ele>
        <time>2021-05-08T07:20:20.000Z</time>
      </trkpt>
      <trkpt lat="49.15682" lon="1.30263">
        <ele>129.39999389648</ele>
        <time>2021-05-08T07:20:28.000Z</time>
      </trkpt>
      <trkpt lat="49.1568" lon="1.30253">
        <ele>129.60000610352</ele>
        <time>2021-05-08T07:20:30.000Z</time>
      </trkpt>
      <trkpt lat="49.15672" lon="1.30224">
        <ele>130.60000610352</ele>
        <time>2021-05-08T07:20:36.000Z</time>
      </trkpt>
      <trkpt lat="49.15666" lon="1.30207">
        <ele>131.19999694824</ele>
        <time>2021-05-08T07:20:40.000Z</time>
      </trkpt>
      <trkpt lat="49.15664" lon="1.30198">
        <ele>131.80000305176</ele>
        <time>2021-05-08T07:20:42.000Z</time>
      </trkpt>
      <trkpt lat="49.15659" lon="1.30175">
        <ele>132.39999389648</ele>
        <time>2021-05-08T07:20:47.000Z</time>
      </trkpt>
      <trkpt lat="49.15657" lon="1.30166">
        <ele>133</ele>
        <time>2021-05-08T07:20:49.000Z</time>
      </trkpt>
      <trkpt lat="49.15652" lon="1.30142">
        <ele>134</ele>
        <time>2021-05-08T07:20:54.000Z</time>
      </trkpt>
      <trkpt lat="49.15651" lon="1.30137">
        <ele>134.19999694824</ele>
        <time>2021-05-08T07:20:55.000Z</time>
      </trkpt>
      <trkpt lat="49.15646" lon="1.30112">
        <ele>134.80000305176</ele>
        <time>2021-05-08T07:21:00.000Z</time>
      </trkpt>
      <trkpt lat="49.15639" lon="1.30085">
        <ele>135.19999694824</ele>
        <time>2021-05-08T07:21:06.000Z</time>
      </trkpt>
      <trkpt lat="49.15634" lon="1.30059">
        <ele>135.60000610352</ele>
        <time>2021-05-08T07:21:11.000Z</time>
      </trkpt>
      <trkpt lat="49.15632" lon="1.30039">
        <ele>135.80000305176</ele>
        <time>2021-05-08T07:21:15.000Z</time>
      </trkpt>
      <trkpt lat="49.15626" lon="1.30021">
        <ele>136</ele>
        <time>2021-05-08T07:21:19.000Z</time>
      </trkpt>
      <trkpt lat="49.15617" lon="1.30003">
        <ele>136.39999389648</ele>
        <time>2021-05-08T07:21:24.000Z</time>
      </trkpt>
      <trkpt lat="49.15609" lon="1.29984">
        <ele>136.60000610352</ele>
        <time>2021-05-08T07:21:29.000Z</time>
      </trkpt>
      <trkpt lat="49.15605" lon="1.29965">
        <ele>137.19999694824</ele>
        <time>2021-05-08T07:21:34.000Z</time>
      </trkpt>
      <trkpt lat="49.15601" lon="1.29948">
        <ele>137.39999389648</ele>
        <time>2021-05-08T07:21:38.000Z</time>
      </trkpt>
      <trkpt lat="49.156" lon="1.29943">
        <ele>137.39999389648</ele>
        <time>2021-05-08T07:21:39.000Z</time>
      </trkpt>
      <trkpt lat="49.15593" lon="1.29917">
        <ele>138</ele>
        <time>2021-05-08T07:21:45.000Z</time>
      </trkpt>
      <trkpt lat="49.15587" lon="1.29904">
        <ele>138.39999389648</ele>
        <time>2021-05-08T07:21:48.000Z</time>
      </trkpt>
      <trkpt lat="49.1558" lon="1.29889">
        <ele>138.80000305176</ele>
        <time>2021-05-08T07:21:51.000Z</time>
      </trkpt>
      <trkpt lat="49.15565" lon="1.29864">
        <ele>139.39999389648</ele>
        <time>2021-05-08T07:21:57.000Z</time>
      </trkpt>
      <trkpt lat="49.15563" lon="1.2986">
        <ele>139.39999389648</ele>
        <time>2021-05-08T07:21:58.000Z</time>
      </trkpt>
      <trkpt lat="49.15553" lon="1.2984">
        <ele>140.19999694824</ele>
        <time>2021-05-08T07:22:03.000Z</time>
      </trkpt>
      <trkpt lat="49.15548" lon="1.2983">
        <ele>140.60000610352</ele>
        <time>2021-05-08T07:22:05.000Z</time>
      </trkpt>
      <trkpt lat="49.15543" lon="1.29813">
        <ele>141</ele>
        <time>2021-05-08T07:22:08.000Z</time>
      </trkpt>
      <trkpt lat="49.15537" lon="1.29782">
        <ele>141.39999389648</ele>
        <time>2021-05-08T07:22:14.000Z</time>
      </trkpt>
      <trkpt lat="49.15537" lon="1.29775">
        <ele>141.60000610352</ele>
        <time>2021-05-08T07:22:15.000Z</time>
      </trkpt>
      <trkpt lat="49.15531" lon="1.29751">
        <ele>141.80000305176</ele>
        <time>2021-05-08T07:22:19.000Z</time>
      </trkpt>
      <trkpt lat="49.15525" lon="1.29719">
        <ele>142</ele>
        <time>2021-05-08T07:22:24.000Z</time>
      </trkpt>
      <trkpt lat="49.15521" lon="1.29688">
        <ele>142.19999694824</ele>
        <time>2021-05-08T07:22:29.000Z</time>
      </trkpt>
      <trkpt lat="49.15517" lon="1.29664">
        <ele>142.19999694824</ele>
        <time>2021-05-08T07:22:33.000Z</time>
      </trkpt>
      <trkpt lat="49.15511" lon="1.29636">
        <ele>142.39999389648</ele>
        <time>2021-05-08T07:22:38.000Z</time>
      </trkpt>
      <trkpt lat="49.15506" lon="1.29605">
        <ele>142.39999389648</ele>
        <time>2021-05-08T07:22:43.000Z</time>
      </trkpt>
      <trkpt lat="49.15501" lon="1.29573">
        <ele>142.60000610352</ele>
        <time>2021-05-08T07:22:48.000Z</time>
      </trkpt>
      <trkpt lat="49.15498" lon="1.29555">
        <ele>142.60000610352</ele>
        <time>2021-05-08T07:22:51.000Z</time>
      </trkpt>
      <trkpt lat="49.15495" lon="1.29535">
        <ele>142.60000610352</ele>
        <time>2021-05-08T07:22:54.000Z</time>
      </trkpt>
      <trkpt lat="49.1549" lon="1.29495">
        <ele>143</ele>
        <time>2021-05-08T07:23:00.000Z</time>
      </trkpt>
      <trkpt lat="49.15489" lon="1.29488">
        <ele>143.19999694824</ele>
        <time>2021-05-08T07:23:01.000Z</time>
      </trkpt>
      <trkpt lat="49.15483" lon="1.2945">
        <ele>143.19999694824</ele>
        <time>2021-05-08T07:23:07.000Z</time>
      </trkpt>
      <trkpt lat="49.15478" lon="1.29419">
        <ele>143.39999389648</ele>
        <time>2021-05-08T07:23:12.000Z</time>
      </trkpt>
      <trkpt lat="49.15472" lon="1.29395">
        <ele>143.60000610352</ele>
        <time>2021-05-08T07:23:16.000Z</time>
      </trkpt>
      <trkpt lat="49.15471" lon="1.29389">
        <ele>143.80000305176</ele>
        <time>2021-05-08T07:23:17.000Z</time>
      </trkpt>
      <trkpt lat="49.15464" lon="1.29353">
        <ele>144.19999694824</ele>
        <time>2021-05-08T07:23:23.000Z</time>
      </trkpt>
      <trkpt lat="49.15459" lon="1.29328">
        <ele>144.39999389648</ele>
        <time>2021-05-08T07:23:27.000Z</time>
      </trkpt>
      <trkpt lat="49.15456" lon="1.2931">
        <ele>144.60000610352</ele>
        <time>2021-05-08T07:23:30.000Z</time>
      </trkpt>
      <trkpt lat="49.15453" lon="1.29293">
        <ele>144.80000305176</ele>
        <time>2021-05-08T07:23:33.000Z</time>
      </trkpt>
      <trkpt lat="49.15447" lon="1.29256">
        <ele>145.39999389648</ele>
        <time>2021-05-08T07:23:39.000Z</time>
      </trkpt>
      <trkpt lat="49.15444" lon="1.29235">
        <ele>145.60000610352</ele>
        <time>2021-05-08T07:23:42.000Z</time>
      </trkpt>
      <trkpt lat="49.15439" lon="1.29216">
        <ele>145.60000610352</ele>
        <time>2021-05-08T07:23:45.000Z</time>
      </trkpt>
      <trkpt lat="49.15438" lon="1.2921">
        <ele>145.60000610352</ele>
        <time>2021-05-08T07:23:46.000Z</time>
      </trkpt>
      <trkpt lat="49.15436" lon="1.29196">
        <ele>145.60000610352</ele>
        <time>2021-05-08T07:23:48.000Z</time>
      </trkpt>
      <trkpt lat="49.15433" lon="1.29183">
        <ele>145.80000305176</ele>
        <time>2021-05-08T07:23:50.000Z</time>
      </trkpt>
      <trkpt lat="49.15431" lon="1.29171">
        <ele>145.80000305176</ele>
        <time>2021-05-08T07:23:52.000Z</time>
      </trkpt>
      <trkpt lat="49.15426" lon="1.29142">
        <ele>146</ele>
        <time>2021-05-08T07:23:57.000Z</time>
      </trkpt>
      <trkpt lat="49.15424" lon="1.29134">
        <ele>146.19999694824</ele>
        <time>2021-05-08T07:23:59.000Z</time>
      </trkpt>
      <trkpt lat="49.15419" lon="1.29128">
        <ele>146.39999389648</ele>
        <time>2021-05-08T07:24:01.000Z</time>
      </trkpt>
      <trkpt lat="49.15405" lon="1.29119">
        <ele>146.60000610352</ele>
        <time>2021-05-08T07:24:06.000Z</time>
      </trkpt>
      <trkpt lat="49.15396" lon="1.29118">
        <ele>146.80000305176</ele>
        <time>2021-05-08T07:24:10.000Z</time>
      </trkpt>
      <trkpt lat="49.15382" lon="1.29117">
        <ele>146.80000305176</ele>
        <time>2021-05-08T07:24:14.000Z</time>
      </trkpt>
      <trkpt lat="49.15366" lon="1.29116">
        <ele>147.19999694824</ele>
        <time>2021-05-08T07:24:19.000Z</time>
      </trkpt>
      <trkpt lat="49.15355" lon="1.29116">
        <ele>147.80000305176</ele>
        <time>2021-05-08T07:24:22.000Z</time>
      </trkpt>
      <trkpt lat="49.15352" lon="1.29116">
        <ele>147.80000305176</ele>
        <time>2021-05-08T07:24:23.000Z</time>
      </trkpt>
      <trkpt lat="49.1534" lon="1.29115">
        <ele>148</ele>
        <time>2021-05-08T07:24:27.000Z</time>
      </trkpt>
      <trkpt lat="49.15321" lon="1.29109">
        <ele>148.19999694824</ele>
        <time>2021-05-08T07:24:32.000Z</time>
      </trkpt>
      <trkpt lat="49.15301" lon="1.29109">
        <ele>148.19999694824</ele>
        <time>2021-05-08T07:24:37.000Z</time>
      </trkpt>
      <trkpt lat="49.15281" lon="1.29111">
        <ele>148.39999389648</ele>
        <time>2021-05-08T07:24:42.000Z</time>
      </trkpt>
      <trkpt lat="49.15255" lon="1.29116">
        <ele>148.39999389648</ele>
        <time>2021-05-08T07:24:48.000Z</time>
      </trkpt>
      <trkpt lat="49.15231" lon="1.29124">
        <ele>148.39999389648</ele>
        <time>2021-05-08T07:24:53.000Z</time>
      </trkpt>
      <trkpt lat="49.15227" lon="1.29127">
        <ele>148.19999694824</ele>
        <time>2021-05-08T07:24:54.000Z</time>
      </trkpt>
      <trkpt lat="49.15214" lon="1.29135">
        <ele>147.80000305176</ele>
        <time>2021-05-08T07:24:57.000Z</time>
      </trkpt>
      <trkpt lat="49.15209" lon="1.29139">
        <ele>147.80000305176</ele>
        <time>2021-05-08T07:24:58.000Z</time>
      </trkpt>
      <trkpt lat="49.15184" lon="1.29171">
        <ele>147.39999389648</ele>
        <time>2021-05-08T07:25:04.000Z</time>
      </trkpt>
      <trkpt lat="49.15152" lon="1.2921">
        <ele>146.80000305176</ele>
        <time>2021-05-08T07:25:12.000Z</time>
      </trkpt>
      <trkpt lat="49.15147" lon="1.29214">
        <ele>146.60000610352</ele>
        <time>2021-05-08T07:25:13.000Z</time>
      </trkpt>
      <trkpt lat="49.15128" lon="1.29222">
        <ele>146.39999389648</ele>
        <time>2021-05-08T07:25:17.000Z</time>
      </trkpt>
      <trkpt lat="49.15107" lon="1.29219">
        <ele>146.39999389648</ele>
        <time>2021-05-08T07:25:21.000Z</time>
      </trkpt>
      <trkpt lat="49.15102" lon="1.29218">
        <ele>146.19999694824</ele>
        <time>2021-05-08T07:25:22.000Z</time>
      </trkpt>
      <trkpt lat="49.15092" lon="1.29218">
        <ele>145.80000305176</ele>
        <time>2021-05-08T07:25:24.000Z</time>
      </trkpt>
      <trkpt lat="49.15087" lon="1.2922">
        <ele>145.80000305176</ele>
        <time>2021-05-08T07:25:25.000Z</time>
      </trkpt>
      <trkpt lat="49.15083" lon="1.29224">
        <ele>145.80000305176</ele>
        <time>2021-05-08T07:25:26.000Z</time>
      </trkpt>
      <trkpt lat="49.15076" lon="1.29237">
        <ele>145.60000610352</ele>
        <time>2021-05-08T07:25:28.000Z</time>
      </trkpt>
      <trkpt lat="49.15066" lon="1.29259">
        <ele>145.60000610352</ele>
        <time>2021-05-08T07:25:31.000Z</time>
      </trkpt>
      <trkpt lat="49.15039" lon="1.29314">
        <ele>145.19999694824</ele>
        <time>2021-05-08T07:25:38.000Z</time>
      </trkpt>
      <trkpt lat="49.15032" lon="1.2933">
        <ele>144.60000610352</ele>
        <time>2021-05-08T07:25:40.000Z</time>
      </trkpt>
      <trkpt lat="49.1502" lon="1.29354">
        <ele>143.60000610352</ele>
        <time>2021-05-08T07:25:43.000Z</time>
      </trkpt>
      <trkpt lat="49.15013" lon="1.2937">
        <ele>143</ele>
        <time>2021-05-08T07:25:45.000Z</time>
      </trkpt>
      <trkpt lat="49.15006" lon="1.29386">
        <ele>142.39999389648</ele>
        <time>2021-05-08T07:25:47.000Z</time>
      </trkpt>
      <trkpt lat="49.14987" lon="1.29428">
        <ele>141.60000610352</ele>
        <time>2021-05-08T07:25:53.000Z</time>
      </trkpt>
      <trkpt lat="49.14968" lon="1.2947">
        <ele>141.80000305176</ele>
        <time>2021-05-08T07:26:00.000Z</time>
      </trkpt>
      <trkpt lat="49.14949" lon="1.2951">
        <ele>143.80000305176</ele>
        <time>2021-05-08T07:26:07.000Z</time>
      </trkpt>
      <trkpt lat="49.14929" lon="1.29552">
        <ele>144.80000305176</ele>
        <time>2021-05-08T07:26:14.000Z</time>
      </trkpt>
      <trkpt lat="49.14926" lon="1.29557">
        <ele>145</ele>
        <time>2021-05-08T07:26:15.000Z</time>
      </trkpt>
      <trkpt lat="49.1492" lon="1.29569">
        <ele>145.39999389648</ele>
        <time>2021-05-08T07:26:17.000Z</time>
      </trkpt>
      <trkpt lat="49.14915" lon="1.29581">
        <ele>146</ele>
        <time>2021-05-08T07:26:19.000Z</time>
      </trkpt>
      <trkpt lat="49.14912" lon="1.29585">
        <ele>146</ele>
        <time>2021-05-08T07:26:20.000Z</time>
      </trkpt>
      <trkpt lat="49.149" lon="1.29585">
        <ele>146.19999694824</ele>
        <time>2021-05-08T07:26:23.000Z</time>
      </trkpt>
      <trkpt lat="49.14896" lon="1.29583">
        <ele>146.19999694824</ele>
        <time>2021-05-08T07:26:24.000Z</time>
      </trkpt>
      <trkpt lat="49.14891" lon="1.29581">
        <ele>146.19999694824</ele>
        <time>2021-05-08T07:26:25.000Z</time>
      </trkpt>
      <trkpt lat="49.14869" lon="1.29571">
        <ele>146.39999389648</ele>
        <time>2021-05-08T07:26:30.000Z</time>
      </trkpt>
      <trkpt lat="49.14861" lon="1.29565">
        <ele>146.39999389648</ele>
        <time>2021-05-08T07:26:32.000Z</time>
      </trkpt>
      <trkpt lat="49.14854" lon="1.29555">
        <ele>146.39999389648</ele>
        <time>2021-05-08T07:26:34.000Z</time>
      </trkpt>
      <trkpt lat="49.14846" lon="1.29536">
        <ele>146.60000610352</ele>
        <time>2021-05-08T07:26:37.000Z</time>
      </trkpt>
      <trkpt lat="49.14839" lon="1.29516">
        <ele>146.60000610352</ele>
        <time>2021-05-08T07:26:40.000Z</time>
      </trkpt>
      <trkpt lat="49.14823" lon="1.29455">
        <ele>146.60000610352</ele>
        <time>2021-05-08T07:26:49.000Z</time>
      </trkpt>
      <trkpt lat="49.14815" lon="1.2942">
        <ele>147</ele>
        <time>2021-05-08T07:26:54.000Z</time>
      </trkpt>
      <trkpt lat="49.14813" lon="1.29413">
        <ele>147</ele>
        <time>2021-05-08T07:26:55.000Z</time>
      </trkpt>
      <trkpt lat="49.14804" lon="1.29365">
        <ele>147</ele>
        <time>2021-05-08T07:27:02.000Z</time>
      </trkpt>
      <trkpt lat="49.14801" lon="1.29346">
        <ele>147.19999694824</ele>
        <time>2021-05-08T07:27:05.000Z</time>
      </trkpt>
      <trkpt lat="49.14802" lon="1.29333">
        <ele>147.39999389648</ele>
        <time>2021-05-08T07:27:07.000Z</time>
      </trkpt>
      <trkpt lat="49.14808" lon="1.29316">
        <ele>147.60000610352</ele>
        <time>2021-05-08T07:27:10.000Z</time>
      </trkpt>
      <trkpt lat="49.14814" lon="1.29304">
        <ele>147.60000610352</ele>
        <time>2021-05-08T07:27:12.000Z</time>
      </trkpt>
      <trkpt lat="49.14834" lon="1.29261">
        <ele>148</ele>
        <time>2021-05-08T07:27:19.000Z</time>
      </trkpt>
      <trkpt lat="49.14858" lon="1.29206">
        <ele>147.80000305176</ele>
        <time>2021-05-08T07:27:27.000Z</time>
      </trkpt>
      <trkpt lat="49.14879" lon="1.2916">
        <ele>147.19999694824</ele>
        <time>2021-05-08T07:27:34.000Z</time>
      </trkpt>
      <trkpt lat="49.14906" lon="1.29101">
        <ele>146.60000610352</ele>
        <time>2021-05-08T07:27:42.000Z</time>
      </trkpt>
      <trkpt lat="49.14919" lon="1.29073">
        <ele>146</ele>
        <time>2021-05-08T07:27:46.000Z</time>
      </trkpt>
      <trkpt lat="49.14931" lon="1.29048">
        <ele>145.80000305176</ele>
        <time>2021-05-08T07:27:50.000Z</time>
      </trkpt>
      <trkpt lat="49.14954" lon="1.29002">
        <ele>146</ele>
        <time>2021-05-08T07:27:58.000Z</time>
      </trkpt>
      <trkpt lat="49.14965" lon="1.28979">
        <ele>146.60000610352</ele>
        <time>2021-05-08T07:28:02.000Z</time>
      </trkpt>
      <trkpt lat="49.14972" lon="1.28962">
        <ele>146.80000305176</ele>
        <time>2021-05-08T07:28:05.000Z</time>
      </trkpt>
      <trkpt lat="49.1498" lon="1.28945">
        <ele>147.19999694824</ele>
        <time>2021-05-08T07:28:08.000Z</time>
      </trkpt>
      <trkpt lat="49.14995" lon="1.2891">
        <ele>147.60000610352</ele>
        <time>2021-05-08T07:28:14.000Z</time>
      </trkpt>
      <trkpt lat="49.14997" lon="1.28904">
        <ele>147.80000305176</ele>
        <time>2021-05-08T07:28:15.000Z</time>
      </trkpt>
      <trkpt lat="49.15008" lon="1.28881">
        <ele>148.39999389648</ele>
        <time>2021-05-08T07:28:19.000Z</time>
      </trkpt>
      <trkpt lat="49.15012" lon="1.2887">
        <ele>148.39999389648</ele>
        <time>2021-05-08T07:28:21.000Z</time>
      </trkpt>
      <trkpt lat="49.15031" lon="1.28827">
        <ele>149</ele>
        <time>2021-05-08T07:28:29.000Z</time>
      </trkpt>
      <trkpt lat="49.15039" lon="1.28811">
        <ele>149.39999389648</ele>
        <time>2021-05-08T07:28:32.000Z</time>
      </trkpt>
      <trkpt lat="49.15054" lon="1.2878">
        <ele>149.80000305176</ele>
        <time>2021-05-08T07:28:38.000Z</time>
      </trkpt>
      <trkpt lat="49.15071" lon="1.28742">
        <ele>150.39999389648</ele>
        <time>2021-05-08T07:28:45.000Z</time>
      </trkpt>
      <trkpt lat="49.1509" lon="1.28701">
        <ele>151.19999694824</ele>
        <time>2021-05-08T07:28:53.000Z</time>
      </trkpt>
      <trkpt lat="49.15098" lon="1.28676">
        <ele>151.60000610352</ele>
        <time>2021-05-08T07:28:58.000Z</time>
      </trkpt>
      <trkpt lat="49.151" lon="1.28671">
        <ele>151.80000305176</ele>
        <time>2021-05-08T07:28:59.000Z</time>
      </trkpt>
      <trkpt lat="49.1511" lon="1.28646">
        <ele>152.19999694824</ele>
        <time>2021-05-08T07:29:04.000Z</time>
      </trkpt>
      <trkpt lat="49.15115" lon="1.28635">
        <ele>152.19999694824</ele>
        <time>2021-05-08T07:29:06.000Z</time>
      </trkpt>
      <trkpt lat="49.15123" lon="1.2862">
        <ele>152.39999389648</ele>
        <time>2021-05-08T07:29:09.000Z</time>
      </trkpt>
      <trkpt lat="49.15126" lon="1.28614">
        <ele>152.39999389648</ele>
        <time>2021-05-08T07:29:10.000Z</time>
      </trkpt>
      <trkpt lat="49.15136" lon="1.28588">
        <ele>152.39999389648</ele>
        <time>2021-05-08T07:29:15.000Z</time>
      </trkpt>
      <trkpt lat="49.15146" lon="1.28566">
        <ele>152.39999389648</ele>
        <time>2021-05-08T07:29:20.000Z</time>
      </trkpt>
      <trkpt lat="49.15156" lon="1.28545">
        <ele>152.39999389648</ele>
        <time>2021-05-08T07:29:25.000Z</time>
      </trkpt>
      <trkpt lat="49.15164" lon="1.2853">
        <ele>152.39999389648</ele>
        <time>2021-05-08T07:29:29.000Z</time>
      </trkpt>
      <trkpt lat="49.15174" lon="1.28513">
        <ele>152.60000610352</ele>
        <time>2021-05-08T07:29:33.000Z</time>
      </trkpt>
      <trkpt lat="49.15186" lon="1.28488">
        <ele>152.60000610352</ele>
        <time>2021-05-08T07:29:38.000Z</time>
      </trkpt>
      <trkpt lat="49.15187" lon="1.28484">
        <ele>152.60000610352</ele>
        <time>2021-05-08T07:29:39.000Z</time>
      </trkpt>
      <trkpt lat="49.15195" lon="1.28468">
        <ele>152.80000305176</ele>
        <time>2021-05-08T07:29:43.000Z</time>
      </trkpt>
      <trkpt lat="49.15212" lon="1.28427">
        <ele>153.19999694824</ele>
        <time>2021-05-08T07:29:51.000Z</time>
      </trkpt>
      <trkpt lat="49.15224" lon="1.28397">
        <ele>153.39999389648</ele>
        <time>2021-05-08T07:29:56.000Z</time>
      </trkpt>
      <trkpt lat="49.15226" lon="1.2839">
        <ele>153.39999389648</ele>
        <time>2021-05-08T07:29:57.000Z</time>
      </trkpt>
      <trkpt lat="49.15239" lon="1.28359">
        <ele>153.39999389648</ele>
        <time>2021-05-08T07:30:02.000Z</time>
      </trkpt>
      <trkpt lat="49.15257" lon="1.28318">
        <ele>153</ele>
        <time>2021-05-08T07:30:08.000Z</time>
      </trkpt>
      <trkpt lat="49.15263" lon="1.28304">
        <ele>152.80000305176</ele>
        <time>2021-05-08T07:30:10.000Z</time>
      </trkpt>
      <trkpt lat="49.15271" lon="1.28279">
        <ele>152.39999389648</ele>
        <time>2021-05-08T07:30:13.000Z</time>
      </trkpt>
      <trkpt lat="49.15288" lon="1.28234">
        <ele>151.80000305176</ele>
        <time>2021-05-08T07:30:18.000Z</time>
      </trkpt>
      <trkpt lat="49.15292" lon="1.28225">
        <ele>151.60000610352</ele>
        <time>2021-05-08T07:30:19.000Z</time>
      </trkpt>
      <trkpt lat="49.15307" lon="1.28192">
        <ele>150.80000305176</ele>
        <time>2021-05-08T07:30:23.000Z</time>
      </trkpt>
      <trkpt lat="49.1531" lon="1.28184">
        <ele>150.60000610352</ele>
        <time>2021-05-08T07:30:24.000Z</time>
      </trkpt>
      <trkpt lat="49.15319" lon="1.28162">
        <ele>149.60000610352</ele>
        <time>2021-05-08T07:30:27.000Z</time>
      </trkpt>
      <trkpt lat="49.15321" lon="1.28154">
        <ele>149.39999389648</ele>
        <time>2021-05-08T07:30:28.000Z</time>
      </trkpt>
      <trkpt lat="49.15327" lon="1.28137">
        <ele>148.60000610352</ele>
        <time>2021-05-08T07:30:30.000Z</time>
      </trkpt>
      <trkpt lat="49.15334" lon="1.28121">
        <ele>148.39999389648</ele>
        <time>2021-05-08T07:30:32.000Z</time>
      </trkpt>
      <trkpt lat="49.15357" lon="1.28064">
        <ele>148</ele>
        <time>2021-05-08T07:30:39.000Z</time>
      </trkpt>
      <trkpt lat="49.1536" lon="1.28056">
        <ele>148</ele>
        <time>2021-05-08T07:30:40.000Z</time>
      </trkpt>
      <trkpt lat="49.15382" lon="1.28013">
        <ele>147.39999389648</ele>
        <time>2021-05-08T07:30:46.000Z</time>
      </trkpt>
      <trkpt lat="49.15392" lon="1.27994">
        <ele>146.60000610352</ele>
        <time>2021-05-08T07:30:49.000Z</time>
      </trkpt>
      <trkpt lat="49.15397" lon="1.27984">
        <ele>146.19999694824</ele>
        <time>2021-05-08T07:30:52.000Z</time>
      </trkpt>
      <trkpt lat="49.15398" lon="1.2798">
        <ele>145.60000610352</ele>
        <time>2021-05-08T07:30:54.000Z</time>
      </trkpt>
      <trkpt lat="49.15398" lon="1.2798">
        <ele>145.19999694824</ele>
        <time>2021-05-08T07:30:55.000Z</time>
      </trkpt>
      <trkpt lat="49.154" lon="1.27973">
        <ele>144.19999694824</ele>
        <time>2021-05-08T07:31:41.000Z</time>
      </trkpt>
      <trkpt lat="49.15404" lon="1.27968">
        <ele>144.19999694824</ele>
        <time>2021-05-08T07:31:43.000Z</time>
      </trkpt>
      <trkpt lat="49.15417" lon="1.27953">
        <ele>144.19999694824</ele>
        <time>2021-05-08T07:31:48.000Z</time>
      </trkpt>
      <trkpt lat="49.15431" lon="1.27935">
        <ele>143.19999694824</ele>
        <time>2021-05-08T07:31:53.000Z</time>
      </trkpt>
      <trkpt lat="49.15434" lon="1.27931">
        <ele>143</ele>
        <time>2021-05-08T07:31:54.000Z</time>
      </trkpt>
      <trkpt lat="49.15441" lon="1.27924">
        <ele>142.19999694824</ele>
        <time>2021-05-08T07:31:56.000Z</time>
      </trkpt>
      <trkpt lat="49.15446" lon="1.27917">
        <ele>141.39999389648</ele>
        <time>2021-05-08T07:31:58.000Z</time>
      </trkpt>
      <trkpt lat="49.1545" lon="1.27914">
        <ele>141</ele>
        <time>2021-05-08T07:31:59.000Z</time>
      </trkpt>
      <trkpt lat="49.15463" lon="1.27904">
        <ele>139.80000305176</ele>
        <time>2021-05-08T07:32:02.000Z</time>
      </trkpt>
      <trkpt lat="49.15468" lon="1.27894">
        <ele>138.80000305176</ele>
        <time>2021-05-08T07:32:04.000Z</time>
      </trkpt>
      <trkpt lat="49.15469" lon="1.27889">
        <ele>137.80000305176</ele>
        <time>2021-05-08T07:32:05.000Z</time>
      </trkpt>
      <trkpt lat="49.15469" lon="1.27884">
        <ele>137.19999694824</ele>
        <time>2021-05-08T07:32:06.000Z</time>
      </trkpt>
      <trkpt lat="49.1547" lon="1.27875">
        <ele>136.19999694824</ele>
        <time>2021-05-08T07:32:08.000Z</time>
      </trkpt>
      <trkpt lat="49.15472" lon="1.27866">
        <ele>134.80000305176</ele>
        <time>2021-05-08T07:32:10.000Z</time>
      </trkpt>
      <trkpt lat="49.1548" lon="1.2785">
        <ele>134.19999694824</ele>
        <time>2021-05-08T07:32:14.000Z</time>
      </trkpt>
      <trkpt lat="49.15488" lon="1.27832">
        <ele>134.19999694824</ele>
        <time>2021-05-08T07:32:19.000Z</time>
      </trkpt>
      <trkpt lat="49.15496" lon="1.27812">
        <ele>134.60000610352</ele>
        <time>2021-05-08T07:32:24.000Z</time>
      </trkpt>
      <trkpt lat="49.15506" lon="1.27789">
        <ele>135.80000305176</ele>
        <time>2021-05-08T07:32:30.000Z</time>
      </trkpt>
      <trkpt lat="49.15507" lon="1.27786">
        <ele>136</ele>
        <time>2021-05-08T07:32:31.000Z</time>
      </trkpt>
      <trkpt lat="49.15515" lon="1.27767">
        <ele>137.19999694824</ele>
        <time>2021-05-08T07:32:36.000Z</time>
      </trkpt>
      <trkpt lat="49.15517" lon="1.27764">
        <ele>137.39999389648</ele>
        <time>2021-05-08T07:32:37.000Z</time>
      </trkpt>
      <trkpt lat="49.15521" lon="1.27753">
        <ele>138.19999694824</ele>
        <time>2021-05-08T07:32:40.000Z</time>
      </trkpt>
      <trkpt lat="49.15525" lon="1.27743">
        <ele>139.19999694824</ele>
        <time>2021-05-08T07:32:43.000Z</time>
      </trkpt>
      <trkpt lat="49.15526" lon="1.27739">
        <ele>139.39999389648</ele>
        <time>2021-05-08T07:32:44.000Z</time>
      </trkpt>
      <trkpt lat="49.15532" lon="1.27723">
        <ele>140</ele>
        <time>2021-05-08T07:32:49.000Z</time>
      </trkpt>
      <trkpt lat="49.15534" lon="1.27717">
        <ele>140.39999389648</ele>
        <time>2021-05-08T07:32:51.000Z</time>
      </trkpt>
      <trkpt lat="49.15536" lon="1.27711">
        <ele>140.80000305176</ele>
        <time>2021-05-08T07:32:53.000Z</time>
      </trkpt>
      <trkpt lat="49.15539" lon="1.27697">
        <ele>141.60000610352</ele>
        <time>2021-05-08T07:32:57.000Z</time>
      </trkpt>
      <trkpt lat="49.15541" lon="1.27691">
        <ele>142</ele>
        <time>2021-05-08T07:32:59.000Z</time>
      </trkpt>
      <trkpt lat="49.15543" lon="1.27683">
        <ele>142.80000305176</ele>
        <time>2021-05-08T07:33:02.000Z</time>
      </trkpt>
      <trkpt lat="49.15546" lon="1.27669">
        <ele>143.60000610352</ele>
        <time>2021-05-08T07:33:07.000Z</time>
      </trkpt>
      <trkpt lat="49.15547" lon="1.27666">
        <ele>143.80000305176</ele>
        <time>2021-05-08T07:33:08.000Z</time>
      </trkpt>
      <trkpt lat="49.15553" lon="1.2765">
        <ele>144.80000305176</ele>
        <time>2021-05-08T07:33:13.000Z</time>
      </trkpt>
      <trkpt lat="49.15554" lon="1.27647">
        <ele>145</ele>
        <time>2021-05-08T07:33:14.000Z</time>
      </trkpt>
      <trkpt lat="49.15562" lon="1.2763">
        <ele>145.60000610352</ele>
        <time>2021-05-08T07:33:19.000Z</time>
      </trkpt>
      <trkpt lat="49.15565" lon="1.2762">
        <ele>146</ele>
        <time>2021-05-08T07:33:22.000Z</time>
      </trkpt>
      <trkpt lat="49.15569" lon="1.27609">
        <ele>146.39999389648</ele>
        <time>2021-05-08T07:33:25.000Z</time>
      </trkpt>
      <trkpt lat="49.15576" lon="1.27594">
        <ele>147</ele>
        <time>2021-05-08T07:33:30.000Z</time>
      </trkpt>
      <trkpt lat="49.15581" lon="1.27585">
        <ele>147.60000610352</ele>
        <time>2021-05-08T07:33:33.000Z</time>
      </trkpt>
      <trkpt lat="49.15588" lon="1.27568">
        <ele>148.19999694824</ele>
        <time>2021-05-08T07:33:38.000Z</time>
      </trkpt>
      <trkpt lat="49.1559" lon="1.27565">
        <ele>148.39999389648</ele>
        <time>2021-05-08T07:33:39.000Z</time>
      </trkpt>
      <trkpt lat="49.15599" lon="1.27546">
        <ele>149</ele>
        <time>2021-05-08T07:33:45.000Z</time>
      </trkpt>
      <trkpt lat="49.15607" lon="1.27529">
        <ele>149.19999694824</ele>
        <time>2021-05-08T07:33:50.000Z</time>
      </trkpt>
      <trkpt lat="49.15611" lon="1.27522">
        <ele>149.19999694824</ele>
        <time>2021-05-08T07:33:52.000Z</time>
      </trkpt>
      <trkpt lat="49.15625" lon="1.27493">
        <ele>149.39999389648</ele>
        <time>2021-05-08T07:34:00.000Z</time>
      </trkpt>
      <trkpt lat="49.15636" lon="1.27471">
        <ele>149.39999389648</ele>
        <time>2021-05-08T07:34:06.000Z</time>
      </trkpt>
      <trkpt lat="49.1565" lon="1.27441">
        <ele>149.80000305176</ele>
        <time>2021-05-08T07:34:13.000Z</time>
      </trkpt>
      <trkpt lat="49.15666" lon="1.27409">
        <ele>149.80000305176</ele>
        <time>2021-05-08T07:34:21.000Z</time>
      </trkpt>
      <trkpt lat="49.15688" lon="1.27365">
        <ele>150.19999694824</ele>
        <time>2021-05-08T07:34:31.000Z</time>
      </trkpt>
      <trkpt lat="49.15695" lon="1.27351">
        <ele>150.39999389648</ele>
        <time>2021-05-08T07:34:34.000Z</time>
      </trkpt>
      <trkpt lat="49.1571" lon="1.27323">
        <ele>150.39999389648</ele>
        <time>2021-05-08T07:34:40.000Z</time>
      </trkpt>
      <trkpt lat="49.15735" lon="1.27277">
        <ele>150.60000610352</ele>
        <time>2021-05-08T07:34:50.000Z</time>
      </trkpt>
      <trkpt lat="49.1576" lon="1.27225">
        <ele>151.19999694824</ele>
        <time>2021-05-08T07:35:01.000Z</time>
      </trkpt>
      <trkpt lat="49.1578" lon="1.27182">
        <ele>151.39999389648</ele>
        <time>2021-05-08T07:35:10.000Z</time>
      </trkpt>
      <trkpt lat="49.15803" lon="1.27136">
        <ele>151.60000610352</ele>
        <time>2021-05-08T07:35:19.000Z</time>
      </trkpt>
      <trkpt lat="49.1582" lon="1.27102">
        <ele>152</ele>
        <time>2021-05-08T07:35:26.000Z</time>
      </trkpt>
      <trkpt lat="49.15841" lon="1.27059">
        <ele>152</ele>
        <time>2021-05-08T07:35:34.000Z</time>
      </trkpt>
      <trkpt lat="49.15865" lon="1.27011">
        <ele>152</ele>
        <time>2021-05-08T07:35:43.000Z</time>
      </trkpt>
      <trkpt lat="49.15891" lon="1.26955">
        <ele>151.80000305176</ele>
        <time>2021-05-08T07:35:53.000Z</time>
      </trkpt>
      <trkpt lat="49.15912" lon="1.26912">
        <ele>151.60000610352</ele>
        <time>2021-05-08T07:36:01.000Z</time>
      </trkpt>
      <trkpt lat="49.1592" lon="1.26896">
        <ele>151.39999389648</ele>
        <time>2021-05-08T07:36:04.000Z</time>
      </trkpt>
      <trkpt lat="49.15928" lon="1.26879">
        <ele>151.39999389648</ele>
        <time>2021-05-08T07:36:07.000Z</time>
      </trkpt>
      <trkpt lat="49.15942" lon="1.26855">
        <ele>151.19999694824</ele>
        <time>2021-05-08T07:36:12.000Z</time>
      </trkpt>
      <trkpt lat="49.15948" lon="1.26846">
        <ele>151.19999694824</ele>
        <time>2021-05-08T07:36:14.000Z</time>
      </trkpt>
      <trkpt lat="49.15967" lon="1.26825">
        <ele>151.39999389648</ele>
        <time>2021-05-08T07:36:21.000Z</time>
      </trkpt>
      <trkpt lat="49.1598" lon="1.26823">
        <ele>152.19999694824</ele>
        <time>2021-05-08T07:36:26.000Z</time>
      </trkpt>
      <trkpt lat="49.15985" lon="1.26832">
        <ele>152.80000305176</ele>
        <time>2021-05-08T07:36:29.000Z</time>
      </trkpt>
      <trkpt lat="49.15987" lon="1.26835">
        <ele>153</ele>
        <time>2021-05-08T07:36:30.000Z</time>
      </trkpt>
      <trkpt lat="49.15988" lon="1.26839">
        <ele>153</ele>
        <time>2021-05-08T07:36:31.000Z</time>
      </trkpt>
      <trkpt lat="49.15992" lon="1.26866">
        <ele>153.80000305176</ele>
        <time>2021-05-08T07:36:37.000Z</time>
      </trkpt>
      <trkpt lat="49.15995" lon="1.26875">
        <ele>153.80000305176</ele>
        <time>2021-05-08T07:36:39.000Z</time>
      </trkpt>
      <trkpt lat="49.15998" lon="1.26886">
        <ele>153.80000305176</ele>
        <time>2021-05-08T07:36:43.000Z</time>
      </trkpt>
      <trkpt lat="49.15998" lon="1.26886">
        <ele>153.80000305176</ele>
        <time>2021-05-08T07:36:45.000Z</time>
      </trkpt>
      <trkpt lat="49.15999" lon="1.26887">
        <ele>153.19999694824</ele>
        <time>2021-05-08T07:36:51.000Z</time>
      </trkpt>
      <trkpt lat="49.15999" lon="1.26888">
        <ele>153.19999694824</ele>
        <time>2021-05-08T07:36:53.000Z</time>
      </trkpt>
      <trkpt lat="49.15998" lon="1.26891">
        <ele>153</ele>
        <time>2021-05-08T07:36:58.000Z</time>
      </trkpt>
      <trkpt lat="49.15998" lon="1.26893">
        <ele>153</ele>
        <time>2021-05-08T07:37:39.000Z</time>
      </trkpt>
      <trkpt lat="49.16005" lon="1.26911">
        <ele>152.80000305176</ele>
        <time>2021-05-08T07:37:44.000Z</time>
      </trkpt>
      <trkpt lat="49.16023" lon="1.26925">
        <ele>152.80000305176</ele>
        <time>2021-05-08T07:37:48.000Z</time>
      </trkpt>
      <trkpt lat="49.1604" lon="1.26929">
        <ele>152.60000610352</ele>
        <time>2021-05-08T07:37:51.000Z</time>
      </trkpt>
      <trkpt lat="49.16053" lon="1.26929">
        <ele>152.39999389648</ele>
        <time>2021-05-08T07:37:53.000Z</time>
      </trkpt>
      <trkpt lat="49.16065" lon="1.2693">
        <ele>152</ele>
        <time>2021-05-08T07:37:55.000Z</time>
      </trkpt>
      <trkpt lat="49.16076" lon="1.26929">
        <ele>151.19999694824</ele>
        <time>2021-05-08T07:37:57.000Z</time>
      </trkpt>
      <trkpt lat="49.16082" lon="1.26927">
        <ele>150.80000305176</ele>
        <time>2021-05-08T07:37:58.000Z</time>
      </trkpt>
      <trkpt lat="49.16087" lon="1.26924">
        <ele>150.39999389648</ele>
        <time>2021-05-08T07:37:59.000Z</time>
      </trkpt>
      <trkpt lat="49.16099" lon="1.26907">
        <ele>149.80000305176</ele>
        <time>2021-05-08T07:38:02.000Z</time>
      </trkpt>
      <trkpt lat="49.16103" lon="1.269">
        <ele>149.60000610352</ele>
        <time>2021-05-08T07:38:03.000Z</time>
      </trkpt>
      <trkpt lat="49.16121" lon="1.26859">
        <ele>149</ele>
        <time>2021-05-08T07:38:09.000Z</time>
      </trkpt>
      <trkpt lat="49.16127" lon="1.26845">
        <ele>148.60000610352</ele>
        <time>2021-05-08T07:38:11.000Z</time>
      </trkpt>
      <trkpt lat="49.16133" lon="1.2683">
        <ele>148.39999389648</ele>
        <time>2021-05-08T07:38:13.000Z</time>
      </trkpt>
      <trkpt lat="49.1614" lon="1.26816">
        <ele>148</ele>
        <time>2021-05-08T07:38:15.000Z</time>
      </trkpt>
      <trkpt lat="49.16146" lon="1.26799">
        <ele>147.60000610352</ele>
        <time>2021-05-08T07:38:17.000Z</time>
      </trkpt>
      <trkpt lat="49.16155" lon="1.26773">
        <ele>147</ele>
        <time>2021-05-08T07:38:20.000Z</time>
      </trkpt>
      <trkpt lat="49.16159" lon="1.26765">
        <ele>147</ele>
        <time>2021-05-08T07:38:21.000Z</time>
      </trkpt>
      <trkpt lat="49.1617" lon="1.26756">
        <ele>146.60000610352</ele>
        <time>2021-05-08T07:38:23.000Z</time>
      </trkpt>
      <trkpt lat="49.16183" lon="1.2676">
        <ele>146.19999694824</ele>
        <time>2021-05-08T07:38:25.000Z</time>
      </trkpt>
      <trkpt lat="49.16193" lon="1.26773">
        <ele>145.80000305176</ele>
        <time>2021-05-08T07:38:27.000Z</time>
      </trkpt>
      <trkpt lat="49.16198" lon="1.26779">
        <ele>145.39999389648</ele>
        <time>2021-05-08T07:38:28.000Z</time>
      </trkpt>
      <trkpt lat="49.16202" lon="1.26786">
        <ele>145</ele>
        <time>2021-05-08T07:38:29.000Z</time>
      </trkpt>
      <trkpt lat="49.16211" lon="1.26799">
        <ele>144.19999694824</ele>
        <time>2021-05-08T07:38:31.000Z</time>
      </trkpt>
      <trkpt lat="49.16251" lon="1.26859">
        <ele>143.60000610352</ele>
        <time>2021-05-08T07:38:40.000Z</time>
      </trkpt>
      <trkpt lat="49.16256" lon="1.26866">
        <ele>143.60000610352</ele>
        <time>2021-05-08T07:38:41.000Z</time>
      </trkpt>
      <trkpt lat="49.16269" lon="1.26884">
        <ele>143.80000305176</ele>
        <time>2021-05-08T07:38:44.000Z</time>
      </trkpt>
      <trkpt lat="49.1628" lon="1.2689">
        <ele>143.80000305176</ele>
        <time>2021-05-08T07:38:46.000Z</time>
      </trkpt>
      <trkpt lat="49.16298" lon="1.26887">
        <ele>144</ele>
        <time>2021-05-08T07:38:49.000Z</time>
      </trkpt>
      <trkpt lat="49.16305" lon="1.26884">
        <ele>144</ele>
        <time>2021-05-08T07:38:50.000Z</time>
      </trkpt>
      <trkpt lat="49.16347" lon="1.26864">
        <ele>144</ele>
        <time>2021-05-08T07:38:57.000Z</time>
      </trkpt>
      <trkpt lat="49.16402" lon="1.26839">
        <ele>143.80000305176</ele>
        <time>2021-05-08T07:39:06.000Z</time>
      </trkpt>
      <trkpt lat="49.16408" lon="1.26837">
        <ele>143.80000305176</ele>
        <time>2021-05-08T07:39:07.000Z</time>
      </trkpt>
      <trkpt lat="49.16448" lon="1.2682">
        <ele>143.19999694824</ele>
        <time>2021-05-08T07:39:14.000Z</time>
      </trkpt>
      <trkpt lat="49.16459" lon="1.26817">
        <ele>143.19999694824</ele>
        <time>2021-05-08T07:39:16.000Z</time>
      </trkpt>
      <trkpt lat="49.16465" lon="1.26816">
        <ele>143</ele>
        <time>2021-05-08T07:39:17.000Z</time>
      </trkpt>
      <trkpt lat="49.16486" lon="1.26818">
        <ele>142.80000305176</ele>
        <time>2021-05-08T07:39:21.000Z</time>
      </trkpt>
      <trkpt lat="49.16503" lon="1.26823">
        <ele>142.80000305176</ele>
        <time>2021-05-08T07:39:25.000Z</time>
      </trkpt>
      <trkpt lat="49.16506" lon="1.2682">
        <ele>142.80000305176</ele>
        <time>2021-05-08T07:39:26.000Z</time>
      </trkpt>
      <trkpt lat="49.16509" lon="1.26804">
        <ele>142.80000305176</ele>
        <time>2021-05-08T07:39:29.000Z</time>
      </trkpt>
      <trkpt lat="49.16513" lon="1.26745">
        <ele>142.80000305176</ele>
        <time>2021-05-08T07:39:38.000Z</time>
      </trkpt>
      <trkpt lat="49.16518" lon="1.26688">
        <ele>142.39999389648</ele>
        <time>2021-05-08T07:39:46.000Z</time>
      </trkpt>
      <trkpt lat="49.16521" lon="1.26634">
        <ele>142.19999694824</ele>
        <time>2021-05-08T07:39:53.000Z</time>
      </trkpt>
      <trkpt lat="49.16521" lon="1.26626">
        <ele>142.19999694824</ele>
        <time>2021-05-08T07:39:54.000Z</time>
      </trkpt>
      <trkpt lat="49.16522" lon="1.26577">
        <ele>142.19999694824</ele>
        <time>2021-05-08T07:39:59.000Z</time>
      </trkpt>
      <trkpt lat="49.1652" lon="1.26495">
        <ele>141.19999694824</ele>
        <time>2021-05-08T07:40:06.000Z</time>
      </trkpt>
      <trkpt lat="49.16518" lon="1.2647">
        <ele>139.80000305176</ele>
        <time>2021-05-08T07:40:08.000Z</time>
      </trkpt>
      <trkpt lat="49.16516" lon="1.26444">
        <ele>138.39999389648</ele>
        <time>2021-05-08T07:40:10.000Z</time>
      </trkpt>
      <trkpt lat="49.16513" lon="1.26417">
        <ele>137.39999389648</ele>
        <time>2021-05-08T07:40:12.000Z</time>
      </trkpt>
      <trkpt lat="49.16509" lon="1.26388">
        <ele>135.80000305176</ele>
        <time>2021-05-08T07:40:14.000Z</time>
      </trkpt>
      <trkpt lat="49.16507" lon="1.26359">
        <ele>134.39999389648</ele>
        <time>2021-05-08T07:40:16.000Z</time>
      </trkpt>
      <trkpt lat="49.16503" lon="1.26316">
        <ele>133.19999694824</ele>
        <time>2021-05-08T07:40:19.000Z</time>
      </trkpt>
      <trkpt lat="49.16498" lon="1.26272">
        <ele>132</ele>
        <time>2021-05-08T07:40:22.000Z</time>
      </trkpt>
      <trkpt lat="49.16496" lon="1.26245">
        <ele>130.39999389648</ele>
        <time>2021-05-08T07:40:24.000Z</time>
      </trkpt>
      <trkpt lat="49.16493" lon="1.26218">
        <ele>128.80000305176</ele>
        <time>2021-05-08T07:40:26.000Z</time>
      </trkpt>
      <trkpt lat="49.1649" lon="1.26194">
        <ele>127.80000305176</ele>
        <time>2021-05-08T07:40:28.000Z</time>
      </trkpt>
      <trkpt lat="49.16487" lon="1.2616">
        <ele>126.40000152588</ele>
        <time>2021-05-08T07:40:31.000Z</time>
      </trkpt>
      <trkpt lat="49.16486" lon="1.26149">
        <ele>126</ele>
        <time>2021-05-08T07:40:32.000Z</time>
      </trkpt>
      <trkpt lat="49.16484" lon="1.26129">
        <ele>125.40000152588</ele>
        <time>2021-05-08T07:40:34.000Z</time>
      </trkpt>
      <trkpt lat="49.16477" lon="1.2608">
        <ele>125.19999694824</ele>
        <time>2021-05-08T07:40:39.000Z</time>
      </trkpt>
      <trkpt lat="49.16469" lon="1.26026">
        <ele>126.59999847412</ele>
        <time>2021-05-08T07:40:45.000Z</time>
      </trkpt>
      <trkpt lat="49.16466" lon="1.26009">
        <ele>127</ele>
        <time>2021-05-08T07:40:47.000Z</time>
      </trkpt>
      <trkpt lat="49.16464" lon="1.25993">
        <ele>127.59999847412</ele>
        <time>2021-05-08T07:40:49.000Z</time>
      </trkpt>
      <trkpt lat="49.16465" lon="1.25986">
        <ele>127.59999847412</ele>
        <time>2021-05-08T07:40:50.000Z</time>
      </trkpt>
      <trkpt lat="49.16477" lon="1.25977">
        <ele>128</ele>
        <time>2021-05-08T07:40:53.000Z</time>
      </trkpt>
      <trkpt lat="49.16482" lon="1.25975">
        <ele>128.19999694824</ele>
        <time>2021-05-08T07:40:54.000Z</time>
      </trkpt>
      <trkpt lat="49.16496" lon="1.25966">
        <ele>128.39999389648</ele>
        <time>2021-05-08T07:40:57.000Z</time>
      </trkpt>
      <trkpt lat="49.16499" lon="1.2596">
        <ele>128.60000610352</ele>
        <time>2021-05-08T07:40:58.000Z</time>
      </trkpt>
      <trkpt lat="49.16499" lon="1.25953">
        <ele>128.80000305176</ele>
        <time>2021-05-08T07:40:59.000Z</time>
      </trkpt>
      <trkpt lat="49.16497" lon="1.25942">
        <ele>129.39999389648</ele>
        <time>2021-05-08T07:41:01.000Z</time>
      </trkpt>
      <trkpt lat="49.16495" lon="1.25937">
        <ele>129.39999389648</ele>
        <time>2021-05-08T07:41:02.000Z</time>
      </trkpt>
      <trkpt lat="49.16478" lon="1.25898">
        <ele>129.80000305176</ele>
        <time>2021-05-08T07:41:10.000Z</time>
      </trkpt>
      <trkpt lat="49.16478" lon="1.25884">
        <ele>130</ele>
        <time>2021-05-08T07:41:13.000Z</time>
      </trkpt>
      <trkpt lat="49.1648" lon="1.2588">
        <ele>130</ele>
        <time>2021-05-08T07:41:14.000Z</time>
      </trkpt>
      <trkpt lat="49.16494" lon="1.25859">
        <ele>130.80000305176</ele>
        <time>2021-05-08T07:41:19.000Z</time>
      </trkpt>
      <trkpt lat="49.16501" lon="1.25849">
        <ele>131</ele>
        <time>2021-05-08T07:41:21.000Z</time>
      </trkpt>
      <trkpt lat="49.16524" lon="1.25816">
        <ele>131</ele>
        <time>2021-05-08T07:41:27.000Z</time>
      </trkpt>
      <trkpt lat="49.16546" lon="1.25782">
        <ele>129.60000610352</ele>
        <time>2021-05-08T07:41:33.000Z</time>
      </trkpt>
      <trkpt lat="49.1655" lon="1.25776">
        <ele>129.39999389648</ele>
        <time>2021-05-08T07:41:34.000Z</time>
      </trkpt>
      <trkpt lat="49.16564" lon="1.25759">
        <ele>128.60000610352</ele>
        <time>2021-05-08T07:41:38.000Z</time>
      </trkpt>
      <trkpt lat="49.16568" lon="1.25756">
        <ele>128.39999389648</ele>
        <time>2021-05-08T07:41:39.000Z</time>
      </trkpt>
      <trkpt lat="49.16585" lon="1.25762">
        <ele>128.39999389648</ele>
        <time>2021-05-08T07:41:43.000Z</time>
      </trkpt>
      <trkpt lat="49.16593" lon="1.25769">
        <ele>128.39999389648</ele>
        <time>2021-05-08T07:41:45.000Z</time>
      </trkpt>
      <trkpt lat="49.16609" lon="1.25785">
        <ele>128.19999694824</ele>
        <time>2021-05-08T07:41:49.000Z</time>
      </trkpt>
      <trkpt lat="49.16641" lon="1.25825">
        <ele>127.59999847412</ele>
        <time>2021-05-08T07:41:57.000Z</time>
      </trkpt>
      <trkpt lat="49.16649" lon="1.25836">
        <ele>127.19999694824</ele>
        <time>2021-05-08T07:41:59.000Z</time>
      </trkpt>
      <trkpt lat="49.16675" lon="1.2587">
        <ele>126.40000152588</ele>
        <time>2021-05-08T07:42:05.000Z</time>
      </trkpt>
      <trkpt lat="49.1671" lon="1.25914">
        <ele>125.40000152588</ele>
        <time>2021-05-08T07:42:12.000Z</time>
      </trkpt>
      <trkpt lat="49.16715" lon="1.2592">
        <ele>125.19999694824</ele>
        <time>2021-05-08T07:42:13.000Z</time>
      </trkpt>
      <trkpt lat="49.16736" lon="1.25939">
        <ele>125</ele>
        <time>2021-05-08T07:42:17.000Z</time>
      </trkpt>
      <trkpt lat="49.16752" lon="1.25952">
        <ele>124.19999694824</ele>
        <time>2021-05-08T07:42:20.000Z</time>
      </trkpt>
      <trkpt lat="49.16788" lon="1.25979">
        <ele>123</ele>
        <time>2021-05-08T07:42:27.000Z</time>
      </trkpt>
      <trkpt lat="49.16819" lon="1.25998">
        <ele>123</ele>
        <time>2021-05-08T07:42:34.000Z</time>
      </trkpt>
      <trkpt lat="49.16848" lon="1.2601">
        <ele>123.59999847412</ele>
        <time>2021-05-08T07:42:42.000Z</time>
      </trkpt>
      <trkpt lat="49.16855" lon="1.26012">
        <ele>124.19999694824</ele>
        <time>2021-05-08T07:42:44.000Z</time>
      </trkpt>
      <trkpt lat="49.16869" lon="1.26017">
        <ele>125.19999694824</ele>
        <time>2021-05-08T07:42:48.000Z</time>
      </trkpt>
      <trkpt lat="49.16883" lon="1.26022">
        <ele>126.19999694824</ele>
        <time>2021-05-08T07:42:52.000Z</time>
      </trkpt>
      <trkpt lat="49.1689" lon="1.26024">
        <ele>126.80000305176</ele>
        <time>2021-05-08T07:42:54.000Z</time>
      </trkpt>
      <trkpt lat="49.16904" lon="1.26029">
        <ele>127.40000152588</ele>
        <time>2021-05-08T07:42:58.000Z</time>
      </trkpt>
      <trkpt lat="49.16921" lon="1.26035">
        <ele>128.60000610352</ele>
        <time>2021-05-08T07:43:03.000Z</time>
      </trkpt>
      <trkpt lat="49.16924" lon="1.26036">
        <ele>128.80000305176</ele>
        <time>2021-05-08T07:43:04.000Z</time>
      </trkpt>
      <trkpt lat="49.1693" lon="1.26034">
        <ele>129</ele>
        <time>2021-05-08T07:43:06.000Z</time>
      </trkpt>
      <trkpt lat="49.16932" lon="1.26031">
        <ele>129.19999694824</ele>
        <time>2021-05-08T07:43:07.000Z</time>
      </trkpt>
      <trkpt lat="49.16934" lon="1.26022">
        <ele>129.60000610352</ele>
        <time>2021-05-08T07:43:09.000Z</time>
      </trkpt>
      <trkpt lat="49.16935" lon="1.26007">
        <ele>130</ele>
        <time>2021-05-08T07:43:12.000Z</time>
      </trkpt>
      <trkpt lat="49.16943" lon="1.25956">
        <ele>130.60000610352</ele>
        <time>2021-05-08T07:43:21.000Z</time>
      </trkpt>
      <trkpt lat="49.16948" lon="1.25928">
        <ele>130.60000610352</ele>
        <time>2021-05-08T07:43:26.000Z</time>
      </trkpt>
      <trkpt lat="49.16952" lon="1.25901">
        <ele>131</ele>
        <time>2021-05-08T07:43:31.000Z</time>
      </trkpt>
      <trkpt lat="49.1696" lon="1.25852">
        <ele>131.39999389648</ele>
        <time>2021-05-08T07:43:39.000Z</time>
      </trkpt>
      <trkpt lat="49.16969" lon="1.25795">
        <ele>131.60000610352</ele>
        <time>2021-05-08T07:43:48.000Z</time>
      </trkpt>
      <trkpt lat="49.16979" lon="1.25732">
        <ele>131.60000610352</ele>
        <time>2021-05-08T07:43:58.000Z</time>
      </trkpt>
      <trkpt lat="49.1698" lon="1.25726">
        <ele>131.80000305176</ele>
        <time>2021-05-08T07:43:59.000Z</time>
      </trkpt>
      <trkpt lat="49.16989" lon="1.25673">
        <ele>132</ele>
        <time>2021-05-08T07:44:08.000Z</time>
      </trkpt>
      <trkpt lat="49.16996" lon="1.25632">
        <ele>132.80000305176</ele>
        <time>2021-05-08T07:44:15.000Z</time>
      </trkpt>
      <trkpt lat="49.16997" lon="1.25626">
        <ele>133</ele>
        <time>2021-05-08T07:44:16.000Z</time>
      </trkpt>
      <trkpt lat="49.17002" lon="1.25591">
        <ele>133.80000305176</ele>
        <time>2021-05-08T07:44:22.000Z</time>
      </trkpt>
      <trkpt lat="49.17004" lon="1.2558">
        <ele>134</ele>
        <time>2021-05-08T07:44:24.000Z</time>
      </trkpt>
      <trkpt lat="49.17011" lon="1.25534">
        <ele>134.39999389648</ele>
        <time>2021-05-08T07:44:32.000Z</time>
      </trkpt>
      <trkpt lat="49.17018" lon="1.25494">
        <ele>135</ele>
        <time>2021-05-08T07:44:39.000Z</time>
      </trkpt>
      <trkpt lat="49.1702" lon="1.25482">
        <ele>135</ele>
        <time>2021-05-08T07:44:41.000Z</time>
      </trkpt>
      <trkpt lat="49.17025" lon="1.25448">
        <ele>135.39999389648</ele>
        <time>2021-05-08T07:44:48.000Z</time>
      </trkpt>
      <trkpt lat="49.17025" lon="1.25442">
        <ele>135.60000610352</ele>
        <time>2021-05-08T07:44:50.000Z</time>
      </trkpt>
      <trkpt lat="49.17022" lon="1.25437">
        <ele>135.60000610352</ele>
        <time>2021-05-08T07:44:52.000Z</time>
      </trkpt>
      <trkpt lat="49.17016" lon="1.25432">
        <ele>135.80000305176</ele>
        <time>2021-05-08T07:44:55.000Z</time>
      </trkpt>
      <trkpt lat="49.17011" lon="1.25428">
        <ele>135.80000305176</ele>
        <time>2021-05-08T07:44:57.000Z</time>
      </trkpt>
      <trkpt lat="49.16984" lon="1.25408">
        <ele>135.39999389648</ele>
        <time>2021-05-08T07:45:04.000Z</time>
      </trkpt>
      <trkpt lat="49.16953" lon="1.25383">
        <ele>134</ele>
        <time>2021-05-08T07:45:11.000Z</time>
      </trkpt>
      <trkpt lat="49.16944" lon="1.25375">
        <ele>133.60000610352</ele>
        <time>2021-05-08T07:45:13.000Z</time>
      </trkpt>
      <trkpt lat="49.16929" lon="1.25362">
        <ele>132.60000610352</ele>
        <time>2021-05-08T07:45:16.000Z</time>
      </trkpt>
      <trkpt lat="49.16908" lon="1.25343">
        <ele>131.60000610352</ele>
        <time>2021-05-08T07:45:20.000Z</time>
      </trkpt>
      <trkpt lat="49.16903" lon="1.25338">
        <ele>131</ele>
        <time>2021-05-08T07:45:21.000Z</time>
      </trkpt>
      <trkpt lat="49.16892" lon="1.25328">
        <ele>130</ele>
        <time>2021-05-08T07:45:23.000Z</time>
      </trkpt>
      <trkpt lat="49.16875" lon="1.25312">
        <ele>129</ele>
        <time>2021-05-08T07:45:26.000Z</time>
      </trkpt>
      <trkpt lat="49.16858" lon="1.25296">
        <ele>127.80000305176</ele>
        <time>2021-05-08T07:45:29.000Z</time>
      </trkpt>
      <trkpt lat="49.16843" lon="1.25281">
        <ele>126.80000305176</ele>
        <time>2021-05-08T07:45:32.000Z</time>
      </trkpt>
      <trkpt lat="49.16838" lon="1.25276">
        <ele>126.40000152588</ele>
        <time>2021-05-08T07:45:33.000Z</time>
      </trkpt>
      <trkpt lat="49.16832" lon="1.25272">
        <ele>126.40000152588</ele>
        <time>2021-05-08T07:45:34.000Z</time>
      </trkpt>
      <trkpt lat="49.16822" lon="1.25264">
        <ele>126.19999694824</ele>
        <time>2021-05-08T07:45:36.000Z</time>
      </trkpt>
      <trkpt lat="49.16817" lon="1.25259">
        <ele>126.19999694824</ele>
        <time>2021-05-08T07:45:37.000Z</time>
      </trkpt>
      <trkpt lat="49.16813" lon="1.25255">
        <ele>126.19999694824</ele>
        <time>2021-05-08T07:45:38.000Z</time>
      </trkpt>
      <trkpt lat="49.16809" lon="1.25244">
        <ele>126.19999694824</ele>
        <time>2021-05-08T07:45:40.000Z</time>
      </trkpt>
      <trkpt lat="49.16818" lon="1.25232">
        <ele>126.19999694824</ele>
        <time>2021-05-08T07:45:43.000Z</time>
      </trkpt>
      <trkpt lat="49.16822" lon="1.2523">
        <ele>126.19999694824</ele>
        <time>2021-05-08T07:45:44.000Z</time>
      </trkpt>
      <trkpt lat="49.16831" lon="1.25226">
        <ele>126.40000152588</ele>
        <time>2021-05-08T07:45:46.000Z</time>
      </trkpt>
      <trkpt lat="49.16849" lon="1.2522">
        <ele>128</ele>
        <time>2021-05-08T07:45:50.000Z</time>
      </trkpt>
      <trkpt lat="49.16858" lon="1.25213">
        <ele>129.39999389648</ele>
        <time>2021-05-08T07:45:52.000Z</time>
      </trkpt>
      <trkpt lat="49.16869" lon="1.25202">
        <ele>130.39999389648</ele>
        <time>2021-05-08T07:45:55.000Z</time>
      </trkpt>
      <trkpt lat="49.16873" lon="1.25197">
        <ele>130.60000610352</ele>
        <time>2021-05-08T07:45:56.000Z</time>
      </trkpt>
      <trkpt lat="49.16892" lon="1.25175">
        <ele>131.19999694824</ele>
        <time>2021-05-08T07:46:02.000Z</time>
      </trkpt>
      <trkpt lat="49.16895" lon="1.25153">
        <ele>131.60000610352</ele>
        <time>2021-05-08T07:46:06.000Z</time>
      </trkpt>
      <trkpt lat="49.16891" lon="1.25123">
        <ele>132.80000305176</ele>
        <time>2021-05-08T07:46:11.000Z</time>
      </trkpt>
      <trkpt lat="49.1689" lon="1.25116">
        <ele>133.19999694824</ele>
        <time>2021-05-08T07:46:12.000Z</time>
      </trkpt>
      <trkpt lat="49.16884" lon="1.25063">
        <ele>133.80000305176</ele>
        <time>2021-05-08T07:46:20.000Z</time>
      </trkpt>
      <trkpt lat="49.16883" lon="1.25057">
        <ele>133.80000305176</ele>
        <time>2021-05-08T07:46:21.000Z</time>
      </trkpt>
      <trkpt lat="49.16881" lon="1.25005">
        <ele>133.80000305176</ele>
        <time>2021-05-08T07:46:29.000Z</time>
      </trkpt>
      <trkpt lat="49.16881" lon="1.24992">
        <ele>134</ele>
        <time>2021-05-08T07:46:31.000Z</time>
      </trkpt>
      <trkpt lat="49.16882" lon="1.24973">
        <ele>134.19999694824</ele>
        <time>2021-05-08T07:46:34.000Z</time>
      </trkpt>
      <trkpt lat="49.16882" lon="1.24966">
        <ele>134.39999389648</ele>
        <time>2021-05-08T07:46:35.000Z</time>
      </trkpt>
      <trkpt lat="49.1688" lon="1.24932">
        <ele>134.80000305176</ele>
        <time>2021-05-08T07:46:40.000Z</time>
      </trkpt>
      <trkpt lat="49.16879" lon="1.24912">
        <ele>134.80000305176</ele>
        <time>2021-05-08T07:46:43.000Z</time>
      </trkpt>
      <trkpt lat="49.16873" lon="1.24851">
        <ele>135</ele>
        <time>2021-05-08T07:46:53.000Z</time>
      </trkpt>
      <trkpt lat="49.1687" lon="1.24819">
        <ele>135.80000305176</ele>
        <time>2021-05-08T07:46:58.000Z</time>
      </trkpt>
      <trkpt lat="49.16868" lon="1.24792">
        <ele>136.39999389648</ele>
        <time>2021-05-08T07:47:02.000Z</time>
      </trkpt>
      <trkpt lat="49.16862" lon="1.24747">
        <ele>136.60000610352</ele>
        <time>2021-05-08T07:47:10.000Z</time>
      </trkpt>
      <trkpt lat="49.16859" lon="1.24743">
        <ele>136.80000305176</ele>
        <time>2021-05-08T07:47:11.000Z</time>
      </trkpt>
      <trkpt lat="49.16852" lon="1.24743">
        <ele>136.80000305176</ele>
        <time>2021-05-08T07:47:13.000Z</time>
      </trkpt>
      <trkpt lat="49.16848" lon="1.24745">
        <ele>136.80000305176</ele>
        <time>2021-05-08T07:47:14.000Z</time>
      </trkpt>
      <trkpt lat="49.16826" lon="1.2475">
        <ele>137</ele>
        <time>2021-05-08T07:47:19.000Z</time>
      </trkpt>
      <trkpt lat="49.16811" lon="1.24752">
        <ele>136.80000305176</ele>
        <time>2021-05-08T07:47:23.000Z</time>
      </trkpt>
      <trkpt lat="49.16795" lon="1.24752">
        <ele>135.80000305176</ele>
        <time>2021-05-08T07:47:27.000Z</time>
      </trkpt>
      <trkpt lat="49.16792" lon="1.24748">
        <ele>135.80000305176</ele>
        <time>2021-05-08T07:47:28.000Z</time>
      </trkpt>
      <trkpt lat="49.16789" lon="1.24732">
        <ele>135.60000610352</ele>
        <time>2021-05-08T07:47:31.000Z</time>
      </trkpt>
      <trkpt lat="49.16788" lon="1.24726">
        <ele>135.60000610352</ele>
        <time>2021-05-08T07:47:32.000Z</time>
      </trkpt>
      <trkpt lat="49.16778" lon="1.24678">
        <ele>136</ele>
        <time>2021-05-08T07:47:41.000Z</time>
      </trkpt>
      <trkpt lat="49.16765" lon="1.24616">
        <ele>136.80000305176</ele>
        <time>2021-05-08T07:47:52.000Z</time>
      </trkpt>
      <trkpt lat="49.16754" lon="1.24563">
        <ele>137.19999694824</ele>
        <time>2021-05-08T07:48:01.000Z</time>
      </trkpt>
      <trkpt lat="49.16744" lon="1.24513">
        <ele>137.19999694824</ele>
        <time>2021-05-08T07:48:10.000Z</time>
      </trkpt>
      <trkpt lat="49.16738" lon="1.24487">
        <ele>137.80000305176</ele>
        <time>2021-05-08T07:48:15.000Z</time>
      </trkpt>
      <trkpt lat="49.16733" lon="1.2446">
        <ele>138</ele>
        <time>2021-05-08T07:48:20.000Z</time>
      </trkpt>
      <trkpt lat="49.16723" lon="1.24413">
        <ele>138.19999694824</ele>
        <time>2021-05-08T07:48:29.000Z</time>
      </trkpt>
      <trkpt lat="49.16712" lon="1.24359">
        <ele>138.39999389648</ele>
        <time>2021-05-08T07:48:39.000Z</time>
      </trkpt>
      <trkpt lat="49.16699" lon="1.24297">
        <ele>138.60000610352</ele>
        <time>2021-05-08T07:48:50.000Z</time>
      </trkpt>
      <trkpt lat="49.16697" lon="1.24292">
        <ele>138.80000305176</ele>
        <time>2021-05-08T07:48:51.000Z</time>
      </trkpt>
      <trkpt lat="49.16684" lon="1.24229">
        <ele>139.60000610352</ele>
        <time>2021-05-08T07:49:02.000Z</time>
      </trkpt>
      <trkpt lat="49.16675" lon="1.24185">
        <ele>139.80000305176</ele>
        <time>2021-05-08T07:49:10.000Z</time>
      </trkpt>
      <trkpt lat="49.16668" lon="1.24158">
        <ele>140.39999389648</ele>
        <time>2021-05-08T07:49:15.000Z</time>
      </trkpt>
      <trkpt lat="49.16654" lon="1.24105">
        <ele>141</ele>
        <time>2021-05-08T07:49:25.000Z</time>
      </trkpt>
      <trkpt lat="49.16653" lon="1.241">
        <ele>141.19999694824</ele>
        <time>2021-05-08T07:49:26.000Z</time>
      </trkpt>
      <trkpt lat="49.16643" lon="1.24055">
        <ele>141.80000305176</ele>
        <time>2021-05-08T07:49:34.000Z</time>
      </trkpt>
      <trkpt lat="49.16626" lon="1.23983">
        <ele>142</ele>
        <time>2021-05-08T07:49:47.000Z</time>
      </trkpt>
      <trkpt lat="49.16613" lon="1.23934">
        <ele>142.19999694824</ele>
        <time>2021-05-08T07:49:56.000Z</time>
      </trkpt>
      <trkpt lat="49.16601" lon="1.23885">
        <ele>142.60000610352</ele>
        <time>2021-05-08T07:50:05.000Z</time>
      </trkpt>
      <trkpt lat="49.16592" lon="1.23847">
        <ele>143.19999694824</ele>
        <time>2021-05-08T07:50:12.000Z</time>
      </trkpt>
      <trkpt lat="49.16585" lon="1.23821">
        <ele>143.60000610352</ele>
        <time>2021-05-08T07:50:17.000Z</time>
      </trkpt>
      <trkpt lat="49.16578" lon="1.2379">
        <ele>144.19999694824</ele>
        <time>2021-05-08T07:50:23.000Z</time>
      </trkpt>
      <trkpt lat="49.16574" lon="1.23774">
        <ele>144.39999389648</ele>
        <time>2021-05-08T07:50:26.000Z</time>
      </trkpt>
      <trkpt lat="49.1656" lon="1.23714">
        <ele>145.19999694824</ele>
        <time>2021-05-08T07:50:37.000Z</time>
      </trkpt>
      <trkpt lat="49.16552" lon="1.23683">
        <ele>145.39999389648</ele>
        <time>2021-05-08T07:50:43.000Z</time>
      </trkpt>
      <trkpt lat="49.16546" lon="1.23656">
        <ele>146</ele>
        <time>2021-05-08T07:50:48.000Z</time>
      </trkpt>
      <trkpt lat="49.16542" lon="1.23646">
        <ele>146.39999389648</ele>
        <time>2021-05-08T07:50:50.000Z</time>
      </trkpt>
      <trkpt lat="49.16539" lon="1.23634">
        <ele>146.39999389648</ele>
        <time>2021-05-08T07:50:52.000Z</time>
      </trkpt>
      <trkpt lat="49.16538" lon="1.23628">
        <ele>146.39999389648</ele>
        <time>2021-05-08T07:50:53.000Z</time>
      </trkpt>
      <trkpt lat="49.16539" lon="1.23579">
        <ele>146.80000305176</ele>
        <time>2021-05-08T07:51:01.000Z</time>
      </trkpt>
      <trkpt lat="49.16538" lon="1.2352">
        <ele>147.39999389648</ele>
        <time>2021-05-08T07:51:11.000Z</time>
      </trkpt>
      <trkpt lat="49.16538" lon="1.23485">
        <ele>148.19999694824</ele>
        <time>2021-05-08T07:51:17.000Z</time>
      </trkpt>
      <trkpt lat="49.16538" lon="1.23474">
        <ele>148.60000610352</ele>
        <time>2021-05-08T07:51:19.000Z</time>
      </trkpt>
      <trkpt lat="49.16537" lon="1.23428">
        <ele>149.80000305176</ele>
        <time>2021-05-08T07:51:27.000Z</time>
      </trkpt>
      <trkpt lat="49.16537" lon="1.2341">
        <ele>150.60000610352</ele>
        <time>2021-05-08T07:51:30.000Z</time>
      </trkpt>
      <trkpt lat="49.16537" lon="1.23399">
        <ele>150.80000305176</ele>
        <time>2021-05-08T07:51:32.000Z</time>
      </trkpt>
      <trkpt lat="49.16537" lon="1.23364">
        <ele>151.60000610352</ele>
        <time>2021-05-08T07:51:38.000Z</time>
      </trkpt>
      <trkpt lat="49.16537" lon="1.23353">
        <ele>152</ele>
        <time>2021-05-08T07:51:40.000Z</time>
      </trkpt>
      <trkpt lat="49.16537" lon="1.23307">
        <ele>152.60000610352</ele>
        <time>2021-05-08T07:51:48.000Z</time>
      </trkpt>
      <trkpt lat="49.16537" lon="1.23295">
        <ele>153</ele>
        <time>2021-05-08T07:51:50.000Z</time>
      </trkpt>
      <trkpt lat="49.16537" lon="1.23241">
        <ele>153.60000610352</ele>
        <time>2021-05-08T07:51:59.000Z</time>
      </trkpt>
      <trkpt lat="49.16537" lon="1.23217">
        <ele>154</ele>
        <time>2021-05-08T07:52:03.000Z</time>
      </trkpt>
      <trkpt lat="49.16536" lon="1.23176">
        <ele>154.60000610352</ele>
        <time>2021-05-08T07:52:10.000Z</time>
      </trkpt>
      <trkpt lat="49.16534" lon="1.2314">
        <ele>154.80000305176</ele>
        <time>2021-05-08T07:52:16.000Z</time>
      </trkpt>
      <trkpt lat="49.16534" lon="1.23102">
        <ele>155.19999694824</ele>
        <time>2021-05-08T07:52:22.000Z</time>
      </trkpt>
      <trkpt lat="49.16534" lon="1.23087">
        <ele>155.39999389648</ele>
        <time>2021-05-08T07:52:24.000Z</time>
      </trkpt>
      <trkpt lat="49.16533" lon="1.23021">
        <ele>155.60000610352</ele>
        <time>2021-05-08T07:52:32.000Z</time>
      </trkpt>
      <trkpt lat="49.16533" lon="1.22941">
        <ele>155.60000610352</ele>
        <time>2021-05-08T07:52:41.000Z</time>
      </trkpt>
      <trkpt lat="49.16533" lon="1.22851">
        <ele>155.39999389648</ele>
        <time>2021-05-08T07:52:51.000Z</time>
      </trkpt>
      <trkpt lat="49.16533" lon="1.22777">
        <ele>155.39999389648</ele>
        <time>2021-05-08T07:53:00.000Z</time>
      </trkpt>
      <trkpt lat="49.16533" lon="1.2277">
        <ele>155.39999389648</ele>
        <time>2021-05-08T07:53:01.000Z</time>
      </trkpt>
      <trkpt lat="49.16535" lon="1.22748">
        <ele>155.19999694824</ele>
        <time>2021-05-08T07:53:04.000Z</time>
      </trkpt>
      <trkpt lat="49.16534" lon="1.22735">
        <ele>155.19999694824</ele>
        <time>2021-05-08T07:53:06.000Z</time>
      </trkpt>
      <trkpt lat="49.16534" lon="1.22727">
        <ele>155.19999694824</ele>
        <time>2021-05-08T07:53:08.000Z</time>
      </trkpt>
      <trkpt lat="49.16534" lon="1.22725">
        <ele>155</ele>
        <time>2021-05-08T07:53:09.000Z</time>
      </trkpt>
      <trkpt lat="49.16535" lon="1.22724">
        <ele>155</ele>
        <time>2021-05-08T07:53:12.000Z</time>
      </trkpt>
      <trkpt lat="49.16538" lon="1.22722">
        <ele>155.60000610352</ele>
        <time>2021-05-08T07:54:31.000Z</time>
      </trkpt>
      <trkpt lat="49.16542" lon="1.2272">
        <ele>155.60000610352</ele>
        <time>2021-05-08T07:54:33.000Z</time>
      </trkpt>
      <trkpt lat="49.16566" lon="1.22709">
        <ele>155.60000610352</ele>
        <time>2021-05-08T07:54:40.000Z</time>
      </trkpt>
      <trkpt lat="49.16602" lon="1.22692">
        <ele>155</ele>
        <time>2021-05-08T07:54:48.000Z</time>
      </trkpt>
      <trkpt lat="49.16626" lon="1.22681">
        <ele>154.39999389648</ele>
        <time>2021-05-08T07:54:53.000Z</time>
      </trkpt>
      <trkpt lat="49.16651" lon="1.22669">
        <ele>153.60000610352</ele>
        <time>2021-05-08T07:54:58.000Z</time>
      </trkpt>
      <trkpt lat="49.16672" lon="1.2266">
        <ele>153.39999389648</ele>
        <time>2021-05-08T07:55:02.000Z</time>
      </trkpt>
      <trkpt lat="49.16696" lon="1.22648">
        <ele>153</ele>
        <time>2021-05-08T07:55:07.000Z</time>
      </trkpt>
      <trkpt lat="49.16745" lon="1.22624">
        <ele>152.19999694824</ele>
        <time>2021-05-08T07:55:17.000Z</time>
      </trkpt>
      <trkpt lat="49.16788" lon="1.22604">
        <ele>151.80000305176</ele>
        <time>2021-05-08T07:55:26.000Z</time>
      </trkpt>
      <trkpt lat="49.16814" lon="1.22591">
        <ele>151.39999389648</ele>
        <time>2021-05-08T07:55:32.000Z</time>
      </trkpt>
      <trkpt lat="49.16828" lon="1.22584">
        <ele>151.39999389648</ele>
        <time>2021-05-08T07:55:35.000Z</time>
      </trkpt>
      <trkpt lat="49.16863" lon="1.22567">
        <ele>151.39999389648</ele>
        <time>2021-05-08T07:55:43.000Z</time>
      </trkpt>
      <trkpt lat="49.16909" lon="1.22545">
        <ele>151.19999694824</ele>
        <time>2021-05-08T07:55:54.000Z</time>
      </trkpt>
      <trkpt lat="49.16946" lon="1.22525">
        <ele>151.39999389648</ele>
        <time>2021-05-08T07:56:04.000Z</time>
      </trkpt>
      <trkpt lat="49.16969" lon="1.22511">
        <ele>151.39999389648</ele>
        <time>2021-05-08T07:56:10.000Z</time>
      </trkpt>
      <trkpt lat="49.17" lon="1.22494">
        <ele>151.19999694824</ele>
        <time>2021-05-08T07:56:17.000Z</time>
      </trkpt>
      <trkpt lat="49.17028" lon="1.22475">
        <ele>150.80000305176</ele>
        <time>2021-05-08T07:56:24.000Z</time>
      </trkpt>
      <trkpt lat="49.17036" lon="1.2245">
        <ele>150.60000610352</ele>
        <time>2021-05-08T07:56:28.000Z</time>
      </trkpt>
      <trkpt lat="49.1704" lon="1.22437">
        <ele>150.39999389648</ele>
        <time>2021-05-08T07:56:30.000Z</time>
      </trkpt>
      <trkpt lat="49.17046" lon="1.22417">
        <ele>150.19999694824</ele>
        <time>2021-05-08T07:56:33.000Z</time>
      </trkpt>
      <trkpt lat="49.17048" lon="1.2241">
        <ele>150.19999694824</ele>
        <time>2021-05-08T07:56:34.000Z</time>
      </trkpt>
      <trkpt lat="49.17071" lon="1.22343">
        <ele>149.39999389648</ele>
        <time>2021-05-08T07:56:44.000Z</time>
      </trkpt>
      <trkpt lat="49.1709" lon="1.22291">
        <ele>149</ele>
        <time>2021-05-08T07:56:52.000Z</time>
      </trkpt>
      <trkpt lat="49.17111" lon="1.22232">
        <ele>149</ele>
        <time>2021-05-08T07:57:01.000Z</time>
      </trkpt>
      <trkpt lat="49.17115" lon="1.22218">
        <ele>149</ele>
        <time>2021-05-08T07:57:03.000Z</time>
      </trkpt>
      <trkpt lat="49.17115" lon="1.22196">
        <ele>149</ele>
        <time>2021-05-08T07:57:06.000Z</time>
      </trkpt>
      <trkpt lat="49.17105" lon="1.22179">
        <ele>148.80000305176</ele>
        <time>2021-05-08T07:57:09.000Z</time>
      </trkpt>
      <trkpt lat="49.1709" lon="1.22169">
        <ele>148.80000305176</ele>
        <time>2021-05-08T07:57:12.000Z</time>
      </trkpt>
      <trkpt lat="49.17076" lon="1.2216">
        <ele>148.60000610352</ele>
        <time>2021-05-08T07:57:15.000Z</time>
      </trkpt>
      <trkpt lat="49.17067" lon="1.22154">
        <ele>148.19999694824</ele>
        <time>2021-05-08T07:57:17.000Z</time>
      </trkpt>
      <trkpt lat="49.17058" lon="1.22145">
        <ele>147.80000305176</ele>
        <time>2021-05-08T07:57:19.000Z</time>
      </trkpt>
      <trkpt lat="49.17054" lon="1.2214">
        <ele>147.60000610352</ele>
        <time>2021-05-08T07:57:20.000Z</time>
      </trkpt>
      <trkpt lat="49.1704" lon="1.22115">
        <ele>147.19999694824</ele>
        <time>2021-05-08T07:57:24.000Z</time>
      </trkpt>
      <trkpt lat="49.17037" lon="1.22109">
        <ele>147.19999694824</ele>
        <time>2021-05-08T07:57:25.000Z</time>
      </trkpt>
      <trkpt lat="49.17011" lon="1.22059">
        <ele>146.39999389648</ele>
        <time>2021-05-08T07:57:33.000Z</time>
      </trkpt>
      <trkpt lat="49.17003" lon="1.22048">
        <ele>146.39999389648</ele>
        <time>2021-05-08T07:57:35.000Z</time>
      </trkpt>
      <trkpt lat="49.16991" lon="1.22036">
        <ele>146</ele>
        <time>2021-05-08T07:57:38.000Z</time>
      </trkpt>
      <trkpt lat="49.16986" lon="1.22032">
        <ele>146</ele>
        <time>2021-05-08T07:57:39.000Z</time>
      </trkpt>
      <trkpt lat="49.16974" lon="1.22006">
        <ele>145.19999694824</ele>
        <time>2021-05-08T07:57:43.000Z</time>
      </trkpt>
      <trkpt lat="49.16972" lon="1.21998">
        <ele>145</ele>
        <time>2021-05-08T07:57:44.000Z</time>
      </trkpt>
      <trkpt lat="49.16965" lon="1.21955">
        <ele>144</ele>
        <time>2021-05-08T07:57:49.000Z</time>
      </trkpt>
      <trkpt lat="49.16961" lon="1.21917">
        <ele>143.19999694824</ele>
        <time>2021-05-08T07:57:53.000Z</time>
      </trkpt>
      <trkpt lat="49.16958" lon="1.21898">
        <ele>142.80000305176</ele>
        <time>2021-05-08T07:57:55.000Z</time>
      </trkpt>
      <trkpt lat="49.16954" lon="1.21866">
        <ele>142</ele>
        <time>2021-05-08T07:57:58.000Z</time>
      </trkpt>
      <trkpt lat="49.16952" lon="1.21856">
        <ele>141.60000610352</ele>
        <time>2021-05-08T07:57:59.000Z</time>
      </trkpt>
      <trkpt lat="49.16952" lon="1.21845">
        <ele>141.39999389648</ele>
        <time>2021-05-08T07:58:00.000Z</time>
      </trkpt>
      <trkpt lat="49.16948" lon="1.21813">
        <ele>140.39999389648</ele>
        <time>2021-05-08T07:58:03.000Z</time>
      </trkpt>
      <trkpt lat="49.16945" lon="1.2178">
        <ele>139.39999389648</ele>
        <time>2021-05-08T07:58:06.000Z</time>
      </trkpt>
      <trkpt lat="49.16945" lon="1.21769">
        <ele>139</ele>
        <time>2021-05-08T07:58:07.000Z</time>
      </trkpt>
      <trkpt lat="49.16946" lon="1.21757">
        <ele>138.39999389648</ele>
        <time>2021-05-08T07:58:08.000Z</time>
      </trkpt>
      <trkpt lat="49.1695" lon="1.21737">
        <ele>137.19999694824</ele>
        <time>2021-05-08T07:58:10.000Z</time>
      </trkpt>
      <trkpt lat="49.16952" lon="1.21717">
        <ele>135.80000305176</ele>
        <time>2021-05-08T07:58:12.000Z</time>
      </trkpt>
      <trkpt lat="49.16956" lon="1.21695">
        <ele>134.80000305176</ele>
        <time>2021-05-08T07:58:14.000Z</time>
      </trkpt>
      <trkpt lat="49.16958" lon="1.21683">
        <ele>134.39999389648</ele>
        <time>2021-05-08T07:58:15.000Z</time>
      </trkpt>
      <trkpt lat="49.16961" lon="1.21671">
        <ele>134.19999694824</ele>
        <time>2021-05-08T07:58:16.000Z</time>
      </trkpt>
      <trkpt lat="49.16966" lon="1.21647">
        <ele>133.19999694824</ele>
        <time>2021-05-08T07:58:18.000Z</time>
      </trkpt>
      <trkpt lat="49.16969" lon="1.21636">
        <ele>132.80000305176</ele>
        <time>2021-05-08T07:58:19.000Z</time>
      </trkpt>
      <trkpt lat="49.16972" lon="1.21625">
        <ele>132.60000610352</ele>
        <time>2021-05-08T07:58:20.000Z</time>
      </trkpt>
      <trkpt lat="49.16977" lon="1.21614">
        <ele>132</ele>
        <time>2021-05-08T07:58:21.000Z</time>
      </trkpt>
      <trkpt lat="49.16984" lon="1.21595">
        <ele>131</ele>
        <time>2021-05-08T07:58:23.000Z</time>
      </trkpt>
      <trkpt lat="49.16987" lon="1.21585">
        <ele>130.39999389648</ele>
        <time>2021-05-08T07:58:24.000Z</time>
      </trkpt>
      <trkpt lat="49.16986" lon="1.21559">
        <ele>129.39999389648</ele>
        <time>2021-05-08T07:58:26.000Z</time>
      </trkpt>
      <trkpt lat="49.16983" lon="1.21542">
        <ele>128.80000305176</ele>
        <time>2021-05-08T07:58:28.000Z</time>
      </trkpt>
      <trkpt lat="49.16982" lon="1.21538">
        <ele>128.19999694824</ele>
        <time>2021-05-08T07:58:29.000Z</time>
      </trkpt>
      <trkpt lat="49.16983" lon="1.21535">
        <ele>126.80000305176</ele>
        <time>2021-05-08T07:58:32.000Z</time>
      </trkpt>
      <trkpt lat="49.16988" lon="1.2153">
        <ele>126.40000152588</ele>
        <time>2021-05-08T07:59:25.000Z</time>
      </trkpt>
      <trkpt lat="49.16992" lon="1.21532">
        <ele>126.19999694824</ele>
        <time>2021-05-08T07:59:30.000Z</time>
      </trkpt>
      <trkpt lat="49.16994" lon="1.21532">
        <ele>126.19999694824</ele>
        <time>2021-05-08T07:59:32.000Z</time>
      </trkpt>
      <trkpt lat="49.17" lon="1.21529">
        <ele>126.40000152588</ele>
        <time>2021-05-08T07:59:39.000Z</time>
      </trkpt>
      <trkpt lat="49.17006" lon="1.21527">
        <ele>127.40000152588</ele>
        <time>2021-05-08T07:59:43.000Z</time>
      </trkpt>
      <trkpt lat="49.1701" lon="1.21526">
        <ele>128.19999694824</ele>
        <time>2021-05-08T07:59:47.000Z</time>
      </trkpt>
      <trkpt lat="49.17011" lon="1.21525">
        <ele>128.39999389648</ele>
        <time>2021-05-08T07:59:48.000Z</time>
      </trkpt>
      <trkpt lat="49.17017" lon="1.21524">
        <ele>129.60000610352</ele>
        <time>2021-05-08T07:59:52.000Z</time>
      </trkpt>
      <trkpt lat="49.17018" lon="1.21524">
        <ele>129.80000305176</ele>
        <time>2021-05-08T07:59:53.000Z</time>
      </trkpt>
      <trkpt lat="49.17021" lon="1.21523">
        <ele>130.80000305176</ele>
        <time>2021-05-08T07:59:56.000Z</time>
      </trkpt>
      <trkpt lat="49.17026" lon="1.21522">
        <ele>131.80000305176</ele>
        <time>2021-05-08T07:59:59.000Z</time>
      </trkpt>
      <trkpt lat="49.17027" lon="1.21521">
        <ele>132.19999694824</ele>
        <time>2021-05-08T08:00:00.000Z</time>
      </trkpt>
      <trkpt lat="49.17032" lon="1.2152">
        <ele>133.39999389648</ele>
        <time>2021-05-08T08:00:03.000Z</time>
      </trkpt>
      <trkpt lat="49.17038" lon="1.21519">
        <ele>134.39999389648</ele>
        <time>2021-05-08T08:00:06.000Z</time>
      </trkpt>
      <trkpt lat="49.17041" lon="1.21517">
        <ele>135</ele>
        <time>2021-05-08T08:00:08.000Z</time>
      </trkpt>
      <trkpt lat="49.17043" lon="1.21517">
        <ele>135.39999389648</ele>
        <time>2021-05-08T08:00:09.000Z</time>
      </trkpt>
      <trkpt lat="49.1705" lon="1.21513">
        <ele>136.60000610352</ele>
        <time>2021-05-08T08:00:13.000Z</time>
      </trkpt>
      <trkpt lat="49.17052" lon="1.21512">
        <ele>136.80000305176</ele>
        <time>2021-05-08T08:00:14.000Z</time>
      </trkpt>
      <trkpt lat="49.17055" lon="1.2151">
        <ele>137.19999694824</ele>
        <time>2021-05-08T08:00:16.000Z</time>
      </trkpt>
      <trkpt lat="49.17058" lon="1.21508">
        <ele>137.80000305176</ele>
        <time>2021-05-08T08:00:18.000Z</time>
      </trkpt>
      <trkpt lat="49.17063" lon="1.21504">
        <ele>138.39999389648</ele>
        <time>2021-05-08T08:00:21.000Z</time>
      </trkpt>
      <trkpt lat="49.17066" lon="1.215">
        <ele>139</ele>
        <time>2021-05-08T08:00:23.000Z</time>
      </trkpt>
      <trkpt lat="49.17075" lon="1.21492">
        <ele>140</ele>
        <time>2021-05-08T08:00:28.000Z</time>
      </trkpt>
      <trkpt lat="49.17077" lon="1.21491">
        <ele>140</ele>
        <time>2021-05-08T08:00:29.000Z</time>
      </trkpt>
      <trkpt lat="49.17089" lon="1.21481">
        <ele>141.19999694824</ele>
        <time>2021-05-08T08:00:35.000Z</time>
      </trkpt>
      <trkpt lat="49.17093" lon="1.21476">
        <ele>141.39999389648</ele>
        <time>2021-05-08T08:00:37.000Z</time>
      </trkpt>
      <trkpt lat="49.17099" lon="1.21471">
        <ele>141.60000610352</ele>
        <time>2021-05-08T08:00:40.000Z</time>
      </trkpt>
      <trkpt lat="49.17111" lon="1.21458">
        <ele>142.19999694824</ele>
        <time>2021-05-08T08:00:46.000Z</time>
      </trkpt>
      <trkpt lat="49.17122" lon="1.21448">
        <ele>142.80000305176</ele>
        <time>2021-05-08T08:00:51.000Z</time>
      </trkpt>
      <trkpt lat="49.17142" lon="1.21442">
        <ele>143.19999694824</ele>
        <time>2021-05-08T08:00:58.000Z</time>
      </trkpt>
      <trkpt lat="49.17145" lon="1.21442">
        <ele>143.19999694824</ele>
        <time>2021-05-08T08:00:59.000Z</time>
      </trkpt>
      <trkpt lat="49.17156" lon="1.21441">
        <ele>143.39999389648</ele>
        <time>2021-05-08T08:01:03.000Z</time>
      </trkpt>
      <trkpt lat="49.1717" lon="1.21438">
        <ele>143.39999389648</ele>
        <time>2021-05-08T08:01:07.000Z</time>
      </trkpt>
      <trkpt lat="49.17179" lon="1.21436">
        <ele>143.39999389648</ele>
        <time>2021-05-08T08:01:09.000Z</time>
      </trkpt>
      <trkpt lat="49.17187" lon="1.21433">
        <ele>143.39999389648</ele>
        <time>2021-05-08T08:01:11.000Z</time>
      </trkpt>
      <trkpt lat="49.1721" lon="1.21426">
        <ele>143.19999694824</ele>
        <time>2021-05-08T08:01:16.000Z</time>
      </trkpt>
      <trkpt lat="49.17219" lon="1.21422">
        <ele>143.19999694824</ele>
        <time>2021-05-08T08:01:18.000Z</time>
      </trkpt>
      <trkpt lat="49.1724" lon="1.21416">
        <ele>142.80000305176</ele>
        <time>2021-05-08T08:01:22.000Z</time>
      </trkpt>
      <trkpt lat="49.1726" lon="1.21409">
        <ele>142.60000610352</ele>
        <time>2021-05-08T08:01:26.000Z</time>
      </trkpt>
      <trkpt lat="49.17271" lon="1.21406">
        <ele>142.19999694824</ele>
        <time>2021-05-08T08:01:28.000Z</time>
      </trkpt>
      <trkpt lat="49.17283" lon="1.21405">
        <ele>142</ele>
        <time>2021-05-08T08:01:30.000Z</time>
      </trkpt>
      <trkpt lat="49.17292" lon="1.21404">
        <ele>141.80000305176</ele>
        <time>2021-05-08T08:01:32.000Z</time>
      </trkpt>
      <trkpt lat="49.17303" lon="1.21406">
        <ele>141.60000610352</ele>
        <time>2021-05-08T08:01:34.000Z</time>
      </trkpt>
      <trkpt lat="49.17323" lon="1.2141">
        <ele>141.19999694824</ele>
        <time>2021-05-08T08:01:38.000Z</time>
      </trkpt>
      <trkpt lat="49.17328" lon="1.21411">
        <ele>141.19999694824</ele>
        <time>2021-05-08T08:01:39.000Z</time>
      </trkpt>
      <trkpt lat="49.17354" lon="1.21417">
        <ele>140.80000305176</ele>
        <time>2021-05-08T08:01:44.000Z</time>
      </trkpt>
      <trkpt lat="49.17359" lon="1.21419">
        <ele>140.60000610352</ele>
        <time>2021-05-08T08:01:45.000Z</time>
      </trkpt>
      <trkpt lat="49.17367" lon="1.21424">
        <ele>140.60000610352</ele>
        <time>2021-05-08T08:01:47.000Z</time>
      </trkpt>
      <trkpt lat="49.17382" lon="1.21436">
        <ele>140.39999389648</ele>
        <time>2021-05-08T08:01:51.000Z</time>
      </trkpt>
      <trkpt lat="49.17388" lon="1.21444">
        <ele>140.19999694824</ele>
        <time>2021-05-08T08:01:53.000Z</time>
      </trkpt>
      <trkpt lat="49.17401" lon="1.21457">
        <ele>140</ele>
        <time>2021-05-08T08:01:56.000Z</time>
      </trkpt>
      <trkpt lat="49.17406" lon="1.21461">
        <ele>140</ele>
        <time>2021-05-08T08:01:57.000Z</time>
      </trkpt>
      <trkpt lat="49.1742" lon="1.21472">
        <ele>139.80000305176</ele>
        <time>2021-05-08T08:02:00.000Z</time>
      </trkpt>
      <trkpt lat="49.17424" lon="1.21472">
        <ele>139.80000305176</ele>
        <time>2021-05-08T08:02:01.000Z</time>
      </trkpt>
      <trkpt lat="49.17435" lon="1.21459">
        <ele>139.39999389648</ele>
        <time>2021-05-08T08:02:04.000Z</time>
      </trkpt>
      <trkpt lat="49.17439" lon="1.21455">
        <ele>139.19999694824</ele>
        <time>2021-05-08T08:02:05.000Z</time>
      </trkpt>
      <trkpt lat="49.17461" lon="1.21433">
        <ele>139</ele>
        <time>2021-05-08T08:02:10.000Z</time>
      </trkpt>
      <trkpt lat="49.17465" lon="1.21428">
        <ele>139</ele>
        <time>2021-05-08T08:02:11.000Z</time>
      </trkpt>
      <trkpt lat="49.17488" lon="1.21408">
        <ele>138.19999694824</ele>
        <time>2021-05-08T08:02:16.000Z</time>
      </trkpt>
      <trkpt lat="49.17502" lon="1.21395">
        <ele>137.80000305176</ele>
        <time>2021-05-08T08:02:19.000Z</time>
      </trkpt>
      <trkpt lat="49.17507" lon="1.21391">
        <ele>137.80000305176</ele>
        <time>2021-05-08T08:02:20.000Z</time>
      </trkpt>
      <trkpt lat="49.17519" lon="1.21383">
        <ele>137.60000610352</ele>
        <time>2021-05-08T08:02:22.000Z</time>
      </trkpt>
      <trkpt lat="49.17541" lon="1.21364">
        <ele>136.80000305176</ele>
        <time>2021-05-08T08:02:26.000Z</time>
      </trkpt>
      <trkpt lat="49.17547" lon="1.21358">
        <ele>136.80000305176</ele>
        <time>2021-05-08T08:02:27.000Z</time>
      </trkpt>
      <trkpt lat="49.17577" lon="1.21326">
        <ele>136</ele>
        <time>2021-05-08T08:02:32.000Z</time>
      </trkpt>
      <trkpt lat="49.17587" lon="1.21314">
        <ele>135.80000305176</ele>
        <time>2021-05-08T08:02:34.000Z</time>
      </trkpt>
      <trkpt lat="49.1759" lon="1.21308">
        <ele>135.39999389648</ele>
        <time>2021-05-08T08:02:35.000Z</time>
      </trkpt>
      <trkpt lat="49.17593" lon="1.21301">
        <ele>135.19999694824</ele>
        <time>2021-05-08T08:02:36.000Z</time>
      </trkpt>
      <trkpt lat="49.176" lon="1.21277">
        <ele>134.60000610352</ele>
        <time>2021-05-08T08:02:39.000Z</time>
      </trkpt>
      <trkpt lat="49.17604" lon="1.21259">
        <ele>133.80000305176</ele>
        <time>2021-05-08T08:02:41.000Z</time>
      </trkpt>
      <trkpt lat="49.17608" lon="1.2124">
        <ele>133.60000610352</ele>
        <time>2021-05-08T08:02:43.000Z</time>
      </trkpt>
      <trkpt lat="49.1761" lon="1.21221">
        <ele>133.19999694824</ele>
        <time>2021-05-08T08:02:45.000Z</time>
      </trkpt>
      <trkpt lat="49.17612" lon="1.21211">
        <ele>133.19999694824</ele>
        <time>2021-05-08T08:02:46.000Z</time>
      </trkpt>
      <trkpt lat="49.17621" lon="1.21165">
        <ele>132.80000305176</ele>
        <time>2021-05-08T08:02:51.000Z</time>
      </trkpt>
      <trkpt lat="49.17625" lon="1.21147">
        <ele>132.39999389648</ele>
        <time>2021-05-08T08:02:53.000Z</time>
      </trkpt>
      <trkpt lat="49.17632" lon="1.21108">
        <ele>131.60000610352</ele>
        <time>2021-05-08T08:02:57.000Z</time>
      </trkpt>
      <trkpt lat="49.17633" lon="1.21099">
        <ele>131.39999389648</ele>
        <time>2021-05-08T08:02:58.000Z</time>
      </trkpt>
      <trkpt lat="49.17634" lon="1.21079">
        <ele>131.19999694824</ele>
        <time>2021-05-08T08:03:00.000Z</time>
      </trkpt>
      <trkpt lat="49.17632" lon="1.21058">
        <ele>131</ele>
        <time>2021-05-08T08:03:02.000Z</time>
      </trkpt>
      <trkpt lat="49.17629" lon="1.21037">
        <ele>130.80000305176</ele>
        <time>2021-05-08T08:03:04.000Z</time>
      </trkpt>
      <trkpt lat="49.17623" lon="1.21004">
        <ele>130.60000610352</ele>
        <time>2021-05-08T08:03:07.000Z</time>
      </trkpt>
      <trkpt lat="49.17616" lon="1.20975">
        <ele>130.19999694824</ele>
        <time>2021-05-08T08:03:10.000Z</time>
      </trkpt>
      <trkpt lat="49.17614" lon="1.20966">
        <ele>130.19999694824</ele>
        <time>2021-05-08T08:03:11.000Z</time>
      </trkpt>
      <trkpt lat="49.17612" lon="1.20956">
        <ele>130</ele>
        <time>2021-05-08T08:03:12.000Z</time>
      </trkpt>
      <trkpt lat="49.17603" lon="1.20895">
        <ele>129.60000610352</ele>
        <time>2021-05-08T08:03:18.000Z</time>
      </trkpt>
      <trkpt lat="49.17596" lon="1.20855">
        <ele>129.19999694824</ele>
        <time>2021-05-08T08:03:22.000Z</time>
      </trkpt>
      <trkpt lat="49.17595" lon="1.20845">
        <ele>129.19999694824</ele>
        <time>2021-05-08T08:03:23.000Z</time>
      </trkpt>
      <trkpt lat="49.17595" lon="1.20835">
        <ele>129</ele>
        <time>2021-05-08T08:03:24.000Z</time>
      </trkpt>
      <trkpt lat="49.17593" lon="1.20815">
        <ele>128.60000610352</ele>
        <time>2021-05-08T08:03:26.000Z</time>
      </trkpt>
      <trkpt lat="49.17588" lon="1.20797">
        <ele>128.39999389648</ele>
        <time>2021-05-08T08:03:28.000Z</time>
      </trkpt>
      <trkpt lat="49.17581" lon="1.2078">
        <ele>128.19999694824</ele>
        <time>2021-05-08T08:03:30.000Z</time>
      </trkpt>
      <trkpt lat="49.17568" lon="1.20746">
        <ele>128</ele>
        <time>2021-05-08T08:03:34.000Z</time>
      </trkpt>
      <trkpt lat="49.17563" lon="1.20739">
        <ele>128</ele>
        <time>2021-05-08T08:03:35.000Z</time>
      </trkpt>
      <trkpt lat="49.17545" lon="1.20714">
        <ele>127.80000305176</ele>
        <time>2021-05-08T08:03:39.000Z</time>
      </trkpt>
      <trkpt lat="49.1754" lon="1.20697">
        <ele>127.40000152588</ele>
        <time>2021-05-08T08:03:41.000Z</time>
      </trkpt>
      <trkpt lat="49.17538" lon="1.20688">
        <ele>127.19999694824</ele>
        <time>2021-05-08T08:03:42.000Z</time>
      </trkpt>
      <trkpt lat="49.17537" lon="1.20678">
        <ele>126.80000305176</ele>
        <time>2021-05-08T08:03:43.000Z</time>
      </trkpt>
      <trkpt lat="49.17534" lon="1.20639">
        <ele>126.19999694824</ele>
        <time>2021-05-08T08:03:47.000Z</time>
      </trkpt>
      <trkpt lat="49.17533" lon="1.2063">
        <ele>126.19999694824</ele>
        <time>2021-05-08T08:03:48.000Z</time>
      </trkpt>
      <trkpt lat="49.17533" lon="1.2061">
        <ele>126</ele>
        <time>2021-05-08T08:03:50.000Z</time>
      </trkpt>
      <trkpt lat="49.17532" lon="1.20602">
        <ele>125.59999847412</ele>
        <time>2021-05-08T08:03:51.000Z</time>
      </trkpt>
      <trkpt lat="49.17522" lon="1.20586">
        <ele>125</ele>
        <time>2021-05-08T08:03:54.000Z</time>
      </trkpt>
      <trkpt lat="49.17518" lon="1.20584">
        <ele>124.80000305176</ele>
        <time>2021-05-08T08:03:55.000Z</time>
      </trkpt>
      <trkpt lat="49.1751" lon="1.20579">
        <ele>124.40000152588</ele>
        <time>2021-05-08T08:03:57.000Z</time>
      </trkpt>
      <trkpt lat="49.17501" lon="1.20576">
        <ele>123.80000305176</ele>
        <time>2021-05-08T08:03:59.000Z</time>
      </trkpt>
      <trkpt lat="49.17497" lon="1.20574">
        <ele>123.80000305176</ele>
        <time>2021-05-08T08:04:00.000Z</time>
      </trkpt>
      <trkpt lat="49.17482" lon="1.20568">
        <ele>123.40000152588</ele>
        <time>2021-05-08T08:04:03.000Z</time>
      </trkpt>
      <trkpt lat="49.17473" lon="1.20563">
        <ele>123.40000152588</ele>
        <time>2021-05-08T08:04:05.000Z</time>
      </trkpt>
      <trkpt lat="49.17463" lon="1.20558">
        <ele>123.19999694824</ele>
        <time>2021-05-08T08:04:07.000Z</time>
      </trkpt>
      <trkpt lat="49.17459" lon="1.20555">
        <ele>123.19999694824</ele>
        <time>2021-05-08T08:04:08.000Z</time>
      </trkpt>
      <trkpt lat="49.17451" lon="1.20552">
        <ele>123</ele>
        <time>2021-05-08T08:04:10.000Z</time>
      </trkpt>
      <trkpt lat="49.17445" lon="1.20549">
        <ele>122.80000305176</ele>
        <time>2021-05-08T08:04:12.000Z</time>
      </trkpt>
      <trkpt lat="49.17441" lon="1.20548">
        <ele>122.19999694824</ele>
        <time>2021-05-08T08:04:14.000Z</time>
      </trkpt>
      <trkpt lat="49.17438" lon="1.20548">
        <ele>121</ele>
        <time>2021-05-08T08:04:16.000Z</time>
      </trkpt>
      <trkpt lat="49.17437" lon="1.20546">
        <ele>119.19999694824</ele>
        <time>2021-05-08T08:04:18.000Z</time>
      </trkpt>
      <trkpt lat="49.17437" lon="1.20546">
        <ele>117.59999847412</ele>
        <time>2021-05-08T08:04:19.000Z</time>
      </trkpt>
      <trkpt lat="49.17437" lon="1.20545">
        <ele>117.19999694824</ele>
        <time>2021-05-08T08:04:20.000Z</time>
      </trkpt>
      <trkpt lat="49.17431" lon="1.20544">
        <ele>117.40000152588</ele>
        <time>2021-05-08T08:04:55.000Z</time>
      </trkpt>
      <trkpt lat="49.17428" lon="1.20541">
        <ele>117.40000152588</ele>
        <time>2021-05-08T08:04:58.000Z</time>
      </trkpt>
      <trkpt lat="49.17426" lon="1.20538">
        <ele>117.40000152588</ele>
        <time>2021-05-08T08:05:00.000Z</time>
      </trkpt>
      <trkpt lat="49.1742" lon="1.20533">
        <ele>118.40000152588</ele>
        <time>2021-05-08T08:05:06.000Z</time>
      </trkpt>
      <trkpt lat="49.17415" lon="1.20532">
        <ele>119.19999694824</ele>
        <time>2021-05-08T08:05:09.000Z</time>
      </trkpt>
      <trkpt lat="49.17412" lon="1.20531">
        <ele>119.59999847412</ele>
        <time>2021-05-08T08:05:11.000Z</time>
      </trkpt>
      <trkpt lat="49.17406" lon="1.20529">
        <ele>121</ele>
        <time>2021-05-08T08:05:15.000Z</time>
      </trkpt>
      <trkpt lat="49.17401" lon="1.20528">
        <ele>122.19999694824</ele>
        <time>2021-05-08T08:05:18.000Z</time>
      </trkpt>
      <trkpt lat="49.17398" lon="1.20528">
        <ele>122.59999847412</ele>
        <time>2021-05-08T08:05:20.000Z</time>
      </trkpt>
      <trkpt lat="49.17395" lon="1.20527">
        <ele>123.19999694824</ele>
        <time>2021-05-08T08:05:23.000Z</time>
      </trkpt>
      <trkpt lat="49.17395" lon="1.20527">
        <ele>123.40000152588</ele>
        <time>2021-05-08T08:05:24.000Z</time>
      </trkpt>
      <trkpt lat="49.17393" lon="1.20525">
        <ele>124.59999847412</ele>
        <time>2021-05-08T08:05:38.000Z</time>
      </trkpt>
      <trkpt lat="49.17392" lon="1.20524">
        <ele>124.59999847412</ele>
        <time>2021-05-08T08:05:39.000Z</time>
      </trkpt>
      <trkpt lat="49.17382" lon="1.20518">
        <ele>124.59999847412</ele>
        <time>2021-05-08T08:05:45.000Z</time>
      </trkpt>
      <trkpt lat="49.17366" lon="1.2051">
        <ele>124.59999847412</ele>
        <time>2021-05-08T08:05:51.000Z</time>
      </trkpt>
      <trkpt lat="49.17351" lon="1.20503">
        <ele>124.59999847412</ele>
        <time>2021-05-08T08:05:56.000Z</time>
      </trkpt>
      <trkpt lat="49.17335" lon="1.20496">
        <ele>125</ele>
        <time>2021-05-08T08:06:01.000Z</time>
      </trkpt>
      <trkpt lat="49.17317" lon="1.20488">
        <ele>125.40000152588</ele>
        <time>2021-05-08T08:06:06.000Z</time>
      </trkpt>
      <trkpt lat="49.17314" lon="1.20486">
        <ele>125.59999847412</ele>
        <time>2021-05-08T08:06:07.000Z</time>
      </trkpt>
      <trkpt lat="49.17302" lon="1.20485">
        <ele>126</ele>
        <time>2021-05-08T08:06:11.000Z</time>
      </trkpt>
      <trkpt lat="49.17293" lon="1.20496">
        <ele>126</ele>
        <time>2021-05-08T08:06:15.000Z</time>
      </trkpt>
      <trkpt lat="49.17284" lon="1.20509">
        <ele>126.19999694824</ele>
        <time>2021-05-08T08:06:19.000Z</time>
      </trkpt>
      <trkpt lat="49.17279" lon="1.20514">
        <ele>126.19999694824</ele>
        <time>2021-05-08T08:06:21.000Z</time>
      </trkpt>
      <trkpt lat="49.17272" lon="1.20517">
        <ele>126.19999694824</ele>
        <time>2021-05-08T08:06:23.000Z</time>
      </trkpt>
      <trkpt lat="49.17257" lon="1.20529">
        <ele>126.40000152588</ele>
        <time>2021-05-08T08:06:28.000Z</time>
      </trkpt>
      <trkpt lat="49.17252" lon="1.20537">
        <ele>126.80000305176</ele>
        <time>2021-05-08T08:06:30.000Z</time>
      </trkpt>
      <trkpt lat="49.17245" lon="1.20552">
        <ele>127</ele>
        <time>2021-05-08T08:06:33.000Z</time>
      </trkpt>
      <trkpt lat="49.17233" lon="1.20585">
        <ele>127.40000152588</ele>
        <time>2021-05-08T08:06:39.000Z</time>
      </trkpt>
      <trkpt lat="49.17225" lon="1.20619">
        <ele>127.80000305176</ele>
        <time>2021-05-08T08:06:45.000Z</time>
      </trkpt>
      <trkpt lat="49.17221" lon="1.20629">
        <ele>128</ele>
        <time>2021-05-08T08:06:47.000Z</time>
      </trkpt>
      <trkpt lat="49.17217" lon="1.20642">
        <ele>128.39999389648</ele>
        <time>2021-05-08T08:06:50.000Z</time>
      </trkpt>
      <trkpt lat="49.17211" lon="1.2067">
        <ele>129</ele>
        <time>2021-05-08T08:06:55.000Z</time>
      </trkpt>
      <trkpt lat="49.17213" lon="1.20698">
        <ele>129.60000610352</ele>
        <time>2021-05-08T08:06:59.000Z</time>
      </trkpt>
      <trkpt lat="49.17214" lon="1.20726">
        <ele>130</ele>
        <time>2021-05-08T08:07:04.000Z</time>
      </trkpt>
      <trkpt lat="49.17212" lon="1.2075">
        <ele>130.19999694824</ele>
        <time>2021-05-08T08:07:09.000Z</time>
      </trkpt>
      <trkpt lat="49.17208" lon="1.20771">
        <ele>131.19999694824</ele>
        <time>2021-05-08T08:07:14.000Z</time>
      </trkpt>
      <trkpt lat="49.17204" lon="1.20786">
        <ele>132.39999389648</ele>
        <time>2021-05-08T08:07:18.000Z</time>
      </trkpt>
      <trkpt lat="49.17202" lon="1.20793">
        <ele>133.19999694824</ele>
        <time>2021-05-08T08:07:20.000Z</time>
      </trkpt>
      <trkpt lat="49.17201" lon="1.20797">
        <ele>133.39999389648</ele>
        <time>2021-05-08T08:07:21.000Z</time>
      </trkpt>
      <trkpt lat="49.17197" lon="1.20807">
        <ele>134.39999389648</ele>
        <time>2021-05-08T08:07:24.000Z</time>
      </trkpt>
      <trkpt lat="49.17196" lon="1.20811">
        <ele>134.80000305176</ele>
        <time>2021-05-08T08:07:25.000Z</time>
      </trkpt>
      <trkpt lat="49.17192" lon="1.20823">
        <ele>135.39999389648</ele>
        <time>2021-05-08T08:07:28.000Z</time>
      </trkpt>
      <trkpt lat="49.17191" lon="1.20828">
        <ele>135.60000610352</ele>
        <time>2021-05-08T08:07:29.000Z</time>
      </trkpt>
      <trkpt lat="49.17188" lon="1.20852">
        <ele>136.60000610352</ele>
        <time>2021-05-08T08:07:34.000Z</time>
      </trkpt>
      <trkpt lat="49.17187" lon="1.20856">
        <ele>136.60000610352</ele>
        <time>2021-05-08T08:07:35.000Z</time>
      </trkpt>
      <trkpt lat="49.17187" lon="1.2086">
        <ele>136.80000305176</ele>
        <time>2021-05-08T08:07:36.000Z</time>
      </trkpt>
      <trkpt lat="49.17186" lon="1.20885">
        <ele>137.80000305176</ele>
        <time>2021-05-08T08:07:41.000Z</time>
      </trkpt>
      <trkpt lat="49.17186" lon="1.20891">
        <ele>137.80000305176</ele>
        <time>2021-05-08T08:07:42.000Z</time>
      </trkpt>
      <trkpt lat="49.17185" lon="1.2091">
        <ele>138.39999389648</ele>
        <time>2021-05-08T08:07:46.000Z</time>
      </trkpt>
      <trkpt lat="49.17187" lon="1.20931">
        <ele>139</ele>
        <time>2021-05-08T08:07:50.000Z</time>
      </trkpt>
      <trkpt lat="49.17188" lon="1.20936">
        <ele>139.19999694824</ele>
        <time>2021-05-08T08:07:51.000Z</time>
      </trkpt>
      <trkpt lat="49.17191" lon="1.20956">
        <ele>139.60000610352</ele>
        <time>2021-05-08T08:07:55.000Z</time>
      </trkpt>
      <trkpt lat="49.17189" lon="1.20959">
        <ele>139.80000305176</ele>
        <time>2021-05-08T08:07:56.000Z</time>
      </trkpt>
      <trkpt lat="49.17187" lon="1.20967">
        <ele>140</ele>
        <time>2021-05-08T08:07:58.000Z</time>
      </trkpt>
      <trkpt lat="49.17182" lon="1.20985">
        <ele>140.39999389648</ele>
        <time>2021-05-08T08:08:02.000Z</time>
      </trkpt>
      <trkpt lat="49.17175" lon="1.21008">
        <ele>140.80000305176</ele>
        <time>2021-05-08T08:08:07.000Z</time>
      </trkpt>
      <trkpt lat="49.17172" lon="1.21022">
        <ele>141.19999694824</ele>
        <time>2021-05-08T08:08:10.000Z</time>
      </trkpt>
      <trkpt lat="49.17171" lon="1.21028">
        <ele>141.19999694824</ele>
        <time>2021-05-08T08:08:11.000Z</time>
      </trkpt>
      <trkpt lat="49.17164" lon="1.2106">
        <ele>141.39999389648</ele>
        <time>2021-05-08T08:08:17.000Z</time>
      </trkpt>
      <trkpt lat="49.17156" lon="1.21094">
        <ele>141.39999389648</ele>
        <time>2021-05-08T08:08:23.000Z</time>
      </trkpt>
      <trkpt lat="49.17153" lon="1.21122">
        <ele>141.60000610352</ele>
        <time>2021-05-08T08:08:28.000Z</time>
      </trkpt>
      <trkpt lat="49.17152" lon="1.21144">
        <ele>141.60000610352</ele>
        <time>2021-05-08T08:08:32.000Z</time>
      </trkpt>
      <trkpt lat="49.17148" lon="1.21161">
        <ele>142.19999694824</ele>
        <time>2021-05-08T08:08:35.000Z</time>
      </trkpt>
      <trkpt lat="49.17144" lon="1.2117">
        <ele>142.39999389648</ele>
        <time>2021-05-08T08:08:37.000Z</time>
      </trkpt>
      <trkpt lat="49.17143" lon="1.21174">
        <ele>142.39999389648</ele>
        <time>2021-05-08T08:08:38.000Z</time>
      </trkpt>
      <trkpt lat="49.17142" lon="1.21184">
        <ele>142.60000610352</ele>
        <time>2021-05-08T08:08:40.000Z</time>
      </trkpt>
      <trkpt lat="49.17143" lon="1.21214">
        <ele>142.80000305176</ele>
        <time>2021-05-08T08:08:45.000Z</time>
      </trkpt>
      <trkpt lat="49.17147" lon="1.21238">
        <ele>143</ele>
        <time>2021-05-08T08:08:49.000Z</time>
      </trkpt>
      <trkpt lat="49.17149" lon="1.21264">
        <ele>143.19999694824</ele>
        <time>2021-05-08T08:08:53.000Z</time>
      </trkpt>
      <trkpt lat="49.1715" lon="1.2127">
        <ele>143.19999694824</ele>
        <time>2021-05-08T08:08:54.000Z</time>
      </trkpt>
      <trkpt lat="49.17153" lon="1.21302">
        <ele>143.39999389648</ele>
        <time>2021-05-08T08:08:59.000Z</time>
      </trkpt>
      <trkpt lat="49.17154" lon="1.21336">
        <ele>143.60000610352</ele>
        <time>2021-05-08T08:09:04.000Z</time>
      </trkpt>
      <trkpt lat="49.17159" lon="1.21379">
        <ele>143.80000305176</ele>
        <time>2021-05-08T08:09:10.000Z</time>
      </trkpt>
      <trkpt lat="49.17164" lon="1.214">
        <ele>143.60000610352</ele>
        <time>2021-05-08T08:09:14.000Z</time>
      </trkpt>
      <trkpt lat="49.17165" lon="1.21403">
        <ele>143.60000610352</ele>
        <time>2021-05-08T08:09:15.000Z</time>
      </trkpt>
      <trkpt lat="49.17165" lon="1.21406">
        <ele>143.60000610352</ele>
        <time>2021-05-08T08:09:17.000Z</time>
      </trkpt>
      <trkpt lat="49.17167" lon="1.21428">
        <ele>144.19999694824</ele>
        <time>2021-05-08T08:13:44.000Z</time>
      </trkpt>
      <trkpt lat="49.17168" lon="1.21443">
        <ele>144.19999694824</ele>
        <time>2021-05-08T08:13:48.000Z</time>
      </trkpt>
      <trkpt lat="49.17171" lon="1.21464">
        <ele>144.19999694824</ele>
        <time>2021-05-08T08:13:52.000Z</time>
      </trkpt>
      <trkpt lat="49.17173" lon="1.21497">
        <ele>143.19999694824</ele>
        <time>2021-05-08T08:13:58.000Z</time>
      </trkpt>
      <trkpt lat="49.17173" lon="1.21503">
        <ele>143.19999694824</ele>
        <time>2021-05-08T08:13:59.000Z</time>
      </trkpt>
      <trkpt lat="49.17175" lon="1.21525">
        <ele>142.60000610352</ele>
        <time>2021-05-08T08:14:03.000Z</time>
      </trkpt>
      <trkpt lat="49.17179" lon="1.21562">
        <ele>142.60000610352</ele>
        <time>2021-05-08T08:14:09.000Z</time>
      </trkpt>
      <trkpt lat="49.17181" lon="1.21581">
        <ele>142.60000610352</ele>
        <time>2021-05-08T08:14:12.000Z</time>
      </trkpt>
      <trkpt lat="49.17182" lon="1.21587">
        <ele>142.60000610352</ele>
        <time>2021-05-08T08:14:13.000Z</time>
      </trkpt>
      <trkpt lat="49.17194" lon="1.21627">
        <ele>143.19999694824</ele>
        <time>2021-05-08T08:14:18.000Z</time>
      </trkpt>
      <trkpt lat="49.17203" lon="1.21662">
        <ele>144</ele>
        <time>2021-05-08T08:14:23.000Z</time>
      </trkpt>
      <trkpt lat="49.17201" lon="1.21692">
        <ele>144.19999694824</ele>
        <time>2021-05-08T08:14:28.000Z</time>
      </trkpt>
      <trkpt lat="49.17198" lon="1.21715">
        <ele>144.80000305176</ele>
        <time>2021-05-08T08:14:32.000Z</time>
      </trkpt>
      <trkpt lat="49.172" lon="1.21745">
        <ele>145</ele>
        <time>2021-05-08T08:14:36.000Z</time>
      </trkpt>
      <trkpt lat="49.172" lon="1.21753">
        <ele>145.19999694824</ele>
        <time>2021-05-08T08:14:37.000Z</time>
      </trkpt>
      <trkpt lat="49.17203" lon="1.21784">
        <ele>145.19999694824</ele>
        <time>2021-05-08T08:14:41.000Z</time>
      </trkpt>
      <trkpt lat="49.17206" lon="1.21815">
        <ele>145.60000610352</ele>
        <time>2021-05-08T08:14:45.000Z</time>
      </trkpt>
      <trkpt lat="49.17208" lon="1.21822">
        <ele>145.60000610352</ele>
        <time>2021-05-08T08:14:46.000Z</time>
      </trkpt>
      <trkpt lat="49.17214" lon="1.21848">
        <ele>146</ele>
        <time>2021-05-08T08:14:49.000Z</time>
      </trkpt>
      <trkpt lat="49.17213" lon="1.21864">
        <ele>146</ele>
        <time>2021-05-08T08:14:51.000Z</time>
      </trkpt>
      <trkpt lat="49.17211" lon="1.21877">
        <ele>146.19999694824</ele>
        <time>2021-05-08T08:14:53.000Z</time>
      </trkpt>
      <trkpt lat="49.17205" lon="1.21907">
        <ele>147</ele>
        <time>2021-05-08T08:14:58.000Z</time>
      </trkpt>
      <trkpt lat="49.17203" lon="1.21912">
        <ele>147.19999694824</ele>
        <time>2021-05-08T08:14:59.000Z</time>
      </trkpt>
      <trkpt lat="49.17188" lon="1.21969">
        <ele>148</ele>
        <time>2021-05-08T08:15:08.000Z</time>
      </trkpt>
      <trkpt lat="49.17183" lon="1.21989">
        <ele>148.19999694824</ele>
        <time>2021-05-08T08:15:11.000Z</time>
      </trkpt>
      <trkpt lat="49.17177" lon="1.22017">
        <ele>148.39999389648</ele>
        <time>2021-05-08T08:15:15.000Z</time>
      </trkpt>
      <trkpt lat="49.17159" lon="1.22083">
        <ele>148.80000305176</ele>
        <time>2021-05-08T08:15:25.000Z</time>
      </trkpt>
      <trkpt lat="49.17147" lon="1.22116">
        <ele>148.80000305176</ele>
        <time>2021-05-08T08:15:31.000Z</time>
      </trkpt>
      <trkpt lat="49.1714" lon="1.2214">
        <ele>148.80000305176</ele>
        <time>2021-05-08T08:15:35.000Z</time>
      </trkpt>
      <trkpt lat="49.17134" lon="1.22158">
        <ele>148.80000305176</ele>
        <time>2021-05-08T08:15:38.000Z</time>
      </trkpt>
      <trkpt lat="49.17129" lon="1.22168">
        <ele>148.80000305176</ele>
        <time>2021-05-08T08:15:40.000Z</time>
      </trkpt>
      <trkpt lat="49.17117" lon="1.22184">
        <ele>149</ele>
        <time>2021-05-08T08:15:44.000Z</time>
      </trkpt>
      <trkpt lat="49.17103" lon="1.22183">
        <ele>149.19999694824</ele>
        <time>2021-05-08T08:15:48.000Z</time>
      </trkpt>
      <trkpt lat="49.17074" lon="1.22164">
        <ele>149.19999694824</ele>
        <time>2021-05-08T08:15:55.000Z</time>
      </trkpt>
      <trkpt lat="49.17058" lon="1.22152">
        <ele>149</ele>
        <time>2021-05-08T08:15:59.000Z</time>
      </trkpt>
      <trkpt lat="49.17048" lon="1.2214">
        <ele>149</ele>
        <time>2021-05-08T08:16:02.000Z</time>
      </trkpt>
      <trkpt lat="49.17036" lon="1.22117">
        <ele>148.39999389648</ele>
        <time>2021-05-08T08:16:06.000Z</time>
      </trkpt>
      <trkpt lat="49.1703" lon="1.22104">
        <ele>148.19999694824</ele>
        <time>2021-05-08T08:16:08.000Z</time>
      </trkpt>
      <trkpt lat="49.17024" lon="1.22092">
        <ele>148</ele>
        <time>2021-05-08T08:16:10.000Z</time>
      </trkpt>
      <trkpt lat="49.17015" lon="1.22072">
        <ele>147.80000305176</ele>
        <time>2021-05-08T08:16:13.000Z</time>
      </trkpt>
      <trkpt lat="49.16996" lon="1.22044">
        <ele>147.39999389648</ele>
        <time>2021-05-08T08:16:18.000Z</time>
      </trkpt>
      <trkpt lat="49.16992" lon="1.2204">
        <ele>147.19999694824</ele>
        <time>2021-05-08T08:16:19.000Z</time>
      </trkpt>
      <trkpt lat="49.16978" lon="1.22024">
        <ele>146.80000305176</ele>
        <time>2021-05-08T08:16:22.000Z</time>
      </trkpt>
      <trkpt lat="49.16973" lon="1.22008">
        <ele>146.19999694824</ele>
        <time>2021-05-08T08:16:24.000Z</time>
      </trkpt>
      <trkpt lat="49.16969" lon="1.21991">
        <ele>145.60000610352</ele>
        <time>2021-05-08T08:16:26.000Z</time>
      </trkpt>
      <trkpt lat="49.16967" lon="1.21982">
        <ele>145.19999694824</ele>
        <time>2021-05-08T08:16:27.000Z</time>
      </trkpt>
      <trkpt lat="49.16963" lon="1.21953">
        <ele>143.80000305176</ele>
        <time>2021-05-08T08:16:30.000Z</time>
      </trkpt>
      <trkpt lat="49.1696" lon="1.21933">
        <ele>143.39999389648</ele>
        <time>2021-05-08T08:16:32.000Z</time>
      </trkpt>
      <trkpt lat="49.16953" lon="1.21877">
        <ele>142.80000305176</ele>
        <time>2021-05-08T08:16:37.000Z</time>
      </trkpt>
      <trkpt lat="49.16951" lon="1.21853">
        <ele>142.19999694824</ele>
        <time>2021-05-08T08:16:39.000Z</time>
      </trkpt>
      <trkpt lat="49.1695" lon="1.21841">
        <ele>141.80000305176</ele>
        <time>2021-05-08T08:16:40.000Z</time>
      </trkpt>
      <trkpt lat="49.16945" lon="1.21794">
        <ele>140.80000305176</ele>
        <time>2021-05-08T08:16:44.000Z</time>
      </trkpt>
      <trkpt lat="49.16944" lon="1.21781">
        <ele>140.19999694824</ele>
        <time>2021-05-08T08:16:45.000Z</time>
      </trkpt>
      <trkpt lat="49.16944" lon="1.21769">
        <ele>139.80000305176</ele>
        <time>2021-05-08T08:16:46.000Z</time>
      </trkpt>
      <trkpt lat="49.16946" lon="1.21757">
        <ele>139.39999389648</ele>
        <time>2021-05-08T08:16:47.000Z</time>
      </trkpt>
      <trkpt lat="49.16948" lon="1.21746">
        <ele>138.80000305176</ele>
        <time>2021-05-08T08:16:48.000Z</time>
      </trkpt>
      <trkpt lat="49.16952" lon="1.21723">
        <ele>138</ele>
        <time>2021-05-08T08:16:50.000Z</time>
      </trkpt>
      <trkpt lat="49.16955" lon="1.21701">
        <ele>137</ele>
        <time>2021-05-08T08:16:52.000Z</time>
      </trkpt>
      <trkpt lat="49.16956" lon="1.2169">
        <ele>136.39999389648</ele>
        <time>2021-05-08T08:16:53.000Z</time>
      </trkpt>
      <trkpt lat="49.16958" lon="1.21668">
        <ele>135</ele>
        <time>2021-05-08T08:16:55.000Z</time>
      </trkpt>
      <trkpt lat="49.16961" lon="1.21645">
        <ele>133.80000305176</ele>
        <time>2021-05-08T08:16:57.000Z</time>
      </trkpt>
      <trkpt lat="49.16964" lon="1.21634">
        <ele>133.39999389648</ele>
        <time>2021-05-08T08:16:58.000Z</time>
      </trkpt>
      <trkpt lat="49.1697" lon="1.21611">
        <ele>132.60000610352</ele>
        <time>2021-05-08T08:17:00.000Z</time>
      </trkpt>
      <trkpt lat="49.16977" lon="1.2159">
        <ele>131.39999389648</ele>
        <time>2021-05-08T08:17:02.000Z</time>
      </trkpt>
      <trkpt lat="49.1698" lon="1.21579">
        <ele>130.80000305176</ele>
        <time>2021-05-08T08:17:03.000Z</time>
      </trkpt>
      <trkpt lat="49.1698" lon="1.21568">
        <ele>130.19999694824</ele>
        <time>2021-05-08T08:17:04.000Z</time>
      </trkpt>
      <trkpt lat="49.16978" lon="1.2155">
        <ele>129</ele>
        <time>2021-05-08T08:17:06.000Z</time>
      </trkpt>
      <trkpt lat="49.16977" lon="1.21541">
        <ele>128.60000610352</ele>
        <time>2021-05-08T08:17:07.000Z</time>
      </trkpt>
      <trkpt lat="49.16973" lon="1.21522">
        <ele>127.59999847412</ele>
        <time>2021-05-08T08:17:09.000Z</time>
      </trkpt>
      <trkpt lat="49.16971" lon="1.21512">
        <ele>127</ele>
        <time>2021-05-08T08:17:10.000Z</time>
      </trkpt>
      <trkpt lat="49.16971" lon="1.21503">
        <ele>126.59999847412</ele>
        <time>2021-05-08T08:17:11.000Z</time>
      </trkpt>
      <trkpt lat="49.1697" lon="1.21494">
        <ele>126.40000152588</ele>
        <time>2021-05-08T08:17:12.000Z</time>
      </trkpt>
      <trkpt lat="49.16971" lon="1.21474">
        <ele>126.40000152588</ele>
        <time>2021-05-08T08:17:14.000Z</time>
      </trkpt>
      <trkpt lat="49.16972" lon="1.21454">
        <ele>126</ele>
        <time>2021-05-08T08:17:16.000Z</time>
      </trkpt>
      <trkpt lat="49.16976" lon="1.2143">
        <ele>125.40000152588</ele>
        <time>2021-05-08T08:17:18.000Z</time>
      </trkpt>
      <trkpt lat="49.16983" lon="1.21394">
        <ele>124.40000152588</ele>
        <time>2021-05-08T08:17:21.000Z</time>
      </trkpt>
      <trkpt lat="49.16991" lon="1.21356">
        <ele>123</ele>
        <time>2021-05-08T08:17:24.000Z</time>
      </trkpt>
      <trkpt lat="49.16994" lon="1.21345">
        <ele>122.59999847412</ele>
        <time>2021-05-08T08:17:25.000Z</time>
      </trkpt>
      <trkpt lat="49.16997" lon="1.21333">
        <ele>122.19999694824</ele>
        <time>2021-05-08T08:17:26.000Z</time>
      </trkpt>
      <trkpt lat="49.17" lon="1.21322">
        <ele>121.80000305176</ele>
        <time>2021-05-08T08:17:27.000Z</time>
      </trkpt>
      <trkpt lat="49.17008" lon="1.21301">
        <ele>120.59999847412</ele>
        <time>2021-05-08T08:17:29.000Z</time>
      </trkpt>
      <trkpt lat="49.17015" lon="1.21278">
        <ele>119.80000305176</ele>
        <time>2021-05-08T08:17:31.000Z</time>
      </trkpt>
      <trkpt lat="49.17019" lon="1.21268">
        <ele>119.19999694824</ele>
        <time>2021-05-08T08:17:32.000Z</time>
      </trkpt>
      <trkpt lat="49.17022" lon="1.21258">
        <ele>118.40000152588</ele>
        <time>2021-05-08T08:17:33.000Z</time>
      </trkpt>
      <trkpt lat="49.17024" lon="1.21248">
        <ele>117.80000305176</ele>
        <time>2021-05-08T08:17:34.000Z</time>
      </trkpt>
      <trkpt lat="49.17026" lon="1.21236">
        <ele>117.19999694824</ele>
        <time>2021-05-08T08:17:35.000Z</time>
      </trkpt>
      <trkpt lat="49.17028" lon="1.21225">
        <ele>116.59999847412</ele>
        <time>2021-05-08T08:17:36.000Z</time>
      </trkpt>
      <trkpt lat="49.17031" lon="1.21201">
        <ele>115.40000152588</ele>
        <time>2021-05-08T08:17:38.000Z</time>
      </trkpt>
      <trkpt lat="49.17032" lon="1.21188">
        <ele>115</ele>
        <time>2021-05-08T08:17:39.000Z</time>
      </trkpt>
      <trkpt lat="49.17034" lon="1.21162">
        <ele>114.40000152588</ele>
        <time>2021-05-08T08:17:41.000Z</time>
      </trkpt>
      <trkpt lat="49.17039" lon="1.21138">
        <ele>113.80000305176</ele>
        <time>2021-05-08T08:17:43.000Z</time>
      </trkpt>
      <trkpt lat="49.17044" lon="1.211">
        <ele>113</ele>
        <time>2021-05-08T08:17:46.000Z</time>
      </trkpt>
      <trkpt lat="49.17047" lon="1.21046">
        <ele>111.80000305176</ele>
        <time>2021-05-08T08:17:50.000Z</time>
      </trkpt>
      <trkpt lat="49.17043" lon="1.20991">
        <ele>110.19999694824</ele>
        <time>2021-05-08T08:17:54.000Z</time>
      </trkpt>
      <trkpt lat="49.17043" lon="1.20964">
        <ele>109</ele>
        <time>2021-05-08T08:17:56.000Z</time>
      </trkpt>
      <trkpt lat="49.17046" lon="1.20922">
        <ele>107.59999847412</ele>
        <time>2021-05-08T08:17:59.000Z</time>
      </trkpt>
      <trkpt lat="49.17049" lon="1.20894">
        <ele>106.59999847412</ele>
        <time>2021-05-08T08:18:01.000Z</time>
      </trkpt>
      <trkpt lat="49.17051" lon="1.20863">
        <ele>105.59999847412</ele>
        <time>2021-05-08T08:18:03.000Z</time>
      </trkpt>
      <trkpt lat="49.17051" lon="1.20849">
        <ele>105.19999694824</ele>
        <time>2021-05-08T08:18:04.000Z</time>
      </trkpt>
      <trkpt lat="49.17052" lon="1.2082">
        <ele>104</ele>
        <time>2021-05-08T08:18:06.000Z</time>
      </trkpt>
      <trkpt lat="49.17053" lon="1.20806">
        <ele>102.80000305176</ele>
        <time>2021-05-08T08:18:07.000Z</time>
      </trkpt>
      <trkpt lat="49.17055" lon="1.20776">
        <ele>101.59999847412</ele>
        <time>2021-05-08T08:18:09.000Z</time>
      </trkpt>
      <trkpt lat="49.17055" lon="1.20748">
        <ele>100.59999847412</ele>
        <time>2021-05-08T08:18:11.000Z</time>
      </trkpt>
      <trkpt lat="49.17055" lon="1.20721">
        <ele>99.199996948242</ele>
        <time>2021-05-08T08:18:13.000Z</time>
      </trkpt>
      <trkpt lat="49.17057" lon="1.20694">
        <ele>97.800003051758</ele>
        <time>2021-05-08T08:18:15.000Z</time>
      </trkpt>
      <trkpt lat="49.17058" lon="1.2068">
        <ele>97.199996948242</ele>
        <time>2021-05-08T08:18:16.000Z</time>
      </trkpt>
      <trkpt lat="49.17061" lon="1.20667">
        <ele>96.800003051758</ele>
        <time>2021-05-08T08:18:17.000Z</time>
      </trkpt>
      <trkpt lat="49.17063" lon="1.20655">
        <ele>96.400001525879</ele>
        <time>2021-05-08T08:18:18.000Z</time>
      </trkpt>
      <trkpt lat="49.17071" lon="1.20614">
        <ele>95.800003051758</ele>
        <time>2021-05-08T08:18:21.000Z</time>
      </trkpt>
      <trkpt lat="49.17077" lon="1.20587">
        <ele>95.599998474121</ele>
        <time>2021-05-08T08:18:23.000Z</time>
      </trkpt>
      <trkpt lat="49.17085" lon="1.20563">
        <ele>95.199996948242</ele>
        <time>2021-05-08T08:18:25.000Z</time>
      </trkpt>
      <trkpt lat="49.1709" lon="1.20552">
        <ele>94.800003051758</ele>
        <time>2021-05-08T08:18:26.000Z</time>
      </trkpt>
      <trkpt lat="49.171" lon="1.20532">
        <ele>93.599998474121</ele>
        <time>2021-05-08T08:18:28.000Z</time>
      </trkpt>
      <trkpt lat="49.17104" lon="1.2052">
        <ele>92.400001525879</ele>
        <time>2021-05-08T08:18:29.000Z</time>
      </trkpt>
      <trkpt lat="49.17108" lon="1.20508">
        <ele>91.800003051758</ele>
        <time>2021-05-08T08:18:30.000Z</time>
      </trkpt>
      <trkpt lat="49.17111" lon="1.20495">
        <ele>91.199996948242</ele>
        <time>2021-05-08T08:18:31.000Z</time>
      </trkpt>
      <trkpt lat="49.17114" lon="1.20481">
        <ele>90.599998474121</ele>
        <time>2021-05-08T08:18:32.000Z</time>
      </trkpt>
      <trkpt lat="49.17116" lon="1.20468">
        <ele>90</ele>
        <time>2021-05-08T08:18:33.000Z</time>
      </trkpt>
      <trkpt lat="49.17117" lon="1.20454">
        <ele>89.400001525879</ele>
        <time>2021-05-08T08:18:34.000Z</time>
      </trkpt>
      <trkpt lat="49.1712" lon="1.20427">
        <ele>88.199996948242</ele>
        <time>2021-05-08T08:18:36.000Z</time>
      </trkpt>
      <trkpt lat="49.17123" lon="1.20401">
        <ele>87.400001525879</ele>
        <time>2021-05-08T08:18:38.000Z</time>
      </trkpt>
      <trkpt lat="49.17124" lon="1.20389">
        <ele>87.199996948242</ele>
        <time>2021-05-08T08:18:39.000Z</time>
      </trkpt>
      <trkpt lat="49.17131" lon="1.20353">
        <ele>86.199996948242</ele>
        <time>2021-05-08T08:18:42.000Z</time>
      </trkpt>
      <trkpt lat="49.17135" lon="1.20342">
        <ele>86</ele>
        <time>2021-05-08T08:18:43.000Z</time>
      </trkpt>
      <trkpt lat="49.17152" lon="1.20315">
        <ele>85.800003051758</ele>
        <time>2021-05-08T08:18:46.000Z</time>
      </trkpt>
      <trkpt lat="49.17184" lon="1.20303">
        <ele>85.400001525879</ele>
        <time>2021-05-08T08:18:50.000Z</time>
      </trkpt>
      <trkpt lat="49.17193" lon="1.20301">
        <ele>84.800003051758</ele>
        <time>2021-05-08T08:18:51.000Z</time>
      </trkpt>
      <trkpt lat="49.17211" lon="1.20298">
        <ele>83.599998474121</ele>
        <time>2021-05-08T08:18:53.000Z</time>
      </trkpt>
      <trkpt lat="49.17229" lon="1.20294">
        <ele>82</ele>
        <time>2021-05-08T08:18:55.000Z</time>
      </trkpt>
      <trkpt lat="49.17246" lon="1.20288">
        <ele>80.800003051758</ele>
        <time>2021-05-08T08:18:57.000Z</time>
      </trkpt>
      <trkpt lat="49.17263" lon="1.20277">
        <ele>79.599998474121</ele>
        <time>2021-05-08T08:18:59.000Z</time>
      </trkpt>
      <trkpt lat="49.17279" lon="1.20263">
        <ele>79.199996948242</ele>
        <time>2021-05-08T08:19:01.000Z</time>
      </trkpt>
      <trkpt lat="49.17295" lon="1.20249">
        <ele>78.599998474121</ele>
        <time>2021-05-08T08:19:03.000Z</time>
      </trkpt>
      <trkpt lat="49.17311" lon="1.20236">
        <ele>77.400001525879</ele>
        <time>2021-05-08T08:19:05.000Z</time>
      </trkpt>
      <trkpt lat="49.17327" lon="1.20224">
        <ele>76.800003051758</ele>
        <time>2021-05-08T08:19:07.000Z</time>
      </trkpt>
      <trkpt lat="49.17336" lon="1.20217">
        <ele>76.400001525879</ele>
        <time>2021-05-08T08:19:08.000Z</time>
      </trkpt>
      <trkpt lat="49.17352" lon="1.20203">
        <ele>75.599998474121</ele>
        <time>2021-05-08T08:19:10.000Z</time>
      </trkpt>
      <trkpt lat="49.1736" lon="1.20195">
        <ele>75</ele>
        <time>2021-05-08T08:19:11.000Z</time>
      </trkpt>
      <trkpt lat="49.17382" lon="1.20169">
        <ele>73.800003051758</ele>
        <time>2021-05-08T08:19:14.000Z</time>
      </trkpt>
      <trkpt lat="49.17396" lon="1.20152">
        <ele>72.599998474121</ele>
        <time>2021-05-08T08:19:16.000Z</time>
      </trkpt>
      <trkpt lat="49.17404" lon="1.20143">
        <ele>72</ele>
        <time>2021-05-08T08:19:17.000Z</time>
      </trkpt>
      <trkpt lat="49.17411" lon="1.20135">
        <ele>71.400001525879</ele>
        <time>2021-05-08T08:19:18.000Z</time>
      </trkpt>
      <trkpt lat="49.17425" lon="1.20118">
        <ele>70.400001525879</ele>
        <time>2021-05-08T08:19:20.000Z</time>
      </trkpt>
      <trkpt lat="49.17437" lon="1.20105">
        <ele>69</ele>
        <time>2021-05-08T08:19:22.000Z</time>
      </trkpt>
      <trkpt lat="49.17442" lon="1.201">
        <ele>68.800003051758</ele>
        <time>2021-05-08T08:19:23.000Z</time>
      </trkpt>
      <trkpt lat="49.17447" lon="1.20095">
        <ele>68</ele>
        <time>2021-05-08T08:19:25.000Z</time>
      </trkpt>
      <trkpt lat="49.17448" lon="1.20094">
        <ele>67.599998474121</ele>
        <time>2021-05-08T08:19:26.000Z</time>
      </trkpt>
      <trkpt lat="49.17449" lon="1.20093">
        <ele>67.199996948242</ele>
        <time>2021-05-08T08:19:28.000Z</time>
      </trkpt>
      <trkpt lat="49.17447" lon="1.20085">
        <ele>68.599998474121</ele>
        <time>2021-05-08T08:21:11.000Z</time>
      </trkpt>
      <trkpt lat="49.17446" lon="1.20082">
        <ele>68.599998474121</ele>
        <time>2021-05-08T08:21:12.000Z</time>
      </trkpt>
      <trkpt lat="49.1744" lon="1.20064">
        <ele>68.400001525879</ele>
        <time>2021-05-08T08:21:16.000Z</time>
      </trkpt>
      <trkpt lat="49.17428" lon="1.20031">
        <ele>68.199996948242</ele>
        <time>2021-05-08T08:21:21.000Z</time>
      </trkpt>
      <trkpt lat="49.17419" lon="1.19991">
        <ele>67</ele>
        <time>2021-05-08T08:21:26.000Z</time>
      </trkpt>
      <trkpt lat="49.17415" lon="1.19975">
        <ele>66.599998474121</ele>
        <time>2021-05-08T08:21:28.000Z</time>
      </trkpt>
      <trkpt lat="49.17412" lon="1.19967">
        <ele>66.199996948242</ele>
        <time>2021-05-08T08:21:29.000Z</time>
      </trkpt>
      <trkpt lat="49.17407" lon="1.19951">
        <ele>65.800003051758</ele>
        <time>2021-05-08T08:21:31.000Z</time>
      </trkpt>
      <trkpt lat="49.17403" lon="1.19943">
        <ele>65.400001525879</ele>
        <time>2021-05-08T08:21:32.000Z</time>
      </trkpt>
      <trkpt lat="49.17393" lon="1.19922">
        <ele>64.599998474121</ele>
        <time>2021-05-08T08:21:35.000Z</time>
      </trkpt>
      <trkpt lat="49.17379" lon="1.19903">
        <ele>64</ele>
        <time>2021-05-08T08:21:38.000Z</time>
      </trkpt>
      <trkpt lat="49.17369" lon="1.19891">
        <ele>63.400001525879</ele>
        <time>2021-05-08T08:21:40.000Z</time>
      </trkpt>
      <trkpt lat="49.17349" lon="1.19867">
        <ele>62</ele>
        <time>2021-05-08T08:21:44.000Z</time>
      </trkpt>
      <trkpt lat="49.17344" lon="1.19861">
        <ele>61.799999237061</ele>
        <time>2021-05-08T08:21:45.000Z</time>
      </trkpt>
      <trkpt lat="49.1731" lon="1.1982">
        <ele>60.599998474121</ele>
        <time>2021-05-08T08:21:51.000Z</time>
      </trkpt>
      <trkpt lat="49.17298" lon="1.19805">
        <ele>60.400001525879</ele>
        <time>2021-05-08T08:21:53.000Z</time>
      </trkpt>
      <trkpt lat="49.17282" lon="1.19777">
        <ele>59.599998474121</ele>
        <time>2021-05-08T08:21:56.000Z</time>
      </trkpt>
      <trkpt lat="49.17277" lon="1.19767">
        <ele>59.200000762939</ele>
        <time>2021-05-08T08:21:57.000Z</time>
      </trkpt>
      <trkpt lat="49.17268" lon="1.19734">
        <ele>58.200000762939</ele>
        <time>2021-05-08T08:22:00.000Z</time>
      </trkpt>
      <trkpt lat="49.17265" lon="1.19722">
        <ele>57.799999237061</ele>
        <time>2021-05-08T08:22:01.000Z</time>
      </trkpt>
      <trkpt lat="49.17262" lon="1.19701">
        <ele>57.400001525879</ele>
        <time>2021-05-08T08:22:03.000Z</time>
      </trkpt>
      <trkpt lat="49.1726" lon="1.19678">
        <ele>57</ele>
        <time>2021-05-08T08:22:05.000Z</time>
      </trkpt>
      <trkpt lat="49.17259" lon="1.19618">
        <ele>55.599998474121</ele>
        <time>2021-05-08T08:22:10.000Z</time>
      </trkpt>
      <trkpt lat="49.17259" lon="1.19604">
        <ele>55.200000762939</ele>
        <time>2021-05-08T08:22:11.000Z</time>
      </trkpt>
      <trkpt lat="49.17261" lon="1.19566">
        <ele>54.599998474121</ele>
        <time>2021-05-08T08:22:14.000Z</time>
      </trkpt>
      <trkpt lat="49.17264" lon="1.19527">
        <ele>53.200000762939</ele>
        <time>2021-05-08T08:22:17.000Z</time>
      </trkpt>
      <trkpt lat="49.17269" lon="1.1949">
        <ele>52.200000762939</ele>
        <time>2021-05-08T08:22:20.000Z</time>
      </trkpt>
      <trkpt lat="49.17275" lon="1.19454">
        <ele>51</ele>
        <time>2021-05-08T08:22:23.000Z</time>
      </trkpt>
      <trkpt lat="49.17284" lon="1.19421">
        <ele>49.799999237061</ele>
        <time>2021-05-08T08:22:26.000Z</time>
      </trkpt>
      <trkpt lat="49.1729" lon="1.19399">
        <ele>49.599998474121</ele>
        <time>2021-05-08T08:22:28.000Z</time>
      </trkpt>
      <trkpt lat="49.1731" lon="1.19363">
        <ele>48.799999237061</ele>
        <time>2021-05-08T08:22:32.000Z</time>
      </trkpt>
      <trkpt lat="49.17328" lon="1.1933">
        <ele>47.400001525879</ele>
        <time>2021-05-08T08:22:36.000Z</time>
      </trkpt>
      <trkpt lat="49.17332" lon="1.19322">
        <ele>47.200000762939</ele>
        <time>2021-05-08T08:22:37.000Z</time>
      </trkpt>
      <trkpt lat="49.17337" lon="1.19314">
        <ele>46.799999237061</ele>
        <time>2021-05-08T08:22:38.000Z</time>
      </trkpt>
      <trkpt lat="49.17347" lon="1.19298">
        <ele>46.400001525879</ele>
        <time>2021-05-08T08:22:40.000Z</time>
      </trkpt>
      <trkpt lat="49.17356" lon="1.19283">
        <ele>46</ele>
        <time>2021-05-08T08:22:42.000Z</time>
      </trkpt>
      <trkpt lat="49.17375" lon="1.19251">
        <ele>45.599998474121</ele>
        <time>2021-05-08T08:22:46.000Z</time>
      </trkpt>
      <trkpt lat="49.1738" lon="1.19242">
        <ele>45.400001525879</ele>
        <time>2021-05-08T08:22:47.000Z</time>
      </trkpt>
      <trkpt lat="49.1739" lon="1.19197">
        <ele>45</ele>
        <time>2021-05-08T08:22:51.000Z</time>
      </trkpt>
      <trkpt lat="49.17389" lon="1.1917">
        <ele>44.599998474121</ele>
        <time>2021-05-08T08:22:53.000Z</time>
      </trkpt>
      <trkpt lat="49.17388" lon="1.19157">
        <ele>44.400001525879</ele>
        <time>2021-05-08T08:22:54.000Z</time>
      </trkpt>
      <trkpt lat="49.17386" lon="1.19128">
        <ele>43.599998474121</ele>
        <time>2021-05-08T08:22:56.000Z</time>
      </trkpt>
      <trkpt lat="49.17385" lon="1.19113">
        <ele>43.200000762939</ele>
        <time>2021-05-08T08:22:57.000Z</time>
      </trkpt>
      <trkpt lat="49.17382" lon="1.19069">
        <ele>41.599998474121</ele>
        <time>2021-05-08T08:23:00.000Z</time>
      </trkpt>
      <trkpt lat="49.17381" lon="1.19037">
        <ele>40.200000762939</ele>
        <time>2021-05-08T08:23:02.000Z</time>
      </trkpt>
      <trkpt lat="49.17379" lon="1.19006">
        <ele>38.799999237061</ele>
        <time>2021-05-08T08:23:04.000Z</time>
      </trkpt>
      <trkpt lat="49.17379" lon="1.18974">
        <ele>37</ele>
        <time>2021-05-08T08:23:06.000Z</time>
      </trkpt>
      <trkpt lat="49.1738" lon="1.18943">
        <ele>35.200000762939</ele>
        <time>2021-05-08T08:23:08.000Z</time>
      </trkpt>
      <trkpt lat="49.1738" lon="1.18913">
        <ele>33.400001525879</ele>
        <time>2021-05-08T08:23:10.000Z</time>
      </trkpt>
      <trkpt lat="49.17382" lon="1.18888">
        <ele>31.39999961853</ele>
        <time>2021-05-08T08:23:12.000Z</time>
      </trkpt>
      <trkpt lat="49.17383" lon="1.18878">
        <ele>30.39999961853</ele>
        <time>2021-05-08T08:23:13.000Z</time>
      </trkpt>
      <trkpt lat="49.17385" lon="1.1887">
        <ele>29.200000762939</ele>
        <time>2021-05-08T08:23:14.000Z</time>
      </trkpt>
      <trkpt lat="49.17385" lon="1.18864">
        <ele>28</ele>
        <time>2021-05-08T08:23:15.000Z</time>
      </trkpt>
      <trkpt lat="49.17385" lon="1.18858">
        <ele>27.200000762939</ele>
        <time>2021-05-08T08:23:16.000Z</time>
      </trkpt>
      <trkpt lat="49.17384" lon="1.18854">
        <ele>26.39999961853</ele>
        <time>2021-05-08T08:23:17.000Z</time>
      </trkpt>
      <trkpt lat="49.17384" lon="1.1885">
        <ele>26</ele>
        <time>2021-05-08T08:23:18.000Z</time>
      </trkpt>
      <trkpt lat="49.17385" lon="1.18846">
        <ele>25.60000038147</ele>
        <time>2021-05-08T08:23:19.000Z</time>
      </trkpt>
      <trkpt lat="49.17388" lon="1.18835">
        <ele>25.39999961853</ele>
        <time>2021-05-08T08:23:22.000Z</time>
      </trkpt>
      <trkpt lat="49.1739" lon="1.18821">
        <ele>25.39999961853</ele>
        <time>2021-05-08T08:23:25.000Z</time>
      </trkpt>
      <trkpt lat="49.17388" lon="1.18816">
        <ele>25.60000038147</ele>
        <time>2021-05-08T08:23:27.000Z</time>
      </trkpt>
      <trkpt lat="49.17386" lon="1.18817">
        <ele>25.799999237061</ele>
        <time>2021-05-08T08:23:28.000Z</time>
      </trkpt>
      <trkpt lat="49.17372" lon="1.18822">
        <ele>25.799999237061</ele>
        <time>2021-05-08T08:23:32.000Z</time>
      </trkpt>
      <trkpt lat="49.17367" lon="1.18823">
        <ele>25.799999237061</ele>
        <time>2021-05-08T08:23:33.000Z</time>
      </trkpt>
      <trkpt lat="49.17363" lon="1.18823">
        <ele>25.799999237061</ele>
        <time>2021-05-08T08:23:34.000Z</time>
      </trkpt>
      <trkpt lat="49.17349" lon="1.18831">
        <ele>25.799999237061</ele>
        <time>2021-05-08T08:23:37.000Z</time>
      </trkpt>
      <trkpt lat="49.17316" lon="1.18853">
        <ele>24.200000762939</ele>
        <time>2021-05-08T08:23:44.000Z</time>
      </trkpt>
      <trkpt lat="49.17302" lon="1.18862">
        <ele>23.60000038147</ele>
        <time>2021-05-08T08:23:47.000Z</time>
      </trkpt>
      <trkpt lat="49.17289" lon="1.18871">
        <ele>23.200000762939</ele>
        <time>2021-05-08T08:23:50.000Z</time>
      </trkpt>
      <trkpt lat="49.17267" lon="1.18886">
        <ele>23</ele>
        <time>2021-05-08T08:23:55.000Z</time>
      </trkpt>
      <trkpt lat="49.17234" lon="1.18908">
        <ele>23</ele>
        <time>2021-05-08T08:24:03.000Z</time>
      </trkpt>
      <trkpt lat="49.172" lon="1.18931">
        <ele>23.200000762939</ele>
        <time>2021-05-08T08:24:11.000Z</time>
      </trkpt>
      <trkpt lat="49.17161" lon="1.18954">
        <ele>24</ele>
        <time>2021-05-08T08:24:20.000Z</time>
      </trkpt>
      <trkpt lat="49.17136" lon="1.18969">
        <ele>24.200000762939</ele>
        <time>2021-05-08T08:24:26.000Z</time>
      </trkpt>
      <trkpt lat="49.17127" lon="1.18974">
        <ele>24.39999961853</ele>
        <time>2021-05-08T08:24:28.000Z</time>
      </trkpt>
      <trkpt lat="49.17088" lon="1.18994">
        <ele>24.799999237061</ele>
        <time>2021-05-08T08:24:37.000Z</time>
      </trkpt>
      <trkpt lat="49.17049" lon="1.19014">
        <ele>25</ele>
        <time>2021-05-08T08:24:46.000Z</time>
      </trkpt>
      <trkpt lat="49.17022" lon="1.19027">
        <ele>25.200000762939</ele>
        <time>2021-05-08T08:24:52.000Z</time>
      </trkpt>
      <trkpt lat="49.16999" lon="1.19037">
        <ele>26</ele>
        <time>2021-05-08T08:24:57.000Z</time>
      </trkpt>
      <trkpt lat="49.16972" lon="1.19048">
        <ele>26.200000762939</ele>
        <time>2021-05-08T08:25:03.000Z</time>
      </trkpt>
      <trkpt lat="49.16959" lon="1.19054">
        <ele>26.200000762939</ele>
        <time>2021-05-08T08:25:06.000Z</time>
      </trkpt>
      <trkpt lat="49.16915" lon="1.19074">
        <ele>26.39999961853</ele>
        <time>2021-05-08T08:25:16.000Z</time>
      </trkpt>
      <trkpt lat="49.16879" lon="1.19091">
        <ele>26.39999961853</ele>
        <time>2021-05-08T08:25:24.000Z</time>
      </trkpt>
      <trkpt lat="49.16836" lon="1.1911">
        <ele>26.200000762939</ele>
        <time>2021-05-08T08:25:33.000Z</time>
      </trkpt>
      <trkpt lat="49.1679" lon="1.19132">
        <ele>26.200000762939</ele>
        <time>2021-05-08T08:25:42.000Z</time>
      </trkpt>
      <trkpt lat="49.16746" lon="1.19149">
        <ele>26.200000762939</ele>
        <time>2021-05-08T08:25:50.000Z</time>
      </trkpt>
      <trkpt lat="49.16729" lon="1.19154">
        <ele>26</ele>
        <time>2021-05-08T08:25:53.000Z</time>
      </trkpt>
      <trkpt lat="49.16719" lon="1.19155">
        <ele>25.799999237061</ele>
        <time>2021-05-08T08:25:55.000Z</time>
      </trkpt>
      <trkpt lat="49.16708" lon="1.19163">
        <ele>25.60000038147</ele>
        <time>2021-05-08T08:25:58.000Z</time>
      </trkpt>
      <trkpt lat="49.16707" lon="1.19176">
        <ele>25.60000038147</ele>
        <time>2021-05-08T08:26:00.000Z</time>
      </trkpt>
      <trkpt lat="49.16706" lon="1.19183">
        <ele>25.60000038147</ele>
        <time>2021-05-08T08:26:01.000Z</time>
      </trkpt>
      <trkpt lat="49.16706" lon="1.1919">
        <ele>25.60000038147</ele>
        <time>2021-05-08T08:26:02.000Z</time>
      </trkpt>
      <trkpt lat="49.16706" lon="1.19224">
        <ele>25.60000038147</ele>
        <time>2021-05-08T08:26:07.000Z</time>
      </trkpt>
      <trkpt lat="49.16705" lon="1.19263">
        <ele>26.200000762939</ele>
        <time>2021-05-08T08:26:14.000Z</time>
      </trkpt>
      <trkpt lat="49.16706" lon="1.19281">
        <ele>27</ele>
        <time>2021-05-08T08:26:17.000Z</time>
      </trkpt>
      <trkpt lat="49.16706" lon="1.19293">
        <ele>28</ele>
        <time>2021-05-08T08:26:19.000Z</time>
      </trkpt>
      <trkpt lat="49.16708" lon="1.1931">
        <ele>29</ele>
        <time>2021-05-08T08:26:22.000Z</time>
      </trkpt>
      <trkpt lat="49.16709" lon="1.19316">
        <ele>29.39999961853</ele>
        <time>2021-05-08T08:26:23.000Z</time>
      </trkpt>
      <trkpt lat="49.16711" lon="1.19343">
        <ele>30</ele>
        <time>2021-05-08T08:26:28.000Z</time>
      </trkpt>
      <trkpt lat="49.16712" lon="1.19353">
        <ele>30.39999961853</ele>
        <time>2021-05-08T08:26:30.000Z</time>
      </trkpt>
      <trkpt lat="49.16714" lon="1.19373">
        <ele>31</ele>
        <time>2021-05-08T08:26:34.000Z</time>
      </trkpt>
      <trkpt lat="49.16714" lon="1.194">
        <ele>31.39999961853</ele>
        <time>2021-05-08T08:26:39.000Z</time>
      </trkpt>
      <trkpt lat="49.16714" lon="1.19405">
        <ele>31.799999237061</ele>
        <time>2021-05-08T08:26:40.000Z</time>
      </trkpt>
      <trkpt lat="49.16716" lon="1.19432">
        <ele>31.799999237061</ele>
        <time>2021-05-08T08:26:45.000Z</time>
      </trkpt>
      <trkpt lat="49.16719" lon="1.19468">
        <ele>32.400001525879</ele>
        <time>2021-05-08T08:26:51.000Z</time>
      </trkpt>
      <trkpt lat="49.16719" lon="1.19475">
        <ele>32.400001525879</ele>
        <time>2021-05-08T08:26:52.000Z</time>
      </trkpt>
      <trkpt lat="49.16719" lon="1.19482">
        <ele>32.400001525879</ele>
        <time>2021-05-08T08:26:53.000Z</time>
      </trkpt>
      <trkpt lat="49.16716" lon="1.19494">
        <ele>32.799999237061</ele>
        <time>2021-05-08T08:26:55.000Z</time>
      </trkpt>
      <trkpt lat="49.16713" lon="1.1951">
        <ele>33.400001525879</ele>
        <time>2021-05-08T08:26:58.000Z</time>
      </trkpt>
      <trkpt lat="49.16709" lon="1.19526">
        <ele>33.599998474121</ele>
        <time>2021-05-08T08:27:01.000Z</time>
      </trkpt>
      <trkpt lat="49.16706" lon="1.19555">
        <ele>33.799999237061</ele>
        <time>2021-05-08T08:27:07.000Z</time>
      </trkpt>
      <trkpt lat="49.16699" lon="1.19572">
        <ele>34.400001525879</ele>
        <time>2021-05-08T08:27:12.000Z</time>
      </trkpt>
      <trkpt lat="49.16697" lon="1.19575">
        <ele>34.799999237061</ele>
        <time>2021-05-08T08:27:13.000Z</time>
      </trkpt>
      <trkpt lat="49.16694" lon="1.1958">
        <ele>35.599998474121</ele>
        <time>2021-05-08T08:27:15.000Z</time>
      </trkpt>
      <trkpt lat="49.16688" lon="1.19589">
        <ele>36.799999237061</ele>
        <time>2021-05-08T08:27:19.000Z</time>
      </trkpt>
      <trkpt lat="49.16678" lon="1.19591">
        <ele>37.799999237061</ele>
        <time>2021-05-08T08:27:23.000Z</time>
      </trkpt>
      <trkpt lat="49.16675" lon="1.19591">
        <ele>38.200000762939</ele>
        <time>2021-05-08T08:27:24.000Z</time>
      </trkpt>
      <trkpt lat="49.16668" lon="1.19586">
        <ele>39</ele>
        <time>2021-05-08T08:27:27.000Z</time>
      </trkpt>
      <trkpt lat="49.1666" lon="1.19578">
        <ele>39.799999237061</ele>
        <time>2021-05-08T08:27:30.000Z</time>
      </trkpt>
      <trkpt lat="49.16655" lon="1.19573">
        <ele>40</ele>
        <time>2021-05-08T08:27:32.000Z</time>
      </trkpt>
      <trkpt lat="49.16648" lon="1.1956">
        <ele>40.599998474121</ele>
        <time>2021-05-08T08:27:36.000Z</time>
      </trkpt>
      <trkpt lat="49.16638" lon="1.19544">
        <ele>41</ele>
        <time>2021-05-08T08:27:42.000Z</time>
      </trkpt>
      <trkpt lat="49.16634" lon="1.19539">
        <ele>41.200000762939</ele>
        <time>2021-05-08T08:27:44.000Z</time>
      </trkpt>
      <trkpt lat="49.16631" lon="1.19532">
        <ele>41.400001525879</ele>
        <time>2021-05-08T08:27:47.000Z</time>
      </trkpt>
      <trkpt lat="49.16631" lon="1.19529">
        <ele>41.599998474121</ele>
        <time>2021-05-08T08:27:48.000Z</time>
      </trkpt>
      <trkpt lat="49.16629" lon="1.19517">
        <ele>42.200000762939</ele>
        <time>2021-05-08T08:27:53.000Z</time>
      </trkpt>
      <trkpt lat="49.16628" lon="1.19513">
        <ele>42.400001525879</ele>
        <time>2021-05-08T08:27:55.000Z</time>
      </trkpt>
      <trkpt lat="49.16626" lon="1.19504">
        <ele>43.400001525879</ele>
        <time>2021-05-08T08:27:59.000Z</time>
      </trkpt>
      <trkpt lat="49.16624" lon="1.19497">
        <ele>43.799999237061</ele>
        <time>2021-05-08T08:28:02.000Z</time>
      </trkpt>
      <trkpt lat="49.16623" lon="1.19495">
        <ele>44.200000762939</ele>
        <time>2021-05-08T08:28:03.000Z</time>
      </trkpt>
      <trkpt lat="49.1662" lon="1.19487">
        <ele>45.200000762939</ele>
        <time>2021-05-08T08:28:07.000Z</time>
      </trkpt>
      <trkpt lat="49.16619" lon="1.19483">
        <ele>45.599998474121</ele>
        <time>2021-05-08T08:28:09.000Z</time>
      </trkpt>
      <trkpt lat="49.16616" lon="1.19475">
        <ele>46.200000762939</ele>
        <time>2021-05-08T08:28:13.000Z</time>
      </trkpt>
      <trkpt lat="49.16613" lon="1.19469">
        <ele>46.799999237061</ele>
        <time>2021-05-08T08:28:16.000Z</time>
      </trkpt>
      <trkpt lat="49.16611" lon="1.19466">
        <ele>47.200000762939</ele>
        <time>2021-05-08T08:28:18.000Z</time>
      </trkpt>
      <trkpt lat="49.16609" lon="1.19459">
        <ele>48.200000762939</ele>
        <time>2021-05-08T08:28:22.000Z</time>
      </trkpt>
      <trkpt lat="49.16608" lon="1.19457">
        <ele>48.400001525879</ele>
        <time>2021-05-08T08:28:23.000Z</time>
      </trkpt>
      <trkpt lat="49.16604" lon="1.19447">
        <ele>49.599998474121</ele>
        <time>2021-05-08T08:28:28.000Z</time>
      </trkpt>
      <trkpt lat="49.16603" lon="1.19444">
        <ele>50.200000762939</ele>
        <time>2021-05-08T08:28:30.000Z</time>
      </trkpt>
      <trkpt lat="49.16601" lon="1.19441">
        <ele>50.799999237061</ele>
        <time>2021-05-08T08:28:32.000Z</time>
      </trkpt>
      <trkpt lat="49.166" lon="1.19437">
        <ele>51.799999237061</ele>
        <time>2021-05-08T08:28:34.000Z</time>
      </trkpt>
      <trkpt lat="49.16599" lon="1.19436">
        <ele>52</ele>
        <time>2021-05-08T08:28:35.000Z</time>
      </trkpt>
      <trkpt lat="49.16598" lon="1.19434">
        <ele>52.200000762939</ele>
        <time>2021-05-08T08:28:36.000Z</time>
      </trkpt>
      <trkpt lat="49.16597" lon="1.1943">
        <ele>52.599998474121</ele>
        <time>2021-05-08T08:28:38.000Z</time>
      </trkpt>
      <trkpt lat="49.16595" lon="1.19427">
        <ele>53</ele>
        <time>2021-05-08T08:28:40.000Z</time>
      </trkpt>
      <trkpt lat="49.16592" lon="1.19424">
        <ele>53.599998474121</ele>
        <time>2021-05-08T08:28:42.000Z</time>
      </trkpt>
      <trkpt lat="49.16589" lon="1.1942">
        <ele>54.200000762939</ele>
        <time>2021-05-08T08:28:45.000Z</time>
      </trkpt>
      <trkpt lat="49.16587" lon="1.19417">
        <ele>54.599998474121</ele>
        <time>2021-05-08T08:28:47.000Z</time>
      </trkpt>
      <trkpt lat="49.16586" lon="1.19415">
        <ele>55</ele>
        <time>2021-05-08T08:28:48.000Z</time>
      </trkpt>
      <trkpt lat="49.16584" lon="1.19412">
        <ele>55.400001525879</ele>
        <time>2021-05-08T08:28:50.000Z</time>
      </trkpt>
      <trkpt lat="49.16577" lon="1.19406">
        <ele>56.400001525879</ele>
        <time>2021-05-08T08:28:55.000Z</time>
      </trkpt>
      <trkpt lat="49.16576" lon="1.19405">
        <ele>56.599998474121</ele>
        <time>2021-05-08T08:28:56.000Z</time>
      </trkpt>
      <trkpt lat="49.16572" lon="1.194">
        <ele>57.599998474121</ele>
        <time>2021-05-08T08:29:00.000Z</time>
      </trkpt>
      <trkpt lat="49.16569" lon="1.19398">
        <ele>58.200000762939</ele>
        <time>2021-05-08T08:29:02.000Z</time>
      </trkpt>
      <trkpt lat="49.16567" lon="1.19396">
        <ele>58.799999237061</ele>
        <time>2021-05-08T08:29:04.000Z</time>
      </trkpt>
      <trkpt lat="49.16562" lon="1.19391">
        <ele>59.799999237061</ele>
        <time>2021-05-08T08:29:08.000Z</time>
      </trkpt>
      <trkpt lat="49.16561" lon="1.1939">
        <ele>60</ele>
        <time>2021-05-08T08:29:09.000Z</time>
      </trkpt>
      <trkpt lat="49.16557" lon="1.19385">
        <ele>61</ele>
        <time>2021-05-08T08:29:13.000Z</time>
      </trkpt>
      <trkpt lat="49.16553" lon="1.19381">
        <ele>61.799999237061</ele>
        <time>2021-05-08T08:29:16.000Z</time>
      </trkpt>
      <trkpt lat="49.16551" lon="1.19378">
        <ele>62.200000762939</ele>
        <time>2021-05-08T08:29:18.000Z</time>
      </trkpt>
      <trkpt lat="49.16546" lon="1.19372">
        <ele>63.400001525879</ele>
        <time>2021-05-08T08:29:22.000Z</time>
      </trkpt>
      <trkpt lat="49.16544" lon="1.19369">
        <ele>63.799999237061</ele>
        <time>2021-05-08T08:29:24.000Z</time>
      </trkpt>
      <trkpt lat="49.1654" lon="1.19365">
        <ele>64.400001525879</ele>
        <time>2021-05-08T08:29:27.000Z</time>
      </trkpt>
      <trkpt lat="49.16535" lon="1.1936">
        <ele>65.599998474121</ele>
        <time>2021-05-08T08:29:31.000Z</time>
      </trkpt>
      <trkpt lat="49.16529" lon="1.19352">
        <ele>66.599998474121</ele>
        <time>2021-05-08T08:29:36.000Z</time>
      </trkpt>
      <trkpt lat="49.16526" lon="1.19349">
        <ele>67</ele>
        <time>2021-05-08T08:29:38.000Z</time>
      </trkpt>
      <trkpt lat="49.16521" lon="1.19343">
        <ele>67.800003051758</ele>
        <time>2021-05-08T08:29:42.000Z</time>
      </trkpt>
      <trkpt lat="49.16516" lon="1.19335">
        <ele>68.800003051758</ele>
        <time>2021-05-08T08:29:46.000Z</time>
      </trkpt>
      <trkpt lat="49.16514" lon="1.1933">
        <ele>69</ele>
        <time>2021-05-08T08:29:48.000Z</time>
      </trkpt>
      <trkpt lat="49.16511" lon="1.19324">
        <ele>69.599998474121</ele>
        <time>2021-05-08T08:29:51.000Z</time>
      </trkpt>
      <trkpt lat="49.16504" lon="1.19319">
        <ele>69.800003051758</ele>
        <time>2021-05-08T08:29:56.000Z</time>
      </trkpt>
      <trkpt lat="49.16502" lon="1.19318">
        <ele>69.800003051758</ele>
        <time>2021-05-08T08:29:57.000Z</time>
      </trkpt>
      <trkpt lat="49.16502" lon="1.19318">
        <ele>69.800003051758</ele>
        <time>2021-05-08T08:29:59.000Z</time>
      </trkpt>
      <trkpt lat="49.16498" lon="1.19318">
        <ele>69.199996948242</ele>
        <time>2021-05-08T08:30:52.000Z</time>
      </trkpt>
      <trkpt lat="49.16497" lon="1.19318">
        <ele>69.199996948242</ele>
        <time>2021-05-08T08:30:53.000Z</time>
      </trkpt>
      <trkpt lat="49.16483" lon="1.19315">
        <ele>69.199996948242</ele>
        <time>2021-05-08T08:30:58.000Z</time>
      </trkpt>
      <trkpt lat="49.16465" lon="1.19319">
        <ele>68.400001525879</ele>
        <time>2021-05-08T08:31:03.000Z</time>
      </trkpt>
      <trkpt lat="49.16462" lon="1.19321">
        <ele>68.199996948242</ele>
        <time>2021-05-08T08:31:04.000Z</time>
      </trkpt>
      <trkpt lat="49.16451" lon="1.1933">
        <ele>67.199996948242</ele>
        <time>2021-05-08T08:31:08.000Z</time>
      </trkpt>
      <trkpt lat="49.16448" lon="1.19331">
        <ele>66.800003051758</ele>
        <time>2021-05-08T08:31:09.000Z</time>
      </trkpt>
      <trkpt lat="49.1644" lon="1.19333">
        <ele>66</ele>
        <time>2021-05-08T08:31:12.000Z</time>
      </trkpt>
      <trkpt lat="49.1643" lon="1.19336">
        <ele>65.199996948242</ele>
        <time>2021-05-08T08:31:15.000Z</time>
      </trkpt>
      <trkpt lat="49.16414" lon="1.19344">
        <ele>64.599998474121</ele>
        <time>2021-05-08T08:31:19.000Z</time>
      </trkpt>
      <trkpt lat="49.1641" lon="1.19347">
        <ele>64.400001525879</ele>
        <time>2021-05-08T08:31:20.000Z</time>
      </trkpt>
      <trkpt lat="49.16399" lon="1.19357">
        <ele>64</ele>
        <time>2021-05-08T08:31:25.000Z</time>
      </trkpt>
      <trkpt lat="49.16386" lon="1.19361">
        <ele>64</ele>
        <time>2021-05-08T08:31:30.000Z</time>
      </trkpt>
      <trkpt lat="49.16372" lon="1.19361">
        <ele>65.400001525879</ele>
        <time>2021-05-08T08:31:36.000Z</time>
      </trkpt>
      <trkpt lat="49.1637" lon="1.19361">
        <ele>65.599998474121</ele>
        <time>2021-05-08T08:31:37.000Z</time>
      </trkpt>
      <trkpt lat="49.16365" lon="1.19362">
        <ele>66.599998474121</ele>
        <time>2021-05-08T08:31:40.000Z</time>
      </trkpt>
      <trkpt lat="49.16361" lon="1.19361">
        <ele>67.400001525879</ele>
        <time>2021-05-08T08:31:42.000Z</time>
      </trkpt>
      <trkpt lat="49.1636" lon="1.19361">
        <ele>67.800003051758</ele>
        <time>2021-05-08T08:31:43.000Z</time>
      </trkpt>
      <trkpt lat="49.16354" lon="1.19362">
        <ele>68.800003051758</ele>
        <time>2021-05-08T08:31:48.000Z</time>
      </trkpt>
      <trkpt lat="49.1635" lon="1.19364">
        <ele>69.400001525879</ele>
        <time>2021-05-08T08:31:50.000Z</time>
      </trkpt>
      <trkpt lat="49.16339" lon="1.19367">
        <ele>70.199996948242</ele>
        <time>2021-05-08T08:31:56.000Z</time>
      </trkpt>
      <trkpt lat="49.16326" lon="1.19373">
        <ele>71.199996948242</ele>
        <time>2021-05-08T08:32:02.000Z</time>
      </trkpt>
      <trkpt lat="49.16324" lon="1.19374">
        <ele>71.400001525879</ele>
        <time>2021-05-08T08:32:03.000Z</time>
      </trkpt>
      <trkpt lat="49.16317" lon="1.19378">
        <ele>72.199996948242</ele>
        <time>2021-05-08T08:32:08.000Z</time>
      </trkpt>
      <trkpt lat="49.16308" lon="1.1938">
        <ele>73.400001525879</ele>
        <time>2021-05-08T08:32:14.000Z</time>
      </trkpt>
      <trkpt lat="49.16301" lon="1.19383">
        <ele>74.599998474121</ele>
        <time>2021-05-08T08:32:19.000Z</time>
      </trkpt>
      <trkpt lat="49.16299" lon="1.19384">
        <ele>75.199996948242</ele>
        <time>2021-05-08T08:32:20.000Z</time>
      </trkpt>
      <trkpt lat="49.16295" lon="1.19385">
        <ele>75.800003051758</ele>
        <time>2021-05-08T08:32:23.000Z</time>
      </trkpt>
      <trkpt lat="49.16289" lon="1.19388">
        <ele>77</ele>
        <time>2021-05-08T08:32:27.000Z</time>
      </trkpt>
      <trkpt lat="49.16283" lon="1.1939">
        <ele>78.199996948242</ele>
        <time>2021-05-08T08:32:31.000Z</time>
      </trkpt>
      <trkpt lat="49.16276" lon="1.19393">
        <ele>79.400001525879</ele>
        <time>2021-05-08T08:32:35.000Z</time>
      </trkpt>
      <trkpt lat="49.16275" lon="1.19394">
        <ele>79.599998474121</ele>
        <time>2021-05-08T08:32:36.000Z</time>
      </trkpt>
      <trkpt lat="49.16272" lon="1.19395">
        <ele>80.599998474121</ele>
        <time>2021-05-08T08:32:38.000Z</time>
      </trkpt>
      <trkpt lat="49.16269" lon="1.19397">
        <ele>81.599998474121</ele>
        <time>2021-05-08T08:32:41.000Z</time>
      </trkpt>
      <trkpt lat="49.16268" lon="1.19397">
        <ele>82</ele>
        <time>2021-05-08T08:32:42.000Z</time>
      </trkpt>
      <trkpt lat="49.16266" lon="1.19398">
        <ele>82.599998474121</ele>
        <time>2021-05-08T08:32:44.000Z</time>
      </trkpt>
      <trkpt lat="49.16257" lon="1.19402">
        <ele>84.199996948242</ele>
        <time>2021-05-08T08:32:49.000Z</time>
      </trkpt>
      <trkpt lat="49.16252" lon="1.19405">
        <ele>85.199996948242</ele>
        <time>2021-05-08T08:32:53.000Z</time>
      </trkpt>
      <trkpt lat="49.1625" lon="1.19406">
        <ele>85.400001525879</ele>
        <time>2021-05-08T08:32:54.000Z</time>
      </trkpt>
      <trkpt lat="49.16243" lon="1.19409">
        <ele>86.400001525879</ele>
        <time>2021-05-08T08:32:58.000Z</time>
      </trkpt>
      <trkpt lat="49.1624" lon="1.19411">
        <ele>87.199996948242</ele>
        <time>2021-05-08T08:33:01.000Z</time>
      </trkpt>
      <trkpt lat="49.16238" lon="1.19412">
        <ele>87.400001525879</ele>
        <time>2021-05-08T08:33:02.000Z</time>
      </trkpt>
      <trkpt lat="49.16232" lon="1.19415">
        <ele>88.599998474121</ele>
        <time>2021-05-08T08:33:07.000Z</time>
      </trkpt>
      <trkpt lat="49.16227" lon="1.19417">
        <ele>89.199996948242</ele>
        <time>2021-05-08T08:33:10.000Z</time>
      </trkpt>
      <trkpt lat="49.16225" lon="1.19418">
        <ele>89.599998474121</ele>
        <time>2021-05-08T08:33:12.000Z</time>
      </trkpt>
      <trkpt lat="49.16218" lon="1.19422">
        <ele>91</ele>
        <time>2021-05-08T08:33:17.000Z</time>
      </trkpt>
      <trkpt lat="49.16213" lon="1.19425">
        <ele>92.199996948242</ele>
        <time>2021-05-08T08:33:21.000Z</time>
      </trkpt>
      <trkpt lat="49.16212" lon="1.19425">
        <ele>92.199996948242</ele>
        <time>2021-05-08T08:33:22.000Z</time>
      </trkpt>
      <trkpt lat="49.16205" lon="1.19429">
        <ele>93.199996948242</ele>
        <time>2021-05-08T08:33:28.000Z</time>
      </trkpt>
      <trkpt lat="49.16203" lon="1.1943">
        <ele>93.800003051758</ele>
        <time>2021-05-08T08:33:30.000Z</time>
      </trkpt>
      <trkpt lat="49.16199" lon="1.19432">
        <ele>94.599998474121</ele>
        <time>2021-05-08T08:33:34.000Z</time>
      </trkpt>
      <trkpt lat="49.16193" lon="1.19436">
        <ele>95.800003051758</ele>
        <time>2021-05-08T08:33:39.000Z</time>
      </trkpt>
      <trkpt lat="49.16192" lon="1.19436">
        <ele>96.199996948242</ele>
        <time>2021-05-08T08:33:40.000Z</time>
      </trkpt>
      <trkpt lat="49.16189" lon="1.19438">
        <ele>96.800003051758</ele>
        <time>2021-05-08T08:33:42.000Z</time>
      </trkpt>
      <trkpt lat="49.16183" lon="1.19442">
        <ele>98.199996948242</ele>
        <time>2021-05-08T08:33:46.000Z</time>
      </trkpt>
      <trkpt lat="49.16177" lon="1.19444">
        <ele>99</ele>
        <time>2021-05-08T08:33:50.000Z</time>
      </trkpt>
      <trkpt lat="49.16176" lon="1.19445">
        <ele>99.199996948242</ele>
        <time>2021-05-08T08:33:51.000Z</time>
      </trkpt>
      <trkpt lat="49.16171" lon="1.19447">
        <ele>100.19999694824</ele>
        <time>2021-05-08T08:33:55.000Z</time>
      </trkpt>
      <trkpt lat="49.16166" lon="1.19449">
        <ele>101</ele>
        <time>2021-05-08T08:33:58.000Z</time>
      </trkpt>
      <trkpt lat="49.16165" lon="1.1945">
        <ele>101.59999847412</ele>
        <time>2021-05-08T08:34:00.000Z</time>
      </trkpt>
      <trkpt lat="49.16164" lon="1.19451">
        <ele>101.80000305176</ele>
        <time>2021-05-08T08:34:01.000Z</time>
      </trkpt>
      <trkpt lat="49.16162" lon="1.19452">
        <ele>102.40000152588</ele>
        <time>2021-05-08T08:34:03.000Z</time>
      </trkpt>
      <trkpt lat="49.16161" lon="1.19453">
        <ele>102.59999847412</ele>
        <time>2021-05-08T08:34:04.000Z</time>
      </trkpt>
      <trkpt lat="49.1616" lon="1.19454">
        <ele>102.80000305176</ele>
        <time>2021-05-08T08:34:05.000Z</time>
      </trkpt>
      <trkpt lat="49.16155" lon="1.19458">
        <ele>104</ele>
        <time>2021-05-08T08:34:09.000Z</time>
      </trkpt>
      <trkpt lat="49.1615" lon="1.19462">
        <ele>105</ele>
        <time>2021-05-08T08:34:14.000Z</time>
      </trkpt>
      <trkpt lat="49.16148" lon="1.19463">
        <ele>105.19999694824</ele>
        <time>2021-05-08T08:34:15.000Z</time>
      </trkpt>
      <trkpt lat="49.16143" lon="1.1947">
        <ele>106.19999694824</ele>
        <time>2021-05-08T08:34:20.000Z</time>
      </trkpt>
      <trkpt lat="49.16138" lon="1.19476">
        <ele>107.19999694824</ele>
        <time>2021-05-08T08:34:24.000Z</time>
      </trkpt>
      <trkpt lat="49.16135" lon="1.19479">
        <ele>107.59999847412</ele>
        <time>2021-05-08T08:34:26.000Z</time>
      </trkpt>
      <trkpt lat="49.16132" lon="1.19482">
        <ele>108.59999847412</ele>
        <time>2021-05-08T08:34:29.000Z</time>
      </trkpt>
      <trkpt lat="49.16128" lon="1.19486">
        <ele>109.40000152588</ele>
        <time>2021-05-08T08:34:32.000Z</time>
      </trkpt>
      <trkpt lat="49.16126" lon="1.19487">
        <ele>109.59999847412</ele>
        <time>2021-05-08T08:34:33.000Z</time>
      </trkpt>
      <trkpt lat="49.16117" lon="1.19495">
        <ele>110.59999847412</ele>
        <time>2021-05-08T08:34:38.000Z</time>
      </trkpt>
      <trkpt lat="49.16115" lon="1.19496">
        <ele>110.80000305176</ele>
        <time>2021-05-08T08:34:39.000Z</time>
      </trkpt>
      <trkpt lat="49.16104" lon="1.19503">
        <ele>111.80000305176</ele>
        <time>2021-05-08T08:34:44.000Z</time>
      </trkpt>
      <trkpt lat="49.16097" lon="1.19507">
        <ele>112.40000152588</ele>
        <time>2021-05-08T08:34:47.000Z</time>
      </trkpt>
      <trkpt lat="49.16087" lon="1.19515">
        <ele>113.19999694824</ele>
        <time>2021-05-08T08:34:52.000Z</time>
      </trkpt>
      <trkpt lat="49.16085" lon="1.19516">
        <ele>113.19999694824</ele>
        <time>2021-05-08T08:34:53.000Z</time>
      </trkpt>
      <trkpt lat="49.16072" lon="1.19528">
        <ele>113.59999847412</ele>
        <time>2021-05-08T08:35:00.000Z</time>
      </trkpt>
      <trkpt lat="49.16063" lon="1.19533">
        <ele>114.19999694824</ele>
        <time>2021-05-08T08:35:04.000Z</time>
      </trkpt>
      <trkpt lat="49.16056" lon="1.19537">
        <ele>114.40000152588</ele>
        <time>2021-05-08T08:35:07.000Z</time>
      </trkpt>
      <trkpt lat="49.16043" lon="1.19545">
        <ele>115</ele>
        <time>2021-05-08T08:35:13.000Z</time>
      </trkpt>
      <trkpt lat="49.1604" lon="1.19548">
        <ele>115.19999694824</ele>
        <time>2021-05-08T08:35:14.000Z</time>
      </trkpt>
      <trkpt lat="49.16029" lon="1.19554">
        <ele>115.59999847412</ele>
        <time>2021-05-08T08:35:18.000Z</time>
      </trkpt>
      <trkpt lat="49.16005" lon="1.19568">
        <ele>116</ele>
        <time>2021-05-08T08:35:25.000Z</time>
      </trkpt>
      <trkpt lat="49.15999" lon="1.19571">
        <ele>116.19999694824</ele>
        <time>2021-05-08T08:35:27.000Z</time>
      </trkpt>
      <trkpt lat="49.15989" lon="1.19576">
        <ele>116.40000152588</ele>
        <time>2021-05-08T08:35:30.000Z</time>
      </trkpt>
      <trkpt lat="49.15971" lon="1.19573">
        <ele>116.59999847412</ele>
        <time>2021-05-08T08:35:35.000Z</time>
      </trkpt>
      <trkpt lat="49.15952" lon="1.19568">
        <ele>116.59999847412</ele>
        <time>2021-05-08T08:35:40.000Z</time>
      </trkpt>
      <trkpt lat="49.15935" lon="1.19567">
        <ele>117</ele>
        <time>2021-05-08T08:35:45.000Z</time>
      </trkpt>
      <trkpt lat="49.15922" lon="1.19566">
        <ele>117.19999694824</ele>
        <time>2021-05-08T08:35:48.000Z</time>
      </trkpt>
      <trkpt lat="49.15914" lon="1.19565">
        <ele>117.59999847412</ele>
        <time>2021-05-08T08:35:50.000Z</time>
      </trkpt>
      <trkpt lat="49.15894" lon="1.19562">
        <ele>118.19999694824</ele>
        <time>2021-05-08T08:35:55.000Z</time>
      </trkpt>
      <trkpt lat="49.15885" lon="1.1956">
        <ele>118.40000152588</ele>
        <time>2021-05-08T08:35:57.000Z</time>
      </trkpt>
      <trkpt lat="49.1587" lon="1.19556">
        <ele>118.59999847412</ele>
        <time>2021-05-08T08:36:01.000Z</time>
      </trkpt>
      <trkpt lat="49.15857" lon="1.19557">
        <ele>119</ele>
        <time>2021-05-08T08:36:05.000Z</time>
      </trkpt>
      <trkpt lat="49.15831" lon="1.19554">
        <ele>119</ele>
        <time>2021-05-08T08:36:11.000Z</time>
      </trkpt>
      <trkpt lat="49.15816" lon="1.19559">
        <ele>119</ele>
        <time>2021-05-08T08:36:15.000Z</time>
      </trkpt>
      <trkpt lat="49.15799" lon="1.19558">
        <ele>119.59999847412</ele>
        <time>2021-05-08T08:36:19.000Z</time>
      </trkpt>
      <trkpt lat="49.15795" lon="1.19557">
        <ele>119.59999847412</ele>
        <time>2021-05-08T08:36:20.000Z</time>
      </trkpt>
      <trkpt lat="49.15785" lon="1.19555">
        <ele>119.59999847412</ele>
        <time>2021-05-08T08:36:22.000Z</time>
      </trkpt>
      <trkpt lat="49.15771" lon="1.19557">
        <ele>119.59999847412</ele>
        <time>2021-05-08T08:36:25.000Z</time>
      </trkpt>
      <trkpt lat="49.15767" lon="1.19558">
        <ele>119.59999847412</ele>
        <time>2021-05-08T08:36:26.000Z</time>
      </trkpt>
      <trkpt lat="49.15755" lon="1.19564">
        <ele>119.59999847412</ele>
        <time>2021-05-08T08:36:29.000Z</time>
      </trkpt>
      <trkpt lat="49.15739" lon="1.19578">
        <ele>119.19999694824</ele>
        <time>2021-05-08T08:36:33.000Z</time>
      </trkpt>
      <trkpt lat="49.15725" lon="1.19592">
        <ele>119</ele>
        <time>2021-05-08T08:36:38.000Z</time>
      </trkpt>
      <trkpt lat="49.15719" lon="1.19593">
        <ele>119.19999694824</ele>
        <time>2021-05-08T08:36:42.000Z</time>
      </trkpt>
      <trkpt lat="49.15717" lon="1.19594">
        <ele>119.59999847412</ele>
        <time>2021-05-08T08:36:48.000Z</time>
      </trkpt>
      <trkpt lat="49.15715" lon="1.19595">
        <ele>119.80000305176</ele>
        <time>2021-05-08T08:36:53.000Z</time>
      </trkpt>
      <trkpt lat="49.1571" lon="1.19603">
        <ele>120.19999694824</ele>
        <time>2021-05-08T08:47:52.000Z</time>
      </trkpt>
      <trkpt lat="49.15709" lon="1.19605">
        <ele>120.19999694824</ele>
        <time>2021-05-08T08:47:53.000Z</time>
      </trkpt>
      <trkpt lat="49.15709" lon="1.19606">
        <ele>120.19999694824</ele>
        <time>2021-05-08T08:47:54.000Z</time>
      </trkpt>
      <trkpt lat="49.15705" lon="1.19613">
        <ele>120.19999694824</ele>
        <time>2021-05-08T08:47:58.000Z</time>
      </trkpt>
      <trkpt lat="49.15702" lon="1.19616">
        <ele>120.19999694824</ele>
        <time>2021-05-08T08:48:00.000Z</time>
      </trkpt>
      <trkpt lat="49.15691" lon="1.19627">
        <ele>120.19999694824</ele>
        <time>2021-05-08T08:48:06.000Z</time>
      </trkpt>
      <trkpt lat="49.15677" lon="1.19637">
        <ele>120.40000152588</ele>
        <time>2021-05-08T08:48:12.000Z</time>
      </trkpt>
      <trkpt lat="49.15666" lon="1.19644">
        <ele>120.80000305176</ele>
        <time>2021-05-08T08:48:17.000Z</time>
      </trkpt>
      <trkpt lat="49.15651" lon="1.1965">
        <ele>121.40000152588</ele>
        <time>2021-05-08T08:48:23.000Z</time>
      </trkpt>
      <trkpt lat="49.15648" lon="1.19651">
        <ele>121.40000152588</ele>
        <time>2021-05-08T08:48:24.000Z</time>
      </trkpt>
      <trkpt lat="49.15636" lon="1.19656">
        <ele>122.40000152588</ele>
        <time>2021-05-08T08:48:30.000Z</time>
      </trkpt>
      <trkpt lat="49.15623" lon="1.19661">
        <ele>123.40000152588</ele>
        <time>2021-05-08T08:48:37.000Z</time>
      </trkpt>
      <trkpt lat="49.15621" lon="1.19662">
        <ele>123.59999847412</ele>
        <time>2021-05-08T08:48:38.000Z</time>
      </trkpt>
      <trkpt lat="49.15608" lon="1.19668">
        <ele>124.59999847412</ele>
        <time>2021-05-08T08:48:44.000Z</time>
      </trkpt>
      <trkpt lat="49.15592" lon="1.19679">
        <ele>125.59999847412</ele>
        <time>2021-05-08T08:48:50.000Z</time>
      </trkpt>
      <trkpt lat="49.15579" lon="1.1969">
        <ele>127</ele>
        <time>2021-05-08T08:48:55.000Z</time>
      </trkpt>
      <trkpt lat="49.15577" lon="1.19692">
        <ele>127.19999694824</ele>
        <time>2021-05-08T08:48:56.000Z</time>
      </trkpt>
      <trkpt lat="49.15568" lon="1.19699">
        <ele>128</ele>
        <time>2021-05-08T08:49:00.000Z</time>
      </trkpt>
      <trkpt lat="49.15559" lon="1.19704">
        <ele>128.39999389648</ele>
        <time>2021-05-08T08:49:03.000Z</time>
      </trkpt>
      <trkpt lat="49.1554" lon="1.1971">
        <ele>128.80000305176</ele>
        <time>2021-05-08T08:49:10.000Z</time>
      </trkpt>
      <trkpt lat="49.15534" lon="1.19712">
        <ele>129</ele>
        <time>2021-05-08T08:49:12.000Z</time>
      </trkpt>
      <trkpt lat="49.15526" lon="1.19715">
        <ele>129.39999389648</ele>
        <time>2021-05-08T08:49:16.000Z</time>
      </trkpt>
      <trkpt lat="49.1551" lon="1.19718">
        <ele>130.19999694824</ele>
        <time>2021-05-08T08:49:22.000Z</time>
      </trkpt>
      <trkpt lat="49.15507" lon="1.19719">
        <ele>130.39999389648</ele>
        <time>2021-05-08T08:49:23.000Z</time>
      </trkpt>
      <trkpt lat="49.15492" lon="1.19722">
        <ele>130.80000305176</ele>
        <time>2021-05-08T08:49:29.000Z</time>
      </trkpt>
      <trkpt lat="49.15476" lon="1.1973">
        <ele>131</ele>
        <time>2021-05-08T08:49:35.000Z</time>
      </trkpt>
      <trkpt lat="49.15467" lon="1.19735">
        <ele>131.19999694824</ele>
        <time>2021-05-08T08:49:38.000Z</time>
      </trkpt>
      <trkpt lat="49.15459" lon="1.19738">
        <ele>131.39999389648</ele>
        <time>2021-05-08T08:49:40.000Z</time>
      </trkpt>
      <trkpt lat="49.15442" lon="1.19742">
        <ele>132.19999694824</ele>
        <time>2021-05-08T08:49:46.000Z</time>
      </trkpt>
      <trkpt lat="49.15424" lon="1.19745">
        <ele>133</ele>
        <time>2021-05-08T08:49:52.000Z</time>
      </trkpt>
      <trkpt lat="49.15415" lon="1.19748">
        <ele>133.19999694824</ele>
        <time>2021-05-08T08:49:56.000Z</time>
      </trkpt>
      <trkpt lat="49.15414" lon="1.19748">
        <ele>133.19999694824</ele>
        <time>2021-05-08T08:49:57.000Z</time>
      </trkpt>
      <trkpt lat="49.15411" lon="1.19749">
        <ele>134.19999694824</ele>
        <time>2021-05-08T08:50:13.000Z</time>
      </trkpt>
      <trkpt lat="49.1541" lon="1.19748">
        <ele>134.19999694824</ele>
        <time>2021-05-08T08:50:14.000Z</time>
      </trkpt>
      <trkpt lat="49.15407" lon="1.19748">
        <ele>134.19999694824</ele>
        <time>2021-05-08T08:50:16.000Z</time>
      </trkpt>
      <trkpt lat="49.15403" lon="1.19749">
        <ele>134.19999694824</ele>
        <time>2021-05-08T08:50:18.000Z</time>
      </trkpt>
      <trkpt lat="49.15394" lon="1.19752">
        <ele>134.39999389648</ele>
        <time>2021-05-08T08:50:21.000Z</time>
      </trkpt>
      <trkpt lat="49.15379" lon="1.19758">
        <ele>134.39999389648</ele>
        <time>2021-05-08T08:50:26.000Z</time>
      </trkpt>
      <trkpt lat="49.15364" lon="1.19763">
        <ele>134.80000305176</ele>
        <time>2021-05-08T08:50:31.000Z</time>
      </trkpt>
      <trkpt lat="49.15352" lon="1.1977">
        <ele>135</ele>
        <time>2021-05-08T08:50:35.000Z</time>
      </trkpt>
      <trkpt lat="49.15343" lon="1.19774">
        <ele>135.60000610352</ele>
        <time>2021-05-08T08:50:38.000Z</time>
      </trkpt>
      <trkpt lat="49.15334" lon="1.19777">
        <ele>135.80000305176</ele>
        <time>2021-05-08T08:50:41.000Z</time>
      </trkpt>
      <trkpt lat="49.1531" lon="1.19785">
        <ele>136.19999694824</ele>
        <time>2021-05-08T08:50:48.000Z</time>
      </trkpt>
      <trkpt lat="49.15282" lon="1.19787">
        <ele>136.19999694824</ele>
        <time>2021-05-08T08:50:55.000Z</time>
      </trkpt>
      <trkpt lat="49.15249" lon="1.1979">
        <ele>136.19999694824</ele>
        <time>2021-05-08T08:51:03.000Z</time>
      </trkpt>
      <trkpt lat="49.15224" lon="1.19789">
        <ele>136.39999389648</ele>
        <time>2021-05-08T08:51:10.000Z</time>
      </trkpt>
      <trkpt lat="49.15217" lon="1.1979">
        <ele>136.60000610352</ele>
        <time>2021-05-08T08:51:12.000Z</time>
      </trkpt>
      <trkpt lat="49.15206" lon="1.19795">
        <ele>136.60000610352</ele>
        <time>2021-05-08T08:51:15.000Z</time>
      </trkpt>
      <trkpt lat="49.15185" lon="1.19805">
        <ele>136.80000305176</ele>
        <time>2021-05-08T08:51:20.000Z</time>
      </trkpt>
      <trkpt lat="49.15157" lon="1.19822">
        <ele>136.80000305176</ele>
        <time>2021-05-08T08:51:25.000Z</time>
      </trkpt>
      <trkpt lat="49.15151" lon="1.19826">
        <ele>136.80000305176</ele>
        <time>2021-05-08T08:51:26.000Z</time>
      </trkpt>
      <trkpt lat="49.15134" lon="1.19845">
        <ele>136.39999389648</ele>
        <time>2021-05-08T08:51:29.000Z</time>
      </trkpt>
      <trkpt lat="49.15129" lon="1.19849">
        <ele>136</ele>
        <time>2021-05-08T08:51:30.000Z</time>
      </trkpt>
      <trkpt lat="49.15111" lon="1.19857">
        <ele>135.19999694824</ele>
        <time>2021-05-08T08:51:33.000Z</time>
      </trkpt>
      <trkpt lat="49.15105" lon="1.19859">
        <ele>135</ele>
        <time>2021-05-08T08:51:34.000Z</time>
      </trkpt>
      <trkpt lat="49.151" lon="1.1986">
        <ele>135</ele>
        <time>2021-05-08T08:51:35.000Z</time>
      </trkpt>
      <trkpt lat="49.15094" lon="1.19862">
        <ele>134.60000610352</ele>
        <time>2021-05-08T08:51:36.000Z</time>
      </trkpt>
      <trkpt lat="49.15081" lon="1.19868">
        <ele>134.19999694824</ele>
        <time>2021-05-08T08:51:38.000Z</time>
      </trkpt>
      <trkpt lat="49.15068" lon="1.19879">
        <ele>134.19999694824</ele>
        <time>2021-05-08T08:51:40.000Z</time>
      </trkpt>
      <trkpt lat="49.15046" lon="1.19901">
        <ele>133.19999694824</ele>
        <time>2021-05-08T08:51:44.000Z</time>
      </trkpt>
      <trkpt lat="49.15041" lon="1.19907">
        <ele>133</ele>
        <time>2021-05-08T08:51:45.000Z</time>
      </trkpt>
      <trkpt lat="49.15034" lon="1.19911">
        <ele>133</ele>
        <time>2021-05-08T08:51:46.000Z</time>
      </trkpt>
      <trkpt lat="49.15016" lon="1.19925">
        <ele>132.60000610352</ele>
        <time>2021-05-08T08:51:49.000Z</time>
      </trkpt>
      <trkpt lat="49.14982" lon="1.19955">
        <ele>132.19999694824</ele>
        <time>2021-05-08T08:51:55.000Z</time>
      </trkpt>
      <trkpt lat="49.1497" lon="1.19966">
        <ele>132.19999694824</ele>
        <time>2021-05-08T08:51:57.000Z</time>
      </trkpt>
      <trkpt lat="49.14965" lon="1.1997">
        <ele>132.19999694824</ele>
        <time>2021-05-08T08:51:58.000Z</time>
      </trkpt>
      <trkpt lat="49.14954" lon="1.19977">
        <ele>132</ele>
        <time>2021-05-08T08:52:00.000Z</time>
      </trkpt>
      <trkpt lat="49.14924" lon="1.20006">
        <ele>131.80000305176</ele>
        <time>2021-05-08T08:52:06.000Z</time>
      </trkpt>
      <trkpt lat="49.14892" lon="1.20035">
        <ele>131.80000305176</ele>
        <time>2021-05-08T08:52:12.000Z</time>
      </trkpt>
      <trkpt lat="49.14882" lon="1.20044">
        <ele>131.80000305176</ele>
        <time>2021-05-08T08:52:14.000Z</time>
      </trkpt>
      <trkpt lat="49.14869" lon="1.20058">
        <ele>131.39999389648</ele>
        <time>2021-05-08T08:52:17.000Z</time>
      </trkpt>
      <trkpt lat="49.14855" lon="1.20078">
        <ele>131.19999694824</ele>
        <time>2021-05-08T08:52:21.000Z</time>
      </trkpt>
      <trkpt lat="49.14838" lon="1.20103">
        <ele>131.19999694824</ele>
        <time>2021-05-08T08:52:26.000Z</time>
      </trkpt>
      <trkpt lat="49.14819" lon="1.20131">
        <ele>132.80000305176</ele>
        <time>2021-05-08T08:52:32.000Z</time>
      </trkpt>
      <trkpt lat="49.14814" lon="1.20139">
        <ele>133.39999389648</ele>
        <time>2021-05-08T08:52:34.000Z</time>
      </trkpt>
      <trkpt lat="49.14799" lon="1.20157">
        <ele>134.60000610352</ele>
        <time>2021-05-08T08:52:39.000Z</time>
      </trkpt>
      <trkpt lat="49.1479" lon="1.20166">
        <ele>135.80000305176</ele>
        <time>2021-05-08T08:52:42.000Z</time>
      </trkpt>
      <trkpt lat="49.1478" lon="1.20179">
        <ele>136.60000610352</ele>
        <time>2021-05-08T08:52:45.000Z</time>
      </trkpt>
      <trkpt lat="49.14775" lon="1.20187">
        <ele>137</ele>
        <time>2021-05-08T08:52:47.000Z</time>
      </trkpt>
      <trkpt lat="49.14766" lon="1.20201">
        <ele>137.39999389648</ele>
        <time>2021-05-08T08:52:50.000Z</time>
      </trkpt>
      <trkpt lat="49.14748" lon="1.20224">
        <ele>137.80000305176</ele>
        <time>2021-05-08T08:52:55.000Z</time>
      </trkpt>
      <trkpt lat="49.14742" lon="1.20234">
        <ele>138</ele>
        <time>2021-05-08T08:52:57.000Z</time>
      </trkpt>
      <trkpt lat="49.1473" lon="1.20252">
        <ele>138.39999389648</ele>
        <time>2021-05-08T08:53:01.000Z</time>
      </trkpt>
      <trkpt lat="49.14717" lon="1.20273">
        <ele>138.80000305176</ele>
        <time>2021-05-08T08:53:06.000Z</time>
      </trkpt>
      <trkpt lat="49.14712" lon="1.20283">
        <ele>139</ele>
        <time>2021-05-08T08:53:08.000Z</time>
      </trkpt>
      <trkpt lat="49.14699" lon="1.20304">
        <ele>139.80000305176</ele>
        <time>2021-05-08T08:53:12.000Z</time>
      </trkpt>
      <trkpt lat="49.14685" lon="1.20333">
        <ele>139.80000305176</ele>
        <time>2021-05-08T08:53:16.000Z</time>
      </trkpt>
      <trkpt lat="49.14669" lon="1.2039">
        <ele>139.60000610352</ele>
        <time>2021-05-08T08:53:23.000Z</time>
      </trkpt>
      <trkpt lat="49.14667" lon="1.20399">
        <ele>139.60000610352</ele>
        <time>2021-05-08T08:53:24.000Z</time>
      </trkpt>
      <trkpt lat="49.14654" lon="1.20457">
        <ele>138.80000305176</ele>
        <time>2021-05-08T08:53:30.000Z</time>
      </trkpt>
      <trkpt lat="49.14644" lon="1.20483">
        <ele>138.60000610352</ele>
        <time>2021-05-08T08:53:33.000Z</time>
      </trkpt>
      <trkpt lat="49.14635" lon="1.205">
        <ele>138</ele>
        <time>2021-05-08T08:53:35.000Z</time>
      </trkpt>
      <trkpt lat="49.14631" lon="1.20507">
        <ele>137.80000305176</ele>
        <time>2021-05-08T08:53:36.000Z</time>
      </trkpt>
      <trkpt lat="49.14611" lon="1.20536">
        <ele>137</ele>
        <time>2021-05-08T08:53:40.000Z</time>
      </trkpt>
      <trkpt lat="49.14608" lon="1.20542">
        <ele>136.80000305176</ele>
        <time>2021-05-08T08:53:41.000Z</time>
      </trkpt>
      <trkpt lat="49.14596" lon="1.20578">
        <ele>136.19999694824</ele>
        <time>2021-05-08T08:53:45.000Z</time>
      </trkpt>
      <trkpt lat="49.14594" lon="1.20588">
        <ele>136.19999694824</ele>
        <time>2021-05-08T08:53:46.000Z</time>
      </trkpt>
      <trkpt lat="49.14591" lon="1.206">
        <ele>136</ele>
        <time>2021-05-08T08:53:47.000Z</time>
      </trkpt>
      <trkpt lat="49.14589" lon="1.20625">
        <ele>135.60000610352</ele>
        <time>2021-05-08T08:53:49.000Z</time>
      </trkpt>
      <trkpt lat="49.14588" lon="1.20686">
        <ele>134.39999389648</ele>
        <time>2021-05-08T08:53:54.000Z</time>
      </trkpt>
      <trkpt lat="49.14588" lon="1.20697">
        <ele>134.19999694824</ele>
        <time>2021-05-08T08:53:55.000Z</time>
      </trkpt>
      <trkpt lat="49.14588" lon="1.20726">
        <ele>133.39999389648</ele>
        <time>2021-05-08T08:53:58.000Z</time>
      </trkpt>
      <trkpt lat="49.14589" lon="1.20744">
        <ele>133.19999694824</ele>
        <time>2021-05-08T08:54:00.000Z</time>
      </trkpt>
      <trkpt lat="49.14589" lon="1.20761">
        <ele>133.19999694824</ele>
        <time>2021-05-08T08:54:02.000Z</time>
      </trkpt>
      <trkpt lat="49.14587" lon="1.20786">
        <ele>133.19999694824</ele>
        <time>2021-05-08T08:54:05.000Z</time>
      </trkpt>
      <trkpt lat="49.14584" lon="1.20803">
        <ele>134.39999389648</ele>
        <time>2021-05-08T08:54:07.000Z</time>
      </trkpt>
      <trkpt lat="49.14578" lon="1.20834">
        <ele>135.39999389648</ele>
        <time>2021-05-08T08:54:11.000Z</time>
      </trkpt>
      <trkpt lat="49.14577" lon="1.20842">
        <ele>135.60000610352</ele>
        <time>2021-05-08T08:54:12.000Z</time>
      </trkpt>
      <trkpt lat="49.14572" lon="1.20864">
        <ele>136</ele>
        <time>2021-05-08T08:54:15.000Z</time>
      </trkpt>
      <trkpt lat="49.14568" lon="1.20876">
        <ele>136.19999694824</ele>
        <time>2021-05-08T08:54:17.000Z</time>
      </trkpt>
      <trkpt lat="49.14561" lon="1.20895">
        <ele>136.80000305176</ele>
        <time>2021-05-08T08:54:20.000Z</time>
      </trkpt>
      <trkpt lat="49.14559" lon="1.20902">
        <ele>137</ele>
        <time>2021-05-08T08:54:21.000Z</time>
      </trkpt>
      <trkpt lat="49.14552" lon="1.20914">
        <ele>137.39999389648</ele>
        <time>2021-05-08T08:54:23.000Z</time>
      </trkpt>
      <trkpt lat="49.14535" lon="1.20937">
        <ele>137.60000610352</ele>
        <time>2021-05-08T08:54:28.000Z</time>
      </trkpt>
      <trkpt lat="49.14508" lon="1.20961">
        <ele>138</ele>
        <time>2021-05-08T08:54:35.000Z</time>
      </trkpt>
      <trkpt lat="49.14491" lon="1.20985">
        <ele>138.19999694824</ele>
        <time>2021-05-08T08:54:40.000Z</time>
      </trkpt>
      <trkpt lat="49.14467" lon="1.21017">
        <ele>138.39999389648</ele>
        <time>2021-05-08T08:54:47.000Z</time>
      </trkpt>
      <trkpt lat="49.14449" lon="1.21036">
        <ele>138.60000610352</ele>
        <time>2021-05-08T08:54:52.000Z</time>
      </trkpt>
      <trkpt lat="49.14433" lon="1.2106">
        <ele>138.80000305176</ele>
        <time>2021-05-08T08:54:58.000Z</time>
      </trkpt>
      <trkpt lat="49.14413" lon="1.21087">
        <ele>139.19999694824</ele>
        <time>2021-05-08T08:55:04.000Z</time>
      </trkpt>
      <trkpt lat="49.14405" lon="1.21096">
        <ele>139.80000305176</ele>
        <time>2021-05-08T08:55:06.000Z</time>
      </trkpt>
      <trkpt lat="49.14385" lon="1.21118">
        <ele>140.60000610352</ele>
        <time>2021-05-08T08:55:11.000Z</time>
      </trkpt>
      <trkpt lat="49.14373" lon="1.21138">
        <ele>140.80000305176</ele>
        <time>2021-05-08T08:55:16.000Z</time>
      </trkpt>
      <trkpt lat="49.14365" lon="1.21147">
        <ele>141</ele>
        <time>2021-05-08T08:55:19.000Z</time>
      </trkpt>
      <trkpt lat="49.14363" lon="1.21148">
        <ele>141</ele>
        <time>2021-05-08T08:55:20.000Z</time>
      </trkpt>
      <trkpt lat="49.1436" lon="1.21149">
        <ele>141.39999389648</ele>
        <time>2021-05-08T08:55:22.000Z</time>
      </trkpt>
      <trkpt lat="49.14357" lon="1.21151">
        <ele>142.80000305176</ele>
        <time>2021-05-08T08:56:57.000Z</time>
      </trkpt>
      <trkpt lat="49.14354" lon="1.2115">
        <ele>142.80000305176</ele>
        <time>2021-05-08T08:56:59.000Z</time>
      </trkpt>
      <trkpt lat="49.14353" lon="1.21149">
        <ele>142.80000305176</ele>
        <time>2021-05-08T08:57:00.000Z</time>
      </trkpt>
      <trkpt lat="49.14346" lon="1.21141">
        <ele>142.80000305176</ele>
        <time>2021-05-08T08:57:04.000Z</time>
      </trkpt>
      <trkpt lat="49.14345" lon="1.21138">
        <ele>142.80000305176</ele>
        <time>2021-05-08T08:57:05.000Z</time>
      </trkpt>
      <trkpt lat="49.14341" lon="1.21121">
        <ele>142</ele>
        <time>2021-05-08T08:57:10.000Z</time>
      </trkpt>
      <trkpt lat="49.14337" lon="1.2109">
        <ele>142</ele>
        <time>2021-05-08T08:57:16.000Z</time>
      </trkpt>
      <trkpt lat="49.14329" lon="1.21056">
        <ele>142</ele>
        <time>2021-05-08T08:57:22.000Z</time>
      </trkpt>
      <trkpt lat="49.14322" lon="1.21015">
        <ele>142</ele>
        <time>2021-05-08T08:57:29.000Z</time>
      </trkpt>
      <trkpt lat="49.14317" lon="1.21003">
        <ele>142</ele>
        <time>2021-05-08T08:57:31.000Z</time>
      </trkpt>
      <trkpt lat="49.14307" lon="1.20988">
        <ele>142</ele>
        <time>2021-05-08T08:57:34.000Z</time>
      </trkpt>
      <trkpt lat="49.14285" lon="1.20965">
        <ele>142</ele>
        <time>2021-05-08T08:57:40.000Z</time>
      </trkpt>
      <trkpt lat="49.14276" lon="1.2096">
        <ele>142</ele>
        <time>2021-05-08T08:57:42.000Z</time>
      </trkpt>
      <trkpt lat="49.14258" lon="1.20955">
        <ele>142</ele>
        <time>2021-05-08T08:57:46.000Z</time>
      </trkpt>
      <trkpt lat="49.14249" lon="1.20956">
        <ele>142.39999389648</ele>
        <time>2021-05-08T08:57:48.000Z</time>
      </trkpt>
      <trkpt lat="49.14228" lon="1.20957">
        <ele>143.39999389648</ele>
        <time>2021-05-08T08:57:53.000Z</time>
      </trkpt>
      <trkpt lat="49.142" lon="1.2095">
        <ele>143.80000305176</ele>
        <time>2021-05-08T08:58:00.000Z</time>
      </trkpt>
      <trkpt lat="49.14193" lon="1.20951">
        <ele>144</ele>
        <time>2021-05-08T08:58:02.000Z</time>
      </trkpt>
      <trkpt lat="49.14176" lon="1.20958">
        <ele>145</ele>
        <time>2021-05-08T08:58:06.000Z</time>
      </trkpt>
      <trkpt lat="49.14172" lon="1.20959">
        <ele>145.19999694824</ele>
        <time>2021-05-08T08:58:07.000Z</time>
      </trkpt>
      <trkpt lat="49.14139" lon="1.20965">
        <ele>145.80000305176</ele>
        <time>2021-05-08T08:58:14.000Z</time>
      </trkpt>
      <trkpt lat="49.14104" lon="1.20964">
        <ele>145.80000305176</ele>
        <time>2021-05-08T08:58:20.000Z</time>
      </trkpt>
      <trkpt lat="49.14087" lon="1.2095">
        <ele>145</ele>
        <time>2021-05-08T08:58:23.000Z</time>
      </trkpt>
      <trkpt lat="49.14082" lon="1.20945">
        <ele>144.60000610352</ele>
        <time>2021-05-08T08:58:24.000Z</time>
      </trkpt>
      <trkpt lat="49.14078" lon="1.20941">
        <ele>144</ele>
        <time>2021-05-08T08:58:25.000Z</time>
      </trkpt>
      <trkpt lat="49.14073" lon="1.20941">
        <ele>143.60000610352</ele>
        <time>2021-05-08T08:58:26.000Z</time>
      </trkpt>
      <trkpt lat="49.14054" lon="1.20954">
        <ele>142.60000610352</ele>
        <time>2021-05-08T08:58:29.000Z</time>
      </trkpt>
      <trkpt lat="49.14047" lon="1.20961">
        <ele>142</ele>
        <time>2021-05-08T08:58:30.000Z</time>
      </trkpt>
      <trkpt lat="49.1404" lon="1.20969">
        <ele>141</ele>
        <time>2021-05-08T08:58:31.000Z</time>
      </trkpt>
      <trkpt lat="49.14033" lon="1.20976">
        <ele>140.19999694824</ele>
        <time>2021-05-08T08:58:32.000Z</time>
      </trkpt>
      <trkpt lat="49.1402" lon="1.20993">
        <ele>138.80000305176</ele>
        <time>2021-05-08T08:58:34.000Z</time>
      </trkpt>
      <trkpt lat="49.14004" lon="1.21008">
        <ele>137.80000305176</ele>
        <time>2021-05-08T08:58:36.000Z</time>
      </trkpt>
      <trkpt lat="49.13988" lon="1.21022">
        <ele>135.39999389648</ele>
        <time>2021-05-08T08:58:38.000Z</time>
      </trkpt>
      <trkpt lat="49.13971" lon="1.21033">
        <ele>133.80000305176</ele>
        <time>2021-05-08T08:58:40.000Z</time>
      </trkpt>
      <trkpt lat="49.13955" lon="1.21041">
        <ele>132</ele>
        <time>2021-05-08T08:58:42.000Z</time>
      </trkpt>
      <trkpt lat="49.13941" lon="1.21048">
        <ele>130.39999389648</ele>
        <time>2021-05-08T08:58:44.000Z</time>
      </trkpt>
      <trkpt lat="49.13934" lon="1.21051">
        <ele>129.39999389648</ele>
        <time>2021-05-08T08:58:45.000Z</time>
      </trkpt>
      <trkpt lat="49.13928" lon="1.21054">
        <ele>127.80000305176</ele>
        <time>2021-05-08T08:58:46.000Z</time>
      </trkpt>
      <trkpt lat="49.13923" lon="1.21056">
        <ele>126.59999847412</ele>
        <time>2021-05-08T08:58:47.000Z</time>
      </trkpt>
      <trkpt lat="49.13918" lon="1.21057">
        <ele>125.19999694824</ele>
        <time>2021-05-08T08:58:48.000Z</time>
      </trkpt>
      <trkpt lat="49.13914" lon="1.21058">
        <ele>124.19999694824</ele>
        <time>2021-05-08T08:58:49.000Z</time>
      </trkpt>
      <trkpt lat="49.1391" lon="1.21059">
        <ele>123</ele>
        <time>2021-05-08T08:58:50.000Z</time>
      </trkpt>
      <trkpt lat="49.13907" lon="1.2106">
        <ele>122</ele>
        <time>2021-05-08T08:58:51.000Z</time>
      </trkpt>
      <trkpt lat="49.13904" lon="1.21062">
        <ele>119.59999847412</ele>
        <time>2021-05-08T08:58:52.000Z</time>
      </trkpt>
      <trkpt lat="49.13902" lon="1.21065">
        <ele>119</ele>
        <time>2021-05-08T08:58:53.000Z</time>
      </trkpt>
      <trkpt lat="49.13899" lon="1.21067">
        <ele>118.40000152588</ele>
        <time>2021-05-08T08:58:54.000Z</time>
      </trkpt>
      <trkpt lat="49.13893" lon="1.21072">
        <ele>117</ele>
        <time>2021-05-08T08:58:56.000Z</time>
      </trkpt>
      <trkpt lat="49.13884" lon="1.21077">
        <ele>116</ele>
        <time>2021-05-08T08:58:58.000Z</time>
      </trkpt>
      <trkpt lat="49.13879" lon="1.21081">
        <ele>115.59999847412</ele>
        <time>2021-05-08T08:58:59.000Z</time>
      </trkpt>
      <trkpt lat="49.13872" lon="1.21083">
        <ele>115.40000152588</ele>
        <time>2021-05-08T08:59:00.000Z</time>
      </trkpt>
      <trkpt lat="49.13858" lon="1.21087">
        <ele>115</ele>
        <time>2021-05-08T08:59:02.000Z</time>
      </trkpt>
      <trkpt lat="49.13843" lon="1.21091">
        <ele>114.59999847412</ele>
        <time>2021-05-08T08:59:04.000Z</time>
      </trkpt>
      <trkpt lat="49.13818" lon="1.211">
        <ele>113.80000305176</ele>
        <time>2021-05-08T08:59:07.000Z</time>
      </trkpt>
      <trkpt lat="49.13809" lon="1.21103">
        <ele>113.40000152588</ele>
        <time>2021-05-08T08:59:08.000Z</time>
      </trkpt>
      <trkpt lat="49.13791" lon="1.21107">
        <ele>112.19999694824</ele>
        <time>2021-05-08T08:59:10.000Z</time>
      </trkpt>
      <trkpt lat="49.13772" lon="1.21107">
        <ele>110.40000152588</ele>
        <time>2021-05-08T08:59:12.000Z</time>
      </trkpt>
      <trkpt lat="49.13753" lon="1.21104">
        <ele>108.59999847412</ele>
        <time>2021-05-08T08:59:14.000Z</time>
      </trkpt>
      <trkpt lat="49.13743" lon="1.21101">
        <ele>107.59999847412</ele>
        <time>2021-05-08T08:59:15.000Z</time>
      </trkpt>
      <trkpt lat="49.13733" lon="1.21095">
        <ele>106.59999847412</ele>
        <time>2021-05-08T08:59:16.000Z</time>
      </trkpt>
      <trkpt lat="49.13725" lon="1.21089">
        <ele>105.59999847412</ele>
        <time>2021-05-08T08:59:17.000Z</time>
      </trkpt>
      <trkpt lat="49.13717" lon="1.21082">
        <ele>104.40000152588</ele>
        <time>2021-05-08T08:59:18.000Z</time>
      </trkpt>
      <trkpt lat="49.1371" lon="1.21075">
        <ele>103.19999694824</ele>
        <time>2021-05-08T08:59:19.000Z</time>
      </trkpt>
      <trkpt lat="49.13703" lon="1.2107">
        <ele>100.80000305176</ele>
        <time>2021-05-08T08:59:20.000Z</time>
      </trkpt>
      <trkpt lat="49.13695" lon="1.21066">
        <ele>99.400001525879</ele>
        <time>2021-05-08T08:59:21.000Z</time>
      </trkpt>
      <trkpt lat="49.13687" lon="1.21064">
        <ele>98.400001525879</ele>
        <time>2021-05-08T08:59:22.000Z</time>
      </trkpt>
      <trkpt lat="49.13669" lon="1.21065">
        <ele>96.199996948242</ele>
        <time>2021-05-08T08:59:24.000Z</time>
      </trkpt>
      <trkpt lat="49.1366" lon="1.21067">
        <ele>94.800003051758</ele>
        <time>2021-05-08T08:59:25.000Z</time>
      </trkpt>
      <trkpt lat="49.13651" lon="1.2107">
        <ele>93.599998474121</ele>
        <time>2021-05-08T08:59:26.000Z</time>
      </trkpt>
      <trkpt lat="49.13632" lon="1.21075">
        <ele>92.199996948242</ele>
        <time>2021-05-08T08:59:28.000Z</time>
      </trkpt>
      <trkpt lat="49.13613" lon="1.21079">
        <ele>90.599998474121</ele>
        <time>2021-05-08T08:59:30.000Z</time>
      </trkpt>
      <trkpt lat="49.13593" lon="1.21083">
        <ele>88.599998474121</ele>
        <time>2021-05-08T08:59:32.000Z</time>
      </trkpt>
      <trkpt lat="49.13583" lon="1.21085">
        <ele>87.599998474121</ele>
        <time>2021-05-08T08:59:33.000Z</time>
      </trkpt>
      <trkpt lat="49.13574" lon="1.21086">
        <ele>86.400001525879</ele>
        <time>2021-05-08T08:59:34.000Z</time>
      </trkpt>
      <trkpt lat="49.13565" lon="1.21086">
        <ele>85.199996948242</ele>
        <time>2021-05-08T08:59:35.000Z</time>
      </trkpt>
      <trkpt lat="49.13557" lon="1.21084">
        <ele>83.800003051758</ele>
        <time>2021-05-08T08:59:36.000Z</time>
      </trkpt>
      <trkpt lat="49.1355" lon="1.2108">
        <ele>82.800003051758</ele>
        <time>2021-05-08T08:59:37.000Z</time>
      </trkpt>
      <trkpt lat="49.13544" lon="1.21078">
        <ele>81.800003051758</ele>
        <time>2021-05-08T08:59:38.000Z</time>
      </trkpt>
      <trkpt lat="49.13533" lon="1.21079">
        <ele>79.800003051758</ele>
        <time>2021-05-08T08:59:40.000Z</time>
      </trkpt>
      <trkpt lat="49.13523" lon="1.21083">
        <ele>77.800003051758</ele>
        <time>2021-05-08T08:59:42.000Z</time>
      </trkpt>
      <trkpt lat="49.13514" lon="1.21087">
        <ele>75.800003051758</ele>
        <time>2021-05-08T08:59:44.000Z</time>
      </trkpt>
      <trkpt lat="49.1351" lon="1.21088">
        <ele>75</ele>
        <time>2021-05-08T08:59:45.000Z</time>
      </trkpt>
      <trkpt lat="49.13506" lon="1.21087">
        <ele>74.199996948242</ele>
        <time>2021-05-08T08:59:46.000Z</time>
      </trkpt>
      <trkpt lat="49.13502" lon="1.21086">
        <ele>72.800003051758</ele>
        <time>2021-05-08T08:59:48.000Z</time>
      </trkpt>
      <trkpt lat="49.13501" lon="1.21088">
        <ele>71.599998474121</ele>
        <time>2021-05-08T08:59:49.000Z</time>
      </trkpt>
      <trkpt lat="49.13501" lon="1.21092">
        <ele>70.400001525879</ele>
        <time>2021-05-08T08:59:51.000Z</time>
      </trkpt>
      <trkpt lat="49.13501" lon="1.21097">
        <ele>69.199996948242</ele>
        <time>2021-05-08T08:59:53.000Z</time>
      </trkpt>
      <trkpt lat="49.13502" lon="1.211">
        <ele>68.800003051758</ele>
        <time>2021-05-08T08:59:54.000Z</time>
      </trkpt>
      <trkpt lat="49.13504" lon="1.21118">
        <ele>68.599998474121</ele>
        <time>2021-05-08T09:00:01.000Z</time>
      </trkpt>
      <trkpt lat="49.13509" lon="1.21136">
        <ele>69.199996948242</ele>
        <time>2021-05-08T09:00:08.000Z</time>
      </trkpt>
      <trkpt lat="49.13512" lon="1.21149">
        <ele>70.199996948242</ele>
        <time>2021-05-08T09:00:13.000Z</time>
      </trkpt>
      <trkpt lat="49.13513" lon="1.21151">
        <ele>70.400001525879</ele>
        <time>2021-05-08T09:00:14.000Z</time>
      </trkpt>
      <trkpt lat="49.13514" lon="1.21154">
        <ele>70.599998474121</ele>
        <time>2021-05-08T09:00:15.000Z</time>
      </trkpt>
      <trkpt lat="49.13516" lon="1.21158">
        <ele>71.400001525879</ele>
        <time>2021-05-08T09:00:17.000Z</time>
      </trkpt>
      <trkpt lat="49.1352" lon="1.21166">
        <ele>72.599998474121</ele>
        <time>2021-05-08T09:00:21.000Z</time>
      </trkpt>
      <trkpt lat="49.13521" lon="1.21169">
        <ele>72.800003051758</ele>
        <time>2021-05-08T09:00:22.000Z</time>
      </trkpt>
      <trkpt lat="49.13526" lon="1.21178">
        <ele>73.599998474121</ele>
        <time>2021-05-08T09:00:26.000Z</time>
      </trkpt>
      <trkpt lat="49.13533" lon="1.21191">
        <ele>74.800003051758</ele>
        <time>2021-05-08T09:00:32.000Z</time>
      </trkpt>
      <trkpt lat="49.1354" lon="1.21204">
        <ele>75.599998474121</ele>
        <time>2021-05-08T09:00:38.000Z</time>
      </trkpt>
      <trkpt lat="49.13543" lon="1.21209">
        <ele>76</ele>
        <time>2021-05-08T09:00:40.000Z</time>
      </trkpt>
      <trkpt lat="49.13549" lon="1.21222">
        <ele>77</ele>
        <time>2021-05-08T09:00:46.000Z</time>
      </trkpt>
      <trkpt lat="49.1355" lon="1.21224">
        <ele>77</ele>
        <time>2021-05-08T09:00:47.000Z</time>
      </trkpt>
      <trkpt lat="49.13556" lon="1.21238">
        <ele>78</ele>
        <time>2021-05-08T09:00:54.000Z</time>
      </trkpt>
      <trkpt lat="49.13557" lon="1.2124">
        <ele>78.199996948242</ele>
        <time>2021-05-08T09:00:55.000Z</time>
      </trkpt>
      <trkpt lat="49.13561" lon="1.21248">
        <ele>79.400001525879</ele>
        <time>2021-05-08T09:00:59.000Z</time>
      </trkpt>
      <trkpt lat="49.13566" lon="1.21255">
        <ele>80.199996948242</ele>
        <time>2021-05-08T09:01:03.000Z</time>
      </trkpt>
      <trkpt lat="49.13567" lon="1.21257">
        <ele>80.599998474121</ele>
        <time>2021-05-08T09:01:04.000Z</time>
      </trkpt>
      <trkpt lat="49.13575" lon="1.21275">
        <ele>81.599998474121</ele>
        <time>2021-05-08T09:01:10.000Z</time>
      </trkpt>
      <trkpt lat="49.13576" lon="1.21277">
        <ele>81.599998474121</ele>
        <time>2021-05-08T09:01:11.000Z</time>
      </trkpt>
      <trkpt lat="49.13581" lon="1.21288">
        <ele>82.599998474121</ele>
        <time>2021-05-08T09:01:15.000Z</time>
      </trkpt>
      <trkpt lat="49.13583" lon="1.21293">
        <ele>83</ele>
        <time>2021-05-08T09:01:17.000Z</time>
      </trkpt>
      <trkpt lat="49.13588" lon="1.21304">
        <ele>84</ele>
        <time>2021-05-08T09:01:21.000Z</time>
      </trkpt>
      <trkpt lat="49.13593" lon="1.21315">
        <ele>85.199996948242</ele>
        <time>2021-05-08T09:01:26.000Z</time>
      </trkpt>
      <trkpt lat="49.13594" lon="1.21317">
        <ele>85.199996948242</ele>
        <time>2021-05-08T09:01:27.000Z</time>
      </trkpt>
      <trkpt lat="49.13599" lon="1.21332">
        <ele>86.199996948242</ele>
        <time>2021-05-08T09:01:33.000Z</time>
      </trkpt>
      <trkpt lat="49.13601" lon="1.21334">
        <ele>86.400001525879</ele>
        <time>2021-05-08T09:01:34.000Z</time>
      </trkpt>
      <trkpt lat="49.13607" lon="1.21348">
        <ele>87.400001525879</ele>
        <time>2021-05-08T09:01:40.000Z</time>
      </trkpt>
      <trkpt lat="49.13608" lon="1.21353">
        <ele>87.599998474121</ele>
        <time>2021-05-08T09:01:42.000Z</time>
      </trkpt>
      <trkpt lat="49.13614" lon="1.21367">
        <ele>88.599998474121</ele>
        <time>2021-05-08T09:01:48.000Z</time>
      </trkpt>
      <trkpt lat="49.13622" lon="1.21375">
        <ele>89.199996948242</ele>
        <time>2021-05-08T09:01:54.000Z</time>
      </trkpt>
      <trkpt lat="49.13627" lon="1.21378">
        <ele>89.599998474121</ele>
        <time>2021-05-08T09:01:57.000Z</time>
      </trkpt>
      <trkpt lat="49.13634" lon="1.21382">
        <ele>90.800003051758</ele>
        <time>2021-05-08T09:02:02.000Z</time>
      </trkpt>
      <trkpt lat="49.13639" lon="1.21384">
        <ele>92</ele>
        <time>2021-05-08T09:02:06.000Z</time>
      </trkpt>
      <trkpt lat="49.13643" lon="1.21386">
        <ele>92.800003051758</ele>
        <time>2021-05-08T09:02:09.000Z</time>
      </trkpt>
      <trkpt lat="49.13645" lon="1.21388">
        <ele>93.400001525879</ele>
        <time>2021-05-08T09:02:11.000Z</time>
      </trkpt>
      <trkpt lat="49.13649" lon="1.21394">
        <ele>94.599998474121</ele>
        <time>2021-05-08T09:02:16.000Z</time>
      </trkpt>
      <trkpt lat="49.13649" lon="1.21395">
        <ele>94.800003051758</ele>
        <time>2021-05-08T09:02:17.000Z</time>
      </trkpt>
      <trkpt lat="49.13649" lon="1.21397">
        <ele>96</ele>
        <time>2021-05-08T09:03:09.000Z</time>
      </trkpt>
      <trkpt lat="49.13648" lon="1.21402">
        <ele>96</ele>
        <time>2021-05-08T09:03:11.000Z</time>
      </trkpt>
      <trkpt lat="49.13641" lon="1.21424">
        <ele>96</ele>
        <time>2021-05-08T09:03:15.000Z</time>
      </trkpt>
      <trkpt lat="49.13638" lon="1.21431">
        <ele>96</ele>
        <time>2021-05-08T09:03:16.000Z</time>
      </trkpt>
      <trkpt lat="49.13623" lon="1.21467">
        <ele>95.400001525879</ele>
        <time>2021-05-08T09:03:22.000Z</time>
      </trkpt>
      <trkpt lat="49.13618" lon="1.21476">
        <ele>95</ele>
        <time>2021-05-08T09:03:24.000Z</time>
      </trkpt>
      <trkpt lat="49.13607" lon="1.21501">
        <ele>94.400001525879</ele>
        <time>2021-05-08T09:03:30.000Z</time>
      </trkpt>
      <trkpt lat="49.13606" lon="1.21505">
        <ele>94.400001525879</ele>
        <time>2021-05-08T09:03:32.000Z</time>
      </trkpt>
      <trkpt lat="49.13609" lon="1.21507">
        <ele>94.199996948242</ele>
        <time>2021-05-08T09:03:34.000Z</time>
      </trkpt>
      <trkpt lat="49.1361" lon="1.21508">
        <ele>94</ele>
        <time>2021-05-08T09:03:35.000Z</time>
      </trkpt>
      <trkpt lat="49.13611" lon="1.21509">
        <ele>94</ele>
        <time>2021-05-08T09:03:36.000Z</time>
      </trkpt>
      <trkpt lat="49.13612" lon="1.21513">
        <ele>94</ele>
        <time>2021-05-08T09:03:38.000Z</time>
      </trkpt>
      <trkpt lat="49.13612" lon="1.21517">
        <ele>94</ele>
        <time>2021-05-08T09:03:40.000Z</time>
      </trkpt>
      <trkpt lat="49.13613" lon="1.21529">
        <ele>94.199996948242</ele>
        <time>2021-05-08T09:03:45.000Z</time>
      </trkpt>
      <trkpt lat="49.13612" lon="1.21542">
        <ele>95.199996948242</ele>
        <time>2021-05-08T09:03:50.000Z</time>
      </trkpt>
      <trkpt lat="49.13607" lon="1.21559">
        <ele>96.199996948242</ele>
        <time>2021-05-08T09:03:57.000Z</time>
      </trkpt>
      <trkpt lat="49.13607" lon="1.21562">
        <ele>96.199996948242</ele>
        <time>2021-05-08T09:03:58.000Z</time>
      </trkpt>
      <trkpt lat="49.13608" lon="1.21573">
        <ele>96.800003051758</ele>
        <time>2021-05-08T09:04:02.000Z</time>
      </trkpt>
      <trkpt lat="49.13608" lon="1.21577">
        <ele>97</ele>
        <time>2021-05-08T09:04:04.000Z</time>
      </trkpt>
      <trkpt lat="49.13609" lon="1.21582">
        <ele>97</ele>
        <time>2021-05-08T09:04:07.000Z</time>
      </trkpt>
      <trkpt lat="49.13609" lon="1.21584">
        <ele>97.400001525879</ele>
        <time>2021-05-08T09:04:10.000Z</time>
      </trkpt>
      <trkpt lat="49.1361" lon="1.21587">
        <ele>97.800003051758</ele>
        <time>2021-05-08T09:04:12.000Z</time>
      </trkpt>
      <trkpt lat="49.13611" lon="1.21591">
        <ele>98.199996948242</ele>
        <time>2021-05-08T09:04:14.000Z</time>
      </trkpt>
      <trkpt lat="49.13612" lon="1.21594">
        <ele>98.400001525879</ele>
        <time>2021-05-08T09:04:16.000Z</time>
      </trkpt>
      <trkpt lat="49.13613" lon="1.21597">
        <ele>98.800003051758</ele>
        <time>2021-05-08T09:04:18.000Z</time>
      </trkpt>
      <trkpt lat="49.13615" lon="1.216">
        <ele>98.800003051758</ele>
        <time>2021-05-08T09:04:20.000Z</time>
      </trkpt>
      <trkpt lat="49.1362" lon="1.21607">
        <ele>99.199996948242</ele>
        <time>2021-05-08T09:04:25.000Z</time>
      </trkpt>
      <trkpt lat="49.13626" lon="1.21613">
        <ele>99.400001525879</ele>
        <time>2021-05-08T09:04:30.000Z</time>
      </trkpt>
      <trkpt lat="49.13627" lon="1.21619">
        <ele>100</ele>
        <time>2021-05-08T09:04:33.000Z</time>
      </trkpt>
      <trkpt lat="49.13628" lon="1.21623">
        <ele>100.59999847412</ele>
        <time>2021-05-08T09:04:35.000Z</time>
      </trkpt>
      <trkpt lat="49.13631" lon="1.21629">
        <ele>101.19999694824</ele>
        <time>2021-05-08T09:04:38.000Z</time>
      </trkpt>
      <trkpt lat="49.13632" lon="1.2163">
        <ele>101.40000152588</ele>
        <time>2021-05-08T09:04:39.000Z</time>
      </trkpt>
      <trkpt lat="49.13633" lon="1.21631">
        <ele>101.59999847412</ele>
        <time>2021-05-08T09:04:40.000Z</time>
      </trkpt>
      <trkpt lat="49.13636" lon="1.21631">
        <ele>102</ele>
        <time>2021-05-08T09:04:43.000Z</time>
      </trkpt>
      <trkpt lat="49.13637" lon="1.2163">
        <ele>102.19999694824</ele>
        <time>2021-05-08T09:04:44.000Z</time>
      </trkpt>
      <trkpt lat="49.13638" lon="1.21624">
        <ele>102.80000305176</ele>
        <time>2021-05-08T09:04:47.000Z</time>
      </trkpt>
      <trkpt lat="49.13635" lon="1.2162">
        <ele>103</ele>
        <time>2021-05-08T09:04:49.000Z</time>
      </trkpt>
      <trkpt lat="49.13634" lon="1.21619">
        <ele>103.19999694824</ele>
        <time>2021-05-08T09:04:50.000Z</time>
      </trkpt>
      <trkpt lat="49.13626" lon="1.21615">
        <ele>103.19999694824</ele>
        <time>2021-05-08T09:04:53.000Z</time>
      </trkpt>
      <trkpt lat="49.13621" lon="1.21609">
        <ele>103.19999694824</ele>
        <time>2021-05-08T09:04:55.000Z</time>
      </trkpt>
      <trkpt lat="49.13618" lon="1.21604">
        <ele>103.19999694824</ele>
        <time>2021-05-08T09:04:56.000Z</time>
      </trkpt>
      <trkpt lat="49.13615" lon="1.21599">
        <ele>103.19999694824</ele>
        <time>2021-05-08T09:04:57.000Z</time>
      </trkpt>
      <trkpt lat="49.13605" lon="1.21574">
        <ele>101.80000305176</ele>
        <time>2021-05-08T09:05:02.000Z</time>
      </trkpt>
      <trkpt lat="49.13609" lon="1.21561">
        <ele>100</ele>
        <time>2021-05-08T09:05:05.000Z</time>
      </trkpt>
      <trkpt lat="49.13611" lon="1.21556">
        <ele>99.400001525879</ele>
        <time>2021-05-08T09:05:06.000Z</time>
      </trkpt>
      <trkpt lat="49.13613" lon="1.21551">
        <ele>99</ele>
        <time>2021-05-08T09:05:07.000Z</time>
      </trkpt>
      <trkpt lat="49.13614" lon="1.21535">
        <ele>97.599998474121</ele>
        <time>2021-05-08T09:05:10.000Z</time>
      </trkpt>
      <trkpt lat="49.13608" lon="1.21513">
        <ele>96.599998474121</ele>
        <time>2021-05-08T09:05:14.000Z</time>
      </trkpt>
      <trkpt lat="49.13606" lon="1.21512">
        <ele>96.599998474121</ele>
        <time>2021-05-08T09:05:15.000Z</time>
      </trkpt>
      <trkpt lat="49.13601" lon="1.21515">
        <ele>96.400001525879</ele>
        <time>2021-05-08T09:05:17.000Z</time>
      </trkpt>
      <trkpt lat="49.13599" lon="1.21518">
        <ele>96.199996948242</ele>
        <time>2021-05-08T09:05:18.000Z</time>
      </trkpt>
      <trkpt lat="49.13587" lon="1.2153">
        <ele>95.199996948242</ele>
        <time>2021-05-08T09:05:22.000Z</time>
      </trkpt>
      <trkpt lat="49.1358" lon="1.21536">
        <ele>94.599998474121</ele>
        <time>2021-05-08T09:05:24.000Z</time>
      </trkpt>
      <trkpt lat="49.13576" lon="1.21538">
        <ele>94.199996948242</ele>
        <time>2021-05-08T09:05:25.000Z</time>
      </trkpt>
      <trkpt lat="49.13571" lon="1.21539">
        <ele>93.800003051758</ele>
        <time>2021-05-08T09:05:26.000Z</time>
      </trkpt>
      <trkpt lat="49.1356" lon="1.21541">
        <ele>93.199996948242</ele>
        <time>2021-05-08T09:05:28.000Z</time>
      </trkpt>
      <trkpt lat="49.13554" lon="1.21542">
        <ele>92.599998474121</ele>
        <time>2021-05-08T09:05:29.000Z</time>
      </trkpt>
      <trkpt lat="49.13528" lon="1.21546">
        <ele>91.599998474121</ele>
        <time>2021-05-08T09:05:33.000Z</time>
      </trkpt>
      <trkpt lat="49.1352" lon="1.21548">
        <ele>91.199996948242</ele>
        <time>2021-05-08T09:05:34.000Z</time>
      </trkpt>
      <trkpt lat="49.13504" lon="1.21551">
        <ele>90.400001525879</ele>
        <time>2021-05-08T09:05:36.000Z</time>
      </trkpt>
      <trkpt lat="49.13478" lon="1.21557">
        <ele>89</ele>
        <time>2021-05-08T09:05:39.000Z</time>
      </trkpt>
      <trkpt lat="49.13468" lon="1.2156">
        <ele>88.199996948242</ele>
        <time>2021-05-08T09:05:40.000Z</time>
      </trkpt>
      <trkpt lat="49.13459" lon="1.21562">
        <ele>87.599998474121</ele>
        <time>2021-05-08T09:05:41.000Z</time>
      </trkpt>
      <trkpt lat="49.13439" lon="1.21566">
        <ele>85.599998474121</ele>
        <time>2021-05-08T09:05:43.000Z</time>
      </trkpt>
      <trkpt lat="49.1343" lon="1.21568">
        <ele>84.599998474121</ele>
        <time>2021-05-08T09:05:44.000Z</time>
      </trkpt>
      <trkpt lat="49.13412" lon="1.21574">
        <ele>82.599998474121</ele>
        <time>2021-05-08T09:05:46.000Z</time>
      </trkpt>
      <trkpt lat="49.13403" lon="1.21577">
        <ele>81.599998474121</ele>
        <time>2021-05-08T09:05:47.000Z</time>
      </trkpt>
      <trkpt lat="49.13395" lon="1.2158">
        <ele>80.400001525879</ele>
        <time>2021-05-08T09:05:48.000Z</time>
      </trkpt>
      <trkpt lat="49.13389" lon="1.21582">
        <ele>79</ele>
        <time>2021-05-08T09:05:49.000Z</time>
      </trkpt>
      <trkpt lat="49.13383" lon="1.21584">
        <ele>77.800003051758</ele>
        <time>2021-05-08T09:05:50.000Z</time>
      </trkpt>
      <trkpt lat="49.13379" lon="1.21592">
        <ele>76.199996948242</ele>
        <time>2021-05-08T09:05:52.000Z</time>
      </trkpt>
      <trkpt lat="49.13379" lon="1.216">
        <ele>75</ele>
        <time>2021-05-08T09:05:54.000Z</time>
      </trkpt>
      <trkpt lat="49.13381" lon="1.21607">
        <ele>74.800003051758</ele>
        <time>2021-05-08T09:05:56.000Z</time>
      </trkpt>
      <trkpt lat="49.1339" lon="1.21631">
        <ele>75.599998474121</ele>
        <time>2021-05-08T09:06:05.000Z</time>
      </trkpt>
      <trkpt lat="49.13393" lon="1.21638">
        <ele>76.199996948242</ele>
        <time>2021-05-08T09:06:08.000Z</time>
      </trkpt>
      <trkpt lat="49.13397" lon="1.21651">
        <ele>77</ele>
        <time>2021-05-08T09:06:13.000Z</time>
      </trkpt>
      <trkpt lat="49.13398" lon="1.21653">
        <ele>77.199996948242</ele>
        <time>2021-05-08T09:06:14.000Z</time>
      </trkpt>
      <trkpt lat="49.13405" lon="1.21669">
        <ele>78.400001525879</ele>
        <time>2021-05-08T09:06:21.000Z</time>
      </trkpt>
      <trkpt lat="49.13408" lon="1.21674">
        <ele>78.599998474121</ele>
        <time>2021-05-08T09:06:23.000Z</time>
      </trkpt>
      <trkpt lat="49.13413" lon="1.21684">
        <ele>79.400001525879</ele>
        <time>2021-05-08T09:06:28.000Z</time>
      </trkpt>
      <trkpt lat="49.13417" lon="1.21689">
        <ele>80</ele>
        <time>2021-05-08T09:06:31.000Z</time>
      </trkpt>
      <trkpt lat="49.13422" lon="1.21696">
        <ele>80.599998474121</ele>
        <time>2021-05-08T09:06:35.000Z</time>
      </trkpt>
      <trkpt lat="49.13429" lon="1.21707">
        <ele>81.599998474121</ele>
        <time>2021-05-08T09:06:41.000Z</time>
      </trkpt>
      <trkpt lat="49.1343" lon="1.21709">
        <ele>81.800003051758</ele>
        <time>2021-05-08T09:06:42.000Z</time>
      </trkpt>
      <trkpt lat="49.13435" lon="1.21719">
        <ele>82.599998474121</ele>
        <time>2021-05-08T09:06:47.000Z</time>
      </trkpt>
      <trkpt lat="49.13441" lon="1.21729">
        <ele>83.400001525879</ele>
        <time>2021-05-08T09:06:52.000Z</time>
      </trkpt>
      <trkpt lat="49.13442" lon="1.21732">
        <ele>83.599998474121</ele>
        <time>2021-05-08T09:06:53.000Z</time>
      </trkpt>
      <trkpt lat="49.13446" lon="1.21741">
        <ele>84.800003051758</ele>
        <time>2021-05-08T09:06:57.000Z</time>
      </trkpt>
      <trkpt lat="49.1345" lon="1.2175">
        <ele>85.400001525879</ele>
        <time>2021-05-08T09:07:01.000Z</time>
      </trkpt>
      <trkpt lat="49.13452" lon="1.21755">
        <ele>85.800003051758</ele>
        <time>2021-05-08T09:07:03.000Z</time>
      </trkpt>
      <trkpt lat="49.13459" lon="1.21769">
        <ele>86.800003051758</ele>
        <time>2021-05-08T09:07:09.000Z</time>
      </trkpt>
      <trkpt lat="49.1346" lon="1.21771">
        <ele>87</ele>
        <time>2021-05-08T09:07:10.000Z</time>
      </trkpt>
      <trkpt lat="49.13466" lon="1.21783">
        <ele>88</ele>
        <time>2021-05-08T09:07:15.000Z</time>
      </trkpt>
      <trkpt lat="49.13471" lon="1.21794">
        <ele>89</ele>
        <time>2021-05-08T09:07:20.000Z</time>
      </trkpt>
      <trkpt lat="49.13473" lon="1.21798">
        <ele>89.400001525879</ele>
        <time>2021-05-08T09:07:22.000Z</time>
      </trkpt>
      <trkpt lat="49.13478" lon="1.21807">
        <ele>90</ele>
        <time>2021-05-08T09:07:26.000Z</time>
      </trkpt>
      <trkpt lat="49.13484" lon="1.21817">
        <ele>91</ele>
        <time>2021-05-08T09:07:31.000Z</time>
      </trkpt>
      <trkpt lat="49.13486" lon="1.21819">
        <ele>91</ele>
        <time>2021-05-08T09:07:32.000Z</time>
      </trkpt>
      <trkpt lat="49.13495" lon="1.21831">
        <ele>92.199996948242</ele>
        <time>2021-05-08T09:07:39.000Z</time>
      </trkpt>
      <trkpt lat="49.13498" lon="1.21835">
        <ele>92.400001525879</ele>
        <time>2021-05-08T09:07:41.000Z</time>
      </trkpt>
      <trkpt lat="49.13502" lon="1.21839">
        <ele>93.199996948242</ele>
        <time>2021-05-08T09:07:44.000Z</time>
      </trkpt>
      <trkpt lat="49.13511" lon="1.21848">
        <ele>94.400001525879</ele>
        <time>2021-05-08T09:07:50.000Z</time>
      </trkpt>
      <trkpt lat="49.13515" lon="1.21851">
        <ele>94.800003051758</ele>
        <time>2021-05-08T09:07:52.000Z</time>
      </trkpt>
      <trkpt lat="49.13519" lon="1.21856">
        <ele>95.400001525879</ele>
        <time>2021-05-08T09:07:55.000Z</time>
      </trkpt>
      <trkpt lat="49.13527" lon="1.21864">
        <ele>96.400001525879</ele>
        <time>2021-05-08T09:08:00.000Z</time>
      </trkpt>
      <trkpt lat="49.13529" lon="1.21865">
        <ele>96.599998474121</ele>
        <time>2021-05-08T09:08:01.000Z</time>
      </trkpt>
      <trkpt lat="49.13538" lon="1.21875">
        <ele>97.599998474121</ele>
        <time>2021-05-08T09:08:07.000Z</time>
      </trkpt>
      <trkpt lat="49.13546" lon="1.21884">
        <ele>98.199996948242</ele>
        <time>2021-05-08T09:08:12.000Z</time>
      </trkpt>
      <trkpt lat="49.13547" lon="1.21886">
        <ele>98.400001525879</ele>
        <time>2021-05-08T09:08:13.000Z</time>
      </trkpt>
      <trkpt lat="49.1355" lon="1.21889">
        <ele>98.599998474121</ele>
        <time>2021-05-08T09:08:15.000Z</time>
      </trkpt>
      <trkpt lat="49.13559" lon="1.219">
        <ele>99.800003051758</ele>
        <time>2021-05-08T09:08:21.000Z</time>
      </trkpt>
      <trkpt lat="49.13562" lon="1.21904">
        <ele>100.19999694824</ele>
        <time>2021-05-08T09:08:23.000Z</time>
      </trkpt>
      <trkpt lat="49.13573" lon="1.21918">
        <ele>101</ele>
        <time>2021-05-08T09:08:30.000Z</time>
      </trkpt>
      <trkpt lat="49.13578" lon="1.21926">
        <ele>101.59999847412</ele>
        <time>2021-05-08T09:08:34.000Z</time>
      </trkpt>
      <trkpt lat="49.13584" lon="1.21934">
        <ele>102</ele>
        <time>2021-05-08T09:08:38.000Z</time>
      </trkpt>
      <trkpt lat="49.1359" lon="1.21943">
        <ele>102.59999847412</ele>
        <time>2021-05-08T09:08:43.000Z</time>
      </trkpt>
      <trkpt lat="49.13594" lon="1.21949">
        <ele>103.19999694824</ele>
        <time>2021-05-08T09:08:46.000Z</time>
      </trkpt>
      <trkpt lat="49.136" lon="1.21958">
        <ele>104.19999694824</ele>
        <time>2021-05-08T09:08:51.000Z</time>
      </trkpt>
      <trkpt lat="49.13606" lon="1.21968">
        <ele>105.19999694824</ele>
        <time>2021-05-08T09:08:56.000Z</time>
      </trkpt>
      <trkpt lat="49.13608" lon="1.21971">
        <ele>105.59999847412</ele>
        <time>2021-05-08T09:08:58.000Z</time>
      </trkpt>
      <trkpt lat="49.13613" lon="1.21978">
        <ele>106.40000152588</ele>
        <time>2021-05-08T09:09:02.000Z</time>
      </trkpt>
      <trkpt lat="49.13615" lon="1.21982">
        <ele>106.80000305176</ele>
        <time>2021-05-08T09:09:04.000Z</time>
      </trkpt>
      <trkpt lat="49.1362" lon="1.21989">
        <ele>107.59999847412</ele>
        <time>2021-05-08T09:09:08.000Z</time>
      </trkpt>
      <trkpt lat="49.13623" lon="1.21995">
        <ele>108.19999694824</ele>
        <time>2021-05-08T09:09:11.000Z</time>
      </trkpt>
      <trkpt lat="49.13625" lon="1.21999">
        <ele>108.80000305176</ele>
        <time>2021-05-08T09:09:13.000Z</time>
      </trkpt>
      <trkpt lat="49.1363" lon="1.22008">
        <ele>110.19999694824</ele>
        <time>2021-05-08T09:09:18.000Z</time>
      </trkpt>
      <trkpt lat="49.13636" lon="1.22017">
        <ele>111.19999694824</ele>
        <time>2021-05-08T09:09:23.000Z</time>
      </trkpt>
      <trkpt lat="49.13638" lon="1.2202">
        <ele>111.59999847412</ele>
        <time>2021-05-08T09:09:25.000Z</time>
      </trkpt>
      <trkpt lat="49.13642" lon="1.22025">
        <ele>112.19999694824</ele>
        <time>2021-05-08T09:09:28.000Z</time>
      </trkpt>
      <trkpt lat="49.13645" lon="1.22031">
        <ele>113.19999694824</ele>
        <time>2021-05-08T09:09:31.000Z</time>
      </trkpt>
      <trkpt lat="49.13646" lon="1.22033">
        <ele>113.40000152588</ele>
        <time>2021-05-08T09:09:32.000Z</time>
      </trkpt>
      <trkpt lat="49.13651" lon="1.22042">
        <ele>114.40000152588</ele>
        <time>2021-05-08T09:09:37.000Z</time>
      </trkpt>
      <trkpt lat="49.13653" lon="1.22044">
        <ele>114.40000152588</ele>
        <time>2021-05-08T09:09:38.000Z</time>
      </trkpt>
      <trkpt lat="49.13659" lon="1.22054">
        <ele>115.40000152588</ele>
        <time>2021-05-08T09:09:43.000Z</time>
      </trkpt>
      <trkpt lat="49.13663" lon="1.22062">
        <ele>116.59999847412</ele>
        <time>2021-05-08T09:09:47.000Z</time>
      </trkpt>
      <trkpt lat="49.13666" lon="1.22067">
        <ele>117</ele>
        <time>2021-05-08T09:09:49.000Z</time>
      </trkpt>
      <trkpt lat="49.1367" lon="1.22075">
        <ele>117.59999847412</ele>
        <time>2021-05-08T09:09:53.000Z</time>
      </trkpt>
      <trkpt lat="49.13672" lon="1.22079">
        <ele>118</ele>
        <time>2021-05-08T09:09:55.000Z</time>
      </trkpt>
      <trkpt lat="49.13676" lon="1.22092">
        <ele>118.80000305176</ele>
        <time>2021-05-08T09:10:00.000Z</time>
      </trkpt>
      <trkpt lat="49.13679" lon="1.22099">
        <ele>119.59999847412</ele>
        <time>2021-05-08T09:10:03.000Z</time>
      </trkpt>
      <trkpt lat="49.13681" lon="1.22104">
        <ele>120</ele>
        <time>2021-05-08T09:10:05.000Z</time>
      </trkpt>
      <trkpt lat="49.13688" lon="1.22115">
        <ele>120.80000305176</ele>
        <time>2021-05-08T09:10:10.000Z</time>
      </trkpt>
      <trkpt lat="49.1369" lon="1.2212">
        <ele>121</ele>
        <time>2021-05-08T09:10:12.000Z</time>
      </trkpt>
      <trkpt lat="49.13696" lon="1.22132">
        <ele>122</ele>
        <time>2021-05-08T09:10:17.000Z</time>
      </trkpt>
      <trkpt lat="49.13697" lon="1.22135">
        <ele>122.19999694824</ele>
        <time>2021-05-08T09:10:18.000Z</time>
      </trkpt>
      <trkpt lat="49.13706" lon="1.2215">
        <ele>123.19999694824</ele>
        <time>2021-05-08T09:10:25.000Z</time>
      </trkpt>
      <trkpt lat="49.13707" lon="1.22153">
        <ele>123.40000152588</ele>
        <time>2021-05-08T09:10:26.000Z</time>
      </trkpt>
      <trkpt lat="49.13716" lon="1.22168">
        <ele>124.40000152588</ele>
        <time>2021-05-08T09:10:33.000Z</time>
      </trkpt>
      <trkpt lat="49.13724" lon="1.22184">
        <ele>125.40000152588</ele>
        <time>2021-05-08T09:10:40.000Z</time>
      </trkpt>
      <trkpt lat="49.13728" lon="1.22191">
        <ele>125.80000305176</ele>
        <time>2021-05-08T09:10:43.000Z</time>
      </trkpt>
      <trkpt lat="49.13732" lon="1.22198">
        <ele>126.40000152588</ele>
        <time>2021-05-08T09:10:46.000Z</time>
      </trkpt>
      <trkpt lat="49.13737" lon="1.2221">
        <ele>127.40000152588</ele>
        <time>2021-05-08T09:10:51.000Z</time>
      </trkpt>
      <trkpt lat="49.13739" lon="1.22212">
        <ele>127.40000152588</ele>
        <time>2021-05-08T09:10:52.000Z</time>
      </trkpt>
      <trkpt lat="49.13745" lon="1.22227">
        <ele>128.60000610352</ele>
        <time>2021-05-08T09:10:58.000Z</time>
      </trkpt>
      <trkpt lat="49.13746" lon="1.2223">
        <ele>128.80000305176</ele>
        <time>2021-05-08T09:10:59.000Z</time>
      </trkpt>
      <trkpt lat="49.13751" lon="1.22245">
        <ele>129.60000610352</ele>
        <time>2021-05-08T09:11:04.000Z</time>
      </trkpt>
      <trkpt lat="49.13755" lon="1.22254">
        <ele>130</ele>
        <time>2021-05-08T09:11:07.000Z</time>
      </trkpt>
      <trkpt lat="49.13759" lon="1.22267">
        <ele>130.80000305176</ele>
        <time>2021-05-08T09:11:11.000Z</time>
      </trkpt>
      <trkpt lat="49.13763" lon="1.22283">
        <ele>131.80000305176</ele>
        <time>2021-05-08T09:11:16.000Z</time>
      </trkpt>
      <trkpt lat="49.13768" lon="1.22303">
        <ele>132.80000305176</ele>
        <time>2021-05-08T09:11:22.000Z</time>
      </trkpt>
      <trkpt lat="49.13769" lon="1.22306">
        <ele>133</ele>
        <time>2021-05-08T09:11:23.000Z</time>
      </trkpt>
      <trkpt lat="49.13773" lon="1.22329">
        <ele>133.80000305176</ele>
        <time>2021-05-08T09:11:30.000Z</time>
      </trkpt>
      <trkpt lat="49.13774" lon="1.22332">
        <ele>134</ele>
        <time>2021-05-08T09:11:31.000Z</time>
      </trkpt>
      <trkpt lat="49.13777" lon="1.22345">
        <ele>134.80000305176</ele>
        <time>2021-05-08T09:11:35.000Z</time>
      </trkpt>
      <trkpt lat="49.13779" lon="1.22356">
        <ele>135.80000305176</ele>
        <time>2021-05-08T09:11:38.000Z</time>
      </trkpt>
      <trkpt lat="49.13781" lon="1.22362">
        <ele>136.19999694824</ele>
        <time>2021-05-08T09:11:40.000Z</time>
      </trkpt>
      <trkpt lat="49.13785" lon="1.22379">
        <ele>137.39999389648</ele>
        <time>2021-05-08T09:11:45.000Z</time>
      </trkpt>
      <trkpt lat="49.13788" lon="1.22397">
        <ele>138.39999389648</ele>
        <time>2021-05-08T09:11:50.000Z</time>
      </trkpt>
      <trkpt lat="49.1379" lon="1.22404">
        <ele>138.60000610352</ele>
        <time>2021-05-08T09:11:52.000Z</time>
      </trkpt>
      <trkpt lat="49.13794" lon="1.22425">
        <ele>139</ele>
        <time>2021-05-08T09:11:58.000Z</time>
      </trkpt>
      <trkpt lat="49.13797" lon="1.2244">
        <ele>139.39999389648</ele>
        <time>2021-05-08T09:12:02.000Z</time>
      </trkpt>
      <trkpt lat="49.13799" lon="1.22448">
        <ele>139.80000305176</ele>
        <time>2021-05-08T09:12:04.000Z</time>
      </trkpt>
      <trkpt lat="49.13802" lon="1.22468">
        <ele>140.80000305176</ele>
        <time>2021-05-08T09:12:09.000Z</time>
      </trkpt>
      <trkpt lat="49.13803" lon="1.22475">
        <ele>140.80000305176</ele>
        <time>2021-05-08T09:12:11.000Z</time>
      </trkpt>
      <trkpt lat="49.13808" lon="1.225">
        <ele>141.80000305176</ele>
        <time>2021-05-08T09:12:17.000Z</time>
      </trkpt>
      <trkpt lat="49.13813" lon="1.22524">
        <ele>142.39999389648</ele>
        <time>2021-05-08T09:12:23.000Z</time>
      </trkpt>
      <trkpt lat="49.13815" lon="1.2254">
        <ele>143</ele>
        <time>2021-05-08T09:12:27.000Z</time>
      </trkpt>
      <trkpt lat="49.13816" lon="1.2255">
        <ele>143.39999389648</ele>
        <time>2021-05-08T09:12:29.000Z</time>
      </trkpt>
      <trkpt lat="49.1382" lon="1.2257">
        <ele>144</ele>
        <time>2021-05-08T09:12:33.000Z</time>
      </trkpt>
      <trkpt lat="49.13823" lon="1.22586">
        <ele>144.60000610352</ele>
        <time>2021-05-08T09:12:36.000Z</time>
      </trkpt>
      <trkpt lat="49.13829" lon="1.22617">
        <ele>144.80000305176</ele>
        <time>2021-05-08T09:12:42.000Z</time>
      </trkpt>
      <trkpt lat="49.13841" lon="1.22669">
        <ele>144.60000610352</ele>
        <time>2021-05-08T09:12:51.000Z</time>
      </trkpt>
      <trkpt lat="49.13856" lon="1.22721">
        <ele>144</ele>
        <time>2021-05-08T09:12:59.000Z</time>
      </trkpt>
      <trkpt lat="49.13873" lon="1.22771">
        <ele>143.39999389648</ele>
        <time>2021-05-08T09:13:07.000Z</time>
      </trkpt>
      <trkpt lat="49.13875" lon="1.22778">
        <ele>143.19999694824</ele>
        <time>2021-05-08T09:13:08.000Z</time>
      </trkpt>
      <trkpt lat="49.13878" lon="1.22784">
        <ele>143.19999694824</ele>
        <time>2021-05-08T09:13:09.000Z</time>
      </trkpt>
      <trkpt lat="49.13883" lon="1.22795">
        <ele>143.39999389648</ele>
        <time>2021-05-08T09:13:11.000Z</time>
      </trkpt>
      <trkpt lat="49.13885" lon="1.22801">
        <ele>143.19999694824</ele>
        <time>2021-05-08T09:13:12.000Z</time>
      </trkpt>
      <trkpt lat="49.13897" lon="1.22831">
        <ele>143</ele>
        <time>2021-05-08T09:13:17.000Z</time>
      </trkpt>
      <trkpt lat="49.139" lon="1.22837">
        <ele>142.80000305176</ele>
        <time>2021-05-08T09:13:18.000Z</time>
      </trkpt>
      <trkpt lat="49.1391" lon="1.22861">
        <ele>142.60000610352</ele>
        <time>2021-05-08T09:13:23.000Z</time>
      </trkpt>
      <trkpt lat="49.13913" lon="1.22871">
        <ele>142.39999389648</ele>
        <time>2021-05-08T09:13:25.000Z</time>
      </trkpt>
      <trkpt lat="49.13919" lon="1.22891">
        <ele>142.19999694824</ele>
        <time>2021-05-08T09:13:30.000Z</time>
      </trkpt>
      <trkpt lat="49.13921" lon="1.22899">
        <ele>142</ele>
        <time>2021-05-08T09:13:34.000Z</time>
      </trkpt>
      <trkpt lat="49.13923" lon="1.229">
        <ele>142.19999694824</ele>
        <time>2021-05-08T09:16:30.000Z</time>
      </trkpt>
      <trkpt lat="49.13924" lon="1.22899">
        <ele>142.19999694824</ele>
        <time>2021-05-08T09:16:32.000Z</time>
      </trkpt>
      <trkpt lat="49.13926" lon="1.22899">
        <ele>142.19999694824</ele>
        <time>2021-05-08T09:16:33.000Z</time>
      </trkpt>
      <trkpt lat="49.13933" lon="1.22905">
        <ele>142.19999694824</ele>
        <time>2021-05-08T09:16:39.000Z</time>
      </trkpt>
      <trkpt lat="49.13944" lon="1.22917">
        <ele>142.80000305176</ele>
        <time>2021-05-08T09:16:45.000Z</time>
      </trkpt>
      <trkpt lat="49.1396" lon="1.22932">
        <ele>143.60000610352</ele>
        <time>2021-05-08T09:16:52.000Z</time>
      </trkpt>
      <trkpt lat="49.13968" lon="1.22939">
        <ele>144.19999694824</ele>
        <time>2021-05-08T09:16:56.000Z</time>
      </trkpt>
      <trkpt lat="49.1397" lon="1.22942">
        <ele>144.39999389648</ele>
        <time>2021-05-08T09:16:57.000Z</time>
      </trkpt>
      <trkpt lat="49.13988" lon="1.22961">
        <ele>145</ele>
        <time>2021-05-08T09:17:04.000Z</time>
      </trkpt>
      <trkpt lat="49.13997" lon="1.22971">
        <ele>145.19999694824</ele>
        <time>2021-05-08T09:17:08.000Z</time>
      </trkpt>
      <trkpt lat="49.14004" lon="1.22978">
        <ele>145.39999389648</ele>
        <time>2021-05-08T09:17:11.000Z</time>
      </trkpt>
      <trkpt lat="49.14017" lon="1.22992">
        <ele>145.39999389648</ele>
        <time>2021-05-08T09:17:17.000Z</time>
      </trkpt>
      <trkpt lat="49.14023" lon="1.23">
        <ele>145.39999389648</ele>
        <time>2021-05-08T09:17:22.000Z</time>
      </trkpt>
      <trkpt lat="49.14023" lon="1.23">
        <ele>145.39999389648</ele>
        <time>2021-05-08T09:17:23.000Z</time>
      </trkpt>
      <trkpt lat="49.14024" lon="1.23002">
        <ele>145.39999389648</ele>
        <time>2021-05-08T09:17:29.000Z</time>
      </trkpt>
      <trkpt lat="49.14029" lon="1.23006">
        <ele>145.39999389648</ele>
        <time>2021-05-08T09:17:32.000Z</time>
      </trkpt>
      <trkpt lat="49.14033" lon="1.23011">
        <ele>145.39999389648</ele>
        <time>2021-05-08T09:17:34.000Z</time>
      </trkpt>
      <trkpt lat="49.14042" lon="1.23019">
        <ele>145.39999389648</ele>
        <time>2021-05-08T09:17:37.000Z</time>
      </trkpt>
      <trkpt lat="49.14068" lon="1.23048">
        <ele>144.80000305176</ele>
        <time>2021-05-08T09:17:45.000Z</time>
      </trkpt>
      <trkpt lat="49.14094" lon="1.23074">
        <ele>144.60000610352</ele>
        <time>2021-05-08T09:17:52.000Z</time>
      </trkpt>
      <trkpt lat="49.14101" lon="1.2308">
        <ele>144.39999389648</ele>
        <time>2021-05-08T09:17:54.000Z</time>
      </trkpt>
      <trkpt lat="49.14118" lon="1.23099">
        <ele>144.19999694824</ele>
        <time>2021-05-08T09:17:59.000Z</time>
      </trkpt>
      <trkpt lat="49.14151" lon="1.23134">
        <ele>143.80000305176</ele>
        <time>2021-05-08T09:18:07.000Z</time>
      </trkpt>
      <trkpt lat="49.14165" lon="1.23149">
        <ele>143.39999389648</ele>
        <time>2021-05-08T09:18:10.000Z</time>
      </trkpt>
      <trkpt lat="49.14191" lon="1.23176">
        <ele>142.80000305176</ele>
        <time>2021-05-08T09:18:15.000Z</time>
      </trkpt>
      <trkpt lat="49.14201" lon="1.23187">
        <ele>142</ele>
        <time>2021-05-08T09:18:17.000Z</time>
      </trkpt>
      <trkpt lat="49.14222" lon="1.23211">
        <ele>140.80000305176</ele>
        <time>2021-05-08T09:18:21.000Z</time>
      </trkpt>
      <trkpt lat="49.14233" lon="1.23225">
        <ele>140.39999389648</ele>
        <time>2021-05-08T09:18:23.000Z</time>
      </trkpt>
      <trkpt lat="49.14243" lon="1.23239">
        <ele>139.80000305176</ele>
        <time>2021-05-08T09:18:25.000Z</time>
      </trkpt>
      <trkpt lat="49.14247" lon="1.23247">
        <ele>139.60000610352</ele>
        <time>2021-05-08T09:18:26.000Z</time>
      </trkpt>
      <trkpt lat="49.14254" lon="1.23263">
        <ele>139</ele>
        <time>2021-05-08T09:18:28.000Z</time>
      </trkpt>
      <trkpt lat="49.14256" lon="1.23272">
        <ele>138.80000305176</ele>
        <time>2021-05-08T09:18:29.000Z</time>
      </trkpt>
      <trkpt lat="49.14259" lon="1.23281">
        <ele>138.19999694824</ele>
        <time>2021-05-08T09:18:30.000Z</time>
      </trkpt>
      <trkpt lat="49.14262" lon="1.23299">
        <ele>137.39999389648</ele>
        <time>2021-05-08T09:18:32.000Z</time>
      </trkpt>
      <trkpt lat="49.14268" lon="1.23326">
        <ele>136.60000610352</ele>
        <time>2021-05-08T09:18:35.000Z</time>
      </trkpt>
      <trkpt lat="49.14273" lon="1.23343">
        <ele>136.39999389648</ele>
        <time>2021-05-08T09:18:37.000Z</time>
      </trkpt>
      <trkpt lat="49.14281" lon="1.23367">
        <ele>136.39999389648</ele>
        <time>2021-05-08T09:18:40.000Z</time>
      </trkpt>
      <trkpt lat="49.14288" lon="1.23412">
        <ele>135.80000305176</ele>
        <time>2021-05-08T09:18:45.000Z</time>
      </trkpt>
      <trkpt lat="49.1429" lon="1.2343">
        <ele>135.60000610352</ele>
        <time>2021-05-08T09:18:47.000Z</time>
      </trkpt>
      <trkpt lat="49.14299" lon="1.23463">
        <ele>135.39999389648</ele>
        <time>2021-05-08T09:18:51.000Z</time>
      </trkpt>
      <trkpt lat="49.14312" lon="1.23513">
        <ele>135.19999694824</ele>
        <time>2021-05-08T09:18:57.000Z</time>
      </trkpt>
      <trkpt lat="49.14329" lon="1.23559">
        <ele>134.60000610352</ele>
        <time>2021-05-08T09:19:03.000Z</time>
      </trkpt>
      <trkpt lat="49.14344" lon="1.23606">
        <ele>134.60000610352</ele>
        <time>2021-05-08T09:19:09.000Z</time>
      </trkpt>
      <trkpt lat="49.14363" lon="1.23676">
        <ele>134.80000305176</ele>
        <time>2021-05-08T09:19:18.000Z</time>
      </trkpt>
      <trkpt lat="49.14387" lon="1.2374">
        <ele>135.60000610352</ele>
        <time>2021-05-08T09:19:27.000Z</time>
      </trkpt>
      <trkpt lat="49.14407" lon="1.23771">
        <ele>136.19999694824</ele>
        <time>2021-05-08T09:19:33.000Z</time>
      </trkpt>
      <trkpt lat="49.14414" lon="1.2378">
        <ele>136.39999389648</ele>
        <time>2021-05-08T09:19:35.000Z</time>
      </trkpt>
      <trkpt lat="49.14419" lon="1.23789">
        <ele>136.60000610352</ele>
        <time>2021-05-08T09:19:37.000Z</time>
      </trkpt>
      <trkpt lat="49.14419" lon="1.23793">
        <ele>136.60000610352</ele>
        <time>2021-05-08T09:19:38.000Z</time>
      </trkpt>
      <trkpt lat="49.14413" lon="1.23797">
        <ele>136.80000305176</ele>
        <time>2021-05-08T09:19:41.000Z</time>
      </trkpt>
      <trkpt lat="49.14408" lon="1.23795">
        <ele>136.80000305176</ele>
        <time>2021-05-08T09:19:43.000Z</time>
      </trkpt>
      <trkpt lat="49.14401" lon="1.23793">
        <ele>136.80000305176</ele>
        <time>2021-05-08T09:19:45.000Z</time>
      </trkpt>
      <trkpt lat="49.14372" lon="1.23785">
        <ele>136.39999389648</ele>
        <time>2021-05-08T09:19:52.000Z</time>
      </trkpt>
      <trkpt lat="49.14333" lon="1.23773">
        <ele>135.80000305176</ele>
        <time>2021-05-08T09:20:01.000Z</time>
      </trkpt>
      <trkpt lat="49.14315" lon="1.23767">
        <ele>135.60000610352</ele>
        <time>2021-05-08T09:20:05.000Z</time>
      </trkpt>
      <trkpt lat="49.14288" lon="1.23758">
        <ele>135</ele>
        <time>2021-05-08T09:20:11.000Z</time>
      </trkpt>
      <trkpt lat="49.14239" lon="1.23742">
        <ele>135.80000305176</ele>
        <time>2021-05-08T09:20:22.000Z</time>
      </trkpt>
      <trkpt lat="49.14217" lon="1.23732">
        <ele>136.60000610352</ele>
        <time>2021-05-08T09:20:27.000Z</time>
      </trkpt>
      <trkpt lat="49.142" lon="1.23721">
        <ele>136.80000305176</ele>
        <time>2021-05-08T09:20:31.000Z</time>
      </trkpt>
      <trkpt lat="49.1417" lon="1.23688">
        <ele>137.39999389648</ele>
        <time>2021-05-08T09:20:39.000Z</time>
      </trkpt>
      <trkpt lat="49.14167" lon="1.23684">
        <ele>137.80000305176</ele>
        <time>2021-05-08T09:20:40.000Z</time>
      </trkpt>
      <trkpt lat="49.14147" lon="1.23651">
        <ele>138.19999694824</ele>
        <time>2021-05-08T09:20:46.000Z</time>
      </trkpt>
      <trkpt lat="49.14141" lon="1.2364">
        <ele>138.39999389648</ele>
        <time>2021-05-08T09:20:48.000Z</time>
      </trkpt>
      <trkpt lat="49.14135" lon="1.2363">
        <ele>138.60000610352</ele>
        <time>2021-05-08T09:20:50.000Z</time>
      </trkpt>
      <trkpt lat="49.14128" lon="1.2363">
        <ele>138.60000610352</ele>
        <time>2021-05-08T09:20:52.000Z</time>
      </trkpt>
      <trkpt lat="49.14126" lon="1.23643">
        <ele>138.80000305176</ele>
        <time>2021-05-08T09:20:55.000Z</time>
      </trkpt>
      <trkpt lat="49.14127" lon="1.23647">
        <ele>138.80000305176</ele>
        <time>2021-05-08T09:20:56.000Z</time>
      </trkpt>
      <trkpt lat="49.14129" lon="1.23658">
        <ele>139</ele>
        <time>2021-05-08T09:20:58.000Z</time>
      </trkpt>
      <trkpt lat="49.14135" lon="1.23681">
        <ele>139.19999694824</ele>
        <time>2021-05-08T09:21:02.000Z</time>
      </trkpt>
      <trkpt lat="49.14142" lon="1.23711">
        <ele>140</ele>
        <time>2021-05-08T09:21:07.000Z</time>
      </trkpt>
      <trkpt lat="49.14145" lon="1.23723">
        <ele>140</ele>
        <time>2021-05-08T09:21:09.000Z</time>
      </trkpt>
      <trkpt lat="49.14158" lon="1.23771">
        <ele>140.19999694824</ele>
        <time>2021-05-08T09:21:17.000Z</time>
      </trkpt>
      <trkpt lat="49.1417" lon="1.23812">
        <ele>140.60000610352</ele>
        <time>2021-05-08T09:21:24.000Z</time>
      </trkpt>
      <trkpt lat="49.14187" lon="1.23868">
        <ele>141</ele>
        <time>2021-05-08T09:21:34.000Z</time>
      </trkpt>
      <trkpt lat="49.14205" lon="1.23931">
        <ele>141.39999389648</ele>
        <time>2021-05-08T09:21:45.000Z</time>
      </trkpt>
      <trkpt lat="49.14213" lon="1.23983">
        <ele>142</ele>
        <time>2021-05-08T09:21:54.000Z</time>
      </trkpt>
      <trkpt lat="49.14213" lon="1.23989">
        <ele>142</ele>
        <time>2021-05-08T09:21:55.000Z</time>
      </trkpt>
      <trkpt lat="49.14216" lon="1.2404">
        <ele>142.80000305176</ele>
        <time>2021-05-08T09:22:03.000Z</time>
      </trkpt>
      <trkpt lat="49.1422" lon="1.24095">
        <ele>143</ele>
        <time>2021-05-08T09:22:12.000Z</time>
      </trkpt>
      <trkpt lat="49.14221" lon="1.24106">
        <ele>143.39999389648</ele>
        <time>2021-05-08T09:22:14.000Z</time>
      </trkpt>
      <trkpt lat="49.1423" lon="1.24174">
        <ele>144.19999694824</ele>
        <time>2021-05-08T09:22:25.000Z</time>
      </trkpt>
      <trkpt lat="49.14231" lon="1.2418">
        <ele>144.39999389648</ele>
        <time>2021-05-08T09:22:26.000Z</time>
      </trkpt>
      <trkpt lat="49.14239" lon="1.2423">
        <ele>145</ele>
        <time>2021-05-08T09:22:34.000Z</time>
      </trkpt>
      <trkpt lat="49.14246" lon="1.24268">
        <ele>145.19999694824</ele>
        <time>2021-05-08T09:22:40.000Z</time>
      </trkpt>
      <trkpt lat="49.14262" lon="1.24331">
        <ele>145.19999694824</ele>
        <time>2021-05-08T09:22:50.000Z</time>
      </trkpt>
      <trkpt lat="49.1428" lon="1.24374">
        <ele>145.19999694824</ele>
        <time>2021-05-08T09:22:57.000Z</time>
      </trkpt>
      <trkpt lat="49.14307" lon="1.24417">
        <ele>144.80000305176</ele>
        <time>2021-05-08T09:23:05.000Z</time>
      </trkpt>
      <trkpt lat="49.14336" lon="1.2446">
        <ele>144</ele>
        <time>2021-05-08T09:23:13.000Z</time>
      </trkpt>
      <trkpt lat="49.14358" lon="1.24498">
        <ele>143.39999389648</ele>
        <time>2021-05-08T09:23:20.000Z</time>
      </trkpt>
      <trkpt lat="49.14379" lon="1.24547">
        <ele>142.60000610352</ele>
        <time>2021-05-08T09:23:28.000Z</time>
      </trkpt>
      <trkpt lat="49.14381" lon="1.24553">
        <ele>142.60000610352</ele>
        <time>2021-05-08T09:23:29.000Z</time>
      </trkpt>
      <trkpt lat="49.14383" lon="1.24559">
        <ele>142.39999389648</ele>
        <time>2021-05-08T09:23:30.000Z</time>
      </trkpt>
      <trkpt lat="49.14393" lon="1.24584">
        <ele>142.19999694824</ele>
        <time>2021-05-08T09:23:34.000Z</time>
      </trkpt>
      <trkpt lat="49.14408" lon="1.2462">
        <ele>142</ele>
        <time>2021-05-08T09:23:40.000Z</time>
      </trkpt>
      <trkpt lat="49.14415" lon="1.24639">
        <ele>142</ele>
        <time>2021-05-08T09:23:43.000Z</time>
      </trkpt>
      <trkpt lat="49.14434" lon="1.24688">
        <ele>142</ele>
        <time>2021-05-08T09:23:51.000Z</time>
      </trkpt>
      <trkpt lat="49.14443" lon="1.24713">
        <ele>142.19999694824</ele>
        <time>2021-05-08T09:23:55.000Z</time>
      </trkpt>
      <trkpt lat="49.14448" lon="1.24725">
        <ele>142.19999694824</ele>
        <time>2021-05-08T09:23:57.000Z</time>
      </trkpt>
      <trkpt lat="49.14464" lon="1.24768">
        <ele>142.39999389648</ele>
        <time>2021-05-08T09:24:04.000Z</time>
      </trkpt>
      <trkpt lat="49.14475" lon="1.248">
        <ele>142.60000610352</ele>
        <time>2021-05-08T09:24:10.000Z</time>
      </trkpt>
      <trkpt lat="49.14467" lon="1.24805">
        <ele>142.80000305176</ele>
        <time>2021-05-08T09:24:13.000Z</time>
      </trkpt>
      <trkpt lat="49.14435" lon="1.24813">
        <ele>142.80000305176</ele>
        <time>2021-05-08T09:24:21.000Z</time>
      </trkpt>
      <trkpt lat="49.14396" lon="1.24822">
        <ele>141.39999389648</ele>
        <time>2021-05-08T09:24:30.000Z</time>
      </trkpt>
      <trkpt lat="49.14355" lon="1.24832">
        <ele>141.39999389648</ele>
        <time>2021-05-08T09:24:40.000Z</time>
      </trkpt>
      <trkpt lat="49.14315" lon="1.24842">
        <ele>142</ele>
        <time>2021-05-08T09:24:50.000Z</time>
      </trkpt>
      <trkpt lat="49.14294" lon="1.24848">
        <ele>142.60000610352</ele>
        <time>2021-05-08T09:24:56.000Z</time>
      </trkpt>
      <trkpt lat="49.14291" lon="1.24848">
        <ele>142.60000610352</ele>
        <time>2021-05-08T09:24:57.000Z</time>
      </trkpt>
      <trkpt lat="49.14264" lon="1.24855">
        <ele>143.60000610352</ele>
        <time>2021-05-08T09:25:06.000Z</time>
      </trkpt>
      <trkpt lat="49.14245" lon="1.24858">
        <ele>144</ele>
        <time>2021-05-08T09:25:12.000Z</time>
      </trkpt>
      <trkpt lat="49.14229" lon="1.24862">
        <ele>144.60000610352</ele>
        <time>2021-05-08T09:25:17.000Z</time>
      </trkpt>
      <trkpt lat="49.14214" lon="1.24865">
        <ele>145.19999694824</ele>
        <time>2021-05-08T09:25:22.000Z</time>
      </trkpt>
      <trkpt lat="49.14197" lon="1.24868">
        <ele>145.80000305176</ele>
        <time>2021-05-08T09:25:27.000Z</time>
      </trkpt>
      <trkpt lat="49.14187" lon="1.24871">
        <ele>146.39999389648</ele>
        <time>2021-05-08T09:25:30.000Z</time>
      </trkpt>
      <trkpt lat="49.14152" lon="1.24879">
        <ele>146.80000305176</ele>
        <time>2021-05-08T09:25:40.000Z</time>
      </trkpt>
      <trkpt lat="49.14132" lon="1.24884">
        <ele>147</ele>
        <time>2021-05-08T09:25:45.000Z</time>
      </trkpt>
      <trkpt lat="49.14115" lon="1.24891">
        <ele>147</ele>
        <time>2021-05-08T09:25:49.000Z</time>
      </trkpt>
      <trkpt lat="49.14093" lon="1.24897">
        <ele>147.19999694824</ele>
        <time>2021-05-08T09:25:55.000Z</time>
      </trkpt>
      <trkpt lat="49.14073" lon="1.249">
        <ele>147.19999694824</ele>
        <time>2021-05-08T09:26:01.000Z</time>
      </trkpt>
      <trkpt lat="49.14057" lon="1.24902">
        <ele>147.39999389648</ele>
        <time>2021-05-08T09:26:07.000Z</time>
      </trkpt>
      <trkpt lat="49.14045" lon="1.24901">
        <ele>147.39999389648</ele>
        <time>2021-05-08T09:26:13.000Z</time>
      </trkpt>
      <trkpt lat="49.14025" lon="1.24902">
        <ele>147.39999389648</ele>
        <time>2021-05-08T09:26:20.000Z</time>
      </trkpt>
      <trkpt lat="49.14006" lon="1.24901">
        <ele>147.60000610352</ele>
        <time>2021-05-08T09:26:27.000Z</time>
      </trkpt>
      <trkpt lat="49.13985" lon="1.24901">
        <ele>147.60000610352</ele>
        <time>2021-05-08T09:26:33.000Z</time>
      </trkpt>
      <trkpt lat="49.13965" lon="1.24905">
        <ele>147.60000610352</ele>
        <time>2021-05-08T09:26:39.000Z</time>
      </trkpt>
      <trkpt lat="49.13952" lon="1.24905">
        <ele>148.19999694824</ele>
        <time>2021-05-08T09:26:42.000Z</time>
      </trkpt>
      <trkpt lat="49.13944" lon="1.24907">
        <ele>148.60000610352</ele>
        <time>2021-05-08T09:26:44.000Z</time>
      </trkpt>
      <trkpt lat="49.13924" lon="1.24907">
        <ele>148.80000305176</ele>
        <time>2021-05-08T09:26:49.000Z</time>
      </trkpt>
      <trkpt lat="49.13896" lon="1.24904">
        <ele>148.80000305176</ele>
        <time>2021-05-08T09:26:55.000Z</time>
      </trkpt>
      <trkpt lat="49.13866" lon="1.24898">
        <ele>148.19999694824</ele>
        <time>2021-05-08T09:27:01.000Z</time>
      </trkpt>
      <trkpt lat="49.13853" lon="1.24895">
        <ele>147.39999389648</ele>
        <time>2021-05-08T09:27:05.000Z</time>
      </trkpt>
      <trkpt lat="49.13852" lon="1.24896">
        <ele>147</ele>
        <time>2021-05-08T09:27:07.000Z</time>
      </trkpt>
      <trkpt lat="49.13848" lon="1.24895">
        <ele>146.60000610352</ele>
        <time>2021-05-08T09:31:23.000Z</time>
      </trkpt>
      <trkpt lat="49.13846" lon="1.24895">
        <ele>146.60000610352</ele>
        <time>2021-05-08T09:31:24.000Z</time>
      </trkpt>
      <trkpt lat="49.1383" lon="1.24893">
        <ele>146.39999389648</ele>
        <time>2021-05-08T09:31:28.000Z</time>
      </trkpt>
      <trkpt lat="49.13821" lon="1.24891">
        <ele>146.39999389648</ele>
        <time>2021-05-08T09:31:30.000Z</time>
      </trkpt>
      <trkpt lat="49.13781" lon="1.24882">
        <ele>146</ele>
        <time>2021-05-08T09:31:37.000Z</time>
      </trkpt>
      <trkpt lat="49.13757" lon="1.24875">
        <ele>145.39999389648</ele>
        <time>2021-05-08T09:31:41.000Z</time>
      </trkpt>
      <trkpt lat="49.13739" lon="1.24868">
        <ele>145</ele>
        <time>2021-05-08T09:31:44.000Z</time>
      </trkpt>
      <trkpt lat="49.13728" lon="1.24864">
        <ele>144.39999389648</ele>
        <time>2021-05-08T09:31:46.000Z</time>
      </trkpt>
      <trkpt lat="49.13712" lon="1.24857">
        <ele>143.39999389648</ele>
        <time>2021-05-08T09:31:49.000Z</time>
      </trkpt>
      <trkpt lat="49.13702" lon="1.24853">
        <ele>142.60000610352</ele>
        <time>2021-05-08T09:31:51.000Z</time>
      </trkpt>
      <trkpt lat="49.13692" lon="1.24849">
        <ele>142.19999694824</ele>
        <time>2021-05-08T09:31:53.000Z</time>
      </trkpt>
      <trkpt lat="49.13673" lon="1.24838">
        <ele>141</ele>
        <time>2021-05-08T09:31:57.000Z</time>
      </trkpt>
      <trkpt lat="49.13653" lon="1.24827">
        <ele>140</ele>
        <time>2021-05-08T09:32:01.000Z</time>
      </trkpt>
      <trkpt lat="49.13635" lon="1.2482">
        <ele>139</ele>
        <time>2021-05-08T09:32:04.000Z</time>
      </trkpt>
      <trkpt lat="49.13629" lon="1.24818">
        <ele>138.80000305176</ele>
        <time>2021-05-08T09:32:05.000Z</time>
      </trkpt>
      <trkpt lat="49.13608" lon="1.24813">
        <ele>137.80000305176</ele>
        <time>2021-05-08T09:32:08.000Z</time>
      </trkpt>
      <trkpt lat="49.13601" lon="1.24812">
        <ele>137.39999389648</ele>
        <time>2021-05-08T09:32:09.000Z</time>
      </trkpt>
      <trkpt lat="49.13594" lon="1.24812">
        <ele>137</ele>
        <time>2021-05-08T09:32:10.000Z</time>
      </trkpt>
      <trkpt lat="49.13587" lon="1.24812">
        <ele>136.60000610352</ele>
        <time>2021-05-08T09:32:11.000Z</time>
      </trkpt>
      <trkpt lat="49.13574" lon="1.24814">
        <ele>135.80000305176</ele>
        <time>2021-05-08T09:32:13.000Z</time>
      </trkpt>
      <trkpt lat="49.13569" lon="1.24812">
        <ele>135.39999389648</ele>
        <time>2021-05-08T09:32:14.000Z</time>
      </trkpt>
      <trkpt lat="49.13558" lon="1.2481">
        <ele>134</ele>
        <time>2021-05-08T09:32:16.000Z</time>
      </trkpt>
      <trkpt lat="49.13547" lon="1.24807">
        <ele>132.39999389648</ele>
        <time>2021-05-08T09:32:18.000Z</time>
      </trkpt>
      <trkpt lat="49.1353" lon="1.24804">
        <ele>131.39999389648</ele>
        <time>2021-05-08T09:32:21.000Z</time>
      </trkpt>
      <trkpt lat="49.13525" lon="1.24803">
        <ele>131.19999694824</ele>
        <time>2021-05-08T09:32:22.000Z</time>
      </trkpt>
      <trkpt lat="49.13499" lon="1.24799">
        <ele>131.19999694824</ele>
        <time>2021-05-08T09:32:27.000Z</time>
      </trkpt>
      <trkpt lat="49.13456" lon="1.24791">
        <ele>132.39999389648</ele>
        <time>2021-05-08T09:32:37.000Z</time>
      </trkpt>
      <trkpt lat="49.13424" lon="1.24784">
        <ele>133.39999389648</ele>
        <time>2021-05-08T09:32:46.000Z</time>
      </trkpt>
      <trkpt lat="49.13421" lon="1.24784">
        <ele>133.60000610352</ele>
        <time>2021-05-08T09:32:47.000Z</time>
      </trkpt>
      <trkpt lat="49.13396" lon="1.24778">
        <ele>134.60000610352</ele>
        <time>2021-05-08T09:32:55.000Z</time>
      </trkpt>
      <trkpt lat="49.13375" lon="1.24774">
        <ele>135.60000610352</ele>
        <time>2021-05-08T09:33:02.000Z</time>
      </trkpt>
      <trkpt lat="49.13357" lon="1.2477">
        <ele>136.19999694824</ele>
        <time>2021-05-08T09:33:08.000Z</time>
      </trkpt>
      <trkpt lat="49.13342" lon="1.24768">
        <ele>136.80000305176</ele>
        <time>2021-05-08T09:33:13.000Z</time>
      </trkpt>
      <trkpt lat="49.13323" lon="1.24764">
        <ele>137.19999694824</ele>
        <time>2021-05-08T09:33:19.000Z</time>
      </trkpt>
      <trkpt lat="49.13293" lon="1.24759">
        <ele>137.80000305176</ele>
        <time>2021-05-08T09:33:29.000Z</time>
      </trkpt>
      <trkpt lat="49.1329" lon="1.24758">
        <ele>138.19999694824</ele>
        <time>2021-05-08T09:33:30.000Z</time>
      </trkpt>
      <trkpt lat="49.1326" lon="1.24752">
        <ele>139.19999694824</ele>
        <time>2021-05-08T09:33:40.000Z</time>
      </trkpt>
      <trkpt lat="49.13257" lon="1.24751">
        <ele>139.39999389648</ele>
        <time>2021-05-08T09:33:41.000Z</time>
      </trkpt>
      <trkpt lat="49.13217" lon="1.24742">
        <ele>140.19999694824</ele>
        <time>2021-05-08T09:33:54.000Z</time>
      </trkpt>
      <trkpt lat="49.13211" lon="1.24741">
        <ele>140.39999389648</ele>
        <time>2021-05-08T09:33:56.000Z</time>
      </trkpt>
      <trkpt lat="49.13187" lon="1.24736">
        <ele>141.60000610352</ele>
        <time>2021-05-08T09:34:04.000Z</time>
      </trkpt>
      <trkpt lat="49.13184" lon="1.24735">
        <ele>141.60000610352</ele>
        <time>2021-05-08T09:34:05.000Z</time>
      </trkpt>
      <trkpt lat="49.13157" lon="1.2473">
        <ele>142.19999694824</ele>
        <time>2021-05-08T09:34:14.000Z</time>
      </trkpt>
      <trkpt lat="49.13143" lon="1.24727">
        <ele>142.60000610352</ele>
        <time>2021-05-08T09:34:19.000Z</time>
      </trkpt>
      <trkpt lat="49.13132" lon="1.24726">
        <ele>142.80000305176</ele>
        <time>2021-05-08T09:34:23.000Z</time>
      </trkpt>
      <trkpt lat="49.13113" lon="1.24722">
        <ele>143.60000610352</ele>
        <time>2021-05-08T09:34:30.000Z</time>
      </trkpt>
      <trkpt lat="49.13096" lon="1.24719">
        <ele>144.60000610352</ele>
        <time>2021-05-08T09:34:36.000Z</time>
      </trkpt>
      <trkpt lat="49.13088" lon="1.24717">
        <ele>145.19999694824</ele>
        <time>2021-05-08T09:34:39.000Z</time>
      </trkpt>
      <trkpt lat="49.1308" lon="1.24716">
        <ele>145.80000305176</ele>
        <time>2021-05-08T09:34:42.000Z</time>
      </trkpt>
      <trkpt lat="49.13073" lon="1.24714">
        <ele>146.19999694824</ele>
        <time>2021-05-08T09:34:45.000Z</time>
      </trkpt>
      <trkpt lat="49.13053" lon="1.2471">
        <ele>147</ele>
        <time>2021-05-08T09:34:52.000Z</time>
      </trkpt>
      <trkpt lat="49.13051" lon="1.2471">
        <ele>147.19999694824</ele>
        <time>2021-05-08T09:34:53.000Z</time>
      </trkpt>
      <trkpt lat="49.1303" lon="1.24705">
        <ele>148</ele>
        <time>2021-05-08T09:35:01.000Z</time>
      </trkpt>
      <trkpt lat="49.13025" lon="1.24704">
        <ele>148.60000610352</ele>
        <time>2021-05-08T09:35:03.000Z</time>
      </trkpt>
      <trkpt lat="49.13009" lon="1.24701">
        <ele>149</ele>
        <time>2021-05-08T09:35:09.000Z</time>
      </trkpt>
      <trkpt lat="49.12999" lon="1.24699">
        <ele>149.80000305176</ele>
        <time>2021-05-08T09:35:13.000Z</time>
      </trkpt>
      <trkpt lat="49.12996" lon="1.24698">
        <ele>150</ele>
        <time>2021-05-08T09:35:14.000Z</time>
      </trkpt>
      <trkpt lat="49.12975" lon="1.24694">
        <ele>150.80000305176</ele>
        <time>2021-05-08T09:35:22.000Z</time>
      </trkpt>
      <trkpt lat="49.12973" lon="1.24693">
        <ele>151.19999694824</ele>
        <time>2021-05-08T09:35:23.000Z</time>
      </trkpt>
      <trkpt lat="49.12953" lon="1.2469">
        <ele>152</ele>
        <time>2021-05-08T09:35:30.000Z</time>
      </trkpt>
      <trkpt lat="49.12946" lon="1.24689">
        <ele>152.19999694824</ele>
        <time>2021-05-08T09:35:33.000Z</time>
      </trkpt>
      <trkpt lat="49.12933" lon="1.24687">
        <ele>152.80000305176</ele>
        <time>2021-05-08T09:35:38.000Z</time>
      </trkpt>
      <trkpt lat="49.12922" lon="1.24686">
        <ele>153.60000610352</ele>
        <time>2021-05-08T09:35:42.000Z</time>
      </trkpt>
      <trkpt lat="49.12912" lon="1.24684">
        <ele>154.19999694824</ele>
        <time>2021-05-08T09:35:46.000Z</time>
      </trkpt>
      <trkpt lat="49.12907" lon="1.24683">
        <ele>154.60000610352</ele>
        <time>2021-05-08T09:35:50.000Z</time>
      </trkpt>
      <trkpt lat="49.12907" lon="1.24683">
        <ele>154.60000610352</ele>
        <time>2021-05-08T09:35:51.000Z</time>
      </trkpt>
      <trkpt lat="49.12911" lon="1.24685">
        <ele>155.60000610352</ele>
        <time>2021-05-08T09:38:55.000Z</time>
      </trkpt>
      <trkpt lat="49.12916" lon="1.24685">
        <ele>155.60000610352</ele>
        <time>2021-05-08T09:38:58.000Z</time>
      </trkpt>
      <trkpt lat="49.12933" lon="1.24687">
        <ele>155.80000305176</ele>
        <time>2021-05-08T09:39:04.000Z</time>
      </trkpt>
      <trkpt lat="49.12948" lon="1.24697">
        <ele>155.80000305176</ele>
        <time>2021-05-08T09:39:09.000Z</time>
      </trkpt>
      <trkpt lat="49.12949" lon="1.24703">
        <ele>155.80000305176</ele>
        <time>2021-05-08T09:39:10.000Z</time>
      </trkpt>
      <trkpt lat="49.12947" lon="1.24714">
        <ele>155.60000610352</ele>
        <time>2021-05-08T09:39:12.000Z</time>
      </trkpt>
      <trkpt lat="49.1294" lon="1.24746">
        <ele>155.19999694824</ele>
        <time>2021-05-08T09:39:18.000Z</time>
      </trkpt>
      <trkpt lat="49.1293" lon="1.24787">
        <ele>155</ele>
        <time>2021-05-08T09:39:26.000Z</time>
      </trkpt>
      <trkpt lat="49.12919" lon="1.24825">
        <ele>155.80000305176</ele>
        <time>2021-05-08T09:39:33.000Z</time>
      </trkpt>
      <trkpt lat="49.12917" lon="1.24831">
        <ele>156</ele>
        <time>2021-05-08T09:39:34.000Z</time>
      </trkpt>
      <trkpt lat="49.12904" lon="1.24875">
        <ele>156.39999389648</ele>
        <time>2021-05-08T09:39:42.000Z</time>
      </trkpt>
      <trkpt lat="49.12888" lon="1.24927">
        <ele>156.39999389648</ele>
        <time>2021-05-08T09:39:52.000Z</time>
      </trkpt>
      <trkpt lat="49.12875" lon="1.24974">
        <ele>156.80000305176</ele>
        <time>2021-05-08T09:40:02.000Z</time>
      </trkpt>
      <trkpt lat="49.12874" lon="1.24995">
        <ele>157</ele>
        <time>2021-05-08T09:40:07.000Z</time>
      </trkpt>
      <trkpt lat="49.12879" lon="1.25017">
        <ele>157</ele>
        <time>2021-05-08T09:40:11.000Z</time>
      </trkpt>
      <trkpt lat="49.12879" lon="1.25023">
        <ele>157.19999694824</ele>
        <time>2021-05-08T09:40:12.000Z</time>
      </trkpt>
      <trkpt lat="49.12878" lon="1.2503">
        <ele>157.19999694824</ele>
        <time>2021-05-08T09:40:13.000Z</time>
      </trkpt>
      <trkpt lat="49.12871" lon="1.25047">
        <ele>157.19999694824</ele>
        <time>2021-05-08T09:40:16.000Z</time>
      </trkpt>
      <trkpt lat="49.12868" lon="1.25052">
        <ele>157.19999694824</ele>
        <time>2021-05-08T09:40:17.000Z</time>
      </trkpt>
      <trkpt lat="49.12848" lon="1.25091">
        <ele>157.19999694824</ele>
        <time>2021-05-08T09:40:24.000Z</time>
      </trkpt>
      <trkpt lat="49.12823" lon="1.25138">
        <ele>156.60000610352</ele>
        <time>2021-05-08T09:40:32.000Z</time>
      </trkpt>
      <trkpt lat="49.12801" lon="1.25179">
        <ele>156.19999694824</ele>
        <time>2021-05-08T09:40:39.000Z</time>
      </trkpt>
      <trkpt lat="49.12796" lon="1.25191">
        <ele>156.19999694824</ele>
        <time>2021-05-08T09:40:41.000Z</time>
      </trkpt>
      <trkpt lat="49.12786" lon="1.25216">
        <ele>156</ele>
        <time>2021-05-08T09:40:45.000Z</time>
      </trkpt>
      <trkpt lat="49.12782" lon="1.2523">
        <ele>155.80000305176</ele>
        <time>2021-05-08T09:40:47.000Z</time>
      </trkpt>
      <trkpt lat="49.1278" lon="1.25278">
        <ele>155.60000610352</ele>
        <time>2021-05-08T09:40:53.000Z</time>
      </trkpt>
      <trkpt lat="49.1278" lon="1.25286">
        <ele>155.39999389648</ele>
        <time>2021-05-08T09:40:54.000Z</time>
      </trkpt>
      <trkpt lat="49.12784" lon="1.25319">
        <ele>155</ele>
        <time>2021-05-08T09:40:58.000Z</time>
      </trkpt>
      <trkpt lat="49.12792" lon="1.25383">
        <ele>154.19999694824</ele>
        <time>2021-05-08T09:41:06.000Z</time>
      </trkpt>
      <trkpt lat="49.12794" lon="1.25408">
        <ele>154</ele>
        <time>2021-05-08T09:41:09.000Z</time>
      </trkpt>
      <trkpt lat="49.12796" lon="1.25424">
        <ele>153.80000305176</ele>
        <time>2021-05-08T09:41:12.000Z</time>
      </trkpt>
      <trkpt lat="49.12797" lon="1.25426">
        <ele>153.80000305176</ele>
        <time>2021-05-08T09:41:15.000Z</time>
      </trkpt>
      <trkpt lat="49.12797" lon="1.25425">
        <ele>153.39999389648</ele>
        <time>2021-05-08T09:41:25.000Z</time>
      </trkpt>
      <trkpt lat="49.12797" lon="1.25426">
        <ele>153.19999694824</ele>
        <time>2021-05-08T09:41:27.000Z</time>
      </trkpt>
      <trkpt lat="49.12799" lon="1.25429">
        <ele>154.39999389648</ele>
        <time>2021-05-08T09:44:10.000Z</time>
      </trkpt>
      <trkpt lat="49.12799" lon="1.25433">
        <ele>154.39999389648</ele>
        <time>2021-05-08T09:44:11.000Z</time>
      </trkpt>
      <trkpt lat="49.12803" lon="1.25459">
        <ele>154.39999389648</ele>
        <time>2021-05-08T09:44:17.000Z</time>
      </trkpt>
      <trkpt lat="49.12809" lon="1.25504">
        <ele>154.19999694824</ele>
        <time>2021-05-08T09:44:25.000Z</time>
      </trkpt>
      <trkpt lat="49.12813" lon="1.25535">
        <ele>154.39999389648</ele>
        <time>2021-05-08T09:44:31.000Z</time>
      </trkpt>
      <trkpt lat="49.12825" lon="1.25576">
        <ele>154.60000610352</ele>
        <time>2021-05-08T09:44:38.000Z</time>
      </trkpt>
      <trkpt lat="49.12841" lon="1.25618">
        <ele>154.80000305176</ele>
        <time>2021-05-08T09:44:46.000Z</time>
      </trkpt>
      <trkpt lat="49.12858" lon="1.25663">
        <ele>155.39999389648</ele>
        <time>2021-05-08T09:44:54.000Z</time>
      </trkpt>
      <trkpt lat="49.12862" lon="1.25675">
        <ele>155.60000610352</ele>
        <time>2021-05-08T09:44:56.000Z</time>
      </trkpt>
      <trkpt lat="49.12877" lon="1.25728">
        <ele>155.80000305176</ele>
        <time>2021-05-08T09:45:04.000Z</time>
      </trkpt>
      <trkpt lat="49.1288" lon="1.25742">
        <ele>155.80000305176</ele>
        <time>2021-05-08T09:45:06.000Z</time>
      </trkpt>
      <trkpt lat="49.1288" lon="1.25764">
        <ele>156.19999694824</ele>
        <time>2021-05-08T09:45:09.000Z</time>
      </trkpt>
      <trkpt lat="49.12871" lon="1.25788">
        <ele>156.39999389648</ele>
        <time>2021-05-08T09:45:13.000Z</time>
      </trkpt>
      <trkpt lat="49.12867" lon="1.25798">
        <ele>156.60000610352</ele>
        <time>2021-05-08T09:45:15.000Z</time>
      </trkpt>
      <trkpt lat="49.12862" lon="1.25808">
        <ele>156.39999389648</ele>
        <time>2021-05-08T09:45:17.000Z</time>
      </trkpt>
      <trkpt lat="49.12859" lon="1.25813">
        <ele>156.39999389648</ele>
        <time>2021-05-08T09:45:18.000Z</time>
      </trkpt>
      <trkpt lat="49.12834" lon="1.25856">
        <ele>156.80000305176</ele>
        <time>2021-05-08T09:45:26.000Z</time>
      </trkpt>
      <trkpt lat="49.12805" lon="1.25894">
        <ele>156.80000305176</ele>
        <time>2021-05-08T09:45:34.000Z</time>
      </trkpt>
      <trkpt lat="49.12774" lon="1.25934">
        <ele>156.80000305176</ele>
        <time>2021-05-08T09:45:42.000Z</time>
      </trkpt>
      <trkpt lat="49.12755" lon="1.25974">
        <ele>156.80000305176</ele>
        <time>2021-05-08T09:45:48.000Z</time>
      </trkpt>
      <trkpt lat="49.12731" lon="1.26029">
        <ele>156.80000305176</ele>
        <time>2021-05-08T09:45:56.000Z</time>
      </trkpt>
      <trkpt lat="49.12721" lon="1.26046">
        <ele>156.60000610352</ele>
        <time>2021-05-08T09:45:59.000Z</time>
      </trkpt>
      <trkpt lat="49.12706" lon="1.26067">
        <ele>156.39999389648</ele>
        <time>2021-05-08T09:46:03.000Z</time>
      </trkpt>
      <trkpt lat="49.12678" lon="1.26104">
        <ele>156.19999694824</ele>
        <time>2021-05-08T09:46:10.000Z</time>
      </trkpt>
      <trkpt lat="49.12665" lon="1.26126">
        <ele>155.80000305176</ele>
        <time>2021-05-08T09:46:15.000Z</time>
      </trkpt>
      <trkpt lat="49.1267" lon="1.26139">
        <ele>155.80000305176</ele>
        <time>2021-05-08T09:46:18.000Z</time>
      </trkpt>
      <trkpt lat="49.12673" lon="1.26143">
        <ele>155.80000305176</ele>
        <time>2021-05-08T09:46:19.000Z</time>
      </trkpt>
      <trkpt lat="49.12689" lon="1.26165">
        <ele>155.80000305176</ele>
        <time>2021-05-08T09:46:24.000Z</time>
      </trkpt>
      <trkpt lat="49.12717" lon="1.26203">
        <ele>156.19999694824</ele>
        <time>2021-05-08T09:46:32.000Z</time>
      </trkpt>
      <trkpt lat="49.12745" lon="1.26244">
        <ele>156.19999694824</ele>
        <time>2021-05-08T09:46:40.000Z</time>
      </trkpt>
      <trkpt lat="49.12773" lon="1.26292">
        <ele>156.19999694824</ele>
        <time>2021-05-08T09:46:48.000Z</time>
      </trkpt>
      <trkpt lat="49.12809" lon="1.2636">
        <ele>156</ele>
        <time>2021-05-08T09:46:58.000Z</time>
      </trkpt>
      <trkpt lat="49.12841" lon="1.26427">
        <ele>156</ele>
        <time>2021-05-08T09:47:07.000Z</time>
      </trkpt>
      <trkpt lat="49.12876" lon="1.26499">
        <ele>155.60000610352</ele>
        <time>2021-05-08T09:47:16.000Z</time>
      </trkpt>
      <trkpt lat="49.12884" lon="1.26515">
        <ele>155.39999389648</ele>
        <time>2021-05-08T09:47:18.000Z</time>
      </trkpt>
      <trkpt lat="49.1292" lon="1.26588">
        <ele>154.60000610352</ele>
        <time>2021-05-08T09:47:27.000Z</time>
      </trkpt>
      <trkpt lat="49.12929" lon="1.26604">
        <ele>154.39999389648</ele>
        <time>2021-05-08T09:47:29.000Z</time>
      </trkpt>
      <trkpt lat="49.12961" lon="1.26661">
        <ele>153.60000610352</ele>
        <time>2021-05-08T09:47:36.000Z</time>
      </trkpt>
      <trkpt lat="49.12986" lon="1.26702">
        <ele>153.39999389648</ele>
        <time>2021-05-08T09:47:41.000Z</time>
      </trkpt>
      <trkpt lat="49.13012" lon="1.26743">
        <ele>153</ele>
        <time>2021-05-08T09:47:46.000Z</time>
      </trkpt>
      <trkpt lat="49.13046" lon="1.26796">
        <ele>152.39999389648</ele>
        <time>2021-05-08T09:47:52.000Z</time>
      </trkpt>
      <trkpt lat="49.13056" lon="1.26813">
        <ele>152.39999389648</ele>
        <time>2021-05-08T09:47:54.000Z</time>
      </trkpt>
      <trkpt lat="49.13082" lon="1.26854">
        <ele>151.39999389648</ele>
        <time>2021-05-08T09:47:59.000Z</time>
      </trkpt>
      <trkpt lat="49.13101" lon="1.26886">
        <ele>151.19999694824</ele>
        <time>2021-05-08T09:48:03.000Z</time>
      </trkpt>
      <trkpt lat="49.13139" lon="1.26946">
        <ele>151.19999694824</ele>
        <time>2021-05-08T09:48:11.000Z</time>
      </trkpt>
      <trkpt lat="49.13149" lon="1.26961">
        <ele>151.39999389648</ele>
        <time>2021-05-08T09:48:13.000Z</time>
      </trkpt>
      <trkpt lat="49.13191" lon="1.27027">
        <ele>152</ele>
        <time>2021-05-08T09:48:22.000Z</time>
      </trkpt>
      <trkpt lat="49.13196" lon="1.27035">
        <ele>152</ele>
        <time>2021-05-08T09:48:23.000Z</time>
      </trkpt>
      <trkpt lat="49.13234" lon="1.27097">
        <ele>152.19999694824</ele>
        <time>2021-05-08T09:48:31.000Z</time>
      </trkpt>
      <trkpt lat="49.13239" lon="1.27105">
        <ele>152.19999694824</ele>
        <time>2021-05-08T09:48:32.000Z</time>
      </trkpt>
      <trkpt lat="49.13272" lon="1.27156">
        <ele>152.19999694824</ele>
        <time>2021-05-08T09:48:39.000Z</time>
      </trkpt>
      <trkpt lat="49.13305" lon="1.27195">
        <ele>152.39999389648</ele>
        <time>2021-05-08T09:48:46.000Z</time>
      </trkpt>
      <trkpt lat="49.13342" lon="1.27224">
        <ele>152.39999389648</ele>
        <time>2021-05-08T09:48:53.000Z</time>
      </trkpt>
      <trkpt lat="49.13347" lon="1.27229">
        <ele>152.39999389648</ele>
        <time>2021-05-08T09:48:54.000Z</time>
      </trkpt>
      <trkpt lat="49.13377" lon="1.27258">
        <ele>153</ele>
        <time>2021-05-08T09:49:00.000Z</time>
      </trkpt>
      <trkpt lat="49.13386" lon="1.27272">
        <ele>153.19999694824</ele>
        <time>2021-05-08T09:49:02.000Z</time>
      </trkpt>
      <trkpt lat="49.13403" lon="1.2731">
        <ele>153.39999389648</ele>
        <time>2021-05-08T09:49:07.000Z</time>
      </trkpt>
      <trkpt lat="49.13405" lon="1.27319">
        <ele>153.39999389648</ele>
        <time>2021-05-08T09:49:08.000Z</time>
      </trkpt>
      <trkpt lat="49.13408" lon="1.27327">
        <ele>153.39999389648</ele>
        <time>2021-05-08T09:49:09.000Z</time>
      </trkpt>
      <trkpt lat="49.13417" lon="1.27364">
        <ele>153.19999694824</ele>
        <time>2021-05-08T09:49:13.000Z</time>
      </trkpt>
      <trkpt lat="49.13419" lon="1.27385">
        <ele>153</ele>
        <time>2021-05-08T09:49:15.000Z</time>
      </trkpt>
      <trkpt lat="49.1342" lon="1.27416">
        <ele>152.60000610352</ele>
        <time>2021-05-08T09:49:18.000Z</time>
      </trkpt>
      <trkpt lat="49.13422" lon="1.27468">
        <ele>151.80000305176</ele>
        <time>2021-05-08T09:49:24.000Z</time>
      </trkpt>
      <trkpt lat="49.13426" lon="1.27492">
        <ele>151.80000305176</ele>
        <time>2021-05-08T09:49:27.000Z</time>
      </trkpt>
      <trkpt lat="49.13431" lon="1.27516">
        <ele>151.80000305176</ele>
        <time>2021-05-08T09:49:30.000Z</time>
      </trkpt>
      <trkpt lat="49.13447" lon="1.27572">
        <ele>153.60000610352</ele>
        <time>2021-05-08T09:49:37.000Z</time>
      </trkpt>
      <trkpt lat="49.13449" lon="1.27579">
        <ele>153.80000305176</ele>
        <time>2021-05-08T09:49:38.000Z</time>
      </trkpt>
      <trkpt lat="49.1347" lon="1.27629">
        <ele>154.60000610352</ele>
        <time>2021-05-08T09:49:45.000Z</time>
      </trkpt>
      <trkpt lat="49.13473" lon="1.27635">
        <ele>154.80000305176</ele>
        <time>2021-05-08T09:49:46.000Z</time>
      </trkpt>
      <trkpt lat="49.13476" lon="1.27641">
        <ele>154.80000305176</ele>
        <time>2021-05-08T09:49:47.000Z</time>
      </trkpt>
      <trkpt lat="49.13486" lon="1.27658">
        <ele>155</ele>
        <time>2021-05-08T09:49:50.000Z</time>
      </trkpt>
      <trkpt lat="49.13489" lon="1.27664">
        <ele>155.19999694824</ele>
        <time>2021-05-08T09:49:51.000Z</time>
      </trkpt>
      <trkpt lat="49.13516" lon="1.27705">
        <ele>155.60000610352</ele>
        <time>2021-05-08T09:49:58.000Z</time>
      </trkpt>
      <trkpt lat="49.13525" lon="1.2772">
        <ele>155.60000610352</ele>
        <time>2021-05-08T09:50:00.000Z</time>
      </trkpt>
      <trkpt lat="49.13538" lon="1.27753">
        <ele>155.60000610352</ele>
        <time>2021-05-08T09:50:04.000Z</time>
      </trkpt>
      <trkpt lat="49.13544" lon="1.2777">
        <ele>155.60000610352</ele>
        <time>2021-05-08T09:50:06.000Z</time>
      </trkpt>
      <trkpt lat="49.13555" lon="1.27812">
        <ele>155.60000610352</ele>
        <time>2021-05-08T09:50:11.000Z</time>
      </trkpt>
      <trkpt lat="49.13572" lon="1.27862">
        <ele>155.39999389648</ele>
        <time>2021-05-08T09:50:17.000Z</time>
      </trkpt>
      <trkpt lat="49.1361" lon="1.27931">
        <ele>155.39999389648</ele>
        <time>2021-05-08T09:50:26.000Z</time>
      </trkpt>
      <trkpt lat="49.13648" lon="1.27997">
        <ele>155.39999389648</ele>
        <time>2021-05-08T09:50:35.000Z</time>
      </trkpt>
      <trkpt lat="49.1366" lon="1.28018">
        <ele>155.39999389648</ele>
        <time>2021-05-08T09:50:38.000Z</time>
      </trkpt>
      <trkpt lat="49.13681" lon="1.28055">
        <ele>155.60000610352</ele>
        <time>2021-05-08T09:50:43.000Z</time>
      </trkpt>
      <trkpt lat="49.13697" lon="1.28084">
        <ele>156</ele>
        <time>2021-05-08T09:50:47.000Z</time>
      </trkpt>
      <trkpt lat="49.13723" lon="1.28133">
        <ele>156</ele>
        <time>2021-05-08T09:50:54.000Z</time>
      </trkpt>
      <trkpt lat="49.13738" lon="1.28181">
        <ele>156.19999694824</ele>
        <time>2021-05-08T09:51:00.000Z</time>
      </trkpt>
      <trkpt lat="49.13755" lon="1.28249">
        <ele>156.19999694824</ele>
        <time>2021-05-08T09:51:08.000Z</time>
      </trkpt>
      <trkpt lat="49.13764" lon="1.28295">
        <ele>156.19999694824</ele>
        <time>2021-05-08T09:51:13.000Z</time>
      </trkpt>
      <trkpt lat="49.13781" lon="1.28381">
        <ele>156.19999694824</ele>
        <time>2021-05-08T09:51:22.000Z</time>
      </trkpt>
      <trkpt lat="49.13785" lon="1.284">
        <ele>156.19999694824</ele>
        <time>2021-05-08T09:51:24.000Z</time>
      </trkpt>
      <trkpt lat="49.13797" lon="1.28481">
        <ele>156.19999694824</ele>
        <time>2021-05-08T09:51:32.000Z</time>
      </trkpt>
      <trkpt lat="49.13798" lon="1.28492">
        <ele>156.19999694824</ele>
        <time>2021-05-08T09:51:33.000Z</time>
      </trkpt>
      <trkpt lat="49.13799" lon="1.28573">
        <ele>156</ele>
        <time>2021-05-08T09:51:40.000Z</time>
      </trkpt>
      <trkpt lat="49.13798" lon="1.2864">
        <ele>154.60000610352</ele>
        <time>2021-05-08T09:51:46.000Z</time>
      </trkpt>
      <trkpt lat="49.13798" lon="1.28651">
        <ele>154.39999389648</ele>
        <time>2021-05-08T09:51:47.000Z</time>
      </trkpt>
      <trkpt lat="49.13804" lon="1.28704">
        <ele>153.80000305176</ele>
        <time>2021-05-08T09:51:52.000Z</time>
      </trkpt>
      <trkpt lat="49.1381" lon="1.28734">
        <ele>153.60000610352</ele>
        <time>2021-05-08T09:51:55.000Z</time>
      </trkpt>
      <trkpt lat="49.13822" lon="1.28774">
        <ele>153</ele>
        <time>2021-05-08T09:51:59.000Z</time>
      </trkpt>
      <trkpt lat="49.13831" lon="1.28803">
        <ele>152.39999389648</ele>
        <time>2021-05-08T09:52:02.000Z</time>
      </trkpt>
      <trkpt lat="49.13846" lon="1.28839">
        <ele>152</ele>
        <time>2021-05-08T09:52:06.000Z</time>
      </trkpt>
      <trkpt lat="49.13877" lon="1.28909">
        <ele>152</ele>
        <time>2021-05-08T09:52:14.000Z</time>
      </trkpt>
      <trkpt lat="49.1388" lon="1.28917">
        <ele>152</ele>
        <time>2021-05-08T09:52:15.000Z</time>
      </trkpt>
      <trkpt lat="49.13907" lon="1.28973">
        <ele>152.19999694824</ele>
        <time>2021-05-08T09:52:22.000Z</time>
      </trkpt>
      <trkpt lat="49.1394" lon="1.29049">
        <ele>152.19999694824</ele>
        <time>2021-05-08T09:52:31.000Z</time>
      </trkpt>
      <trkpt lat="49.13969" lon="1.29125">
        <ele>152</ele>
        <time>2021-05-08T09:52:40.000Z</time>
      </trkpt>
      <trkpt lat="49.1399" lon="1.29187">
        <ele>151.60000610352</ele>
        <time>2021-05-08T09:52:47.000Z</time>
      </trkpt>
      <trkpt lat="49.13999" lon="1.29214">
        <ele>151.39999389648</ele>
        <time>2021-05-08T09:52:50.000Z</time>
      </trkpt>
      <trkpt lat="49.14015" lon="1.29266">
        <ele>150.39999389648</ele>
        <time>2021-05-08T09:52:56.000Z</time>
      </trkpt>
      <trkpt lat="49.14023" lon="1.29292">
        <ele>150.19999694824</ele>
        <time>2021-05-08T09:52:59.000Z</time>
      </trkpt>
      <trkpt lat="49.1404" lon="1.29356">
        <ele>149.80000305176</ele>
        <time>2021-05-08T09:53:06.000Z</time>
      </trkpt>
      <trkpt lat="49.14061" lon="1.29433">
        <ele>149.39999389648</ele>
        <time>2021-05-08T09:53:14.000Z</time>
      </trkpt>
      <trkpt lat="49.14066" lon="1.29453">
        <ele>149.39999389648</ele>
        <time>2021-05-08T09:53:16.000Z</time>
      </trkpt>
      <trkpt lat="49.14088" lon="1.29532">
        <ele>148.39999389648</ele>
        <time>2021-05-08T09:53:24.000Z</time>
      </trkpt>
      <trkpt lat="49.1409" lon="1.29542">
        <ele>148.39999389648</ele>
        <time>2021-05-08T09:53:25.000Z</time>
      </trkpt>
      <trkpt lat="49.14093" lon="1.29552">
        <ele>148.19999694824</ele>
        <time>2021-05-08T09:53:26.000Z</time>
      </trkpt>
      <trkpt lat="49.14109" lon="1.2961">
        <ele>147.39999389648</ele>
        <time>2021-05-08T09:53:32.000Z</time>
      </trkpt>
      <trkpt lat="49.14117" lon="1.29639">
        <ele>147.19999694824</ele>
        <time>2021-05-08T09:53:35.000Z</time>
      </trkpt>
      <trkpt lat="49.14135" lon="1.29701">
        <ele>146</ele>
        <time>2021-05-08T09:53:41.000Z</time>
      </trkpt>
      <trkpt lat="49.14155" lon="1.29772">
        <ele>145</ele>
        <time>2021-05-08T09:53:48.000Z</time>
      </trkpt>
      <trkpt lat="49.14161" lon="1.29791">
        <ele>144.60000610352</ele>
        <time>2021-05-08T09:53:50.000Z</time>
      </trkpt>
      <trkpt lat="49.14174" lon="1.29814">
        <ele>144.39999389648</ele>
        <time>2021-05-08T09:53:53.000Z</time>
      </trkpt>
      <trkpt lat="49.14179" lon="1.2982">
        <ele>144.39999389648</ele>
        <time>2021-05-08T09:53:54.000Z</time>
      </trkpt>
      <trkpt lat="49.14199" lon="1.29838">
        <ele>144.39999389648</ele>
        <time>2021-05-08T09:53:58.000Z</time>
      </trkpt>
      <trkpt lat="49.14204" lon="1.29841">
        <ele>144.39999389648</ele>
        <time>2021-05-08T09:53:59.000Z</time>
      </trkpt>
      <trkpt lat="49.14248" lon="1.29862">
        <ele>145.39999389648</ele>
        <time>2021-05-08T09:54:08.000Z</time>
      </trkpt>
      <trkpt lat="49.14258" lon="1.29867">
        <ele>146.19999694824</ele>
        <time>2021-05-08T09:54:10.000Z</time>
      </trkpt>
      <trkpt lat="49.14272" lon="1.29873">
        <ele>147.39999389648</ele>
        <time>2021-05-08T09:54:13.000Z</time>
      </trkpt>
      <trkpt lat="49.14292" lon="1.29882">
        <ele>148.39999389648</ele>
        <time>2021-05-08T09:54:17.000Z</time>
      </trkpt>
      <trkpt lat="49.14302" lon="1.29887">
        <ele>148.80000305176</ele>
        <time>2021-05-08T09:54:19.000Z</time>
      </trkpt>
      <trkpt lat="49.14321" lon="1.29895">
        <ele>149.19999694824</ele>
        <time>2021-05-08T09:54:23.000Z</time>
      </trkpt>
      <trkpt lat="49.14332" lon="1.29896">
        <ele>149.60000610352</ele>
        <time>2021-05-08T09:54:25.000Z</time>
      </trkpt>
      <trkpt lat="49.14337" lon="1.29897">
        <ele>149.80000305176</ele>
        <time>2021-05-08T09:54:26.000Z</time>
      </trkpt>
      <trkpt lat="49.1435" lon="1.29901">
        <ele>150.19999694824</ele>
        <time>2021-05-08T09:54:29.000Z</time>
      </trkpt>
      <trkpt lat="49.14361" lon="1.29909">
        <ele>150.39999389648</ele>
        <time>2021-05-08T09:54:32.000Z</time>
      </trkpt>
      <trkpt lat="49.14368" lon="1.29913">
        <ele>150.60000610352</ele>
        <time>2021-05-08T09:54:34.000Z</time>
      </trkpt>
      <trkpt lat="49.14378" lon="1.29918">
        <ele>151.19999694824</ele>
        <time>2021-05-08T09:54:37.000Z</time>
      </trkpt>
      <trkpt lat="49.14388" lon="1.29922">
        <ele>151.80000305176</ele>
        <time>2021-05-08T09:54:40.000Z</time>
      </trkpt>
      <trkpt lat="49.14405" lon="1.29929">
        <ele>152.80000305176</ele>
        <time>2021-05-08T09:54:45.000Z</time>
      </trkpt>
      <trkpt lat="49.14408" lon="1.2993">
        <ele>153.19999694824</ele>
        <time>2021-05-08T09:54:46.000Z</time>
      </trkpt>
      <trkpt lat="49.14422" lon="1.29936">
        <ele>154</ele>
        <time>2021-05-08T09:54:50.000Z</time>
      </trkpt>
      <trkpt lat="49.14438" lon="1.29942">
        <ele>154.80000305176</ele>
        <time>2021-05-08T09:54:54.000Z</time>
      </trkpt>
      <trkpt lat="49.14454" lon="1.29949">
        <ele>155.19999694824</ele>
        <time>2021-05-08T09:54:58.000Z</time>
      </trkpt>
      <trkpt lat="49.14475" lon="1.29957">
        <ele>155.60000610352</ele>
        <time>2021-05-08T09:55:03.000Z</time>
      </trkpt>
      <trkpt lat="49.14501" lon="1.29962">
        <ele>155.80000305176</ele>
        <time>2021-05-08T09:55:10.000Z</time>
      </trkpt>
      <trkpt lat="49.14505" lon="1.2996">
        <ele>155.80000305176</ele>
        <time>2021-05-08T09:55:12.000Z</time>
      </trkpt>
      <trkpt lat="49.14509" lon="1.29964">
        <ele>155.80000305176</ele>
        <time>2021-05-08T09:55:14.000Z</time>
      </trkpt>
      <trkpt lat="49.14523" lon="1.29975">
        <ele>155.80000305176</ele>
        <time>2021-05-08T09:55:19.000Z</time>
      </trkpt>
      <trkpt lat="49.14551" lon="1.29987">
        <ele>155.80000305176</ele>
        <time>2021-05-08T09:55:25.000Z</time>
      </trkpt>
      <trkpt lat="49.14585" lon="1.30003">
        <ele>155.19999694824</ele>
        <time>2021-05-08T09:55:31.000Z</time>
      </trkpt>
      <trkpt lat="49.14602" lon="1.30015">
        <ele>154.39999389648</ele>
        <time>2021-05-08T09:55:34.000Z</time>
      </trkpt>
      <trkpt lat="49.1462" lon="1.30029">
        <ele>153.19999694824</ele>
        <time>2021-05-08T09:55:37.000Z</time>
      </trkpt>
      <trkpt lat="49.14625" lon="1.30033">
        <ele>153</ele>
        <time>2021-05-08T09:55:38.000Z</time>
      </trkpt>
      <trkpt lat="49.14643" lon="1.30049">
        <ele>151.80000305176</ele>
        <time>2021-05-08T09:55:41.000Z</time>
      </trkpt>
      <trkpt lat="49.14666" lon="1.3007">
        <ele>150.80000305176</ele>
        <time>2021-05-08T09:55:45.000Z</time>
      </trkpt>
      <trkpt lat="49.14693" lon="1.30095">
        <ele>149.80000305176</ele>
        <time>2021-05-08T09:55:50.000Z</time>
      </trkpt>
      <trkpt lat="49.14715" lon="1.30115">
        <ele>149.19999694824</ele>
        <time>2021-05-08T09:55:54.000Z</time>
      </trkpt>
      <trkpt lat="49.14745" lon="1.30153">
        <ele>149</ele>
        <time>2021-05-08T09:56:00.000Z</time>
      </trkpt>
      <trkpt lat="49.14768" lon="1.30205">
        <ele>148.80000305176</ele>
        <time>2021-05-08T09:56:06.000Z</time>
      </trkpt>
      <trkpt lat="49.1478" lon="1.30243">
        <ele>148.60000610352</ele>
        <time>2021-05-08T09:56:10.000Z</time>
      </trkpt>
      <trkpt lat="49.14795" lon="1.30293">
        <ele>148.39999389648</ele>
        <time>2021-05-08T09:56:15.000Z</time>
      </trkpt>
      <trkpt lat="49.14816" lon="1.30366">
        <ele>147.60000610352</ele>
        <time>2021-05-08T09:56:22.000Z</time>
      </trkpt>
      <trkpt lat="49.14822" lon="1.30386">
        <ele>147.39999389648</ele>
        <time>2021-05-08T09:56:24.000Z</time>
      </trkpt>
      <trkpt lat="49.14836" lon="1.30437">
        <ele>146.80000305176</ele>
        <time>2021-05-08T09:56:29.000Z</time>
      </trkpt>
      <trkpt lat="49.14846" lon="1.30476">
        <ele>146.60000610352</ele>
        <time>2021-05-08T09:56:33.000Z</time>
      </trkpt>
      <trkpt lat="49.14855" lon="1.30505">
        <ele>146.39999389648</ele>
        <time>2021-05-08T09:56:36.000Z</time>
      </trkpt>
      <trkpt lat="49.14875" lon="1.30576">
        <ele>146</ele>
        <time>2021-05-08T09:56:43.000Z</time>
      </trkpt>
      <trkpt lat="49.1488" lon="1.30597">
        <ele>145.39999389648</ele>
        <time>2021-05-08T09:56:45.000Z</time>
      </trkpt>
      <trkpt lat="49.14899" lon="1.30661">
        <ele>144.60000610352</ele>
        <time>2021-05-08T09:56:51.000Z</time>
      </trkpt>
      <trkpt lat="49.14902" lon="1.30671">
        <ele>144.39999389648</ele>
        <time>2021-05-08T09:56:52.000Z</time>
      </trkpt>
      <trkpt lat="49.14916" lon="1.30724">
        <ele>143.39999389648</ele>
        <time>2021-05-08T09:56:57.000Z</time>
      </trkpt>
      <trkpt lat="49.1492" lon="1.30735">
        <ele>143.19999694824</ele>
        <time>2021-05-08T09:56:58.000Z</time>
      </trkpt>
      <trkpt lat="49.14929" lon="1.30768">
        <ele>142.80000305176</ele>
        <time>2021-05-08T09:57:01.000Z</time>
      </trkpt>
      <trkpt lat="49.14929" lon="1.30779">
        <ele>142.60000610352</ele>
        <time>2021-05-08T09:57:02.000Z</time>
      </trkpt>
      <trkpt lat="49.14924" lon="1.308">
        <ele>142.19999694824</ele>
        <time>2021-05-08T09:57:04.000Z</time>
      </trkpt>
      <trkpt lat="49.1492" lon="1.30809">
        <ele>142.19999694824</ele>
        <time>2021-05-08T09:57:05.000Z</time>
      </trkpt>
      <trkpt lat="49.14917" lon="1.30816">
        <ele>142</ele>
        <time>2021-05-08T09:57:06.000Z</time>
      </trkpt>
      <trkpt lat="49.14903" lon="1.30842">
        <ele>141.19999694824</ele>
        <time>2021-05-08T09:57:10.000Z</time>
      </trkpt>
      <trkpt lat="49.14894" lon="1.30857">
        <ele>140</ele>
        <time>2021-05-08T09:57:13.000Z</time>
      </trkpt>
      <trkpt lat="49.14881" lon="1.30874">
        <ele>139.39999389648</ele>
        <time>2021-05-08T09:57:17.000Z</time>
      </trkpt>
      <trkpt lat="49.14863" lon="1.3089">
        <ele>139.80000305176</ele>
        <time>2021-05-08T09:57:22.000Z</time>
      </trkpt>
      <trkpt lat="49.14855" lon="1.30895">
        <ele>140.19999694824</ele>
        <time>2021-05-08T09:57:24.000Z</time>
      </trkpt>
      <trkpt lat="49.14839" lon="1.30905">
        <ele>140.80000305176</ele>
        <time>2021-05-08T09:57:28.000Z</time>
      </trkpt>
      <trkpt lat="49.14822" lon="1.30915">
        <ele>141.19999694824</ele>
        <time>2021-05-08T09:57:32.000Z</time>
      </trkpt>
      <trkpt lat="49.1481" lon="1.30924">
        <ele>141.80000305176</ele>
        <time>2021-05-08T09:57:35.000Z</time>
      </trkpt>
      <trkpt lat="49.14793" lon="1.30934">
        <ele>142.39999389648</ele>
        <time>2021-05-08T09:57:39.000Z</time>
      </trkpt>
      <trkpt lat="49.14769" lon="1.30949">
        <ele>142.60000610352</ele>
        <time>2021-05-08T09:57:45.000Z</time>
      </trkpt>
      <trkpt lat="49.14748" lon="1.30965">
        <ele>142.80000305176</ele>
        <time>2021-05-08T09:57:50.000Z</time>
      </trkpt>
      <trkpt lat="49.14744" lon="1.30968">
        <ele>143</ele>
        <time>2021-05-08T09:57:51.000Z</time>
      </trkpt>
      <trkpt lat="49.14733" lon="1.30978">
        <ele>143.60000610352</ele>
        <time>2021-05-08T09:57:54.000Z</time>
      </trkpt>
      <trkpt lat="49.14726" lon="1.30987">
        <ele>144</ele>
        <time>2021-05-08T09:57:56.000Z</time>
      </trkpt>
      <trkpt lat="49.14721" lon="1.3101">
        <ele>144.19999694824</ele>
        <time>2021-05-08T09:58:00.000Z</time>
      </trkpt>
      <trkpt lat="49.14722" lon="1.31017">
        <ele>144.19999694824</ele>
        <time>2021-05-08T09:58:01.000Z</time>
      </trkpt>
      <trkpt lat="49.14723" lon="1.31056">
        <ele>144.19999694824</ele>
        <time>2021-05-08T09:58:06.000Z</time>
      </trkpt>
      <trkpt lat="49.14721" lon="1.31071">
        <ele>144.19999694824</ele>
        <time>2021-05-08T09:58:08.000Z</time>
      </trkpt>
      <trkpt lat="49.14719" lon="1.31084">
        <ele>144.19999694824</ele>
        <time>2021-05-08T09:58:10.000Z</time>
      </trkpt>
      <trkpt lat="49.14716" lon="1.31103">
        <ele>144</ele>
        <time>2021-05-08T09:58:13.000Z</time>
      </trkpt>
      <trkpt lat="49.14714" lon="1.31109">
        <ele>143.80000305176</ele>
        <time>2021-05-08T09:58:14.000Z</time>
      </trkpt>
      <trkpt lat="49.14711" lon="1.31128">
        <ele>143.19999694824</ele>
        <time>2021-05-08T09:58:17.000Z</time>
      </trkpt>
      <trkpt lat="49.14707" lon="1.31143">
        <ele>143.19999694824</ele>
        <time>2021-05-08T09:58:19.000Z</time>
      </trkpt>
      <trkpt lat="49.14705" lon="1.3115">
        <ele>143.19999694824</ele>
        <time>2021-05-08T09:58:20.000Z</time>
      </trkpt>
      <trkpt lat="49.14696" lon="1.31169">
        <ele>143</ele>
        <time>2021-05-08T09:58:23.000Z</time>
      </trkpt>
      <trkpt lat="49.14693" lon="1.31174">
        <ele>143</ele>
        <time>2021-05-08T09:58:24.000Z</time>
      </trkpt>
      <trkpt lat="49.14677" lon="1.312">
        <ele>142.39999389648</ele>
        <time>2021-05-08T09:58:29.000Z</time>
      </trkpt>
      <trkpt lat="49.14666" lon="1.31221">
        <ele>141.80000305176</ele>
        <time>2021-05-08T09:58:33.000Z</time>
      </trkpt>
      <trkpt lat="49.14664" lon="1.31228">
        <ele>141.60000610352</ele>
        <time>2021-05-08T09:58:34.000Z</time>
      </trkpt>
      <trkpt lat="49.14665" lon="1.31244">
        <ele>141</ele>
        <time>2021-05-08T09:58:37.000Z</time>
      </trkpt>
      <trkpt lat="49.14669" lon="1.31251">
        <ele>140.39999389648</ele>
        <time>2021-05-08T09:58:39.000Z</time>
      </trkpt>
      <trkpt lat="49.14672" lon="1.31257">
        <ele>140.19999694824</ele>
        <time>2021-05-08T09:58:41.000Z</time>
      </trkpt>
      <trkpt lat="49.14674" lon="1.31261">
        <ele>140</ele>
        <time>2021-05-08T09:58:42.000Z</time>
      </trkpt>
      <trkpt lat="49.14681" lon="1.3127">
        <ele>140</ele>
        <time>2021-05-08T09:58:45.000Z</time>
      </trkpt>
      <trkpt lat="49.14684" lon="1.31273">
        <ele>140</ele>
        <time>2021-05-08T09:58:46.000Z</time>
      </trkpt>
      <trkpt lat="49.14701" lon="1.31292">
        <ele>140.19999694824</ele>
        <time>2021-05-08T09:58:52.000Z</time>
      </trkpt>
      <trkpt lat="49.14715" lon="1.31306">
        <ele>140.39999389648</ele>
        <time>2021-05-08T09:58:56.000Z</time>
      </trkpt>
      <trkpt lat="49.14734" lon="1.31325">
        <ele>140.39999389648</ele>
        <time>2021-05-08T09:59:01.000Z</time>
      </trkpt>
      <trkpt lat="49.1476" lon="1.31351">
        <ele>140.80000305176</ele>
        <time>2021-05-08T09:59:08.000Z</time>
      </trkpt>
      <trkpt lat="49.14769" lon="1.31362">
        <ele>140.80000305176</ele>
        <time>2021-05-08T09:59:11.000Z</time>
      </trkpt>
      <trkpt lat="49.14773" lon="1.31367">
        <ele>141</ele>
        <time>2021-05-08T09:59:12.000Z</time>
      </trkpt>
      <trkpt lat="49.148" lon="1.31393">
        <ele>141.19999694824</ele>
        <time>2021-05-08T09:59:19.000Z</time>
      </trkpt>
      <trkpt lat="49.1481" lon="1.31405">
        <ele>141.19999694824</ele>
        <time>2021-05-08T09:59:22.000Z</time>
      </trkpt>
      <trkpt lat="49.1482" lon="1.31415">
        <ele>141.39999389648</ele>
        <time>2021-05-08T09:59:25.000Z</time>
      </trkpt>
      <trkpt lat="49.14844" lon="1.31436">
        <ele>141.60000610352</ele>
        <time>2021-05-08T09:59:31.000Z</time>
      </trkpt>
      <trkpt lat="49.1487" lon="1.3146">
        <ele>141.60000610352</ele>
        <time>2021-05-08T09:59:38.000Z</time>
      </trkpt>
      <trkpt lat="49.14885" lon="1.31477">
        <ele>141.60000610352</ele>
        <time>2021-05-08T09:59:43.000Z</time>
      </trkpt>
      <trkpt lat="49.14895" lon="1.31484">
        <ele>141.60000610352</ele>
        <time>2021-05-08T09:59:46.000Z</time>
      </trkpt>
      <trkpt lat="49.14905" lon="1.31491">
        <ele>141.39999389648</ele>
        <time>2021-05-08T09:59:50.000Z</time>
      </trkpt>
      <trkpt lat="49.14908" lon="1.31494">
        <ele>141.39999389648</ele>
        <time>2021-05-08T09:59:51.000Z</time>
      </trkpt>
      <trkpt lat="49.14923" lon="1.31511">
        <ele>141.39999389648</ele>
        <time>2021-05-08T09:59:56.000Z</time>
      </trkpt>
      <trkpt lat="49.14939" lon="1.31529">
        <ele>141.19999694824</ele>
        <time>2021-05-08T10:00:01.000Z</time>
      </trkpt>
      <trkpt lat="49.14953" lon="1.31546">
        <ele>140.80000305176</ele>
        <time>2021-05-08T10:00:06.000Z</time>
      </trkpt>
      <trkpt lat="49.14955" lon="1.31549">
        <ele>140.80000305176</ele>
        <time>2021-05-08T10:00:07.000Z</time>
      </trkpt>
      <trkpt lat="49.14963" lon="1.31554">
        <ele>140.60000610352</ele>
        <time>2021-05-08T10:00:10.000Z</time>
      </trkpt>
      <trkpt lat="49.14967" lon="1.31558">
        <ele>140.19999694824</ele>
        <time>2021-05-08T10:00:12.000Z</time>
      </trkpt>
      <trkpt lat="49.14978" lon="1.31567">
        <ele>139.80000305176</ele>
        <time>2021-05-08T10:00:17.000Z</time>
      </trkpt>
      <trkpt lat="49.14984" lon="1.31573">
        <ele>139.80000305176</ele>
        <time>2021-05-08T10:00:19.000Z</time>
      </trkpt>
      <trkpt lat="49.14989" lon="1.31577">
        <ele>139.80000305176</ele>
        <time>2021-05-08T10:00:21.000Z</time>
      </trkpt>
      <trkpt lat="49.14998" lon="1.31587">
        <ele>139.39999389648</ele>
        <time>2021-05-08T10:00:24.000Z</time>
      </trkpt>
      <trkpt lat="49.15004" lon="1.31592">
        <ele>139</ele>
        <time>2021-05-08T10:00:26.000Z</time>
      </trkpt>
      <trkpt lat="49.15007" lon="1.31595">
        <ele>139</ele>
        <time>2021-05-08T10:00:27.000Z</time>
      </trkpt>
      <trkpt lat="49.15012" lon="1.316">
        <ele>138.60000610352</ele>
        <time>2021-05-08T10:00:30.000Z</time>
      </trkpt>
      <trkpt lat="49.15013" lon="1.31601">
        <ele>138.39999389648</ele>
        <time>2021-05-08T10:00:31.000Z</time>
      </trkpt>
      <trkpt lat="49.15015" lon="1.31605">
        <ele>137.80000305176</ele>
        <time>2021-05-08T10:00:45.000Z</time>
      </trkpt>
      <trkpt lat="49.15016" lon="1.31609">
        <ele>137.80000305176</ele>
        <time>2021-05-08T10:00:47.000Z</time>
      </trkpt>
      <trkpt lat="49.1502" lon="1.31614">
        <ele>137.80000305176</ele>
        <time>2021-05-08T10:00:49.000Z</time>
      </trkpt>
      <trkpt lat="49.15027" lon="1.31621">
        <ele>137.80000305176</ele>
        <time>2021-05-08T10:00:51.000Z</time>
      </trkpt>
      <trkpt lat="49.15044" lon="1.31642">
        <ele>137.60000610352</ele>
        <time>2021-05-08T10:00:55.000Z</time>
      </trkpt>
      <trkpt lat="49.15066" lon="1.31673">
        <ele>136.39999389648</ele>
        <time>2021-05-08T10:01:00.000Z</time>
      </trkpt>
      <trkpt lat="49.15077" lon="1.31686">
        <ele>135.19999694824</ele>
        <time>2021-05-08T10:01:02.000Z</time>
      </trkpt>
      <trkpt lat="49.15097" lon="1.31711">
        <ele>134</ele>
        <time>2021-05-08T10:01:06.000Z</time>
      </trkpt>
      <trkpt lat="49.15102" lon="1.31718">
        <ele>133.60000610352</ele>
        <time>2021-05-08T10:01:07.000Z</time>
      </trkpt>
      <trkpt lat="49.15108" lon="1.31726">
        <ele>133.19999694824</ele>
        <time>2021-05-08T10:01:08.000Z</time>
      </trkpt>
      <trkpt lat="49.15113" lon="1.31733">
        <ele>132.80000305176</ele>
        <time>2021-05-08T10:01:09.000Z</time>
      </trkpt>
      <trkpt lat="49.15125" lon="1.3175">
        <ele>132.19999694824</ele>
        <time>2021-05-08T10:01:11.000Z</time>
      </trkpt>
      <trkpt lat="49.15137" lon="1.31768">
        <ele>131.60000610352</ele>
        <time>2021-05-08T10:01:13.000Z</time>
      </trkpt>
      <trkpt lat="49.15142" lon="1.31777">
        <ele>131.39999389648</ele>
        <time>2021-05-08T10:01:14.000Z</time>
      </trkpt>
      <trkpt lat="49.1515" lon="1.31797">
        <ele>130.60000610352</ele>
        <time>2021-05-08T10:01:16.000Z</time>
      </trkpt>
      <trkpt lat="49.15154" lon="1.31807">
        <ele>130.19999694824</ele>
        <time>2021-05-08T10:01:17.000Z</time>
      </trkpt>
      <trkpt lat="49.15162" lon="1.31824">
        <ele>129.60000610352</ele>
        <time>2021-05-08T10:01:19.000Z</time>
      </trkpt>
      <trkpt lat="49.15167" lon="1.31832">
        <ele>129.39999389648</ele>
        <time>2021-05-08T10:01:20.000Z</time>
      </trkpt>
      <trkpt lat="49.15172" lon="1.31838">
        <ele>128.80000305176</ele>
        <time>2021-05-08T10:01:21.000Z</time>
      </trkpt>
      <trkpt lat="49.15186" lon="1.31857">
        <ele>128.19999694824</ele>
        <time>2021-05-08T10:01:24.000Z</time>
      </trkpt>
      <trkpt lat="49.15196" lon="1.31868">
        <ele>127.80000305176</ele>
        <time>2021-05-08T10:01:26.000Z</time>
      </trkpt>
      <trkpt lat="49.15216" lon="1.31889">
        <ele>127.40000152588</ele>
        <time>2021-05-08T10:01:30.000Z</time>
      </trkpt>
      <trkpt lat="49.15234" lon="1.31911">
        <ele>127</ele>
        <time>2021-05-08T10:01:34.000Z</time>
      </trkpt>
      <trkpt lat="49.15239" lon="1.31915">
        <ele>127</ele>
        <time>2021-05-08T10:01:35.000Z</time>
      </trkpt>
      <trkpt lat="49.15244" lon="1.3192">
        <ele>126.80000305176</ele>
        <time>2021-05-08T10:01:36.000Z</time>
      </trkpt>
      <trkpt lat="49.15248" lon="1.31926">
        <ele>126.59999847412</ele>
        <time>2021-05-08T10:01:37.000Z</time>
      </trkpt>
      <trkpt lat="49.15252" lon="1.31931">
        <ele>126.59999847412</ele>
        <time>2021-05-08T10:01:38.000Z</time>
      </trkpt>
      <trkpt lat="49.1526" lon="1.31944">
        <ele>126.40000152588</ele>
        <time>2021-05-08T10:01:40.000Z</time>
      </trkpt>
      <trkpt lat="49.15268" lon="1.31957">
        <ele>126.19999694824</ele>
        <time>2021-05-08T10:01:42.000Z</time>
      </trkpt>
      <trkpt lat="49.1528" lon="1.31977">
        <ele>126.19999694824</ele>
        <time>2021-05-08T10:01:45.000Z</time>
      </trkpt>
      <trkpt lat="49.15289" lon="1.31991">
        <ele>125.80000305176</ele>
        <time>2021-05-08T10:01:47.000Z</time>
      </trkpt>
      <trkpt lat="49.15298" lon="1.32006">
        <ele>125.59999847412</ele>
        <time>2021-05-08T10:01:49.000Z</time>
      </trkpt>
      <trkpt lat="49.15306" lon="1.32022">
        <ele>125.19999694824</ele>
        <time>2021-05-08T10:01:51.000Z</time>
      </trkpt>
      <trkpt lat="49.15325" lon="1.32057">
        <ele>124.40000152588</ele>
        <time>2021-05-08T10:01:55.000Z</time>
      </trkpt>
      <trkpt lat="49.15345" lon="1.32092">
        <ele>123.59999847412</ele>
        <time>2021-05-08T10:01:59.000Z</time>
      </trkpt>
      <trkpt lat="49.15349" lon="1.321">
        <ele>123.40000152588</ele>
        <time>2021-05-08T10:02:00.000Z</time>
      </trkpt>
      <trkpt lat="49.15366" lon="1.32133">
        <ele>122.19999694824</ele>
        <time>2021-05-08T10:02:04.000Z</time>
      </trkpt>
      <trkpt lat="49.15373" lon="1.32146">
        <ele>121.59999847412</ele>
        <time>2021-05-08T10:02:06.000Z</time>
      </trkpt>
      <trkpt lat="49.15376" lon="1.32152">
        <ele>121.40000152588</ele>
        <time>2021-05-08T10:02:07.000Z</time>
      </trkpt>
      <trkpt lat="49.15379" lon="1.32158">
        <ele>121</ele>
        <time>2021-05-08T10:02:08.000Z</time>
      </trkpt>
      <trkpt lat="49.15386" lon="1.32172">
        <ele>120.80000305176</ele>
        <time>2021-05-08T10:02:10.000Z</time>
      </trkpt>
      <trkpt lat="49.15389" lon="1.32179">
        <ele>120.59999847412</ele>
        <time>2021-05-08T10:02:11.000Z</time>
      </trkpt>
      <trkpt lat="49.15399" lon="1.322">
        <ele>120</ele>
        <time>2021-05-08T10:02:14.000Z</time>
      </trkpt>
      <trkpt lat="49.15406" lon="1.32216">
        <ele>119.59999847412</ele>
        <time>2021-05-08T10:02:16.000Z</time>
      </trkpt>
      <trkpt lat="49.15414" lon="1.32232">
        <ele>118.80000305176</ele>
        <time>2021-05-08T10:02:18.000Z</time>
      </trkpt>
      <trkpt lat="49.15426" lon="1.32254">
        <ele>117.59999847412</ele>
        <time>2021-05-08T10:02:21.000Z</time>
      </trkpt>
      <trkpt lat="49.15441" lon="1.32276">
        <ele>116.59999847412</ele>
        <time>2021-05-08T10:02:24.000Z</time>
      </trkpt>
      <trkpt lat="49.15451" lon="1.32289">
        <ele>115</ele>
        <time>2021-05-08T10:02:26.000Z</time>
      </trkpt>
      <trkpt lat="49.15455" lon="1.32297">
        <ele>114.40000152588</ele>
        <time>2021-05-08T10:02:27.000Z</time>
      </trkpt>
      <trkpt lat="49.15471" lon="1.32321">
        <ele>113.80000305176</ele>
        <time>2021-05-08T10:02:30.000Z</time>
      </trkpt>
      <trkpt lat="49.15483" lon="1.32338">
        <ele>113.40000152588</ele>
        <time>2021-05-08T10:02:32.000Z</time>
      </trkpt>
      <trkpt lat="49.15493" lon="1.32356">
        <ele>112.59999847412</ele>
        <time>2021-05-08T10:02:34.000Z</time>
      </trkpt>
      <trkpt lat="49.15519" lon="1.32403">
        <ele>111.59999847412</ele>
        <time>2021-05-08T10:02:39.000Z</time>
      </trkpt>
      <trkpt lat="49.15534" lon="1.32432">
        <ele>110.40000152588</ele>
        <time>2021-05-08T10:02:42.000Z</time>
      </trkpt>
      <trkpt lat="49.15548" lon="1.3246">
        <ele>109.40000152588</ele>
        <time>2021-05-08T10:02:45.000Z</time>
      </trkpt>
      <trkpt lat="49.15552" lon="1.3247">
        <ele>109.19999694824</ele>
        <time>2021-05-08T10:02:46.000Z</time>
      </trkpt>
      <trkpt lat="49.15555" lon="1.32482">
        <ele>108.59999847412</ele>
        <time>2021-05-08T10:02:47.000Z</time>
      </trkpt>
      <trkpt lat="49.15552" lon="1.32505">
        <ele>108.19999694824</ele>
        <time>2021-05-08T10:02:49.000Z</time>
      </trkpt>
      <trkpt lat="49.15546" lon="1.3254">
        <ele>107.40000152588</ele>
        <time>2021-05-08T10:02:52.000Z</time>
      </trkpt>
      <trkpt lat="49.15547" lon="1.32552">
        <ele>107</ele>
        <time>2021-05-08T10:02:53.000Z</time>
      </trkpt>
      <trkpt lat="49.15555" lon="1.32571">
        <ele>106.19999694824</ele>
        <time>2021-05-08T10:02:55.000Z</time>
      </trkpt>
      <trkpt lat="49.15562" lon="1.32577">
        <ele>105.80000305176</ele>
        <time>2021-05-08T10:02:56.000Z</time>
      </trkpt>
      <trkpt lat="49.15576" lon="1.32588">
        <ele>105</ele>
        <time>2021-05-08T10:02:58.000Z</time>
      </trkpt>
      <trkpt lat="49.15584" lon="1.32592">
        <ele>104.59999847412</ele>
        <time>2021-05-08T10:02:59.000Z</time>
      </trkpt>
      <trkpt lat="49.15607" lon="1.3261">
        <ele>103.59999847412</ele>
        <time>2021-05-08T10:03:02.000Z</time>
      </trkpt>
      <trkpt lat="49.15613" lon="1.32619">
        <ele>103.19999694824</ele>
        <time>2021-05-08T10:03:03.000Z</time>
      </trkpt>
      <trkpt lat="49.15623" lon="1.32657">
        <ele>102.40000152588</ele>
        <time>2021-05-08T10:03:06.000Z</time>
      </trkpt>
      <trkpt lat="49.15628" lon="1.32684">
        <ele>101.40000152588</ele>
        <time>2021-05-08T10:03:08.000Z</time>
      </trkpt>
      <trkpt lat="49.15633" lon="1.32712">
        <ele>99.599998474121</ele>
        <time>2021-05-08T10:03:10.000Z</time>
      </trkpt>
      <trkpt lat="49.15637" lon="1.32726">
        <ele>98.800003051758</ele>
        <time>2021-05-08T10:03:11.000Z</time>
      </trkpt>
      <trkpt lat="49.15642" lon="1.32739">
        <ele>98</ele>
        <time>2021-05-08T10:03:12.000Z</time>
      </trkpt>
      <trkpt lat="49.15645" lon="1.32751">
        <ele>97.199996948242</ele>
        <time>2021-05-08T10:03:13.000Z</time>
      </trkpt>
      <trkpt lat="49.15647" lon="1.32764">
        <ele>96.400001525879</ele>
        <time>2021-05-08T10:03:14.000Z</time>
      </trkpt>
      <trkpt lat="49.15646" lon="1.32777">
        <ele>95.800003051758</ele>
        <time>2021-05-08T10:03:15.000Z</time>
      </trkpt>
      <trkpt lat="49.15642" lon="1.32788">
        <ele>95.400001525879</ele>
        <time>2021-05-08T10:03:16.000Z</time>
      </trkpt>
      <trkpt lat="49.15635" lon="1.32809">
        <ele>94.400001525879</ele>
        <time>2021-05-08T10:03:18.000Z</time>
      </trkpt>
      <trkpt lat="49.15633" lon="1.32821">
        <ele>93.599998474121</ele>
        <time>2021-05-08T10:03:19.000Z</time>
      </trkpt>
      <trkpt lat="49.15631" lon="1.32832">
        <ele>93</ele>
        <time>2021-05-08T10:03:20.000Z</time>
      </trkpt>
      <trkpt lat="49.15629" lon="1.32842">
        <ele>92.199996948242</ele>
        <time>2021-05-08T10:03:21.000Z</time>
      </trkpt>
      <trkpt lat="49.15625" lon="1.32863">
        <ele>90.199996948242</ele>
        <time>2021-05-08T10:03:23.000Z</time>
      </trkpt>
      <trkpt lat="49.15616" lon="1.32931">
        <ele>89.599998474121</ele>
        <time>2021-05-08T10:03:30.000Z</time>
      </trkpt>
      <trkpt lat="49.15612" lon="1.3296">
        <ele>89.599998474121</ele>
        <time>2021-05-08T10:03:33.000Z</time>
      </trkpt>
      <trkpt lat="49.15607" lon="1.32976">
        <ele>89.800003051758</ele>
        <time>2021-05-08T10:03:35.000Z</time>
      </trkpt>
      <trkpt lat="49.15609" lon="1.32991">
        <ele>90</ele>
        <time>2021-05-08T10:03:37.000Z</time>
      </trkpt>
      <trkpt lat="49.15618" lon="1.32997">
        <ele>90</ele>
        <time>2021-05-08T10:03:39.000Z</time>
      </trkpt>
      <trkpt lat="49.15623" lon="1.33">
        <ele>90.199996948242</ele>
        <time>2021-05-08T10:03:40.000Z</time>
      </trkpt>
      <trkpt lat="49.15638" lon="1.33018">
        <ele>90.199996948242</ele>
        <time>2021-05-08T10:03:43.000Z</time>
      </trkpt>
      <trkpt lat="49.15665" lon="1.33051">
        <ele>90.199996948242</ele>
        <time>2021-05-08T10:03:47.000Z</time>
      </trkpt>
      <trkpt lat="49.15676" lon="1.33066">
        <ele>90</ele>
        <time>2021-05-08T10:03:49.000Z</time>
      </trkpt>
      <trkpt lat="49.15678" lon="1.33072">
        <ele>90</ele>
        <time>2021-05-08T10:03:50.000Z</time>
      </trkpt>
      <trkpt lat="49.15679" lon="1.33078">
        <ele>89.800003051758</ele>
        <time>2021-05-08T10:03:51.000Z</time>
      </trkpt>
      <trkpt lat="49.15678" lon="1.3309">
        <ele>88.199996948242</ele>
        <time>2021-05-08T10:03:53.000Z</time>
      </trkpt>
      <trkpt lat="49.15677" lon="1.33095">
        <ele>87</ele>
        <time>2021-05-08T10:03:54.000Z</time>
      </trkpt>
      <trkpt lat="49.15676" lon="1.33099">
        <ele>85.800003051758</ele>
        <time>2021-05-08T10:03:55.000Z</time>
      </trkpt>
      <trkpt lat="49.15676" lon="1.33103">
        <ele>84.599998474121</ele>
        <time>2021-05-08T10:03:56.000Z</time>
      </trkpt>
      <trkpt lat="49.15677" lon="1.33106">
        <ele>83.800003051758</ele>
        <time>2021-05-08T10:03:57.000Z</time>
      </trkpt>
      <trkpt lat="49.15679" lon="1.33109">
        <ele>83.400001525879</ele>
        <time>2021-05-08T10:03:58.000Z</time>
      </trkpt>
      <trkpt lat="49.15684" lon="1.33118">
        <ele>83</ele>
        <time>2021-05-08T10:04:00.000Z</time>
      </trkpt>
      <trkpt lat="49.15686" lon="1.33121">
        <ele>83</ele>
        <time>2021-05-08T10:04:01.000Z</time>
      </trkpt>
      <trkpt lat="49.15695" lon="1.33113">
        <ele>82.800003051758</ele>
        <time>2021-05-08T10:04:04.000Z</time>
      </trkpt>
      <trkpt lat="49.157" lon="1.33107">
        <ele>82.599998474121</ele>
        <time>2021-05-08T10:04:05.000Z</time>
      </trkpt>
      <trkpt lat="49.15712" lon="1.33092">
        <ele>82.599998474121</ele>
        <time>2021-05-08T10:04:07.000Z</time>
      </trkpt>
      <trkpt lat="49.15718" lon="1.33081">
        <ele>82.400001525879</ele>
        <time>2021-05-08T10:04:08.000Z</time>
      </trkpt>
      <trkpt lat="49.15724" lon="1.3307">
        <ele>81.800003051758</ele>
        <time>2021-05-08T10:04:09.000Z</time>
      </trkpt>
      <trkpt lat="49.15734" lon="1.33044">
        <ele>80.800003051758</ele>
        <time>2021-05-08T10:04:11.000Z</time>
      </trkpt>
      <trkpt lat="49.15738" lon="1.3303">
        <ele>80.199996948242</ele>
        <time>2021-05-08T10:04:12.000Z</time>
      </trkpt>
      <trkpt lat="49.15746" lon="1.33004">
        <ele>78</ele>
        <time>2021-05-08T10:04:14.000Z</time>
      </trkpt>
      <trkpt lat="49.1575" lon="1.32991">
        <ele>76.599998474121</ele>
        <time>2021-05-08T10:04:15.000Z</time>
      </trkpt>
      <trkpt lat="49.15752" lon="1.32978">
        <ele>75</ele>
        <time>2021-05-08T10:04:16.000Z</time>
      </trkpt>
      <trkpt lat="49.15755" lon="1.32966">
        <ele>73.199996948242</ele>
        <time>2021-05-08T10:04:17.000Z</time>
      </trkpt>
      <trkpt lat="49.15759" lon="1.32954">
        <ele>71.199996948242</ele>
        <time>2021-05-08T10:04:18.000Z</time>
      </trkpt>
      <trkpt lat="49.15762" lon="1.32945">
        <ele>67.599998474121</ele>
        <time>2021-05-08T10:04:19.000Z</time>
      </trkpt>
      <trkpt lat="49.15764" lon="1.32939">
        <ele>66.800003051758</ele>
        <time>2021-05-08T10:04:20.000Z</time>
      </trkpt>
      <trkpt lat="49.15766" lon="1.32938">
        <ele>66.199996948242</ele>
        <time>2021-05-08T10:04:21.000Z</time>
      </trkpt>
      <trkpt lat="49.15768" lon="1.32944">
        <ele>65.800003051758</ele>
        <time>2021-05-08T10:04:23.000Z</time>
      </trkpt>
      <trkpt lat="49.15767" lon="1.32951">
        <ele>65.599998474121</ele>
        <time>2021-05-08T10:04:25.000Z</time>
      </trkpt>
      <trkpt lat="49.15767" lon="1.32958">
        <ele>65.400001525879</ele>
        <time>2021-05-08T10:04:27.000Z</time>
      </trkpt>
      <trkpt lat="49.1577" lon="1.32967">
        <ele>65.199996948242</ele>
        <time>2021-05-08T10:04:30.000Z</time>
      </trkpt>
      <trkpt lat="49.1577" lon="1.32971">
        <ele>65.199996948242</ele>
        <time>2021-05-08T10:04:31.000Z</time>
      </trkpt>
      <trkpt lat="49.15769" lon="1.32976">
        <ele>65</ele>
        <time>2021-05-08T10:04:33.000Z</time>
      </trkpt>
      <trkpt lat="49.1577" lon="1.32976">
        <ele>63.599998474121</ele>
        <time>2021-05-08T10:04:35.000Z</time>
      </trkpt>
      <trkpt lat="49.15769" lon="1.3298">
        <ele>57.200000762939</ele>
        <time>2021-05-08T10:04:52.000Z</time>
      </trkpt>
      <trkpt lat="49.15769" lon="1.3299">
        <ele>57.200000762939</ele>
        <time>2021-05-08T10:04:54.000Z</time>
      </trkpt>
      <trkpt lat="49.15776" lon="1.33004">
        <ele>57.200000762939</ele>
        <time>2021-05-08T10:04:58.000Z</time>
      </trkpt>
      <trkpt lat="49.15786" lon="1.33009">
        <ele>57</ele>
        <time>2021-05-08T10:05:01.000Z</time>
      </trkpt>
      <trkpt lat="49.15789" lon="1.33011">
        <ele>57</ele>
        <time>2021-05-08T10:05:02.000Z</time>
      </trkpt>
      <trkpt lat="49.15796" lon="1.33018">
        <ele>56.200000762939</ele>
        <time>2021-05-08T10:05:04.000Z</time>
      </trkpt>
      <trkpt lat="49.15803" lon="1.33018">
        <ele>55.400001525879</ele>
        <time>2021-05-08T10:05:06.000Z</time>
      </trkpt>
      <trkpt lat="49.15806" lon="1.33015">
        <ele>55</ele>
        <time>2021-05-08T10:05:07.000Z</time>
      </trkpt>
      <trkpt lat="49.15809" lon="1.3301">
        <ele>54.400001525879</ele>
        <time>2021-05-08T10:05:08.000Z</time>
      </trkpt>
      <trkpt lat="49.15816" lon="1.33">
        <ele>53.400001525879</ele>
        <time>2021-05-08T10:05:10.000Z</time>
      </trkpt>
      <trkpt lat="49.15824" lon="1.3299">
        <ele>52.400001525879</ele>
        <time>2021-05-08T10:05:12.000Z</time>
      </trkpt>
      <trkpt lat="49.1583" lon="1.3298">
        <ele>51.799999237061</ele>
        <time>2021-05-08T10:05:14.000Z</time>
      </trkpt>
      <trkpt lat="49.15841" lon="1.32962">
        <ele>51.200000762939</ele>
        <time>2021-05-08T10:05:17.000Z</time>
      </trkpt>
      <trkpt lat="49.15845" lon="1.32955">
        <ele>50.599998474121</ele>
        <time>2021-05-08T10:05:18.000Z</time>
      </trkpt>
      <trkpt lat="49.15851" lon="1.32951">
        <ele>50</ele>
        <time>2021-05-08T10:05:19.000Z</time>
      </trkpt>
      <trkpt lat="49.15872" lon="1.32946">
        <ele>48.799999237061</ele>
        <time>2021-05-08T10:05:22.000Z</time>
      </trkpt>
      <trkpt lat="49.1588" lon="1.32945">
        <ele>48.400001525879</ele>
        <time>2021-05-08T10:05:23.000Z</time>
      </trkpt>
      <trkpt lat="49.15895" lon="1.32945">
        <ele>47.400001525879</ele>
        <time>2021-05-08T10:05:25.000Z</time>
      </trkpt>
      <trkpt lat="49.15906" lon="1.32947">
        <ele>46.200000762939</ele>
        <time>2021-05-08T10:05:27.000Z</time>
      </trkpt>
      <trkpt lat="49.15915" lon="1.32954">
        <ele>44.799999237061</ele>
        <time>2021-05-08T10:05:29.000Z</time>
      </trkpt>
      <trkpt lat="49.15917" lon="1.32959">
        <ele>44</ele>
        <time>2021-05-08T10:05:30.000Z</time>
      </trkpt>
      <trkpt lat="49.15917" lon="1.32965">
        <ele>43</ele>
        <time>2021-05-08T10:05:31.000Z</time>
      </trkpt>
      <trkpt lat="49.15917" lon="1.32971">
        <ele>42</ele>
        <time>2021-05-08T10:05:32.000Z</time>
      </trkpt>
      <trkpt lat="49.15916" lon="1.32977">
        <ele>41</ele>
        <time>2021-05-08T10:05:33.000Z</time>
      </trkpt>
      <trkpt lat="49.15915" lon="1.32983">
        <ele>40.200000762939</ele>
        <time>2021-05-08T10:05:34.000Z</time>
      </trkpt>
      <trkpt lat="49.15911" lon="1.32994">
        <ele>39.599998474121</ele>
        <time>2021-05-08T10:05:36.000Z</time>
      </trkpt>
      <trkpt lat="49.1591" lon="1.33">
        <ele>39.200000762939</ele>
        <time>2021-05-08T10:05:37.000Z</time>
      </trkpt>
      <trkpt lat="49.15909" lon="1.33006">
        <ele>38.799999237061</ele>
        <time>2021-05-08T10:05:38.000Z</time>
      </trkpt>
      <trkpt lat="49.15905" lon="1.33028">
        <ele>37.599998474121</ele>
        <time>2021-05-08T10:05:41.000Z</time>
      </trkpt>
      <trkpt lat="49.15904" lon="1.33036">
        <ele>37.200000762939</ele>
        <time>2021-05-08T10:05:42.000Z</time>
      </trkpt>
      <trkpt lat="49.159" lon="1.3306">
        <ele>36.599998474121</ele>
        <time>2021-05-08T10:05:45.000Z</time>
      </trkpt>
      <trkpt lat="49.15898" lon="1.33076">
        <ele>36.400001525879</ele>
        <time>2021-05-08T10:05:47.000Z</time>
      </trkpt>
      <trkpt lat="49.15896" lon="1.33092">
        <ele>36.200000762939</ele>
        <time>2021-05-08T10:05:49.000Z</time>
      </trkpt>
      <trkpt lat="49.15895" lon="1.331">
        <ele>36.200000762939</ele>
        <time>2021-05-08T10:05:50.000Z</time>
      </trkpt>
      <trkpt lat="49.15894" lon="1.33122">
        <ele>36</ele>
        <time>2021-05-08T10:05:53.000Z</time>
      </trkpt>
      <trkpt lat="49.15892" lon="1.33129">
        <ele>36</ele>
        <time>2021-05-08T10:05:54.000Z</time>
      </trkpt>
      <trkpt lat="49.15887" lon="1.33138">
        <ele>35.799999237061</ele>
        <time>2021-05-08T10:05:56.000Z</time>
      </trkpt>
      <trkpt lat="49.15877" lon="1.33157">
        <ele>35.799999237061</ele>
        <time>2021-05-08T10:06:01.000Z</time>
      </trkpt>
      <trkpt lat="49.15864" lon="1.33205">
        <ele>36.799999237061</ele>
        <time>2021-05-08T10:06:10.000Z</time>
      </trkpt>
      <trkpt lat="49.15855" lon="1.33242">
        <ele>37.200000762939</ele>
        <time>2021-05-08T10:06:15.000Z</time>
      </trkpt>
      <trkpt lat="49.15845" lon="1.33301">
        <ele>37.400001525879</ele>
        <time>2021-05-08T10:06:22.000Z</time>
      </trkpt>
      <trkpt lat="49.15844" lon="1.33308">
        <ele>37.400001525879</ele>
        <time>2021-05-08T10:06:23.000Z</time>
      </trkpt>
      <trkpt lat="49.15841" lon="1.33322">
        <ele>37.400001525879</ele>
        <time>2021-05-08T10:06:26.000Z</time>
      </trkpt>
      <trkpt lat="49.1584" lon="1.33323">
        <ele>37.200000762939</ele>
        <time>2021-05-08T10:06:27.000Z</time>
      </trkpt>
      <trkpt lat="49.15839" lon="1.33324">
        <ele>37</ele>
        <time>2021-05-08T10:06:30.000Z</time>
      </trkpt>
      <trkpt lat="49.15837" lon="1.33326">
        <ele>37</ele>
        <time>2021-05-08T10:06:31.000Z</time>
      </trkpt>
      <trkpt lat="49.15835" lon="1.33334">
        <ele>37</ele>
        <time>2021-05-08T10:06:33.000Z</time>
      </trkpt>
      <trkpt lat="49.15823" lon="1.33357">
        <ele>36.799999237061</ele>
        <time>2021-05-08T10:06:38.000Z</time>
      </trkpt>
      <trkpt lat="49.1582" lon="1.33362">
        <ele>36.599998474121</ele>
        <time>2021-05-08T10:06:39.000Z</time>
      </trkpt>
      <trkpt lat="49.15801" lon="1.33395">
        <ele>35.599998474121</ele>
        <time>2021-05-08T10:06:45.000Z</time>
      </trkpt>
      <trkpt lat="49.15803" lon="1.33408">
        <ele>35.400001525879</ele>
        <time>2021-05-08T10:06:47.000Z</time>
      </trkpt>
      <trkpt lat="49.15812" lon="1.33419">
        <ele>35.200000762939</ele>
        <time>2021-05-08T10:06:49.000Z</time>
      </trkpt>
      <trkpt lat="49.15817" lon="1.33425">
        <ele>35</ele>
        <time>2021-05-08T10:06:50.000Z</time>
      </trkpt>
      <trkpt lat="49.15834" lon="1.33446">
        <ele>34.400001525879</ele>
        <time>2021-05-08T10:06:53.000Z</time>
      </trkpt>
      <trkpt lat="49.15856" lon="1.33473">
        <ele>33.400001525879</ele>
        <time>2021-05-08T10:06:57.000Z</time>
      </trkpt>
      <trkpt lat="49.15866" lon="1.33485">
        <ele>32.200000762939</ele>
        <time>2021-05-08T10:06:59.000Z</time>
      </trkpt>
      <trkpt lat="49.15874" lon="1.33494">
        <ele>31.200000762939</ele>
        <time>2021-05-08T10:07:01.000Z</time>
      </trkpt>
      <trkpt lat="49.15875" lon="1.33499">
        <ele>30.799999237061</ele>
        <time>2021-05-08T10:07:02.000Z</time>
      </trkpt>
      <trkpt lat="49.15875" lon="1.33512">
        <ele>30</ele>
        <time>2021-05-08T10:07:04.000Z</time>
      </trkpt>
      <trkpt lat="49.15872" lon="1.33524">
        <ele>29.60000038147</ele>
        <time>2021-05-08T10:07:06.000Z</time>
      </trkpt>
      <trkpt lat="49.15865" lon="1.33541">
        <ele>29.39999961853</ele>
        <time>2021-05-08T10:07:09.000Z</time>
      </trkpt>
      <trkpt lat="49.15859" lon="1.33561">
        <ele>29.200000762939</ele>
        <time>2021-05-08T10:07:12.000Z</time>
      </trkpt>
      <trkpt lat="49.15856" lon="1.33567">
        <ele>29</ele>
        <time>2021-05-08T10:07:13.000Z</time>
      </trkpt>
      <trkpt lat="49.15852" lon="1.33579">
        <ele>28.799999237061</ele>
        <time>2021-05-08T10:07:15.000Z</time>
      </trkpt>
      <trkpt lat="49.15832" lon="1.33622">
        <ele>28.200000762939</ele>
        <time>2021-05-08T10:07:22.000Z</time>
      </trkpt>
      <trkpt lat="49.15829" lon="1.33627">
        <ele>28</ele>
        <time>2021-05-08T10:07:23.000Z</time>
      </trkpt>
      <trkpt lat="49.15821" lon="1.33635">
        <ele>28</ele>
        <time>2021-05-08T10:07:25.000Z</time>
      </trkpt>
      <trkpt lat="49.15818" lon="1.3364">
        <ele>28</ele>
        <time>2021-05-08T10:07:26.000Z</time>
      </trkpt>
      <trkpt lat="49.15792" lon="1.33678">
        <ele>28</ele>
        <time>2021-05-08T10:07:34.000Z</time>
      </trkpt>
      <trkpt lat="49.15778" lon="1.3369">
        <ele>28.39999961853</ele>
        <time>2021-05-08T10:07:39.000Z</time>
      </trkpt>
      <trkpt lat="49.15749" lon="1.33702">
        <ele>29.200000762939</ele>
        <time>2021-05-08T10:07:47.000Z</time>
      </trkpt>
      <trkpt lat="49.15719" lon="1.33714">
        <ele>30</ele>
        <time>2021-05-08T10:07:55.000Z</time>
      </trkpt>
      <trkpt lat="49.1571" lon="1.33716">
        <ele>30.200000762939</ele>
        <time>2021-05-08T10:07:57.000Z</time>
      </trkpt>
      <trkpt lat="49.15674" lon="1.33724">
        <ele>31.39999961853</ele>
        <time>2021-05-08T10:08:06.000Z</time>
      </trkpt>
      <trkpt lat="49.15655" lon="1.33726">
        <ele>32.599998474121</ele>
        <time>2021-05-08T10:08:11.000Z</time>
      </trkpt>
      <trkpt lat="49.15648" lon="1.33727">
        <ele>33.400001525879</ele>
        <time>2021-05-08T10:08:13.000Z</time>
      </trkpt>
      <trkpt lat="49.15644" lon="1.33727">
        <ele>33.599998474121</ele>
        <time>2021-05-08T10:08:14.000Z</time>
      </trkpt>
      <trkpt lat="49.15622" lon="1.33729">
        <ele>34.799999237061</ele>
        <time>2021-05-08T10:08:20.000Z</time>
      </trkpt>
      <trkpt lat="49.15605" lon="1.33734">
        <ele>35.400001525879</ele>
        <time>2021-05-08T10:08:25.000Z</time>
      </trkpt>
      <trkpt lat="49.15592" lon="1.3373">
        <ele>36</ele>
        <time>2021-05-08T10:08:29.000Z</time>
      </trkpt>
      <trkpt lat="49.15585" lon="1.33731">
        <ele>36.200000762939</ele>
        <time>2021-05-08T10:08:31.000Z</time>
      </trkpt>
      <trkpt lat="49.15577" lon="1.33741">
        <ele>37</ele>
        <time>2021-05-08T10:08:34.000Z</time>
      </trkpt>
      <trkpt lat="49.15574" lon="1.33745">
        <ele>37.200000762939</ele>
        <time>2021-05-08T10:08:35.000Z</time>
      </trkpt>
      <trkpt lat="49.15571" lon="1.33749">
        <ele>37.200000762939</ele>
        <time>2021-05-08T10:08:36.000Z</time>
      </trkpt>
      <trkpt lat="49.15559" lon="1.33754">
        <ele>38</ele>
        <time>2021-05-08T10:08:39.000Z</time>
      </trkpt>
      <trkpt lat="49.15555" lon="1.33752">
        <ele>38.200000762939</ele>
        <time>2021-05-08T10:08:40.000Z</time>
      </trkpt>
      <trkpt lat="49.1554" lon="1.33745">
        <ele>38.799999237061</ele>
        <time>2021-05-08T10:08:44.000Z</time>
      </trkpt>
      <trkpt lat="49.15529" lon="1.33739">
        <ele>39</ele>
        <time>2021-05-08T10:08:47.000Z</time>
      </trkpt>
      <trkpt lat="49.1551" lon="1.33728">
        <ele>39.200000762939</ele>
        <time>2021-05-08T10:08:52.000Z</time>
      </trkpt>
      <trkpt lat="49.15488" lon="1.33718">
        <ele>39.200000762939</ele>
        <time>2021-05-08T10:08:57.000Z</time>
      </trkpt>
      <trkpt lat="49.15483" lon="1.33718">
        <ele>39.200000762939</ele>
        <time>2021-05-08T10:08:58.000Z</time>
      </trkpt>
      <trkpt lat="49.15471" lon="1.33733">
        <ele>39.200000762939</ele>
        <time>2021-05-08T10:09:01.000Z</time>
      </trkpt>
      <trkpt lat="49.15473" lon="1.33763">
        <ele>39.200000762939</ele>
        <time>2021-05-08T10:09:04.000Z</time>
      </trkpt>
      <trkpt lat="49.15474" lon="1.33773">
        <ele>39.200000762939</ele>
        <time>2021-05-08T10:09:05.000Z</time>
      </trkpt>
      <trkpt lat="49.15478" lon="1.33819">
        <ele>37.200000762939</ele>
        <time>2021-05-08T10:09:10.000Z</time>
      </trkpt>
      <trkpt lat="49.15479" lon="1.33837">
        <ele>36</ele>
        <time>2021-05-08T10:09:12.000Z</time>
      </trkpt>
      <trkpt lat="49.15479" lon="1.33846">
        <ele>35.400001525879</ele>
        <time>2021-05-08T10:09:13.000Z</time>
      </trkpt>
      <trkpt lat="49.15476" lon="1.33873">
        <ele>34.799999237061</ele>
        <time>2021-05-08T10:09:16.000Z</time>
      </trkpt>
      <trkpt lat="49.15473" lon="1.3389">
        <ele>34.799999237061</ele>
        <time>2021-05-08T10:09:18.000Z</time>
      </trkpt>
      <trkpt lat="49.15456" lon="1.33957">
        <ele>33.799999237061</ele>
        <time>2021-05-08T10:09:26.000Z</time>
      </trkpt>
      <trkpt lat="49.15453" lon="1.33965">
        <ele>33.799999237061</ele>
        <time>2021-05-08T10:09:27.000Z</time>
      </trkpt>
      <trkpt lat="49.1544" lon="1.34001">
        <ele>33.799999237061</ele>
        <time>2021-05-08T10:09:32.000Z</time>
      </trkpt>
      <trkpt lat="49.15435" lon="1.34014">
        <ele>33.799999237061</ele>
        <time>2021-05-08T10:09:34.000Z</time>
      </trkpt>
      <trkpt lat="49.15426" lon="1.3404">
        <ele>34.400001525879</ele>
        <time>2021-05-08T10:09:38.000Z</time>
      </trkpt>
      <trkpt lat="49.15421" lon="1.3405">
        <ele>34.799999237061</ele>
        <time>2021-05-08T10:09:40.000Z</time>
      </trkpt>
      <trkpt lat="49.15417" lon="1.34051">
        <ele>35</ele>
        <time>2021-05-08T10:09:41.000Z</time>
      </trkpt>
      <trkpt lat="49.15407" lon="1.34043">
        <ele>35</ele>
        <time>2021-05-08T10:09:44.000Z</time>
      </trkpt>
      <trkpt lat="49.15404" lon="1.34039">
        <ele>35.200000762939</ele>
        <time>2021-05-08T10:09:45.000Z</time>
      </trkpt>
      <trkpt lat="49.15379" lon="1.34012">
        <ele>35.599998474121</ele>
        <time>2021-05-08T10:09:53.000Z</time>
      </trkpt>
      <trkpt lat="49.1537" lon="1.34001">
        <ele>36.200000762939</ele>
        <time>2021-05-08T10:09:56.000Z</time>
      </trkpt>
      <trkpt lat="49.15354" lon="1.33986">
        <ele>37.200000762939</ele>
        <time>2021-05-08T10:10:00.000Z</time>
      </trkpt>
      <trkpt lat="49.15321" lon="1.33961">
        <ele>38</ele>
        <time>2021-05-08T10:10:08.000Z</time>
      </trkpt>
      <trkpt lat="49.15311" lon="1.33953">
        <ele>38.400001525879</ele>
        <time>2021-05-08T10:10:11.000Z</time>
      </trkpt>
      <trkpt lat="49.15305" lon="1.33949">
        <ele>39.599998474121</ele>
        <time>2021-05-08T10:10:13.000Z</time>
      </trkpt>
      <trkpt lat="49.15302" lon="1.33947">
        <ele>40.400001525879</ele>
        <time>2021-05-08T10:10:14.000Z</time>
      </trkpt>
      <trkpt lat="49.153" lon="1.33946">
        <ele>41.200000762939</ele>
        <time>2021-05-08T10:10:15.000Z</time>
      </trkpt>
      <trkpt lat="49.15296" lon="1.33943">
        <ele>42.400001525879</ele>
        <time>2021-05-08T10:10:17.000Z</time>
      </trkpt>
      <trkpt lat="49.15292" lon="1.33938">
        <ele>43.599998474121</ele>
        <time>2021-05-08T10:10:20.000Z</time>
      </trkpt>
      <trkpt lat="49.15291" lon="1.33937">
        <ele>44</ele>
        <time>2021-05-08T10:10:21.000Z</time>
      </trkpt>
      <trkpt lat="49.1529" lon="1.33938">
        <ele>44.799999237061</ele>
        <time>2021-05-08T10:10:24.000Z</time>
      </trkpt>
      <trkpt lat="49.15289" lon="1.3394">
        <ele>45</ele>
        <time>2021-05-08T10:10:26.000Z</time>
      </trkpt>
      <trkpt lat="49.15289" lon="1.33941">
        <ele>45.799999237061</ele>
        <time>2021-05-08T10:10:27.000Z</time>
      </trkpt>
      <trkpt lat="49.15289" lon="1.33941">
        <ele>46.200000762939</ele>
        <time>2021-05-08T10:10:29.000Z</time>
      </trkpt>
      <trkpt lat="49.15288" lon="1.33944">
        <ele>46.400001525879</ele>
        <time>2021-05-08T10:10:37.000Z</time>
      </trkpt>
      <trkpt lat="49.15287" lon="1.3395">
        <ele>46.400001525879</ele>
        <time>2021-05-08T10:10:39.000Z</time>
      </trkpt>
      <trkpt lat="49.15283" lon="1.33973">
        <ele>45.599998474121</ele>
        <time>2021-05-08T10:10:45.000Z</time>
      </trkpt>
      <trkpt lat="49.15274" lon="1.34004">
        <ele>45.200000762939</ele>
        <time>2021-05-08T10:10:51.000Z</time>
      </trkpt>
      <trkpt lat="49.15267" lon="1.34028">
        <ele>44.599998474121</ele>
        <time>2021-05-08T10:10:55.000Z</time>
      </trkpt>
      <trkpt lat="49.15264" lon="1.34041">
        <ele>43.799999237061</ele>
        <time>2021-05-08T10:10:57.000Z</time>
      </trkpt>
      <trkpt lat="49.15262" lon="1.34048">
        <ele>43.200000762939</ele>
        <time>2021-05-08T10:10:58.000Z</time>
      </trkpt>
      <trkpt lat="49.1526" lon="1.34055">
        <ele>42.799999237061</ele>
        <time>2021-05-08T10:10:59.000Z</time>
      </trkpt>
      <trkpt lat="49.15254" lon="1.34077">
        <ele>42.200000762939</ele>
        <time>2021-05-08T10:11:02.000Z</time>
      </trkpt>
      <trkpt lat="49.1525" lon="1.34091">
        <ele>41.599998474121</ele>
        <time>2021-05-08T10:11:04.000Z</time>
      </trkpt>
      <trkpt lat="49.15248" lon="1.34099">
        <ele>41.200000762939</ele>
        <time>2021-05-08T10:11:05.000Z</time>
      </trkpt>
      <trkpt lat="49.15246" lon="1.34107">
        <ele>41.200000762939</ele>
        <time>2021-05-08T10:11:06.000Z</time>
      </trkpt>
      <trkpt lat="49.1524" lon="1.34137">
        <ele>40.200000762939</ele>
        <time>2021-05-08T10:11:10.000Z</time>
      </trkpt>
      <trkpt lat="49.15238" lon="1.34144">
        <ele>39.799999237061</ele>
        <time>2021-05-08T10:11:11.000Z</time>
      </trkpt>
      <trkpt lat="49.15235" lon="1.34165">
        <ele>38.799999237061</ele>
        <time>2021-05-08T10:11:14.000Z</time>
      </trkpt>
      <trkpt lat="49.15233" lon="1.34185">
        <ele>38.400001525879</ele>
        <time>2021-05-08T10:11:17.000Z</time>
      </trkpt>
      <trkpt lat="49.15229" lon="1.34209">
        <ele>38</ele>
        <time>2021-05-08T10:11:22.000Z</time>
      </trkpt>
      <trkpt lat="49.15229" lon="1.34219">
        <ele>37.400001525879</ele>
        <time>2021-05-08T10:11:24.000Z</time>
      </trkpt>
      <trkpt lat="49.15229" lon="1.34229">
        <ele>37.200000762939</ele>
        <time>2021-05-08T10:11:26.000Z</time>
      </trkpt>
      <trkpt lat="49.15224" lon="1.34244">
        <ele>36.599998474121</ele>
        <time>2021-05-08T10:11:29.000Z</time>
      </trkpt>
      <trkpt lat="49.15223" lon="1.34249">
        <ele>36.599998474121</ele>
        <time>2021-05-08T10:11:30.000Z</time>
      </trkpt>
      <trkpt lat="49.15223" lon="1.3427">
        <ele>36</ele>
        <time>2021-05-08T10:11:33.000Z</time>
      </trkpt>
      <trkpt lat="49.15223" lon="1.34278">
        <ele>36</ele>
        <time>2021-05-08T10:11:34.000Z</time>
      </trkpt>
      <trkpt lat="49.15222" lon="1.34294">
        <ele>35.599998474121</ele>
        <time>2021-05-08T10:11:36.000Z</time>
      </trkpt>
      <trkpt lat="49.15222" lon="1.34327">
        <ele>35</ele>
        <time>2021-05-08T10:11:40.000Z</time>
      </trkpt>
      <trkpt lat="49.15223" lon="1.34334">
        <ele>34.799999237061</ele>
        <time>2021-05-08T10:11:41.000Z</time>
      </trkpt>
      <trkpt lat="49.15226" lon="1.34339">
        <ele>34.599998474121</ele>
        <time>2021-05-08T10:11:42.000Z</time>
      </trkpt>
      <trkpt lat="49.15234" lon="1.34347">
        <ele>34.200000762939</ele>
        <time>2021-05-08T10:11:44.000Z</time>
      </trkpt>
      <trkpt lat="49.15252" lon="1.34366">
        <ele>33.200000762939</ele>
        <time>2021-05-08T10:11:48.000Z</time>
      </trkpt>
      <trkpt lat="49.15255" lon="1.34372">
        <ele>33</ele>
        <time>2021-05-08T10:11:49.000Z</time>
      </trkpt>
      <trkpt lat="49.15254" lon="1.34386">
        <ele>32.400001525879</ele>
        <time>2021-05-08T10:11:52.000Z</time>
      </trkpt>
      <trkpt lat="49.1525" lon="1.34393">
        <ele>32</ele>
        <time>2021-05-08T10:11:54.000Z</time>
      </trkpt>
      <trkpt lat="49.15242" lon="1.34404">
        <ele>31.60000038147</ele>
        <time>2021-05-08T10:11:57.000Z</time>
      </trkpt>
      <trkpt lat="49.15226" lon="1.34428">
        <ele>31.200000762939</ele>
        <time>2021-05-08T10:12:02.000Z</time>
      </trkpt>
      <trkpt lat="49.15213" lon="1.34452">
        <ele>31</ele>
        <time>2021-05-08T10:12:06.000Z</time>
      </trkpt>
      <trkpt lat="49.1521" lon="1.34458">
        <ele>30.799999237061</ele>
        <time>2021-05-08T10:12:07.000Z</time>
      </trkpt>
      <trkpt lat="49.152" lon="1.34479">
        <ele>29.799999237061</ele>
        <time>2021-05-08T10:12:10.000Z</time>
      </trkpt>
      <trkpt lat="49.15184" lon="1.34511">
        <ele>28.799999237061</ele>
        <time>2021-05-08T10:12:14.000Z</time>
      </trkpt>
      <trkpt lat="49.15174" lon="1.34527">
        <ele>28.799999237061</ele>
        <time>2021-05-08T10:12:17.000Z</time>
      </trkpt>
      <trkpt lat="49.15168" lon="1.34535">
        <ele>28.799999237061</ele>
        <time>2021-05-08T10:12:19.000Z</time>
      </trkpt>
      <trkpt lat="49.15153" lon="1.34557">
        <ele>30</ele>
        <time>2021-05-08T10:12:25.000Z</time>
      </trkpt>
      <trkpt lat="49.15142" lon="1.34572">
        <ele>31.39999961853</ele>
        <time>2021-05-08T10:12:29.000Z</time>
      </trkpt>
      <trkpt lat="49.15134" lon="1.34583">
        <ele>32</ele>
        <time>2021-05-08T10:12:32.000Z</time>
      </trkpt>
      <trkpt lat="49.15129" lon="1.3459">
        <ele>32.400001525879</ele>
        <time>2021-05-08T10:12:34.000Z</time>
      </trkpt>
      <trkpt lat="49.15113" lon="1.34611">
        <ele>32.599998474121</ele>
        <time>2021-05-08T10:12:40.000Z</time>
      </trkpt>
      <trkpt lat="49.15098" lon="1.34632">
        <ele>33.400001525879</ele>
        <time>2021-05-08T10:12:46.000Z</time>
      </trkpt>
      <trkpt lat="49.1509" lon="1.34642">
        <ele>33.599998474121</ele>
        <time>2021-05-08T10:12:49.000Z</time>
      </trkpt>
      <trkpt lat="49.15068" lon="1.34672">
        <ele>34.599998474121</ele>
        <time>2021-05-08T10:12:58.000Z</time>
      </trkpt>
      <trkpt lat="49.15049" lon="1.34697">
        <ele>35.400001525879</ele>
        <time>2021-05-08T10:13:05.000Z</time>
      </trkpt>
      <trkpt lat="49.15044" lon="1.34703">
        <ele>35.799999237061</ele>
        <time>2021-05-08T10:13:07.000Z</time>
      </trkpt>
      <trkpt lat="49.15035" lon="1.34716">
        <ele>36.599998474121</ele>
        <time>2021-05-08T10:13:11.000Z</time>
      </trkpt>
      <trkpt lat="49.15017" lon="1.34739">
        <ele>36.799999237061</ele>
        <time>2021-05-08T10:13:18.000Z</time>
      </trkpt>
      <trkpt lat="49.15015" lon="1.34743">
        <ele>36.799999237061</ele>
        <time>2021-05-08T10:13:19.000Z</time>
      </trkpt>
      <trkpt lat="49.1501" lon="1.34749">
        <ele>36.799999237061</ele>
        <time>2021-05-08T10:13:21.000Z</time>
      </trkpt>
      <trkpt lat="49.14995" lon="1.34771">
        <ele>37</ele>
        <time>2021-05-08T10:13:27.000Z</time>
      </trkpt>
      <trkpt lat="49.1498" lon="1.34791">
        <ele>37</ele>
        <time>2021-05-08T10:13:33.000Z</time>
      </trkpt>
      <trkpt lat="49.14976" lon="1.34815">
        <ele>37.599998474121</ele>
        <time>2021-05-08T10:13:39.000Z</time>
      </trkpt>
      <trkpt lat="49.14976" lon="1.34837">
        <ele>37.799999237061</ele>
        <time>2021-05-08T10:13:43.000Z</time>
      </trkpt>
      <trkpt lat="49.14977" lon="1.3485">
        <ele>37.799999237061</ele>
        <time>2021-05-08T10:13:45.000Z</time>
      </trkpt>
      <trkpt lat="49.14982" lon="1.34877">
        <ele>37.799999237061</ele>
        <time>2021-05-08T10:13:49.000Z</time>
      </trkpt>
      <trkpt lat="49.14982" lon="1.34891">
        <ele>37.400001525879</ele>
        <time>2021-05-08T10:13:51.000Z</time>
      </trkpt>
      <trkpt lat="49.14976" lon="1.349">
        <ele>37</ele>
        <time>2021-05-08T10:13:53.000Z</time>
      </trkpt>
      <trkpt lat="49.14971" lon="1.349">
        <ele>36.799999237061</ele>
        <time>2021-05-08T10:13:54.000Z</time>
      </trkpt>
      <trkpt lat="49.14967" lon="1.34899">
        <ele>36.599998474121</ele>
        <time>2021-05-08T10:13:55.000Z</time>
      </trkpt>
      <trkpt lat="49.14962" lon="1.34898">
        <ele>36.599998474121</ele>
        <time>2021-05-08T10:13:56.000Z</time>
      </trkpt>
      <trkpt lat="49.14957" lon="1.34897">
        <ele>36.400001525879</ele>
        <time>2021-05-08T10:13:57.000Z</time>
      </trkpt>
      <trkpt lat="49.14947" lon="1.34896">
        <ele>36.400001525879</ele>
        <time>2021-05-08T10:13:59.000Z</time>
      </trkpt>
      <trkpt lat="49.14938" lon="1.34893">
        <ele>36.200000762939</ele>
        <time>2021-05-08T10:14:01.000Z</time>
      </trkpt>
      <trkpt lat="49.14918" lon="1.34886">
        <ele>35.799999237061</ele>
        <time>2021-05-08T10:14:05.000Z</time>
      </trkpt>
      <trkpt lat="49.14893" lon="1.3488">
        <ele>35.400001525879</ele>
        <time>2021-05-08T10:14:10.000Z</time>
      </trkpt>
      <trkpt lat="49.14861" lon="1.34876">
        <ele>35.400001525879</ele>
        <time>2021-05-08T10:14:17.000Z</time>
      </trkpt>
      <trkpt lat="49.1484" lon="1.34864">
        <ele>36.599998474121</ele>
        <time>2021-05-08T10:14:22.000Z</time>
      </trkpt>
      <trkpt lat="49.14836" lon="1.3486">
        <ele>37</ele>
        <time>2021-05-08T10:14:23.000Z</time>
      </trkpt>
      <trkpt lat="49.14817" lon="1.34835">
        <ele>38</ele>
        <time>2021-05-08T10:14:29.000Z</time>
      </trkpt>
      <trkpt lat="49.14814" lon="1.34831">
        <ele>38</ele>
        <time>2021-05-08T10:14:30.000Z</time>
      </trkpt>
      <trkpt lat="49.14811" lon="1.34827">
        <ele>38.200000762939</ele>
        <time>2021-05-08T10:14:31.000Z</time>
      </trkpt>
      <trkpt lat="49.14802" lon="1.34825">
        <ele>38.799999237061</ele>
        <time>2021-05-08T10:14:34.000Z</time>
      </trkpt>
      <trkpt lat="49.14797" lon="1.3482">
        <ele>39.200000762939</ele>
        <time>2021-05-08T10:14:37.000Z</time>
      </trkpt>
      <trkpt lat="49.14795" lon="1.34817">
        <ele>39.200000762939</ele>
        <time>2021-05-08T10:14:38.000Z</time>
      </trkpt>
      <trkpt lat="49.14786" lon="1.34811">
        <ele>39.400001525879</ele>
        <time>2021-05-08T10:14:42.000Z</time>
      </trkpt>
      <trkpt lat="49.14777" lon="1.34808">
        <ele>40.200000762939</ele>
        <time>2021-05-08T10:14:46.000Z</time>
      </trkpt>
      <trkpt lat="49.14771" lon="1.34807">
        <ele>41.599998474121</ele>
        <time>2021-05-08T10:14:49.000Z</time>
      </trkpt>
      <trkpt lat="49.14767" lon="1.34808">
        <ele>42.599998474121</ele>
        <time>2021-05-08T10:14:52.000Z</time>
      </trkpt>
      <trkpt lat="49.14763" lon="1.34809">
        <ele>43.599998474121</ele>
        <time>2021-05-08T10:14:55.000Z</time>
      </trkpt>
      <trkpt lat="49.14761" lon="1.34811">
        <ele>44.599998474121</ele>
        <time>2021-05-08T10:14:57.000Z</time>
      </trkpt>
      <trkpt lat="49.14757" lon="1.34812">
        <ele>46</ele>
        <time>2021-05-08T10:15:00.000Z</time>
      </trkpt>
      <trkpt lat="49.14755" lon="1.34812">
        <ele>46.599998474121</ele>
        <time>2021-05-08T10:15:02.000Z</time>
      </trkpt>
      <trkpt lat="49.14752" lon="1.34813">
        <ele>47.200000762939</ele>
        <time>2021-05-08T10:15:04.000Z</time>
      </trkpt>
      <trkpt lat="49.14748" lon="1.34815">
        <ele>48.400001525879</ele>
        <time>2021-05-08T10:15:07.000Z</time>
      </trkpt>
      <trkpt lat="49.14747" lon="1.34815">
        <ele>48.799999237061</ele>
        <time>2021-05-08T10:15:08.000Z</time>
      </trkpt>
      <trkpt lat="49.14742" lon="1.34819">
        <ele>49.599998474121</ele>
        <time>2021-05-08T10:15:12.000Z</time>
      </trkpt>
      <trkpt lat="49.14737" lon="1.34822">
        <ele>50.799999237061</ele>
        <time>2021-05-08T10:15:16.000Z</time>
      </trkpt>
      <trkpt lat="49.14735" lon="1.34823">
        <ele>52</ele>
        <time>2021-05-08T10:15:18.000Z</time>
      </trkpt>
      <trkpt lat="49.14731" lon="1.34824">
        <ele>53.200000762939</ele>
        <time>2021-05-08T10:15:21.000Z</time>
      </trkpt>
      <trkpt lat="49.14725" lon="1.34828">
        <ele>54</ele>
        <time>2021-05-08T10:15:24.000Z</time>
      </trkpt>
      <trkpt lat="49.14724" lon="1.34829">
        <ele>54.200000762939</ele>
        <time>2021-05-08T10:15:25.000Z</time>
      </trkpt>
      <trkpt lat="49.14722" lon="1.3483">
        <ele>54.599998474121</ele>
        <time>2021-05-08T10:15:26.000Z</time>
      </trkpt>
      <trkpt lat="49.14718" lon="1.34833">
        <ele>55.599998474121</ele>
        <time>2021-05-08T10:15:29.000Z</time>
      </trkpt>
      <trkpt lat="49.14716" lon="1.34833">
        <ele>55.799999237061</ele>
        <time>2021-05-08T10:15:30.000Z</time>
      </trkpt>
      <trkpt lat="49.14715" lon="1.34833">
        <ele>56</ele>
        <time>2021-05-08T10:15:31.000Z</time>
      </trkpt>
      <trkpt lat="49.14708" lon="1.34831">
        <ele>56.599998474121</ele>
        <time>2021-05-08T10:15:35.000Z</time>
      </trkpt>
      <trkpt lat="49.14706" lon="1.34831">
        <ele>56.799999237061</ele>
        <time>2021-05-08T10:15:36.000Z</time>
      </trkpt>
      <trkpt lat="49.14695" lon="1.34834">
        <ele>57.599998474121</ele>
        <time>2021-05-08T10:15:41.000Z</time>
      </trkpt>
      <trkpt lat="49.14693" lon="1.34834">
        <ele>57.799999237061</ele>
        <time>2021-05-08T10:15:42.000Z</time>
      </trkpt>
      <trkpt lat="49.14687" lon="1.34837">
        <ele>58.400001525879</ele>
        <time>2021-05-08T10:15:46.000Z</time>
      </trkpt>
      <trkpt lat="49.14684" lon="1.34837">
        <ele>58.599998474121</ele>
        <time>2021-05-08T10:15:49.000Z</time>
      </trkpt>
      <trkpt lat="49.14681" lon="1.34838">
        <ele>59.200000762939</ele>
        <time>2021-05-08T10:16:13.000Z</time>
      </trkpt>
      <trkpt lat="49.1468" lon="1.34838">
        <ele>59.200000762939</ele>
        <time>2021-05-08T10:16:14.000Z</time>
      </trkpt>
      <trkpt lat="49.14664" lon="1.34838">
        <ele>59.200000762939</ele>
        <time>2021-05-08T10:16:20.000Z</time>
      </trkpt>
      <trkpt lat="49.14641" lon="1.34834">
        <ele>58.799999237061</ele>
        <time>2021-05-08T10:16:25.000Z</time>
      </trkpt>
      <trkpt lat="49.14625" lon="1.34832">
        <ele>58.599998474121</ele>
        <time>2021-05-08T10:16:28.000Z</time>
      </trkpt>
      <trkpt lat="49.14614" lon="1.3483">
        <ele>58</ele>
        <time>2021-05-08T10:16:30.000Z</time>
      </trkpt>
      <trkpt lat="49.14607" lon="1.3483">
        <ele>57.799999237061</ele>
        <time>2021-05-08T10:16:31.000Z</time>
      </trkpt>
      <trkpt lat="49.14601" lon="1.3483">
        <ele>57.599998474121</ele>
        <time>2021-05-08T10:16:32.000Z</time>
      </trkpt>
      <trkpt lat="49.14594" lon="1.34831">
        <ele>57.400001525879</ele>
        <time>2021-05-08T10:16:33.000Z</time>
      </trkpt>
      <trkpt lat="49.14574" lon="1.34834">
        <ele>56.400001525879</ele>
        <time>2021-05-08T10:16:36.000Z</time>
      </trkpt>
      <trkpt lat="49.14568" lon="1.34835">
        <ele>56.200000762939</ele>
        <time>2021-05-08T10:16:37.000Z</time>
      </trkpt>
      <trkpt lat="49.14543" lon="1.3484">
        <ele>55.400001525879</ele>
        <time>2021-05-08T10:16:41.000Z</time>
      </trkpt>
      <trkpt lat="49.14531" lon="1.34844">
        <ele>55</ele>
        <time>2021-05-08T10:16:43.000Z</time>
      </trkpt>
      <trkpt lat="49.14514" lon="1.34849">
        <ele>54.799999237061</ele>
        <time>2021-05-08T10:16:46.000Z</time>
      </trkpt>
      <trkpt lat="49.14502" lon="1.34854">
        <ele>54.599998474121</ele>
        <time>2021-05-08T10:16:48.000Z</time>
      </trkpt>
      <trkpt lat="49.14464" lon="1.34868">
        <ele>54.799999237061</ele>
        <time>2021-05-08T10:16:54.000Z</time>
      </trkpt>
      <trkpt lat="49.14435" lon="1.3488">
        <ele>55</ele>
        <time>2021-05-08T10:16:59.000Z</time>
      </trkpt>
      <trkpt lat="49.14425" lon="1.34886">
        <ele>54.799999237061</ele>
        <time>2021-05-08T10:17:01.000Z</time>
      </trkpt>
      <trkpt lat="49.14414" lon="1.34894">
        <ele>54.599998474121</ele>
        <time>2021-05-08T10:17:03.000Z</time>
      </trkpt>
      <trkpt lat="49.1441" lon="1.34899">
        <ele>54.599998474121</ele>
        <time>2021-05-08T10:17:04.000Z</time>
      </trkpt>
      <trkpt lat="49.14399" lon="1.34913">
        <ele>54.599998474121</ele>
        <time>2021-05-08T10:17:07.000Z</time>
      </trkpt>
      <trkpt lat="49.14386" lon="1.34922">
        <ele>54.599998474121</ele>
        <time>2021-05-08T10:17:10.000Z</time>
      </trkpt>
      <trkpt lat="49.14382" lon="1.34923">
        <ele>54.400001525879</ele>
        <time>2021-05-08T10:17:11.000Z</time>
      </trkpt>
      <trkpt lat="49.14377" lon="1.34924">
        <ele>54.200000762939</ele>
        <time>2021-05-08T10:17:12.000Z</time>
      </trkpt>
      <trkpt lat="49.1436" lon="1.34924">
        <ele>53.599998474121</ele>
        <time>2021-05-08T10:17:15.000Z</time>
      </trkpt>
      <trkpt lat="49.14354" lon="1.34924">
        <ele>53.200000762939</ele>
        <time>2021-05-08T10:17:16.000Z</time>
      </trkpt>
      <trkpt lat="49.14348" lon="1.34925">
        <ele>53.200000762939</ele>
        <time>2021-05-08T10:17:17.000Z</time>
      </trkpt>
      <trkpt lat="49.14334" lon="1.34927">
        <ele>52.799999237061</ele>
        <time>2021-05-08T10:17:20.000Z</time>
      </trkpt>
      <trkpt lat="49.14318" lon="1.3492">
        <ele>52.200000762939</ele>
        <time>2021-05-08T10:17:24.000Z</time>
      </trkpt>
      <trkpt lat="49.14314" lon="1.34918">
        <ele>52.200000762939</ele>
        <time>2021-05-08T10:17:25.000Z</time>
      </trkpt>
      <trkpt lat="49.14311" lon="1.3492">
        <ele>52.200000762939</ele>
        <time>2021-05-08T10:17:26.000Z</time>
      </trkpt>
      <trkpt lat="49.14307" lon="1.34928">
        <ele>52.200000762939</ele>
        <time>2021-05-08T10:17:28.000Z</time>
      </trkpt>
      <trkpt lat="49.14305" lon="1.34937">
        <ele>52.200000762939</ele>
        <time>2021-05-08T10:17:30.000Z</time>
      </trkpt>
      <trkpt lat="49.14301" lon="1.34953">
        <ele>52.799999237061</ele>
        <time>2021-05-08T10:17:34.000Z</time>
      </trkpt>
      <trkpt lat="49.14299" lon="1.34962">
        <ele>53.599998474121</ele>
        <time>2021-05-08T10:17:36.000Z</time>
      </trkpt>
      <trkpt lat="49.14297" lon="1.34969">
        <ele>54.200000762939</ele>
        <time>2021-05-08T10:17:38.000Z</time>
      </trkpt>
      <trkpt lat="49.14295" lon="1.34973">
        <ele>54.200000762939</ele>
        <time>2021-05-08T10:17:39.000Z</time>
      </trkpt>
      <trkpt lat="49.14289" lon="1.34983">
        <ele>54.599998474121</ele>
        <time>2021-05-08T10:17:42.000Z</time>
      </trkpt>
      <trkpt lat="49.14281" lon="1.34994">
        <ele>55.599998474121</ele>
        <time>2021-05-08T10:17:46.000Z</time>
      </trkpt>
      <trkpt lat="49.14278" lon="1.34996">
        <ele>56</ele>
        <time>2021-05-08T10:17:47.000Z</time>
      </trkpt>
      <trkpt lat="49.14269" lon="1.35003">
        <ele>57</ele>
        <time>2021-05-08T10:17:51.000Z</time>
      </trkpt>
      <trkpt lat="49.14265" lon="1.35006">
        <ele>57.400001525879</ele>
        <time>2021-05-08T10:17:53.000Z</time>
      </trkpt>
      <trkpt lat="49.14257" lon="1.35005">
        <ele>58.200000762939</ele>
        <time>2021-05-08T10:17:56.000Z</time>
      </trkpt>
      <trkpt lat="49.14252" lon="1.35007">
        <ele>58.599998474121</ele>
        <time>2021-05-08T10:17:58.000Z</time>
      </trkpt>
      <trkpt lat="49.14251" lon="1.3501">
        <ele>59.400001525879</ele>
        <time>2021-05-08T10:18:00.000Z</time>
      </trkpt>
      <trkpt lat="49.1425" lon="1.35011">
        <ele>59.799999237061</ele>
        <time>2021-05-08T10:18:02.000Z</time>
      </trkpt>
      <trkpt lat="49.14249" lon="1.35014">
        <ele>61.200000762939</ele>
        <time>2021-05-08T10:18:23.000Z</time>
      </trkpt>
      <trkpt lat="49.14247" lon="1.35019">
        <ele>61</ele>
        <time>2021-05-08T10:18:25.000Z</time>
      </trkpt>
      <trkpt lat="49.14243" lon="1.3503">
        <ele>60.799999237061</ele>
        <time>2021-05-08T10:18:28.000Z</time>
      </trkpt>
      <trkpt lat="49.1424" lon="1.35039">
        <ele>61</ele>
        <time>2021-05-08T10:18:30.000Z</time>
      </trkpt>
      <trkpt lat="49.14234" lon="1.35051">
        <ele>60.799999237061</ele>
        <time>2021-05-08T10:18:33.000Z</time>
      </trkpt>
      <trkpt lat="49.14226" lon="1.35068">
        <ele>60</ele>
        <time>2021-05-08T10:18:37.000Z</time>
      </trkpt>
      <trkpt lat="49.14225" lon="1.35072">
        <ele>60</ele>
        <time>2021-05-08T10:18:38.000Z</time>
      </trkpt>
      <trkpt lat="49.14217" lon="1.35087">
        <ele>59.799999237061</ele>
        <time>2021-05-08T10:18:42.000Z</time>
      </trkpt>
      <trkpt lat="49.14213" lon="1.35095">
        <ele>59.599998474121</ele>
        <time>2021-05-08T10:18:44.000Z</time>
      </trkpt>
      <trkpt lat="49.1421" lon="1.35103">
        <ele>59.599998474121</ele>
        <time>2021-05-08T10:18:46.000Z</time>
      </trkpt>
      <trkpt lat="49.14202" lon="1.35114">
        <ele>60</ele>
        <time>2021-05-08T10:18:49.000Z</time>
      </trkpt>
      <trkpt lat="49.14196" lon="1.35125">
        <ele>60.400001525879</ele>
        <time>2021-05-08T10:18:52.000Z</time>
      </trkpt>
      <trkpt lat="49.14189" lon="1.35139">
        <ele>60.799999237061</ele>
        <time>2021-05-08T10:18:56.000Z</time>
      </trkpt>
      <trkpt lat="49.14186" lon="1.35142">
        <ele>61</ele>
        <time>2021-05-08T10:18:57.000Z</time>
      </trkpt>
      <trkpt lat="49.14179" lon="1.35152">
        <ele>61.400001525879</ele>
        <time>2021-05-08T10:19:00.000Z</time>
      </trkpt>
      <trkpt lat="49.14171" lon="1.35167">
        <ele>62</ele>
        <time>2021-05-08T10:19:04.000Z</time>
      </trkpt>
      <trkpt lat="49.1417" lon="1.35169">
        <ele>62.200000762939</ele>
        <time>2021-05-08T10:19:05.000Z</time>
      </trkpt>
      <trkpt lat="49.14168" lon="1.35172">
        <ele>62.400001525879</ele>
        <time>2021-05-08T10:19:06.000Z</time>
      </trkpt>
      <trkpt lat="49.14162" lon="1.35184">
        <ele>63</ele>
        <time>2021-05-08T10:19:09.000Z</time>
      </trkpt>
      <trkpt lat="49.14147" lon="1.35217">
        <ele>64.199996948242</ele>
        <time>2021-05-08T10:19:15.000Z</time>
      </trkpt>
      <trkpt lat="49.14138" lon="1.35238">
        <ele>65</ele>
        <time>2021-05-08T10:19:20.000Z</time>
      </trkpt>
      <trkpt lat="49.14135" lon="1.35248">
        <ele>65.199996948242</ele>
        <time>2021-05-08T10:19:22.000Z</time>
      </trkpt>
      <trkpt lat="49.14131" lon="1.35261">
        <ele>65.599998474121</ele>
        <time>2021-05-08T10:19:25.000Z</time>
      </trkpt>
      <trkpt lat="49.14129" lon="1.35271">
        <ele>66.199996948242</ele>
        <time>2021-05-08T10:19:27.000Z</time>
      </trkpt>
      <trkpt lat="49.14128" lon="1.35275">
        <ele>66.400001525879</ele>
        <time>2021-05-08T10:19:28.000Z</time>
      </trkpt>
      <trkpt lat="49.14127" lon="1.35279">
        <ele>66.599998474121</ele>
        <time>2021-05-08T10:19:29.000Z</time>
      </trkpt>
      <trkpt lat="49.14122" lon="1.35298">
        <ele>67.199996948242</ele>
        <time>2021-05-08T10:19:34.000Z</time>
      </trkpt>
      <trkpt lat="49.14121" lon="1.35301">
        <ele>67.400001525879</ele>
        <time>2021-05-08T10:19:35.000Z</time>
      </trkpt>
      <trkpt lat="49.14117" lon="1.35314">
        <ele>68</ele>
        <time>2021-05-08T10:19:39.000Z</time>
      </trkpt>
      <trkpt lat="49.14115" lon="1.35336">
        <ele>68.199996948242</ele>
        <time>2021-05-08T10:19:44.000Z</time>
      </trkpt>
      <trkpt lat="49.14113" lon="1.35349">
        <ele>68.400001525879</ele>
        <time>2021-05-08T10:19:47.000Z</time>
      </trkpt>
      <trkpt lat="49.14113" lon="1.35353">
        <ele>68.400001525879</ele>
        <time>2021-05-08T10:19:48.000Z</time>
      </trkpt>
      <trkpt lat="49.14112" lon="1.35357">
        <ele>68.599998474121</ele>
        <time>2021-05-08T10:19:49.000Z</time>
      </trkpt>
      <trkpt lat="49.14111" lon="1.35377">
        <ele>69.599998474121</ele>
        <time>2021-05-08T10:19:54.000Z</time>
      </trkpt>
      <trkpt lat="49.14111" lon="1.3538">
        <ele>69.800003051758</ele>
        <time>2021-05-08T10:19:55.000Z</time>
      </trkpt>
      <trkpt lat="49.14107" lon="1.35397">
        <ele>70.199996948242</ele>
        <time>2021-05-08T10:20:00.000Z</time>
      </trkpt>
      <trkpt lat="49.14105" lon="1.35408">
        <ele>70.800003051758</ele>
        <time>2021-05-08T10:20:03.000Z</time>
      </trkpt>
      <trkpt lat="49.14102" lon="1.3542">
        <ele>71</ele>
        <time>2021-05-08T10:20:06.000Z</time>
      </trkpt>
      <trkpt lat="49.14097" lon="1.3544">
        <ele>71.599998474121</ele>
        <time>2021-05-08T10:20:11.000Z</time>
      </trkpt>
      <trkpt lat="49.14097" lon="1.35445">
        <ele>71.599998474121</ele>
        <time>2021-05-08T10:20:12.000Z</time>
      </trkpt>
      <trkpt lat="49.14093" lon="1.35471">
        <ele>72.400001525879</ele>
        <time>2021-05-08T10:20:18.000Z</time>
      </trkpt>
      <trkpt lat="49.1409" lon="1.35478">
        <ele>72.800003051758</ele>
        <time>2021-05-08T10:20:20.000Z</time>
      </trkpt>
      <trkpt lat="49.14088" lon="1.35485">
        <ele>73.199996948242</ele>
        <time>2021-05-08T10:20:22.000Z</time>
      </trkpt>
      <trkpt lat="49.14084" lon="1.35504">
        <ele>73.800003051758</ele>
        <time>2021-05-08T10:20:27.000Z</time>
      </trkpt>
      <trkpt lat="49.14083" lon="1.35517">
        <ele>74.199996948242</ele>
        <time>2021-05-08T10:20:30.000Z</time>
      </trkpt>
      <trkpt lat="49.14083" lon="1.35526">
        <ele>74.400001525879</ele>
        <time>2021-05-08T10:20:32.000Z</time>
      </trkpt>
      <trkpt lat="49.14084" lon="1.35536">
        <ele>74.800003051758</ele>
        <time>2021-05-08T10:20:35.000Z</time>
      </trkpt>
      <trkpt lat="49.14083" lon="1.35539">
        <ele>74.800003051758</ele>
        <time>2021-05-08T10:20:36.000Z</time>
      </trkpt>
      <trkpt lat="49.14082" lon="1.35542">
        <ele>74.800003051758</ele>
        <time>2021-05-08T10:20:37.000Z</time>
      </trkpt>
      <trkpt lat="49.14081" lon="1.35546">
        <ele>75</ele>
        <time>2021-05-08T10:20:40.000Z</time>
      </trkpt>
      <trkpt lat="49.14081" lon="1.35562">
        <ele>76.599998474121</ele>
        <time>2021-05-08T10:21:04.000Z</time>
      </trkpt>
      <trkpt lat="49.14079" lon="1.35564">
        <ele>76.800003051758</ele>
        <time>2021-05-08T10:21:05.000Z</time>
      </trkpt>
      <trkpt lat="49.14074" lon="1.35574">
        <ele>76.800003051758</ele>
        <time>2021-05-08T10:21:09.000Z</time>
      </trkpt>
      <trkpt lat="49.14074" lon="1.35576">
        <ele>76.800003051758</ele>
        <time>2021-05-08T10:21:10.000Z</time>
      </trkpt>
      <trkpt lat="49.14071" lon="1.35587">
        <ele>76.800003051758</ele>
        <time>2021-05-08T10:21:14.000Z</time>
      </trkpt>
      <trkpt lat="49.1407" lon="1.35589">
        <ele>76.800003051758</ele>
        <time>2021-05-08T10:21:15.000Z</time>
      </trkpt>
      <trkpt lat="49.14069" lon="1.35597">
        <ele>77.199996948242</ele>
        <time>2021-05-08T10:21:19.000Z</time>
      </trkpt>
      <trkpt lat="49.14067" lon="1.35598">
        <ele>77.199996948242</ele>
        <time>2021-05-08T10:21:20.000Z</time>
      </trkpt>
      <trkpt lat="49.14066" lon="1.35599">
        <ele>77.599998474121</ele>
        <time>2021-05-08T10:21:21.000Z</time>
      </trkpt>
      <trkpt lat="49.14063" lon="1.356">
        <ele>78.199996948242</ele>
        <time>2021-05-08T10:21:23.000Z</time>
      </trkpt>
      <trkpt lat="49.14062" lon="1.35601">
        <ele>78.800003051758</ele>
        <time>2021-05-08T10:21:24.000Z</time>
      </trkpt>
      <trkpt lat="49.14061" lon="1.35605">
        <ele>79.599998474121</ele>
        <time>2021-05-08T10:21:26.000Z</time>
      </trkpt>
      <trkpt lat="49.1406" lon="1.35608">
        <ele>80</ele>
        <time>2021-05-08T10:21:27.000Z</time>
      </trkpt>
      <trkpt lat="49.14057" lon="1.35612">
        <ele>80.400001525879</ele>
        <time>2021-05-08T10:21:29.000Z</time>
      </trkpt>
      <trkpt lat="49.14055" lon="1.3562">
        <ele>81</ele>
        <time>2021-05-08T10:21:32.000Z</time>
      </trkpt>
      <trkpt lat="49.14053" lon="1.35622">
        <ele>81.199996948242</ele>
        <time>2021-05-08T10:21:33.000Z</time>
      </trkpt>
      <trkpt lat="49.14043" lon="1.35629">
        <ele>82.199996948242</ele>
        <time>2021-05-08T10:21:38.000Z</time>
      </trkpt>
      <trkpt lat="49.14033" lon="1.35634">
        <ele>82.599998474121</ele>
        <time>2021-05-08T10:21:42.000Z</time>
      </trkpt>
      <trkpt lat="49.14027" lon="1.35651">
        <ele>82.800003051758</ele>
        <time>2021-05-08T10:21:46.000Z</time>
      </trkpt>
      <trkpt lat="49.14024" lon="1.35667">
        <ele>83</ele>
        <time>2021-05-08T10:21:50.000Z</time>
      </trkpt>
      <trkpt lat="49.14021" lon="1.35676">
        <ele>83.199996948242</ele>
        <time>2021-05-08T10:21:53.000Z</time>
      </trkpt>
      <trkpt lat="49.14019" lon="1.35681">
        <ele>83</ele>
        <time>2021-05-08T10:21:54.000Z</time>
      </trkpt>
      <trkpt lat="49.14017" lon="1.35685">
        <ele>83</ele>
        <time>2021-05-08T10:21:55.000Z</time>
      </trkpt>
      <trkpt lat="49.14004" lon="1.35704">
        <ele>83.400001525879</ele>
        <time>2021-05-08T10:22:00.000Z</time>
      </trkpt>
      <trkpt lat="49.13993" lon="1.35721">
        <ele>83.599998474121</ele>
        <time>2021-05-08T10:22:05.000Z</time>
      </trkpt>
      <trkpt lat="49.13983" lon="1.35737">
        <ele>84.199996948242</ele>
        <time>2021-05-08T10:22:10.000Z</time>
      </trkpt>
      <trkpt lat="49.13982" lon="1.3574">
        <ele>84.400001525879</ele>
        <time>2021-05-08T10:22:11.000Z</time>
      </trkpt>
      <trkpt lat="49.13977" lon="1.35748">
        <ele>85.400001525879</ele>
        <time>2021-05-08T10:22:15.000Z</time>
      </trkpt>
      <trkpt lat="49.13975" lon="1.35751">
        <ele>85.800003051758</ele>
        <time>2021-05-08T10:22:16.000Z</time>
      </trkpt>
      <trkpt lat="49.13971" lon="1.3576">
        <ele>86.599998474121</ele>
        <time>2021-05-08T10:22:19.000Z</time>
      </trkpt>
      <trkpt lat="49.13968" lon="1.35766">
        <ele>87</ele>
        <time>2021-05-08T10:22:21.000Z</time>
      </trkpt>
      <trkpt lat="49.13964" lon="1.35772">
        <ele>87.400001525879</ele>
        <time>2021-05-08T10:22:23.000Z</time>
      </trkpt>
      <trkpt lat="49.13963" lon="1.35779">
        <ele>87.800003051758</ele>
        <time>2021-05-08T10:22:25.000Z</time>
      </trkpt>
      <trkpt lat="49.13962" lon="1.35783">
        <ele>87.800003051758</ele>
        <time>2021-05-08T10:22:26.000Z</time>
      </trkpt>
      <trkpt lat="49.13957" lon="1.35796">
        <ele>88.199996948242</ele>
        <time>2021-05-08T10:22:30.000Z</time>
      </trkpt>
      <trkpt lat="49.13955" lon="1.35804">
        <ele>88.400001525879</ele>
        <time>2021-05-08T10:22:32.000Z</time>
      </trkpt>
      <trkpt lat="49.13954" lon="1.35809">
        <ele>88.599998474121</ele>
        <time>2021-05-08T10:22:33.000Z</time>
      </trkpt>
      <trkpt lat="49.13949" lon="1.35818">
        <ele>88.599998474121</ele>
        <time>2021-05-08T10:22:36.000Z</time>
      </trkpt>
      <trkpt lat="49.13942" lon="1.35834">
        <ele>89</ele>
        <time>2021-05-08T10:22:41.000Z</time>
      </trkpt>
      <trkpt lat="49.13937" lon="1.35843">
        <ele>89.599998474121</ele>
        <time>2021-05-08T10:22:44.000Z</time>
      </trkpt>
      <trkpt lat="49.13936" lon="1.35845">
        <ele>89.800003051758</ele>
        <time>2021-05-08T10:22:45.000Z</time>
      </trkpt>
      <trkpt lat="49.1393" lon="1.35857">
        <ele>90.599998474121</ele>
        <time>2021-05-08T10:22:49.000Z</time>
      </trkpt>
      <trkpt lat="49.13929" lon="1.35861">
        <ele>90.800003051758</ele>
        <time>2021-05-08T10:22:50.000Z</time>
      </trkpt>
      <trkpt lat="49.13928" lon="1.35864">
        <ele>91</ele>
        <time>2021-05-08T10:22:51.000Z</time>
      </trkpt>
      <trkpt lat="49.13923" lon="1.35873">
        <ele>91.800003051758</ele>
        <time>2021-05-08T10:22:54.000Z</time>
      </trkpt>
      <trkpt lat="49.13919" lon="1.35881">
        <ele>92.400001525879</ele>
        <time>2021-05-08T10:22:56.000Z</time>
      </trkpt>
      <trkpt lat="49.13916" lon="1.35888">
        <ele>92.800003051758</ele>
        <time>2021-05-08T10:22:58.000Z</time>
      </trkpt>
      <trkpt lat="49.13909" lon="1.35903">
        <ele>93.599998474121</ele>
        <time>2021-05-08T10:23:02.000Z</time>
      </trkpt>
      <trkpt lat="49.13905" lon="1.35916">
        <ele>94</ele>
        <time>2021-05-08T10:23:05.000Z</time>
      </trkpt>
      <trkpt lat="49.139" lon="1.35931">
        <ele>94.199996948242</ele>
        <time>2021-05-08T10:23:08.000Z</time>
      </trkpt>
      <trkpt lat="49.13891" lon="1.35954">
        <ele>94.400001525879</ele>
        <time>2021-05-08T10:23:14.000Z</time>
      </trkpt>
      <trkpt lat="49.13889" lon="1.35957">
        <ele>95</ele>
        <time>2021-05-08T10:23:16.000Z</time>
      </trkpt>
      <trkpt lat="49.13889" lon="1.35964">
        <ele>95.800003051758</ele>
        <time>2021-05-08T10:23:19.000Z</time>
      </trkpt>
      <trkpt lat="49.13888" lon="1.3598">
        <ele>97.400001525879</ele>
        <time>2021-05-08T10:24:28.000Z</time>
      </trkpt>
      <trkpt lat="49.13886" lon="1.35988">
        <ele>97.599998474121</ele>
        <time>2021-05-08T10:24:32.000Z</time>
      </trkpt>
      <trkpt lat="49.13884" lon="1.35996">
        <ele>97.599998474121</ele>
        <time>2021-05-08T10:24:36.000Z</time>
      </trkpt>
      <trkpt lat="49.13883" lon="1.35998">
        <ele>97.800003051758</ele>
        <time>2021-05-08T10:24:37.000Z</time>
      </trkpt>
      <trkpt lat="49.13882" lon="1.36008">
        <ele>98.599998474121</ele>
        <time>2021-05-08T10:24:41.000Z</time>
      </trkpt>
      <trkpt lat="49.13886" lon="1.36015">
        <ele>99.400001525879</ele>
        <time>2021-05-08T10:24:45.000Z</time>
      </trkpt>
      <trkpt lat="49.13887" lon="1.36016">
        <ele>99.599998474121</ele>
        <time>2021-05-08T10:24:46.000Z</time>
      </trkpt>
      <trkpt lat="49.13893" lon="1.3602">
        <ele>100.19999694824</ele>
        <time>2021-05-08T10:24:50.000Z</time>
      </trkpt>
      <trkpt lat="49.13895" lon="1.3602">
        <ele>100.59999847412</ele>
        <time>2021-05-08T10:24:51.000Z</time>
      </trkpt>
      <trkpt lat="49.13896" lon="1.3602">
        <ele>100.59999847412</ele>
        <time>2021-05-08T10:24:52.000Z</time>
      </trkpt>
      <trkpt lat="49.13902" lon="1.36025">
        <ele>101.80000305176</ele>
        <time>2021-05-08T10:24:56.000Z</time>
      </trkpt>
      <trkpt lat="49.13907" lon="1.36029">
        <ele>102.80000305176</ele>
        <time>2021-05-08T10:25:00.000Z</time>
      </trkpt>
      <trkpt lat="49.13909" lon="1.36031">
        <ele>103.40000152588</ele>
        <time>2021-05-08T10:25:02.000Z</time>
      </trkpt>
      <trkpt lat="49.13913" lon="1.36034">
        <ele>104</ele>
        <time>2021-05-08T10:25:05.000Z</time>
      </trkpt>
      <trkpt lat="49.13918" lon="1.36039">
        <ele>105</ele>
        <time>2021-05-08T10:25:08.000Z</time>
      </trkpt>
      <trkpt lat="49.1392" lon="1.3604">
        <ele>105.19999694824</ele>
        <time>2021-05-08T10:25:09.000Z</time>
      </trkpt>
      <trkpt lat="49.13926" lon="1.36047">
        <ele>106.40000152588</ele>
        <time>2021-05-08T10:25:13.000Z</time>
      </trkpt>
      <trkpt lat="49.1393" lon="1.36051">
        <ele>107.59999847412</ele>
        <time>2021-05-08T10:25:16.000Z</time>
      </trkpt>
      <trkpt lat="49.13937" lon="1.36056">
        <ele>108.80000305176</ele>
        <time>2021-05-08T10:25:20.000Z</time>
      </trkpt>
      <trkpt lat="49.1394" lon="1.36058">
        <ele>109.19999694824</ele>
        <time>2021-05-08T10:25:22.000Z</time>
      </trkpt>
      <trkpt lat="49.13945" lon="1.3606">
        <ele>110</ele>
        <time>2021-05-08T10:25:25.000Z</time>
      </trkpt>
      <trkpt lat="49.13949" lon="1.36062">
        <ele>110.59999847412</ele>
        <time>2021-05-08T10:25:27.000Z</time>
      </trkpt>
      <trkpt lat="49.13952" lon="1.36064">
        <ele>111</ele>
        <time>2021-05-08T10:25:29.000Z</time>
      </trkpt>
      <trkpt lat="49.13955" lon="1.36067">
        <ele>111.40000152588</ele>
        <time>2021-05-08T10:25:31.000Z</time>
      </trkpt>
      <trkpt lat="49.13959" lon="1.36067">
        <ele>112</ele>
        <time>2021-05-08T10:25:34.000Z</time>
      </trkpt>
      <trkpt lat="49.1396" lon="1.36066">
        <ele>112.19999694824</ele>
        <time>2021-05-08T10:25:35.000Z</time>
      </trkpt>
      <trkpt lat="49.13961" lon="1.36066">
        <ele>112.40000152588</ele>
        <time>2021-05-08T10:25:36.000Z</time>
      </trkpt>
      <trkpt lat="49.13962" lon="1.36066">
        <ele>112.80000305176</ele>
        <time>2021-05-08T10:25:38.000Z</time>
      </trkpt>
      <trkpt lat="49.13969" lon="1.36068">
        <ele>114.19999694824</ele>
        <time>2021-05-08T10:26:03.000Z</time>
      </trkpt>
      <trkpt lat="49.13971" lon="1.36069">
        <ele>114.19999694824</ele>
        <time>2021-05-08T10:26:05.000Z</time>
      </trkpt>
      <trkpt lat="49.13972" lon="1.36069">
        <ele>114.19999694824</ele>
        <time>2021-05-08T10:26:06.000Z</time>
      </trkpt>
      <trkpt lat="49.13981" lon="1.36069">
        <ele>114.19999694824</ele>
        <time>2021-05-08T10:26:11.000Z</time>
      </trkpt>
      <trkpt lat="49.13995" lon="1.36066">
        <ele>114.40000152588</ele>
        <time>2021-05-08T10:26:17.000Z</time>
      </trkpt>
      <trkpt lat="49.14009" lon="1.36067">
        <ele>115.40000152588</ele>
        <time>2021-05-08T10:26:23.000Z</time>
      </trkpt>
      <trkpt lat="49.14011" lon="1.36067">
        <ele>115.40000152588</ele>
        <time>2021-05-08T10:26:24.000Z</time>
      </trkpt>
      <trkpt lat="49.14028" lon="1.36065">
        <ele>116.19999694824</ele>
        <time>2021-05-08T10:26:30.000Z</time>
      </trkpt>
      <trkpt lat="49.14031" lon="1.36065">
        <ele>116.40000152588</ele>
        <time>2021-05-08T10:26:31.000Z</time>
      </trkpt>
      <trkpt lat="49.14042" lon="1.36067">
        <ele>117.19999694824</ele>
        <time>2021-05-08T10:26:35.000Z</time>
      </trkpt>
      <trkpt lat="49.14047" lon="1.36068">
        <ele>117.40000152588</ele>
        <time>2021-05-08T10:26:37.000Z</time>
      </trkpt>
      <trkpt lat="49.1406" lon="1.36071">
        <ele>118</ele>
        <time>2021-05-08T10:26:41.000Z</time>
      </trkpt>
      <trkpt lat="49.14067" lon="1.36073">
        <ele>118.59999847412</ele>
        <time>2021-05-08T10:26:43.000Z</time>
      </trkpt>
      <trkpt lat="49.14073" lon="1.36076">
        <ele>119.19999694824</ele>
        <time>2021-05-08T10:26:45.000Z</time>
      </trkpt>
      <trkpt lat="49.14084" lon="1.3608">
        <ele>119.59999847412</ele>
        <time>2021-05-08T10:26:48.000Z</time>
      </trkpt>
      <trkpt lat="49.14093" lon="1.36085">
        <ele>120.59999847412</ele>
        <time>2021-05-08T10:26:51.000Z</time>
      </trkpt>
      <trkpt lat="49.14096" lon="1.36086">
        <ele>121</ele>
        <time>2021-05-08T10:26:52.000Z</time>
      </trkpt>
      <trkpt lat="49.141" lon="1.36088">
        <ele>122</ele>
        <time>2021-05-08T10:26:54.000Z</time>
      </trkpt>
      <trkpt lat="49.14104" lon="1.36089">
        <ele>123.19999694824</ele>
        <time>2021-05-08T10:26:57.000Z</time>
      </trkpt>
      <trkpt lat="49.14106" lon="1.36089">
        <ele>123.59999847412</ele>
        <time>2021-05-08T10:26:58.000Z</time>
      </trkpt>
      <trkpt lat="49.14115" lon="1.36088">
        <ele>125.19999694824</ele>
        <time>2021-05-08T10:27:36.000Z</time>
      </trkpt>
      <trkpt lat="49.14119" lon="1.36084">
        <ele>125.19999694824</ele>
        <time>2021-05-08T10:27:39.000Z</time>
      </trkpt>
      <trkpt lat="49.14129" lon="1.36074">
        <ele>125.19999694824</ele>
        <time>2021-05-08T10:27:43.000Z</time>
      </trkpt>
      <trkpt lat="49.1414" lon="1.36058">
        <ele>125.19999694824</ele>
        <time>2021-05-08T10:27:47.000Z</time>
      </trkpt>
      <trkpt lat="49.14157" lon="1.36029">
        <ele>124.59999847412</ele>
        <time>2021-05-08T10:27:51.000Z</time>
      </trkpt>
      <trkpt lat="49.14161" lon="1.3602">
        <ele>124.40000152588</ele>
        <time>2021-05-08T10:27:52.000Z</time>
      </trkpt>
      <trkpt lat="49.14172" lon="1.35989">
        <ele>123.80000305176</ele>
        <time>2021-05-08T10:27:55.000Z</time>
      </trkpt>
      <trkpt lat="49.1418" lon="1.35971">
        <ele>123</ele>
        <time>2021-05-08T10:27:57.000Z</time>
      </trkpt>
      <trkpt lat="49.14182" lon="1.35962">
        <ele>122</ele>
        <time>2021-05-08T10:27:58.000Z</time>
      </trkpt>
      <trkpt lat="49.14184" lon="1.35953">
        <ele>121.19999694824</ele>
        <time>2021-05-08T10:27:59.000Z</time>
      </trkpt>
      <trkpt lat="49.14187" lon="1.35944">
        <ele>120.59999847412</ele>
        <time>2021-05-08T10:28:00.000Z</time>
      </trkpt>
      <trkpt lat="49.1419" lon="1.35934">
        <ele>120</ele>
        <time>2021-05-08T10:28:01.000Z</time>
      </trkpt>
      <trkpt lat="49.14193" lon="1.35924">
        <ele>119.59999847412</ele>
        <time>2021-05-08T10:28:02.000Z</time>
      </trkpt>
      <trkpt lat="49.14204" lon="1.35894">
        <ele>118.40000152588</ele>
        <time>2021-05-08T10:28:05.000Z</time>
      </trkpt>
      <trkpt lat="49.14226" lon="1.35839">
        <ele>117.19999694824</ele>
        <time>2021-05-08T10:28:10.000Z</time>
      </trkpt>
      <trkpt lat="49.14251" lon="1.35782">
        <ele>116</ele>
        <time>2021-05-08T10:28:15.000Z</time>
      </trkpt>
      <trkpt lat="49.14263" lon="1.35757">
        <ele>115.19999694824</ele>
        <time>2021-05-08T10:28:17.000Z</time>
      </trkpt>
      <trkpt lat="49.14267" lon="1.35744">
        <ele>115</ele>
        <time>2021-05-08T10:28:18.000Z</time>
      </trkpt>
      <trkpt lat="49.14271" lon="1.3573">
        <ele>114.80000305176</ele>
        <time>2021-05-08T10:28:19.000Z</time>
      </trkpt>
      <trkpt lat="49.14285" lon="1.35692">
        <ele>113.40000152588</ele>
        <time>2021-05-08T10:28:22.000Z</time>
      </trkpt>
      <trkpt lat="49.14289" lon="1.35681">
        <ele>112.80000305176</ele>
        <time>2021-05-08T10:28:23.000Z</time>
      </trkpt>
      <trkpt lat="49.14292" lon="1.35672">
        <ele>112</ele>
        <time>2021-05-08T10:28:24.000Z</time>
      </trkpt>
      <trkpt lat="49.14295" lon="1.35665">
        <ele>110.59999847412</ele>
        <time>2021-05-08T10:28:25.000Z</time>
      </trkpt>
      <trkpt lat="49.14297" lon="1.35661">
        <ele>109.59999847412</ele>
        <time>2021-05-08T10:28:26.000Z</time>
      </trkpt>
      <trkpt lat="49.14304" lon="1.3566">
        <ele>108.59999847412</ele>
        <time>2021-05-08T10:28:29.000Z</time>
      </trkpt>
      <trkpt lat="49.14307" lon="1.35662">
        <ele>108.59999847412</ele>
        <time>2021-05-08T10:28:30.000Z</time>
      </trkpt>
      <trkpt lat="49.14316" lon="1.35666">
        <ele>108.40000152588</ele>
        <time>2021-05-08T10:28:34.000Z</time>
      </trkpt>
      <trkpt lat="49.14329" lon="1.3567">
        <ele>108</ele>
        <time>2021-05-08T10:28:40.000Z</time>
      </trkpt>
      <trkpt lat="49.14331" lon="1.35671">
        <ele>108</ele>
        <time>2021-05-08T10:28:42.000Z</time>
      </trkpt>
      <trkpt lat="49.14337" lon="1.35678">
        <ele>108</ele>
        <time>2021-05-08T10:28:45.000Z</time>
      </trkpt>
      <trkpt lat="49.14356" lon="1.35692">
        <ele>107.59999847412</ele>
        <time>2021-05-08T10:28:50.000Z</time>
      </trkpt>
      <trkpt lat="49.14377" lon="1.35706">
        <ele>107.40000152588</ele>
        <time>2021-05-08T10:28:54.000Z</time>
      </trkpt>
      <trkpt lat="49.14389" lon="1.35715">
        <ele>107</ele>
        <time>2021-05-08T10:28:56.000Z</time>
      </trkpt>
      <trkpt lat="49.144" lon="1.35722">
        <ele>106.40000152588</ele>
        <time>2021-05-08T10:28:58.000Z</time>
      </trkpt>
      <trkpt lat="49.14404" lon="1.35724">
        <ele>106.19999694824</ele>
        <time>2021-05-08T10:28:59.000Z</time>
      </trkpt>
      <trkpt lat="49.14417" lon="1.35726">
        <ele>105.40000152588</ele>
        <time>2021-05-08T10:29:02.000Z</time>
      </trkpt>
      <trkpt lat="49.14422" lon="1.35727">
        <ele>104.80000305176</ele>
        <time>2021-05-08T10:29:03.000Z</time>
      </trkpt>
      <trkpt lat="49.14433" lon="1.35731">
        <ele>103.40000152588</ele>
        <time>2021-05-08T10:29:05.000Z</time>
      </trkpt>
      <trkpt lat="49.14439" lon="1.35733">
        <ele>102.59999847412</ele>
        <time>2021-05-08T10:29:06.000Z</time>
      </trkpt>
      <trkpt lat="49.14445" lon="1.35737">
        <ele>101.80000305176</ele>
        <time>2021-05-08T10:29:07.000Z</time>
      </trkpt>
      <trkpt lat="49.14459" lon="1.35742">
        <ele>100.80000305176</ele>
        <time>2021-05-08T10:29:09.000Z</time>
      </trkpt>
      <trkpt lat="49.14473" lon="1.35744">
        <ele>99.400001525879</ele>
        <time>2021-05-08T10:29:11.000Z</time>
      </trkpt>
      <trkpt lat="49.14481" lon="1.35743">
        <ele>98.599998474121</ele>
        <time>2021-05-08T10:29:12.000Z</time>
      </trkpt>
      <trkpt lat="49.14489" lon="1.35742">
        <ele>97.599998474121</ele>
        <time>2021-05-08T10:29:13.000Z</time>
      </trkpt>
      <trkpt lat="49.14496" lon="1.3574">
        <ele>96.400001525879</ele>
        <time>2021-05-08T10:29:14.000Z</time>
      </trkpt>
      <trkpt lat="49.14504" lon="1.35737">
        <ele>95</ele>
        <time>2021-05-08T10:29:15.000Z</time>
      </trkpt>
      <trkpt lat="49.14511" lon="1.35736">
        <ele>93.800003051758</ele>
        <time>2021-05-08T10:29:16.000Z</time>
      </trkpt>
      <trkpt lat="49.14518" lon="1.35736">
        <ele>92.599998474121</ele>
        <time>2021-05-08T10:29:17.000Z</time>
      </trkpt>
      <trkpt lat="49.14526" lon="1.3574">
        <ele>91.400001525879</ele>
        <time>2021-05-08T10:29:18.000Z</time>
      </trkpt>
      <trkpt lat="49.14533" lon="1.35745">
        <ele>90</ele>
        <time>2021-05-08T10:29:19.000Z</time>
      </trkpt>
      <trkpt lat="49.14539" lon="1.3575">
        <ele>88.400001525879</ele>
        <time>2021-05-08T10:29:20.000Z</time>
      </trkpt>
      <trkpt lat="49.14545" lon="1.35753">
        <ele>87</ele>
        <time>2021-05-08T10:29:21.000Z</time>
      </trkpt>
      <trkpt lat="49.14549" lon="1.35754">
        <ele>84.599998474121</ele>
        <time>2021-05-08T10:29:22.000Z</time>
      </trkpt>
      <trkpt lat="49.14554" lon="1.35751">
        <ele>83.199996948242</ele>
        <time>2021-05-08T10:29:23.000Z</time>
      </trkpt>
      <trkpt lat="49.14556" lon="1.35743">
        <ele>81.800003051758</ele>
        <time>2021-05-08T10:29:24.000Z</time>
      </trkpt>
      <trkpt lat="49.14558" lon="1.35734">
        <ele>80.199996948242</ele>
        <time>2021-05-08T10:29:25.000Z</time>
      </trkpt>
      <trkpt lat="49.14561" lon="1.35726">
        <ele>78.599998474121</ele>
        <time>2021-05-08T10:29:26.000Z</time>
      </trkpt>
      <trkpt lat="49.14566" lon="1.3572">
        <ele>76.599998474121</ele>
        <time>2021-05-08T10:29:27.000Z</time>
      </trkpt>
      <trkpt lat="49.14572" lon="1.35719">
        <ele>75.199996948242</ele>
        <time>2021-05-08T10:29:28.000Z</time>
      </trkpt>
      <trkpt lat="49.14576" lon="1.35723">
        <ele>74</ele>
        <time>2021-05-08T10:29:29.000Z</time>
      </trkpt>
      <trkpt lat="49.14578" lon="1.35729">
        <ele>72.800003051758</ele>
        <time>2021-05-08T10:29:30.000Z</time>
      </trkpt>
      <trkpt lat="49.14581" lon="1.35739">
        <ele>71.800003051758</ele>
        <time>2021-05-08T10:29:31.000Z</time>
      </trkpt>
      <trkpt lat="49.14585" lon="1.35757">
        <ele>70</ele>
        <time>2021-05-08T10:29:33.000Z</time>
      </trkpt>
      <trkpt lat="49.14588" lon="1.35781">
        <ele>68.199996948242</ele>
        <time>2021-05-08T10:29:35.000Z</time>
      </trkpt>
      <trkpt lat="49.14589" lon="1.35801">
        <ele>66.800003051758</ele>
        <time>2021-05-08T10:29:37.000Z</time>
      </trkpt>
      <trkpt lat="49.1459" lon="1.35811">
        <ele>66</ele>
        <time>2021-05-08T10:29:38.000Z</time>
      </trkpt>
      <trkpt lat="49.14593" lon="1.3582">
        <ele>65.400001525879</ele>
        <time>2021-05-08T10:29:39.000Z</time>
      </trkpt>
      <trkpt lat="49.14599" lon="1.35837">
        <ele>63.599998474121</ele>
        <time>2021-05-08T10:29:41.000Z</time>
      </trkpt>
      <trkpt lat="49.14608" lon="1.35857">
        <ele>61.200000762939</ele>
        <time>2021-05-08T10:29:43.000Z</time>
      </trkpt>
      <trkpt lat="49.1461" lon="1.35866">
        <ele>60</ele>
        <time>2021-05-08T10:29:44.000Z</time>
      </trkpt>
      <trkpt lat="49.1461" lon="1.35873">
        <ele>59.200000762939</ele>
        <time>2021-05-08T10:29:45.000Z</time>
      </trkpt>
      <trkpt lat="49.1461" lon="1.35878">
        <ele>58.200000762939</ele>
        <time>2021-05-08T10:29:46.000Z</time>
      </trkpt>
      <trkpt lat="49.14614" lon="1.35885">
        <ele>56.599998474121</ele>
        <time>2021-05-08T10:29:48.000Z</time>
      </trkpt>
      <trkpt lat="49.14616" lon="1.35886">
        <ele>55.799999237061</ele>
        <time>2021-05-08T10:29:49.000Z</time>
      </trkpt>
      <trkpt lat="49.14618" lon="1.35887">
        <ele>53.799999237061</ele>
        <time>2021-05-08T10:29:50.000Z</time>
      </trkpt>
      <trkpt lat="49.14626" lon="1.35889">
        <ele>52.400001525879</ele>
        <time>2021-05-08T10:29:52.000Z</time>
      </trkpt>
      <trkpt lat="49.14631" lon="1.35889">
        <ele>52</ele>
        <time>2021-05-08T10:29:53.000Z</time>
      </trkpt>
      <trkpt lat="49.14641" lon="1.35884">
        <ele>51.400001525879</ele>
        <time>2021-05-08T10:29:55.000Z</time>
      </trkpt>
      <trkpt lat="49.14649" lon="1.35868">
        <ele>51.200000762939</ele>
        <time>2021-05-08T10:29:57.000Z</time>
      </trkpt>
      <trkpt lat="49.14653" lon="1.35859">
        <ele>51</ele>
        <time>2021-05-08T10:29:58.000Z</time>
      </trkpt>
      <trkpt lat="49.14664" lon="1.35832">
        <ele>49.799999237061</ele>
        <time>2021-05-08T10:30:01.000Z</time>
      </trkpt>
      <trkpt lat="49.1467" lon="1.35825">
        <ele>49.200000762939</ele>
        <time>2021-05-08T10:30:02.000Z</time>
      </trkpt>
      <trkpt lat="49.14677" lon="1.35821">
        <ele>48.400001525879</ele>
        <time>2021-05-08T10:30:03.000Z</time>
      </trkpt>
      <trkpt lat="49.14693" lon="1.35819">
        <ele>46.599998474121</ele>
        <time>2021-05-08T10:30:05.000Z</time>
      </trkpt>
      <trkpt lat="49.14701" lon="1.35819">
        <ele>45.799999237061</ele>
        <time>2021-05-08T10:30:06.000Z</time>
      </trkpt>
      <trkpt lat="49.14709" lon="1.35819">
        <ele>45.200000762939</ele>
        <time>2021-05-08T10:30:07.000Z</time>
      </trkpt>
      <trkpt lat="49.14726" lon="1.35823">
        <ele>44</ele>
        <time>2021-05-08T10:30:09.000Z</time>
      </trkpt>
      <trkpt lat="49.14735" lon="1.35825">
        <ele>43.599998474121</ele>
        <time>2021-05-08T10:30:10.000Z</time>
      </trkpt>
      <trkpt lat="49.14744" lon="1.35827">
        <ele>43</ele>
        <time>2021-05-08T10:30:11.000Z</time>
      </trkpt>
      <trkpt lat="49.14752" lon="1.35832">
        <ele>42.599998474121</ele>
        <time>2021-05-08T10:30:12.000Z</time>
      </trkpt>
      <trkpt lat="49.14758" lon="1.35837">
        <ele>42</ele>
        <time>2021-05-08T10:30:13.000Z</time>
      </trkpt>
      <trkpt lat="49.14763" lon="1.35843">
        <ele>41.400001525879</ele>
        <time>2021-05-08T10:30:14.000Z</time>
      </trkpt>
      <trkpt lat="49.14771" lon="1.35847">
        <ele>39.599998474121</ele>
        <time>2021-05-08T10:30:16.000Z</time>
      </trkpt>
      <trkpt lat="49.14779" lon="1.35841">
        <ele>38.200000762939</ele>
        <time>2021-05-08T10:30:18.000Z</time>
      </trkpt>
      <trkpt lat="49.14783" lon="1.35836">
        <ele>37</ele>
        <time>2021-05-08T10:30:19.000Z</time>
      </trkpt>
    </trkseg>
  </trk>
</gpx>